<?xml version="1.0" encoding="UTF-8" standalone="no" ?>
<gpx xmlns="http://www.topografix.com/GPX/1/1" xmlns:xsi="http://www.w3.org/2001/XMLSchema-instance" xsi:schemaLocation="http://www.topografix.com/GPX/1/1 http://www.topografix.com/GPX/1/1/gpx.xsd" version="1.1" creator="VisuGPX - https://www.visugpx.com">
  <metadata>
    <name>sortie GR Monts d\'or et vallons de Couzon</name>
    <desc><![CDATA[Fait le janvier 2013, avec une douzaine de GR]]></desc>
  </metadata>
  <trk>
    <name><![CDATA[2013-01-06T08:06:42Z]]></name>
    <trkseg>
      <trkpt lat="45.84542" lon="4.83127">
        <ele>170</ele>
        <time>2013-01-06T08:06:42Z</time>
      </trkpt>
      <trkpt lat="45.8454" lon="4.83124">
        <ele>171</ele>
        <time>2013-01-06T08:06:45Z</time>
      </trkpt>
      <trkpt lat="45.8454" lon="4.83124">
        <ele>171</ele>
        <time>2013-01-06T08:06:46Z</time>
      </trkpt>
      <trkpt lat="45.84537" lon="4.83113">
        <ele>171</ele>
        <time>2013-01-06T08:06:51Z</time>
      </trkpt>
      <trkpt lat="45.84536" lon="4.83104">
        <ele>171</ele>
        <time>2013-01-06T08:06:54Z</time>
      </trkpt>
      <trkpt lat="45.84534" lon="4.83098">
        <ele>171</ele>
        <time>2013-01-06T08:06:56Z</time>
      </trkpt>
      <trkpt lat="45.84526" lon="4.8308">
        <ele>172</ele>
        <time>2013-01-06T08:07:02Z</time>
      </trkpt>
      <trkpt lat="45.84527" lon="4.83079">
        <ele>172</ele>
        <time>2013-01-06T08:07:03Z</time>
      </trkpt>
      <trkpt lat="45.84528" lon="4.83061">
        <ele>172</ele>
        <time>2013-01-06T08:07:10Z</time>
      </trkpt>
      <trkpt lat="45.84528" lon="4.83053">
        <ele>172</ele>
        <time>2013-01-06T08:07:13Z</time>
      </trkpt>
      <trkpt lat="45.84527" lon="4.83044">
        <ele>172</ele>
        <time>2013-01-06T08:07:16Z</time>
      </trkpt>
      <trkpt lat="45.84521" lon="4.83028">
        <ele>173</ele>
        <time>2013-01-06T08:07:22Z</time>
      </trkpt>
      <trkpt lat="45.84519" lon="4.83024">
        <ele>173</ele>
        <time>2013-01-06T08:07:23Z</time>
      </trkpt>
      <trkpt lat="45.84515" lon="4.83004">
        <ele>174</ele>
        <time>2013-01-06T08:07:30Z</time>
      </trkpt>
      <trkpt lat="45.84515" lon="4.83003">
        <ele>174</ele>
        <time>2013-01-06T08:07:31Z</time>
      </trkpt>
      <trkpt lat="45.84517" lon="4.82995">
        <ele>175</ele>
        <time>2013-01-06T08:07:35Z</time>
      </trkpt>
      <trkpt lat="45.84517" lon="4.82994">
        <ele>176</ele>
        <time>2013-01-06T08:07:36Z</time>
      </trkpt>
      <trkpt lat="45.84518" lon="4.82984">
        <ele>176</ele>
        <time>2013-01-06T08:07:41Z</time>
      </trkpt>
      <trkpt lat="45.84523" lon="4.8298">
        <ele>176</ele>
        <time>2013-01-06T08:07:44Z</time>
      </trkpt>
      <trkpt lat="45.84522" lon="4.82973">
        <ele>176</ele>
        <time>2013-01-06T08:07:46Z</time>
      </trkpt>
      <trkpt lat="45.84521" lon="4.82954">
        <ele>177</ele>
        <time>2013-01-06T08:07:53Z</time>
      </trkpt>
      <trkpt lat="45.8452" lon="4.8295">
        <ele>177</ele>
        <time>2013-01-06T08:07:54Z</time>
      </trkpt>
      <trkpt lat="45.84517" lon="4.82932">
        <ele>178</ele>
        <time>2013-01-06T08:08:00Z</time>
      </trkpt>
      <trkpt lat="45.84513" lon="4.8293">
        <ele>178</ele>
        <time>2013-01-06T08:08:01Z</time>
      </trkpt>
      <trkpt lat="45.845" lon="4.82928">
        <ele>179</ele>
        <time>2013-01-06T08:08:05Z</time>
      </trkpt>
      <trkpt lat="45.84494" lon="4.82926">
        <ele>179</ele>
        <time>2013-01-06T08:08:08Z</time>
      </trkpt>
      <trkpt lat="45.84488" lon="4.82919">
        <ele>179</ele>
        <time>2013-01-06T08:08:11Z</time>
      </trkpt>
      <trkpt lat="45.84482" lon="4.82902">
        <ele>180</ele>
        <time>2013-01-06T08:08:15Z</time>
      </trkpt>
      <trkpt lat="45.84482" lon="4.82902">
        <ele>180</ele>
        <time>2013-01-06T08:08:16Z</time>
      </trkpt>
      <trkpt lat="45.84477" lon="4.82879">
        <ele>181</ele>
        <time>2013-01-06T08:08:23Z</time>
      </trkpt>
      <trkpt lat="45.84476" lon="4.82876">
        <ele>181</ele>
        <time>2013-01-06T08:08:24Z</time>
      </trkpt>
      <trkpt lat="45.84466" lon="4.82859">
        <ele>181</ele>
        <time>2013-01-06T08:08:30Z</time>
      </trkpt>
      <trkpt lat="45.84455" lon="4.82839">
        <ele>181</ele>
        <time>2013-01-06T08:08:35Z</time>
      </trkpt>
      <trkpt lat="45.84453" lon="4.82836">
        <ele>181</ele>
        <time>2013-01-06T08:08:36Z</time>
      </trkpt>
      <trkpt lat="45.84446" lon="4.8282">
        <ele>184</ele>
        <time>2013-01-06T08:08:40Z</time>
      </trkpt>
      <trkpt lat="45.84442" lon="4.82812">
        <ele>184</ele>
        <time>2013-01-06T08:08:43Z</time>
      </trkpt>
      <trkpt lat="45.8444" lon="4.82811">
        <ele>184</ele>
        <time>2013-01-06T08:08:44Z</time>
      </trkpt>
      <trkpt lat="45.84438" lon="4.82811">
        <ele>184</ele>
        <time>2013-01-06T08:08:45Z</time>
      </trkpt>
      <trkpt lat="45.84429" lon="4.82807">
        <ele>184</ele>
        <time>2013-01-06T08:08:50Z</time>
      </trkpt>
      <trkpt lat="45.84424" lon="4.82806">
        <ele>184</ele>
        <time>2013-01-06T08:08:52Z</time>
      </trkpt>
      <trkpt lat="45.84415" lon="4.82802">
        <ele>182</ele>
        <time>2013-01-06T08:08:56Z</time>
      </trkpt>
      <trkpt lat="45.84407" lon="4.828">
        <ele>182</ele>
        <time>2013-01-06T08:08:59Z</time>
      </trkpt>
      <trkpt lat="45.84404" lon="4.82799">
        <ele>182</ele>
        <time>2013-01-06T08:09:00Z</time>
      </trkpt>
      <trkpt lat="45.84388" lon="4.82789">
        <ele>183</ele>
        <time>2013-01-06T08:09:07Z</time>
      </trkpt>
      <trkpt lat="45.84368" lon="4.82789">
        <ele>182</ele>
        <time>2013-01-06T08:09:14Z</time>
      </trkpt>
      <trkpt lat="45.84365" lon="4.82789">
        <ele>182</ele>
        <time>2013-01-06T08:09:15Z</time>
      </trkpt>
      <trkpt lat="45.84352" lon="4.82787">
        <ele>182</ele>
        <time>2013-01-06T08:09:20Z</time>
      </trkpt>
      <trkpt lat="45.8435" lon="4.82786">
        <ele>182</ele>
        <time>2013-01-06T08:09:21Z</time>
      </trkpt>
      <trkpt lat="45.84334" lon="4.82784">
        <ele>182</ele>
        <time>2013-01-06T08:09:27Z</time>
      </trkpt>
      <trkpt lat="45.84332" lon="4.82784">
        <ele>181</ele>
        <time>2013-01-06T08:09:28Z</time>
      </trkpt>
      <trkpt lat="45.84314" lon="4.82784">
        <ele>181</ele>
        <time>2013-01-06T08:09:35Z</time>
      </trkpt>
      <trkpt lat="45.84312" lon="4.82784">
        <ele>181</ele>
        <time>2013-01-06T08:09:36Z</time>
      </trkpt>
      <trkpt lat="45.84295" lon="4.82785">
        <ele>180</ele>
        <time>2013-01-06T08:09:42Z</time>
      </trkpt>
      <trkpt lat="45.84292" lon="4.82785">
        <ele>180</ele>
        <time>2013-01-06T08:09:43Z</time>
      </trkpt>
      <trkpt lat="45.84281" lon="4.82789">
        <ele>180</ele>
        <time>2013-01-06T08:09:49Z</time>
      </trkpt>
      <trkpt lat="45.84273" lon="4.82789">
        <ele>180</ele>
        <time>2013-01-06T08:09:52Z</time>
      </trkpt>
      <trkpt lat="45.84262" lon="4.82789">
        <ele>180</ele>
        <time>2013-01-06T08:09:56Z</time>
      </trkpt>
      <trkpt lat="45.84253" lon="4.82789">
        <ele>180</ele>
        <time>2013-01-06T08:10:00Z</time>
      </trkpt>
      <trkpt lat="45.84248" lon="4.8279">
        <ele>181</ele>
        <time>2013-01-06T08:10:02Z</time>
      </trkpt>
      <trkpt lat="45.84234" lon="4.82792">
        <ele>181</ele>
        <time>2013-01-06T08:10:07Z</time>
      </trkpt>
      <trkpt lat="45.84232" lon="4.82792">
        <ele>181</ele>
        <time>2013-01-06T08:10:08Z</time>
      </trkpt>
      <trkpt lat="45.84224" lon="4.82791">
        <ele>181</ele>
        <time>2013-01-06T08:10:12Z</time>
      </trkpt>
      <trkpt lat="45.84223" lon="4.8279">
        <ele>181</ele>
        <time>2013-01-06T08:10:13Z</time>
      </trkpt>
      <trkpt lat="45.84222" lon="4.82779">
        <ele>181</ele>
        <time>2013-01-06T08:10:17Z</time>
      </trkpt>
      <trkpt lat="45.8422" lon="4.82774">
        <ele>182</ele>
        <time>2013-01-06T08:10:19Z</time>
      </trkpt>
      <trkpt lat="45.8422" lon="4.82757">
        <ele>182</ele>
        <time>2013-01-06T08:10:25Z</time>
      </trkpt>
      <trkpt lat="45.8422" lon="4.82752">
        <ele>182</ele>
        <time>2013-01-06T08:10:28Z</time>
      </trkpt>
      <trkpt lat="45.8422" lon="4.82745">
        <ele>188</ele>
        <time>2013-01-06T08:10:31Z</time>
      </trkpt>
      <trkpt lat="45.84217" lon="4.82731">
        <ele>189</ele>
        <time>2013-01-06T08:10:37Z</time>
      </trkpt>
      <trkpt lat="45.84217" lon="4.82727">
        <ele>189</ele>
        <time>2013-01-06T08:10:39Z</time>
      </trkpt>
      <trkpt lat="45.84217" lon="4.82723">
        <ele>189</ele>
        <time>2013-01-06T08:10:41Z</time>
      </trkpt>
      <trkpt lat="45.84217" lon="4.8272">
        <ele>189</ele>
        <time>2013-01-06T08:10:42Z</time>
      </trkpt>
      <trkpt lat="45.84215" lon="4.82708">
        <ele>190</ele>
        <time>2013-01-06T08:10:48Z</time>
      </trkpt>
      <trkpt lat="45.84216" lon="4.827">
        <ele>191</ele>
        <time>2013-01-06T08:10:52Z</time>
      </trkpt>
      <trkpt lat="45.84216" lon="4.82699">
        <ele>191</ele>
        <time>2013-01-06T08:10:53Z</time>
      </trkpt>
      <trkpt lat="45.84217" lon="4.82697">
        <ele>191</ele>
        <time>2013-01-06T08:10:54Z</time>
      </trkpt>
      <trkpt lat="45.84215" lon="4.82693">
        <ele>191</ele>
        <time>2013-01-06T08:10:57Z</time>
      </trkpt>
      <trkpt lat="45.84214" lon="4.82691">
        <ele>191</ele>
        <time>2013-01-06T08:10:58Z</time>
      </trkpt>
      <trkpt lat="45.84211" lon="4.8269">
        <ele>192</ele>
        <time>2013-01-06T08:11:00Z</time>
      </trkpt>
      <trkpt lat="45.84201" lon="4.82694">
        <ele>192</ele>
        <time>2013-01-06T08:11:07Z</time>
      </trkpt>
      <trkpt lat="45.84191" lon="4.82702">
        <ele>192</ele>
        <time>2013-01-06T08:11:14Z</time>
      </trkpt>
      <trkpt lat="45.84182" lon="4.82704">
        <ele>192</ele>
        <time>2013-01-06T08:11:16Z</time>
      </trkpt>
      <trkpt lat="45.84174" lon="4.82706">
        <ele>192</ele>
        <time>2013-01-06T08:11:20Z</time>
      </trkpt>
      <trkpt lat="45.84162" lon="4.82707">
        <ele>194</ele>
        <time>2013-01-06T08:11:23Z</time>
      </trkpt>
      <trkpt lat="45.84157" lon="4.82709">
        <ele>194</ele>
        <time>2013-01-06T08:11:26Z</time>
      </trkpt>
      <trkpt lat="45.84148" lon="4.8272">
        <ele>193</ele>
        <time>2013-01-06T08:11:31Z</time>
      </trkpt>
      <trkpt lat="45.84148" lon="4.8272">
        <ele>193</ele>
        <time>2013-01-06T08:11:32Z</time>
      </trkpt>
      <trkpt lat="45.8413" lon="4.82728">
        <ele>193</ele>
        <time>2013-01-06T08:11:39Z</time>
      </trkpt>
      <trkpt lat="45.84128" lon="4.8273">
        <ele>193</ele>
        <time>2013-01-06T08:11:40Z</time>
      </trkpt>
      <trkpt lat="45.8412" lon="4.82732">
        <ele>193</ele>
        <time>2013-01-06T08:11:44Z</time>
      </trkpt>
      <trkpt lat="45.84109" lon="4.82736">
        <ele>192</ele>
        <time>2013-01-06T08:11:47Z</time>
      </trkpt>
      <trkpt lat="45.84105" lon="4.82737">
        <ele>192</ele>
        <time>2013-01-06T08:11:49Z</time>
      </trkpt>
      <trkpt lat="45.84091" lon="4.82738">
        <ele>191</ele>
        <time>2013-01-06T08:11:54Z</time>
      </trkpt>
      <trkpt lat="45.84089" lon="4.82738">
        <ele>191</ele>
        <time>2013-01-06T08:11:55Z</time>
      </trkpt>
      <trkpt lat="45.84076" lon="4.8274">
        <ele>192</ele>
        <time>2013-01-06T08:12:00Z</time>
      </trkpt>
      <trkpt lat="45.84068" lon="4.82741">
        <ele>192</ele>
        <time>2013-01-06T08:12:03Z</time>
      </trkpt>
      <trkpt lat="45.84059" lon="4.82742">
        <ele>193</ele>
        <time>2013-01-06T08:12:06Z</time>
      </trkpt>
      <trkpt lat="45.84047" lon="4.82741">
        <ele>193</ele>
        <time>2013-01-06T08:12:10Z</time>
      </trkpt>
      <trkpt lat="45.84044" lon="4.82739">
        <ele>193</ele>
        <time>2013-01-06T08:12:11Z</time>
      </trkpt>
      <trkpt lat="45.84028" lon="4.82737">
        <ele>193</ele>
        <time>2013-01-06T08:12:16Z</time>
      </trkpt>
      <trkpt lat="45.84024" lon="4.82737">
        <ele>193</ele>
        <time>2013-01-06T08:12:17Z</time>
      </trkpt>
      <trkpt lat="45.84012" lon="4.82731">
        <ele>193</ele>
        <time>2013-01-06T08:12:22Z</time>
      </trkpt>
      <trkpt lat="45.8401" lon="4.82728">
        <ele>193</ele>
        <time>2013-01-06T08:12:23Z</time>
      </trkpt>
      <trkpt lat="45.84002" lon="4.82718">
        <ele>194</ele>
        <time>2013-01-06T08:12:28Z</time>
      </trkpt>
      <trkpt lat="45.83997" lon="4.82708">
        <ele>195</ele>
        <time>2013-01-06T08:12:33Z</time>
      </trkpt>
      <trkpt lat="45.83996" lon="4.82706">
        <ele>195</ele>
        <time>2013-01-06T08:12:34Z</time>
      </trkpt>
      <trkpt lat="45.8399" lon="4.82697">
        <ele>196</ele>
        <time>2013-01-06T08:12:39Z</time>
      </trkpt>
      <trkpt lat="45.83984" lon="4.82688">
        <ele>196</ele>
        <time>2013-01-06T08:12:45Z</time>
      </trkpt>
      <trkpt lat="45.83982" lon="4.82681">
        <ele>197</ele>
        <time>2013-01-06T08:12:50Z</time>
      </trkpt>
      <trkpt lat="45.8398" lon="4.82671">
        <ele>197</ele>
        <time>2013-01-06T08:12:54Z</time>
      </trkpt>
      <trkpt lat="45.83978" lon="4.82666">
        <ele>203</ele>
        <time>2013-01-06T08:12:57Z</time>
      </trkpt>
      <trkpt lat="45.83977" lon="4.82663">
        <ele>203</ele>
        <time>2013-01-06T08:12:59Z</time>
      </trkpt>
      <trkpt lat="45.83976" lon="4.82656">
        <ele>204</ele>
        <time>2013-01-06T08:13:04Z</time>
      </trkpt>
      <trkpt lat="45.83975" lon="4.82644">
        <ele>204</ele>
        <time>2013-01-06T08:13:11Z</time>
      </trkpt>
      <trkpt lat="45.83973" lon="4.82638">
        <ele>205</ele>
        <time>2013-01-06T08:13:15Z</time>
      </trkpt>
      <trkpt lat="45.8397" lon="4.8263">
        <ele>205</ele>
        <time>2013-01-06T08:13:19Z</time>
      </trkpt>
      <trkpt lat="45.83969" lon="4.82627">
        <ele>205</ele>
        <time>2013-01-06T08:13:21Z</time>
      </trkpt>
      <trkpt lat="45.83968" lon="4.82618">
        <ele>206</ele>
        <time>2013-01-06T08:13:26Z</time>
      </trkpt>
      <trkpt lat="45.83967" lon="4.82613">
        <ele>206</ele>
        <time>2013-01-06T08:13:29Z</time>
      </trkpt>
      <trkpt lat="45.83967" lon="4.82608">
        <ele>207</ele>
        <time>2013-01-06T08:13:32Z</time>
      </trkpt>
      <trkpt lat="45.83967" lon="4.82606">
        <ele>207</ele>
        <time>2013-01-06T08:13:33Z</time>
      </trkpt>
      <trkpt lat="45.83967" lon="4.82591">
        <ele>208</ele>
        <time>2013-01-06T08:13:41Z</time>
      </trkpt>
      <trkpt lat="45.83966" lon="4.82586">
        <ele>208</ele>
        <time>2013-01-06T08:13:44Z</time>
      </trkpt>
      <trkpt lat="45.83968" lon="4.82577">
        <ele>215</ele>
        <time>2013-01-06T08:13:49Z</time>
      </trkpt>
      <trkpt lat="45.8397" lon="4.82567">
        <ele>216</ele>
        <time>2013-01-06T08:13:56Z</time>
      </trkpt>
      <trkpt lat="45.83972" lon="4.8256">
        <ele>216</ele>
        <time>2013-01-06T08:14:00Z</time>
      </trkpt>
      <trkpt lat="45.83972" lon="4.82558">
        <ele>216</ele>
        <time>2013-01-06T08:14:01Z</time>
      </trkpt>
      <trkpt lat="45.83973" lon="4.82552">
        <ele>217</ele>
        <time>2013-01-06T08:14:05Z</time>
      </trkpt>
      <trkpt lat="45.83975" lon="4.82543">
        <ele>218</ele>
        <time>2013-01-06T08:14:11Z</time>
      </trkpt>
      <trkpt lat="45.83977" lon="4.82534">
        <ele>219</ele>
        <time>2013-01-06T08:14:17Z</time>
      </trkpt>
      <trkpt lat="45.83977" lon="4.82532">
        <ele>219</ele>
        <time>2013-01-06T08:14:18Z</time>
      </trkpt>
      <trkpt lat="45.83979" lon="4.8252">
        <ele>220</ele>
        <time>2013-01-06T08:14:26Z</time>
      </trkpt>
      <trkpt lat="45.83982" lon="4.8251">
        <ele>222</ele>
        <time>2013-01-06T08:14:33Z</time>
      </trkpt>
      <trkpt lat="45.83982" lon="4.82509">
        <ele>222</ele>
        <time>2013-01-06T08:14:34Z</time>
      </trkpt>
      <trkpt lat="45.83983" lon="4.82508">
        <ele>222</ele>
        <time>2013-01-06T08:14:36Z</time>
      </trkpt>
      <trkpt lat="45.83983" lon="4.82503">
        <ele>223</ele>
        <time>2013-01-06T08:14:38Z</time>
      </trkpt>
      <trkpt lat="45.83983" lon="4.82499">
        <ele>227</ele>
        <time>2013-01-06T08:14:40Z</time>
      </trkpt>
      <trkpt lat="45.83985" lon="4.82491">
        <ele>227</ele>
        <time>2013-01-06T08:14:45Z</time>
      </trkpt>
      <trkpt lat="45.83986" lon="4.82488">
        <ele>227</ele>
        <time>2013-01-06T08:14:47Z</time>
      </trkpt>
      <trkpt lat="45.83987" lon="4.82484">
        <ele>227</ele>
        <time>2013-01-06T08:14:50Z</time>
      </trkpt>
      <trkpt lat="45.83987" lon="4.82483">
        <ele>227</ele>
        <time>2013-01-06T08:14:51Z</time>
      </trkpt>
      <trkpt lat="45.83987" lon="4.82479">
        <ele>227</ele>
        <time>2013-01-06T08:14:54Z</time>
      </trkpt>
      <trkpt lat="45.83988" lon="4.82475">
        <ele>227</ele>
        <time>2013-01-06T08:14:57Z</time>
      </trkpt>
      <trkpt lat="45.8399" lon="4.8247">
        <ele>227</ele>
        <time>2013-01-06T08:15:01Z</time>
      </trkpt>
      <trkpt lat="45.83991" lon="4.82465">
        <ele>227</ele>
        <time>2013-01-06T08:15:04Z</time>
      </trkpt>
      <trkpt lat="45.83993" lon="4.82459">
        <ele>228</ele>
        <time>2013-01-06T08:15:08Z</time>
      </trkpt>
      <trkpt lat="45.83993" lon="4.82457">
        <ele>228</ele>
        <time>2013-01-06T08:15:09Z</time>
      </trkpt>
      <trkpt lat="45.83993" lon="4.82456">
        <ele>228</ele>
        <time>2013-01-06T08:15:10Z</time>
      </trkpt>
      <trkpt lat="45.83996" lon="4.82452">
        <ele>228</ele>
        <time>2013-01-06T08:15:15Z</time>
      </trkpt>
      <trkpt lat="45.83998" lon="4.82445">
        <ele>229</ele>
        <time>2013-01-06T08:15:22Z</time>
      </trkpt>
      <trkpt lat="45.84" lon="4.82442">
        <ele>235</ele>
        <time>2013-01-06T08:15:24Z</time>
      </trkpt>
      <trkpt lat="45.84003" lon="4.82437">
        <ele>236</ele>
        <time>2013-01-06T08:15:27Z</time>
      </trkpt>
      <trkpt lat="45.84003" lon="4.82435">
        <ele>236</ele>
        <time>2013-01-06T08:15:28Z</time>
      </trkpt>
      <trkpt lat="45.84005" lon="4.82427">
        <ele>236</ele>
        <time>2013-01-06T08:15:34Z</time>
      </trkpt>
      <trkpt lat="45.84006" lon="4.82422">
        <ele>237</ele>
        <time>2013-01-06T08:15:39Z</time>
      </trkpt>
      <trkpt lat="45.84009" lon="4.82415">
        <ele>240</ele>
        <time>2013-01-06T08:15:43Z</time>
      </trkpt>
      <trkpt lat="45.8401" lon="4.82411">
        <ele>240</ele>
        <time>2013-01-06T08:15:45Z</time>
      </trkpt>
      <trkpt lat="45.84011" lon="4.82409">
        <ele>241</ele>
        <time>2013-01-06T08:15:46Z</time>
      </trkpt>
      <trkpt lat="45.84015" lon="4.82397">
        <ele>242</ele>
        <time>2013-01-06T08:15:54Z</time>
      </trkpt>
      <trkpt lat="45.84017" lon="4.82387">
        <ele>243</ele>
        <time>2013-01-06T08:16:01Z</time>
      </trkpt>
      <trkpt lat="45.84017" lon="4.82385">
        <ele>243</ele>
        <time>2013-01-06T08:16:02Z</time>
      </trkpt>
      <trkpt lat="45.84019" lon="4.82379">
        <ele>244</ele>
        <time>2013-01-06T08:16:07Z</time>
      </trkpt>
      <trkpt lat="45.8402" lon="4.82378">
        <ele>244</ele>
        <time>2013-01-06T08:16:08Z</time>
      </trkpt>
      <trkpt lat="45.8402" lon="4.82373">
        <ele>244</ele>
        <time>2013-01-06T08:16:11Z</time>
      </trkpt>
      <trkpt lat="45.84021" lon="4.82371">
        <ele>244</ele>
        <time>2013-01-06T08:16:14Z</time>
      </trkpt>
      <trkpt lat="45.84021" lon="4.8237">
        <ele>244</ele>
        <time>2013-01-06T08:16:15Z</time>
      </trkpt>
      <trkpt lat="45.84023" lon="4.82366">
        <ele>245</ele>
        <time>2013-01-06T08:16:18Z</time>
      </trkpt>
      <trkpt lat="45.84024" lon="4.82364">
        <ele>245</ele>
        <time>2013-01-06T08:16:19Z</time>
      </trkpt>
      <trkpt lat="45.84024" lon="4.82361">
        <ele>245</ele>
        <time>2013-01-06T08:16:21Z</time>
      </trkpt>
      <trkpt lat="45.84028" lon="4.82353">
        <ele>245</ele>
        <time>2013-01-06T08:16:27Z</time>
      </trkpt>
      <trkpt lat="45.84028" lon="4.82351">
        <ele>245</ele>
        <time>2013-01-06T08:16:28Z</time>
      </trkpt>
      <trkpt lat="45.8403" lon="4.82341">
        <ele>246</ele>
        <time>2013-01-06T08:16:35Z</time>
      </trkpt>
      <trkpt lat="45.8403" lon="4.82339">
        <ele>246</ele>
        <time>2013-01-06T08:16:36Z</time>
      </trkpt>
      <trkpt lat="45.84031" lon="4.82336">
        <ele>246</ele>
        <time>2013-01-06T08:16:38Z</time>
      </trkpt>
      <trkpt lat="45.84033" lon="4.82326">
        <ele>253</ele>
        <time>2013-01-06T08:16:44Z</time>
      </trkpt>
      <trkpt lat="45.84036" lon="4.82311">
        <ele>254</ele>
        <time>2013-01-06T08:16:53Z</time>
      </trkpt>
      <trkpt lat="45.8404" lon="4.82299">
        <ele>255</ele>
        <time>2013-01-06T08:17:00Z</time>
      </trkpt>
      <trkpt lat="45.84041" lon="4.82291">
        <ele>256</ele>
        <time>2013-01-06T08:17:05Z</time>
      </trkpt>
      <trkpt lat="45.84041" lon="4.82289">
        <ele>256</ele>
        <time>2013-01-06T08:17:06Z</time>
      </trkpt>
      <trkpt lat="45.84042" lon="4.82287">
        <ele>256</ele>
        <time>2013-01-06T08:17:08Z</time>
      </trkpt>
      <trkpt lat="45.84042" lon="4.82283">
        <ele>256</ele>
        <time>2013-01-06T08:17:10Z</time>
      </trkpt>
      <trkpt lat="45.84043" lon="4.82276">
        <ele>257</ele>
        <time>2013-01-06T08:17:14Z</time>
      </trkpt>
      <trkpt lat="45.84044" lon="4.82272">
        <ele>257</ele>
        <time>2013-01-06T08:17:17Z</time>
      </trkpt>
      <trkpt lat="45.84045" lon="4.8227">
        <ele>258</ele>
        <time>2013-01-06T08:17:18Z</time>
      </trkpt>
      <trkpt lat="45.84046" lon="4.82266">
        <ele>258</ele>
        <time>2013-01-06T08:17:21Z</time>
      </trkpt>
      <trkpt lat="45.84048" lon="4.82262">
        <ele>259</ele>
        <time>2013-01-06T08:17:24Z</time>
      </trkpt>
      <trkpt lat="45.84049" lon="4.82261">
        <ele>259</ele>
        <time>2013-01-06T08:17:25Z</time>
      </trkpt>
      <trkpt lat="45.84051" lon="4.82257">
        <ele>260</ele>
        <time>2013-01-06T08:17:28Z</time>
      </trkpt>
      <trkpt lat="45.84052" lon="4.82254">
        <ele>260</ele>
        <time>2013-01-06T08:17:30Z</time>
      </trkpt>
      <trkpt lat="45.84054" lon="4.82252">
        <ele>261</ele>
        <time>2013-01-06T08:17:32Z</time>
      </trkpt>
      <trkpt lat="45.84055" lon="4.8225">
        <ele>261</ele>
        <time>2013-01-06T08:17:33Z</time>
      </trkpt>
      <trkpt lat="45.84057" lon="4.82245">
        <ele>267</ele>
        <time>2013-01-06T08:17:36Z</time>
      </trkpt>
      <trkpt lat="45.84059" lon="4.8224">
        <ele>267</ele>
        <time>2013-01-06T08:17:40Z</time>
      </trkpt>
      <trkpt lat="45.8406" lon="4.82237">
        <ele>267</ele>
        <time>2013-01-06T08:17:42Z</time>
      </trkpt>
      <trkpt lat="45.84061" lon="4.82231">
        <ele>267</ele>
        <time>2013-01-06T08:17:47Z</time>
      </trkpt>
      <trkpt lat="45.84062" lon="4.82229">
        <ele>267</ele>
        <time>2013-01-06T08:17:49Z</time>
      </trkpt>
      <trkpt lat="45.84062" lon="4.82227">
        <ele>267</ele>
        <time>2013-01-06T08:17:50Z</time>
      </trkpt>
      <trkpt lat="45.84064" lon="4.82222">
        <ele>267</ele>
        <time>2013-01-06T08:17:53Z</time>
      </trkpt>
      <trkpt lat="45.84066" lon="4.82215">
        <ele>268</ele>
        <time>2013-01-06T08:17:57Z</time>
      </trkpt>
      <trkpt lat="45.84067" lon="4.82213">
        <ele>268</ele>
        <time>2013-01-06T08:17:59Z</time>
      </trkpt>
      <trkpt lat="45.84068" lon="4.82207">
        <ele>268</ele>
        <time>2013-01-06T08:18:03Z</time>
      </trkpt>
      <trkpt lat="45.84071" lon="4.82199">
        <ele>270</ele>
        <time>2013-01-06T08:18:09Z</time>
      </trkpt>
      <trkpt lat="45.84073" lon="4.82195">
        <ele>270</ele>
        <time>2013-01-06T08:18:12Z</time>
      </trkpt>
      <trkpt lat="45.84074" lon="4.82194">
        <ele>271</ele>
        <time>2013-01-06T08:18:13Z</time>
      </trkpt>
      <trkpt lat="45.84074" lon="4.82191">
        <ele>271</ele>
        <time>2013-01-06T08:18:15Z</time>
      </trkpt>
      <trkpt lat="45.84076" lon="4.82183">
        <ele>273</ele>
        <time>2013-01-06T08:18:20Z</time>
      </trkpt>
      <trkpt lat="45.84078" lon="4.82177">
        <ele>275</ele>
        <time>2013-01-06T08:18:23Z</time>
      </trkpt>
      <trkpt lat="45.8408" lon="4.82171">
        <ele>278</ele>
        <time>2013-01-06T08:18:26Z</time>
      </trkpt>
      <trkpt lat="45.8408" lon="4.82167">
        <ele>280</ele>
        <time>2013-01-06T08:18:28Z</time>
      </trkpt>
      <trkpt lat="45.84081" lon="4.82159">
        <ele>279</ele>
        <time>2013-01-06T08:18:32Z</time>
      </trkpt>
      <trkpt lat="45.84085" lon="4.82146">
        <ele>286</ele>
        <time>2013-01-06T08:18:41Z</time>
      </trkpt>
      <trkpt lat="45.84085" lon="4.8214">
        <ele>287</ele>
        <time>2013-01-06T08:18:44Z</time>
      </trkpt>
      <trkpt lat="45.84086" lon="4.82135">
        <ele>288</ele>
        <time>2013-01-06T08:18:47Z</time>
      </trkpt>
      <trkpt lat="45.84086" lon="4.82133">
        <ele>288</ele>
        <time>2013-01-06T08:18:49Z</time>
      </trkpt>
      <trkpt lat="45.84087" lon="4.82128">
        <ele>288</ele>
        <time>2013-01-06T08:18:52Z</time>
      </trkpt>
      <trkpt lat="45.84088" lon="4.82119">
        <ele>289</ele>
        <time>2013-01-06T08:18:58Z</time>
      </trkpt>
      <trkpt lat="45.8409" lon="4.82116">
        <ele>289</ele>
        <time>2013-01-06T08:19:03Z</time>
      </trkpt>
      <trkpt lat="45.84092" lon="4.82112">
        <ele>290</ele>
        <time>2013-01-06T08:19:08Z</time>
      </trkpt>
      <trkpt lat="45.84092" lon="4.82109">
        <ele>290</ele>
        <time>2013-01-06T08:19:10Z</time>
      </trkpt>
      <trkpt lat="45.84091" lon="4.82101">
        <ele>290</ele>
        <time>2013-01-06T08:19:18Z</time>
      </trkpt>
      <trkpt lat="45.84091" lon="4.82095">
        <ele>290</ele>
        <time>2013-01-06T08:19:23Z</time>
      </trkpt>
      <trkpt lat="45.84091" lon="4.82091">
        <ele>291</ele>
        <time>2013-01-06T08:19:26Z</time>
      </trkpt>
      <trkpt lat="45.84092" lon="4.82085">
        <ele>291</ele>
        <time>2013-01-06T08:19:30Z</time>
      </trkpt>
      <trkpt lat="45.84095" lon="4.82077">
        <ele>295</ele>
        <time>2013-01-06T08:19:37Z</time>
      </trkpt>
      <trkpt lat="45.84098" lon="4.82069">
        <ele>296</ele>
        <time>2013-01-06T08:19:44Z</time>
      </trkpt>
      <trkpt lat="45.84099" lon="4.82066">
        <ele>297</ele>
        <time>2013-01-06T08:19:47Z</time>
      </trkpt>
      <trkpt lat="45.84099" lon="4.82065">
        <ele>297</ele>
        <time>2013-01-06T08:19:48Z</time>
      </trkpt>
      <trkpt lat="45.841" lon="4.82059">
        <ele>298</ele>
        <time>2013-01-06T08:19:52Z</time>
      </trkpt>
      <trkpt lat="45.84101" lon="4.82058">
        <ele>298</ele>
        <time>2013-01-06T08:19:53Z</time>
      </trkpt>
      <trkpt lat="45.84102" lon="4.82053">
        <ele>299</ele>
        <time>2013-01-06T08:19:58Z</time>
      </trkpt>
      <trkpt lat="45.84102" lon="4.82051">
        <ele>299</ele>
        <time>2013-01-06T08:20:00Z</time>
      </trkpt>
      <trkpt lat="45.84101" lon="4.82047">
        <ele>299</ele>
        <time>2013-01-06T08:20:05Z</time>
      </trkpt>
      <trkpt lat="45.84098" lon="4.82043">
        <ele>299</ele>
        <time>2013-01-06T08:20:13Z</time>
      </trkpt>
      <trkpt lat="45.84098" lon="4.82039">
        <ele>300</ele>
        <time>2013-01-06T08:20:16Z</time>
      </trkpt>
      <trkpt lat="45.84099" lon="4.82036">
        <ele>300</ele>
        <time>2013-01-06T08:20:19Z</time>
      </trkpt>
      <trkpt lat="45.841" lon="4.82029">
        <ele>300</ele>
        <time>2013-01-06T08:20:24Z</time>
      </trkpt>
      <trkpt lat="45.84098" lon="4.82016">
        <ele>301</ele>
        <time>2013-01-06T08:20:32Z</time>
      </trkpt>
      <trkpt lat="45.84098" lon="4.82014">
        <ele>301</ele>
        <time>2013-01-06T08:20:33Z</time>
      </trkpt>
      <trkpt lat="45.84098" lon="4.82003">
        <ele>301</ele>
        <time>2013-01-06T08:20:40Z</time>
      </trkpt>
      <trkpt lat="45.84097" lon="4.81995">
        <ele>306</ele>
        <time>2013-01-06T08:20:45Z</time>
      </trkpt>
      <trkpt lat="45.84098" lon="4.81989">
        <ele>307</ele>
        <time>2013-01-06T08:20:51Z</time>
      </trkpt>
      <trkpt lat="45.84098" lon="4.81988">
        <ele>307</ele>
        <time>2013-01-06T08:20:52Z</time>
      </trkpt>
      <trkpt lat="45.84098" lon="4.81987">
        <ele>307</ele>
        <time>2013-01-06T08:20:53Z</time>
      </trkpt>
      <trkpt lat="45.84099" lon="4.81982">
        <ele>308</ele>
        <time>2013-01-06T08:20:57Z</time>
      </trkpt>
      <trkpt lat="45.84102" lon="4.81975">
        <ele>310</ele>
        <time>2013-01-06T08:21:02Z</time>
      </trkpt>
      <trkpt lat="45.84102" lon="4.81968">
        <ele>310</ele>
        <time>2013-01-06T08:21:08Z</time>
      </trkpt>
      <trkpt lat="45.84102" lon="4.81967">
        <ele>311</ele>
        <time>2013-01-06T08:21:09Z</time>
      </trkpt>
      <trkpt lat="45.84102" lon="4.81963">
        <ele>311</ele>
        <time>2013-01-06T08:21:12Z</time>
      </trkpt>
      <trkpt lat="45.84103" lon="4.8196">
        <ele>311</ele>
        <time>2013-01-06T08:21:16Z</time>
      </trkpt>
      <trkpt lat="45.84103" lon="4.81957">
        <ele>312</ele>
        <time>2013-01-06T08:21:20Z</time>
      </trkpt>
      <trkpt lat="45.84104" lon="4.81951">
        <ele>312</ele>
        <time>2013-01-06T08:21:26Z</time>
      </trkpt>
      <trkpt lat="45.84104" lon="4.81947">
        <ele>312</ele>
        <time>2013-01-06T08:21:30Z</time>
      </trkpt>
      <trkpt lat="45.84107" lon="4.8194">
        <ele>313</ele>
        <time>2013-01-06T08:21:37Z</time>
      </trkpt>
      <trkpt lat="45.84107" lon="4.81937">
        <ele>313</ele>
        <time>2013-01-06T08:21:39Z</time>
      </trkpt>
      <trkpt lat="45.84106" lon="4.81937">
        <ele>313</ele>
        <time>2013-01-06T08:21:40Z</time>
      </trkpt>
      <trkpt lat="45.84107" lon="4.81933">
        <ele>313</ele>
        <time>2013-01-06T08:21:43Z</time>
      </trkpt>
      <trkpt lat="45.84107" lon="4.81932">
        <ele>313</ele>
        <time>2013-01-06T08:21:44Z</time>
      </trkpt>
      <trkpt lat="45.84108" lon="4.8193">
        <ele>313</ele>
        <time>2013-01-06T08:21:48Z</time>
      </trkpt>
      <trkpt lat="45.8411" lon="4.81927">
        <ele>313</ele>
        <time>2013-01-06T08:21:52Z</time>
      </trkpt>
      <trkpt lat="45.84112" lon="4.81923">
        <ele>314</ele>
        <time>2013-01-06T08:21:56Z</time>
      </trkpt>
      <trkpt lat="45.84113" lon="4.81921">
        <ele>314</ele>
        <time>2013-01-06T08:22:00Z</time>
      </trkpt>
      <trkpt lat="45.84116" lon="4.81918">
        <ele>315</ele>
        <time>2013-01-06T08:22:03Z</time>
      </trkpt>
      <trkpt lat="45.84117" lon="4.81916">
        <ele>321</ele>
        <time>2013-01-06T08:22:05Z</time>
      </trkpt>
      <trkpt lat="45.84118" lon="4.81914">
        <ele>321</ele>
        <time>2013-01-06T08:22:07Z</time>
      </trkpt>
      <trkpt lat="45.84118" lon="4.81913">
        <ele>321</ele>
        <time>2013-01-06T08:22:08Z</time>
      </trkpt>
      <trkpt lat="45.84119" lon="4.81908">
        <ele>321</ele>
        <time>2013-01-06T08:22:13Z</time>
      </trkpt>
      <trkpt lat="45.84121" lon="4.81904">
        <ele>322</ele>
        <time>2013-01-06T08:22:18Z</time>
      </trkpt>
      <trkpt lat="45.84121" lon="4.819">
        <ele>322</ele>
        <time>2013-01-06T08:22:21Z</time>
      </trkpt>
      <trkpt lat="45.84123" lon="4.81899">
        <ele>322</ele>
        <time>2013-01-06T08:22:23Z</time>
      </trkpt>
      <trkpt lat="45.84125" lon="4.81898">
        <ele>323</ele>
        <time>2013-01-06T08:22:25Z</time>
      </trkpt>
      <trkpt lat="45.84127" lon="4.81897">
        <ele>323</ele>
        <time>2013-01-06T08:22:27Z</time>
      </trkpt>
      <trkpt lat="45.84128" lon="4.81896">
        <ele>323</ele>
        <time>2013-01-06T08:22:28Z</time>
      </trkpt>
      <trkpt lat="45.84131" lon="4.81895">
        <ele>324</ele>
        <time>2013-01-06T08:22:31Z</time>
      </trkpt>
      <trkpt lat="45.84133" lon="4.81894">
        <ele>324</ele>
        <time>2013-01-06T08:22:33Z</time>
      </trkpt>
      <trkpt lat="45.84136" lon="4.81886">
        <ele>325</ele>
        <time>2013-01-06T08:22:38Z</time>
      </trkpt>
      <trkpt lat="45.84137" lon="4.81885">
        <ele>325</ele>
        <time>2013-01-06T08:22:39Z</time>
      </trkpt>
      <trkpt lat="45.84138" lon="4.81879">
        <ele>325</ele>
        <time>2013-01-06T08:22:43Z</time>
      </trkpt>
      <trkpt lat="45.84138" lon="4.81877">
        <ele>325</ele>
        <time>2013-01-06T08:22:44Z</time>
      </trkpt>
      <trkpt lat="45.84139" lon="4.81874">
        <ele>326</ele>
        <time>2013-01-06T08:22:46Z</time>
      </trkpt>
      <trkpt lat="45.8414" lon="4.81873">
        <ele>326</ele>
        <time>2013-01-06T08:22:48Z</time>
      </trkpt>
      <trkpt lat="45.84142" lon="4.81871">
        <ele>326</ele>
        <time>2013-01-06T08:22:50Z</time>
      </trkpt>
      <trkpt lat="45.84144" lon="4.81867">
        <ele>327</ele>
        <time>2013-01-06T08:22:53Z</time>
      </trkpt>
      <trkpt lat="45.84146" lon="4.81865">
        <ele>327</ele>
        <time>2013-01-06T08:22:55Z</time>
      </trkpt>
      <trkpt lat="45.84149" lon="4.81857">
        <ele>329</ele>
        <time>2013-01-06T08:23:00Z</time>
      </trkpt>
      <trkpt lat="45.8415" lon="4.81854">
        <ele>330</ele>
        <time>2013-01-06T08:23:02Z</time>
      </trkpt>
      <trkpt lat="45.84153" lon="4.81849">
        <ele>331</ele>
        <time>2013-01-06T08:23:06Z</time>
      </trkpt>
      <trkpt lat="45.84153" lon="4.81847">
        <ele>331</ele>
        <time>2013-01-06T08:23:07Z</time>
      </trkpt>
      <trkpt lat="45.84157" lon="4.81837">
        <ele>335</ele>
        <time>2013-01-06T08:23:14Z</time>
      </trkpt>
      <trkpt lat="45.84157" lon="4.81831">
        <ele>337</ele>
        <time>2013-01-06T08:23:17Z</time>
      </trkpt>
      <trkpt lat="45.84158" lon="4.81828">
        <ele>338</ele>
        <time>2013-01-06T08:23:19Z</time>
      </trkpt>
      <trkpt lat="45.84164" lon="4.81822">
        <ele>338</ele>
        <time>2013-01-06T08:23:24Z</time>
      </trkpt>
      <trkpt lat="45.84166" lon="4.81815">
        <ele>337</ele>
        <time>2013-01-06T08:23:29Z</time>
      </trkpt>
      <trkpt lat="45.84165" lon="4.81811">
        <ele>337</ele>
        <time>2013-01-06T08:23:32Z</time>
      </trkpt>
      <trkpt lat="45.84166" lon="4.81809">
        <ele>337</ele>
        <time>2013-01-06T08:23:33Z</time>
      </trkpt>
      <trkpt lat="45.84166" lon="4.81808">
        <ele>337</ele>
        <time>2013-01-06T08:23:34Z</time>
      </trkpt>
      <trkpt lat="45.84167" lon="4.81801">
        <ele>346</ele>
        <time>2013-01-06T08:23:38Z</time>
      </trkpt>
      <trkpt lat="45.84168" lon="4.81798">
        <ele>346</ele>
        <time>2013-01-06T08:23:40Z</time>
      </trkpt>
      <trkpt lat="45.84172" lon="4.81793">
        <ele>347</ele>
        <time>2013-01-06T08:23:45Z</time>
      </trkpt>
      <trkpt lat="45.84175" lon="4.81786">
        <ele>348</ele>
        <time>2013-01-06T08:23:50Z</time>
      </trkpt>
      <trkpt lat="45.84176" lon="4.81786">
        <ele>348</ele>
        <time>2013-01-06T08:23:51Z</time>
      </trkpt>
      <trkpt lat="45.84183" lon="4.81781">
        <ele>348</ele>
        <time>2013-01-06T08:23:57Z</time>
      </trkpt>
      <trkpt lat="45.84185" lon="4.8178">
        <ele>348</ele>
        <time>2013-01-06T08:23:59Z</time>
      </trkpt>
      <trkpt lat="45.84187" lon="4.81775">
        <ele>349</ele>
        <time>2013-01-06T08:24:02Z</time>
      </trkpt>
      <trkpt lat="45.84189" lon="4.81771">
        <ele>349</ele>
        <time>2013-01-06T08:24:05Z</time>
      </trkpt>
      <trkpt lat="45.84189" lon="4.8177">
        <ele>349</ele>
        <time>2013-01-06T08:24:06Z</time>
      </trkpt>
      <trkpt lat="45.8419" lon="4.81767">
        <ele>350</ele>
        <time>2013-01-06T08:24:08Z</time>
      </trkpt>
      <trkpt lat="45.84192" lon="4.81762">
        <ele>350</ele>
        <time>2013-01-06T08:24:13Z</time>
      </trkpt>
      <trkpt lat="45.84196" lon="4.81756">
        <ele>350</ele>
        <time>2013-01-06T08:24:20Z</time>
      </trkpt>
      <trkpt lat="45.84198" lon="4.8175">
        <ele>361</ele>
        <time>2013-01-06T08:24:26Z</time>
      </trkpt>
      <trkpt lat="45.84199" lon="4.81748">
        <ele>361</ele>
        <time>2013-01-06T08:24:27Z</time>
      </trkpt>
      <trkpt lat="45.84199" lon="4.81747">
        <ele>361</ele>
        <time>2013-01-06T08:24:28Z</time>
      </trkpt>
      <trkpt lat="45.84201" lon="4.81743">
        <ele>361</ele>
        <time>2013-01-06T08:24:33Z</time>
      </trkpt>
      <trkpt lat="45.84201" lon="4.81743">
        <ele>361</ele>
        <time>2013-01-06T08:24:34Z</time>
      </trkpt>
      <trkpt lat="45.84202" lon="4.8174">
        <ele>361</ele>
        <time>2013-01-06T08:24:38Z</time>
      </trkpt>
      <trkpt lat="45.84204" lon="4.81733">
        <ele>362</ele>
        <time>2013-01-06T08:24:45Z</time>
      </trkpt>
      <trkpt lat="45.84205" lon="4.81728">
        <ele>362</ele>
        <time>2013-01-06T08:24:49Z</time>
      </trkpt>
      <trkpt lat="45.84206" lon="4.81725">
        <ele>363</ele>
        <time>2013-01-06T08:24:52Z</time>
      </trkpt>
      <trkpt lat="45.84206" lon="4.81724">
        <ele>363</ele>
        <time>2013-01-06T08:24:53Z</time>
      </trkpt>
      <trkpt lat="45.84208" lon="4.81718">
        <ele>363</ele>
        <time>2013-01-06T08:24:58Z</time>
      </trkpt>
      <trkpt lat="45.84209" lon="4.81712">
        <ele>364</ele>
        <time>2013-01-06T08:25:02Z</time>
      </trkpt>
      <trkpt lat="45.84209" lon="4.8171">
        <ele>364</ele>
        <time>2013-01-06T08:25:03Z</time>
      </trkpt>
      <trkpt lat="45.84209" lon="4.81704">
        <ele>365</ele>
        <time>2013-01-06T08:25:07Z</time>
      </trkpt>
      <trkpt lat="45.84209" lon="4.81701">
        <ele>365</ele>
        <time>2013-01-06T08:25:09Z</time>
      </trkpt>
      <trkpt lat="45.84209" lon="4.81698">
        <ele>366</ele>
        <time>2013-01-06T08:25:11Z</time>
      </trkpt>
      <trkpt lat="45.84211" lon="4.81696">
        <ele>366</ele>
        <time>2013-01-06T08:25:14Z</time>
      </trkpt>
      <trkpt lat="45.84212" lon="4.81695">
        <ele>366</ele>
        <time>2013-01-06T08:25:15Z</time>
      </trkpt>
      <trkpt lat="45.84215" lon="4.81688">
        <ele>367</ele>
        <time>2013-01-06T08:25:20Z</time>
      </trkpt>
      <trkpt lat="45.84217" lon="4.81679">
        <ele>368</ele>
        <time>2013-01-06T08:25:28Z</time>
      </trkpt>
      <trkpt lat="45.84217" lon="4.81675">
        <ele>368</ele>
        <time>2013-01-06T08:25:31Z</time>
      </trkpt>
      <trkpt lat="45.84218" lon="4.8167">
        <ele>369</ele>
        <time>2013-01-06T08:25:34Z</time>
      </trkpt>
      <trkpt lat="45.8422" lon="4.8166">
        <ele>379</ele>
        <time>2013-01-06T08:25:40Z</time>
      </trkpt>
      <trkpt lat="45.84219" lon="4.81654">
        <ele>379</ele>
        <time>2013-01-06T08:25:45Z</time>
      </trkpt>
      <trkpt lat="45.84219" lon="4.81652">
        <ele>379</ele>
        <time>2013-01-06T08:25:47Z</time>
      </trkpt>
      <trkpt lat="45.84218" lon="4.81648">
        <ele>379</ele>
        <time>2013-01-06T08:25:50Z</time>
      </trkpt>
      <trkpt lat="45.84219" lon="4.81645">
        <ele>379</ele>
        <time>2013-01-06T08:25:52Z</time>
      </trkpt>
      <trkpt lat="45.84219" lon="4.81641">
        <ele>380</ele>
        <time>2013-01-06T08:25:54Z</time>
      </trkpt>
      <trkpt lat="45.84219" lon="4.81638">
        <ele>380</ele>
        <time>2013-01-06T08:25:56Z</time>
      </trkpt>
      <trkpt lat="45.84219" lon="4.81634">
        <ele>380</ele>
        <time>2013-01-06T08:26:02Z</time>
      </trkpt>
      <trkpt lat="45.84219" lon="4.81633">
        <ele>380</ele>
        <time>2013-01-06T08:26:03Z</time>
      </trkpt>
      <trkpt lat="45.8422" lon="4.8163">
        <ele>380</ele>
        <time>2013-01-06T08:26:07Z</time>
      </trkpt>
      <trkpt lat="45.84221" lon="4.81622">
        <ele>381</ele>
        <time>2013-01-06T08:26:12Z</time>
      </trkpt>
      <trkpt lat="45.8422" lon="4.81621">
        <ele>381</ele>
        <time>2013-01-06T08:26:13Z</time>
      </trkpt>
      <trkpt lat="45.8422" lon="4.81616">
        <ele>382</ele>
        <time>2013-01-06T08:26:17Z</time>
      </trkpt>
      <trkpt lat="45.84219" lon="4.81615">
        <ele>382</ele>
        <time>2013-01-06T08:26:18Z</time>
      </trkpt>
      <trkpt lat="45.84218" lon="4.81611">
        <ele>382</ele>
        <time>2013-01-06T08:26:24Z</time>
      </trkpt>
      <trkpt lat="45.8422" lon="4.81603">
        <ele>383</ele>
        <time>2013-01-06T08:26:30Z</time>
      </trkpt>
      <trkpt lat="45.84221" lon="4.81596">
        <ele>383</ele>
        <time>2013-01-06T08:26:34Z</time>
      </trkpt>
      <trkpt lat="45.8422" lon="4.81595">
        <ele>383</ele>
        <time>2013-01-06T08:26:35Z</time>
      </trkpt>
      <trkpt lat="45.8422" lon="4.81594">
        <ele>383</ele>
        <time>2013-01-06T08:26:36Z</time>
      </trkpt>
      <trkpt lat="45.84219" lon="4.81589">
        <ele>383</ele>
        <time>2013-01-06T08:26:40Z</time>
      </trkpt>
      <trkpt lat="45.84219" lon="4.81588">
        <ele>383</ele>
        <time>2013-01-06T08:26:41Z</time>
      </trkpt>
      <trkpt lat="45.84219" lon="4.81583">
        <ele>384</ele>
        <time>2013-01-06T08:26:45Z</time>
      </trkpt>
      <trkpt lat="45.84218" lon="4.8158">
        <ele>390</ele>
        <time>2013-01-06T08:26:48Z</time>
      </trkpt>
      <trkpt lat="45.84215" lon="4.81576">
        <ele>390</ele>
        <time>2013-01-06T08:26:51Z</time>
      </trkpt>
      <trkpt lat="45.84215" lon="4.81573">
        <ele>390</ele>
        <time>2013-01-06T08:26:52Z</time>
      </trkpt>
      <trkpt lat="45.84216" lon="4.81571">
        <ele>390</ele>
        <time>2013-01-06T08:26:53Z</time>
      </trkpt>
      <trkpt lat="45.84217" lon="4.81564">
        <ele>390</ele>
        <time>2013-01-06T08:26:57Z</time>
      </trkpt>
      <trkpt lat="45.84219" lon="4.81557">
        <ele>391</ele>
        <time>2013-01-06T08:27:02Z</time>
      </trkpt>
      <trkpt lat="45.8422" lon="4.81554">
        <ele>391</ele>
        <time>2013-01-06T08:27:04Z</time>
      </trkpt>
      <trkpt lat="45.8422" lon="4.81551">
        <ele>391</ele>
        <time>2013-01-06T08:27:06Z</time>
      </trkpt>
      <trkpt lat="45.84221" lon="4.81546">
        <ele>391</ele>
        <time>2013-01-06T08:27:11Z</time>
      </trkpt>
      <trkpt lat="45.8422" lon="4.81538">
        <ele>392</ele>
        <time>2013-01-06T08:27:21Z</time>
      </trkpt>
      <trkpt lat="45.84219" lon="4.81536">
        <ele>392</ele>
        <time>2013-01-06T08:27:39Z</time>
      </trkpt>
      <trkpt lat="45.84224" lon="4.81535">
        <ele>393</ele>
        <time>2013-01-06T08:27:50Z</time>
      </trkpt>
      <trkpt lat="45.84229" lon="4.81532">
        <ele>393</ele>
        <time>2013-01-06T08:28:06Z</time>
      </trkpt>
      <trkpt lat="45.8423" lon="4.81531">
        <ele>393</ele>
        <time>2013-01-06T08:28:07Z</time>
      </trkpt>
      <trkpt lat="45.84236" lon="4.81528">
        <ele>394</ele>
        <time>2013-01-06T08:28:11Z</time>
      </trkpt>
      <trkpt lat="45.84243" lon="4.81519">
        <ele>396</ele>
        <time>2013-01-06T08:28:16Z</time>
      </trkpt>
      <trkpt lat="45.84244" lon="4.81517">
        <ele>397</ele>
        <time>2013-01-06T08:28:17Z</time>
      </trkpt>
      <trkpt lat="45.84246" lon="4.81509">
        <ele>399</ele>
        <time>2013-01-06T08:28:20Z</time>
      </trkpt>
      <trkpt lat="45.84247" lon="4.81506">
        <ele>400</ele>
        <time>2013-01-06T08:28:21Z</time>
      </trkpt>
      <trkpt lat="45.84254" lon="4.81494">
        <ele>402</ele>
        <time>2013-01-06T08:28:26Z</time>
      </trkpt>
      <trkpt lat="45.84265" lon="4.81479">
        <ele>401</ele>
        <time>2013-01-06T08:28:33Z</time>
      </trkpt>
      <trkpt lat="45.84268" lon="4.81476">
        <ele>400</ele>
        <time>2013-01-06T08:28:35Z</time>
      </trkpt>
      <trkpt lat="45.8427" lon="4.81473">
        <ele>400</ele>
        <time>2013-01-06T08:28:37Z</time>
      </trkpt>
      <trkpt lat="45.84272" lon="4.81471">
        <ele>400</ele>
        <time>2013-01-06T08:28:38Z</time>
      </trkpt>
      <trkpt lat="45.84276" lon="4.81464">
        <ele>400</ele>
        <time>2013-01-06T08:28:41Z</time>
      </trkpt>
      <trkpt lat="45.84277" lon="4.8146">
        <ele>400</ele>
        <time>2013-01-06T08:28:43Z</time>
      </trkpt>
      <trkpt lat="45.84278" lon="4.81457">
        <ele>401</ele>
        <time>2013-01-06T08:28:44Z</time>
      </trkpt>
      <trkpt lat="45.84278" lon="4.81455">
        <ele>401</ele>
        <time>2013-01-06T08:28:45Z</time>
      </trkpt>
      <trkpt lat="45.84281" lon="4.81447">
        <ele>401</ele>
        <time>2013-01-06T08:28:49Z</time>
      </trkpt>
      <trkpt lat="45.84287" lon="4.81436">
        <ele>401</ele>
        <time>2013-01-06T08:28:54Z</time>
      </trkpt>
      <trkpt lat="45.84288" lon="4.81432">
        <ele>401</ele>
        <time>2013-01-06T08:28:56Z</time>
      </trkpt>
      <trkpt lat="45.84289" lon="4.81429">
        <ele>401</ele>
        <time>2013-01-06T08:28:57Z</time>
      </trkpt>
      <trkpt lat="45.8429" lon="4.81421">
        <ele>402</ele>
        <time>2013-01-06T08:29:00Z</time>
      </trkpt>
      <trkpt lat="45.84295" lon="4.81409">
        <ele>409</ele>
        <time>2013-01-06T08:29:05Z</time>
      </trkpt>
      <trkpt lat="45.84295" lon="4.81405">
        <ele>409</ele>
        <time>2013-01-06T08:29:06Z</time>
      </trkpt>
      <trkpt lat="45.84295" lon="4.81401">
        <ele>409</ele>
        <time>2013-01-06T08:29:08Z</time>
      </trkpt>
      <trkpt lat="45.84296" lon="4.81398">
        <ele>409</ele>
        <time>2013-01-06T08:29:10Z</time>
      </trkpt>
      <trkpt lat="45.843" lon="4.8139">
        <ele>410</ele>
        <time>2013-01-06T08:29:16Z</time>
      </trkpt>
      <trkpt lat="45.84301" lon="4.81382">
        <ele>410</ele>
        <time>2013-01-06T08:29:21Z</time>
      </trkpt>
      <trkpt lat="45.84301" lon="4.8138">
        <ele>410</ele>
        <time>2013-01-06T08:29:22Z</time>
      </trkpt>
      <trkpt lat="45.84301" lon="4.81377">
        <ele>411</ele>
        <time>2013-01-06T08:29:24Z</time>
      </trkpt>
      <trkpt lat="45.84301" lon="4.81372">
        <ele>411</ele>
        <time>2013-01-06T08:29:28Z</time>
      </trkpt>
      <trkpt lat="45.84302" lon="4.81366">
        <ele>411</ele>
        <time>2013-01-06T08:29:32Z</time>
      </trkpt>
      <trkpt lat="45.84303" lon="4.81365">
        <ele>412</ele>
        <time>2013-01-06T08:29:33Z</time>
      </trkpt>
      <trkpt lat="45.84305" lon="4.8136">
        <ele>412</ele>
        <time>2013-01-06T08:29:36Z</time>
      </trkpt>
      <trkpt lat="45.84306" lon="4.81353">
        <ele>412</ele>
        <time>2013-01-06T08:29:40Z</time>
      </trkpt>
      <trkpt lat="45.84307" lon="4.81352">
        <ele>413</ele>
        <time>2013-01-06T08:29:41Z</time>
      </trkpt>
      <trkpt lat="45.84309" lon="4.81345">
        <ele>413</ele>
        <time>2013-01-06T08:29:46Z</time>
      </trkpt>
      <trkpt lat="45.8431" lon="4.81342">
        <ele>413</ele>
        <time>2013-01-06T08:29:48Z</time>
      </trkpt>
      <trkpt lat="45.84311" lon="4.81337">
        <ele>414</ele>
        <time>2013-01-06T08:29:52Z</time>
      </trkpt>
      <trkpt lat="45.84311" lon="4.81336">
        <ele>414</ele>
        <time>2013-01-06T08:29:53Z</time>
      </trkpt>
      <trkpt lat="45.84312" lon="4.81328">
        <ele>419</ele>
        <time>2013-01-06T08:29:58Z</time>
      </trkpt>
      <trkpt lat="45.84313" lon="4.81324">
        <ele>419</ele>
        <time>2013-01-06T08:30:00Z</time>
      </trkpt>
      <trkpt lat="45.84314" lon="4.81316">
        <ele>419</ele>
        <time>2013-01-06T08:30:04Z</time>
      </trkpt>
      <trkpt lat="45.84316" lon="4.81312">
        <ele>420</ele>
        <time>2013-01-06T08:30:06Z</time>
      </trkpt>
      <trkpt lat="45.84319" lon="4.81303">
        <ele>420</ele>
        <time>2013-01-06T08:30:10Z</time>
      </trkpt>
      <trkpt lat="45.8432" lon="4.81297">
        <ele>421</ele>
        <time>2013-01-06T08:30:13Z</time>
      </trkpt>
      <trkpt lat="45.84319" lon="4.81295">
        <ele>421</ele>
        <time>2013-01-06T08:30:14Z</time>
      </trkpt>
      <trkpt lat="45.84316" lon="4.81287">
        <ele>421</ele>
        <time>2013-01-06T08:30:19Z</time>
      </trkpt>
      <trkpt lat="45.84314" lon="4.81282">
        <ele>422</ele>
        <time>2013-01-06T08:30:22Z</time>
      </trkpt>
      <trkpt lat="45.84313" lon="4.81278">
        <ele>422</ele>
        <time>2013-01-06T08:30:24Z</time>
      </trkpt>
      <trkpt lat="45.84313" lon="4.81275">
        <ele>422</ele>
        <time>2013-01-06T08:30:26Z</time>
      </trkpt>
      <trkpt lat="45.84318" lon="4.81269">
        <ele>423</ele>
        <time>2013-01-06T08:30:31Z</time>
      </trkpt>
      <trkpt lat="45.84323" lon="4.81263">
        <ele>423</ele>
        <time>2013-01-06T08:30:35Z</time>
      </trkpt>
      <trkpt lat="45.84326" lon="4.81259">
        <ele>424</ele>
        <time>2013-01-06T08:30:37Z</time>
      </trkpt>
      <trkpt lat="45.84332" lon="4.81247">
        <ele>426</ele>
        <time>2013-01-06T08:30:42Z</time>
      </trkpt>
      <trkpt lat="45.84336" lon="4.81235">
        <ele>425</ele>
        <time>2013-01-06T08:30:47Z</time>
      </trkpt>
      <trkpt lat="45.84341" lon="4.8122">
        <ele>426</ele>
        <time>2013-01-06T08:30:53Z</time>
      </trkpt>
      <trkpt lat="45.84343" lon="4.8121">
        <ele>426</ele>
        <time>2013-01-06T08:30:57Z</time>
      </trkpt>
      <trkpt lat="45.84344" lon="4.81208">
        <ele>426</ele>
        <time>2013-01-06T08:30:58Z</time>
      </trkpt>
      <trkpt lat="45.84346" lon="4.81198">
        <ele>427</ele>
        <time>2013-01-06T08:31:02Z</time>
      </trkpt>
      <trkpt lat="45.84348" lon="4.81187">
        <ele>428</ele>
        <time>2013-01-06T08:31:08Z</time>
      </trkpt>
      <trkpt lat="45.84348" lon="4.81184">
        <ele>428</ele>
        <time>2013-01-06T08:31:10Z</time>
      </trkpt>
      <trkpt lat="45.84348" lon="4.81177">
        <ele>429</ele>
        <time>2013-01-06T08:31:14Z</time>
      </trkpt>
      <trkpt lat="45.84349" lon="4.81164">
        <ele>434</ele>
        <time>2013-01-06T08:31:20Z</time>
      </trkpt>
      <trkpt lat="45.8435" lon="4.81157">
        <ele>434</ele>
        <time>2013-01-06T08:31:23Z</time>
      </trkpt>
      <trkpt lat="45.84351" lon="4.81152">
        <ele>434</ele>
        <time>2013-01-06T08:31:25Z</time>
      </trkpt>
      <trkpt lat="45.84352" lon="4.8115">
        <ele>434</ele>
        <time>2013-01-06T08:31:26Z</time>
      </trkpt>
      <trkpt lat="45.84352" lon="4.81147">
        <ele>434</ele>
        <time>2013-01-06T08:31:27Z</time>
      </trkpt>
      <trkpt lat="45.84352" lon="4.81139">
        <ele>434</ele>
        <time>2013-01-06T08:31:30Z</time>
      </trkpt>
      <trkpt lat="45.84353" lon="4.81129">
        <ele>434</ele>
        <time>2013-01-06T08:31:34Z</time>
      </trkpt>
      <trkpt lat="45.84353" lon="4.81127">
        <ele>435</ele>
        <time>2013-01-06T08:31:35Z</time>
      </trkpt>
      <trkpt lat="45.84352" lon="4.81114">
        <ele>435</ele>
        <time>2013-01-06T08:31:40Z</time>
      </trkpt>
      <trkpt lat="45.84353" lon="4.8111">
        <ele>436</ele>
        <time>2013-01-06T08:31:43Z</time>
      </trkpt>
      <trkpt lat="45.84354" lon="4.81109">
        <ele>436</ele>
        <time>2013-01-06T08:31:44Z</time>
      </trkpt>
      <trkpt lat="45.84355" lon="4.81105">
        <ele>436</ele>
        <time>2013-01-06T08:31:47Z</time>
      </trkpt>
      <trkpt lat="45.84355" lon="4.81103">
        <ele>436</ele>
        <time>2013-01-06T08:31:48Z</time>
      </trkpt>
      <trkpt lat="45.84358" lon="4.81095">
        <ele>436</ele>
        <time>2013-01-06T08:31:53Z</time>
      </trkpt>
      <trkpt lat="45.84359" lon="4.81092">
        <ele>436</ele>
        <time>2013-01-06T08:31:55Z</time>
      </trkpt>
      <trkpt lat="45.84362" lon="4.81087">
        <ele>436</ele>
        <time>2013-01-06T08:31:58Z</time>
      </trkpt>
      <trkpt lat="45.84364" lon="4.81081">
        <ele>442</ele>
        <time>2013-01-06T08:32:03Z</time>
      </trkpt>
      <trkpt lat="45.84366" lon="4.81077">
        <ele>442</ele>
        <time>2013-01-06T08:32:06Z</time>
      </trkpt>
      <trkpt lat="45.84366" lon="4.81065">
        <ele>443</ele>
        <time>2013-01-06T08:32:12Z</time>
      </trkpt>
      <trkpt lat="45.84367" lon="4.81051">
        <ele>444</ele>
        <time>2013-01-06T08:32:19Z</time>
      </trkpt>
      <trkpt lat="45.84367" lon="4.81049">
        <ele>444</ele>
        <time>2013-01-06T08:32:20Z</time>
      </trkpt>
      <trkpt lat="45.84367" lon="4.81043">
        <ele>444</ele>
        <time>2013-01-06T08:32:24Z</time>
      </trkpt>
      <trkpt lat="45.84369" lon="4.81031">
        <ele>445</ele>
        <time>2013-01-06T08:32:30Z</time>
      </trkpt>
      <trkpt lat="45.8437" lon="4.81024">
        <ele>445</ele>
        <time>2013-01-06T08:32:34Z</time>
      </trkpt>
      <trkpt lat="45.84372" lon="4.81019">
        <ele>445</ele>
        <time>2013-01-06T08:32:37Z</time>
      </trkpt>
      <trkpt lat="45.84372" lon="4.81016">
        <ele>446</ele>
        <time>2013-01-06T08:32:39Z</time>
      </trkpt>
      <trkpt lat="45.84373" lon="4.8101">
        <ele>446</ele>
        <time>2013-01-06T08:32:42Z</time>
      </trkpt>
      <trkpt lat="45.84377" lon="4.80999">
        <ele>452</ele>
        <time>2013-01-06T08:32:49Z</time>
      </trkpt>
      <trkpt lat="45.84378" lon="4.80997">
        <ele>452</ele>
        <time>2013-01-06T08:32:50Z</time>
      </trkpt>
      <trkpt lat="45.84379" lon="4.80991">
        <ele>453</ele>
        <time>2013-01-06T08:32:54Z</time>
      </trkpt>
      <trkpt lat="45.84382" lon="4.80978">
        <ele>453</ele>
        <time>2013-01-06T08:33:02Z</time>
      </trkpt>
      <trkpt lat="45.8438" lon="4.80973">
        <ele>453</ele>
        <time>2013-01-06T08:33:04Z</time>
      </trkpt>
      <trkpt lat="45.84383" lon="4.80966">
        <ele>454</ele>
        <time>2013-01-06T08:33:08Z</time>
      </trkpt>
      <trkpt lat="45.84386" lon="4.80956">
        <ele>454</ele>
        <time>2013-01-06T08:33:14Z</time>
      </trkpt>
      <trkpt lat="45.84389" lon="4.80949">
        <ele>455</ele>
        <time>2013-01-06T08:33:18Z</time>
      </trkpt>
      <trkpt lat="45.8439" lon="4.80944">
        <ele>455</ele>
        <time>2013-01-06T08:33:21Z</time>
      </trkpt>
      <trkpt lat="45.84398" lon="4.80935">
        <ele>456</ele>
        <time>2013-01-06T08:33:26Z</time>
      </trkpt>
      <trkpt lat="45.84399" lon="4.80933">
        <ele>456</ele>
        <time>2013-01-06T08:33:27Z</time>
      </trkpt>
      <trkpt lat="45.844" lon="4.80928">
        <ele>456</ele>
        <time>2013-01-06T08:33:29Z</time>
      </trkpt>
      <trkpt lat="45.844" lon="4.80924">
        <ele>456</ele>
        <time>2013-01-06T08:33:31Z</time>
      </trkpt>
      <trkpt lat="45.844" lon="4.80916">
        <ele>460</ele>
        <time>2013-01-06T08:33:36Z</time>
      </trkpt>
      <trkpt lat="45.844" lon="4.80915">
        <ele>460</ele>
        <time>2013-01-06T08:33:37Z</time>
      </trkpt>
      <trkpt lat="45.84403" lon="4.80905">
        <ele>460</ele>
        <time>2013-01-06T08:33:44Z</time>
      </trkpt>
      <trkpt lat="45.84404" lon="4.80902">
        <ele>460</ele>
        <time>2013-01-06T08:33:46Z</time>
      </trkpt>
      <trkpt lat="45.84405" lon="4.809">
        <ele>460</ele>
        <time>2013-01-06T08:33:48Z</time>
      </trkpt>
      <trkpt lat="45.84406" lon="4.80896">
        <ele>461</ele>
        <time>2013-01-06T08:33:50Z</time>
      </trkpt>
      <trkpt lat="45.84407" lon="4.80892">
        <ele>461</ele>
        <time>2013-01-06T08:33:53Z</time>
      </trkpt>
      <trkpt lat="45.84408" lon="4.80887">
        <ele>461</ele>
        <time>2013-01-06T08:33:56Z</time>
      </trkpt>
      <trkpt lat="45.84409" lon="4.80882">
        <ele>462</ele>
        <time>2013-01-06T08:33:59Z</time>
      </trkpt>
      <trkpt lat="45.84409" lon="4.80878">
        <ele>462</ele>
        <time>2013-01-06T08:34:01Z</time>
      </trkpt>
      <trkpt lat="45.84409" lon="4.80877">
        <ele>462</ele>
        <time>2013-01-06T08:34:02Z</time>
      </trkpt>
      <trkpt lat="45.8441" lon="4.80876">
        <ele>462</ele>
        <time>2013-01-06T08:34:03Z</time>
      </trkpt>
      <trkpt lat="45.84412" lon="4.8087">
        <ele>462</ele>
        <time>2013-01-06T08:34:07Z</time>
      </trkpt>
      <trkpt lat="45.84413" lon="4.80866">
        <ele>462</ele>
        <time>2013-01-06T08:34:09Z</time>
      </trkpt>
      <trkpt lat="45.84415" lon="4.8086">
        <ele>463</ele>
        <time>2013-01-06T08:34:13Z</time>
      </trkpt>
      <trkpt lat="45.84415" lon="4.80858">
        <ele>463</ele>
        <time>2013-01-06T08:34:14Z</time>
      </trkpt>
      <trkpt lat="45.84417" lon="4.80851">
        <ele>461</ele>
        <time>2013-01-06T08:34:18Z</time>
      </trkpt>
      <trkpt lat="45.84417" lon="4.80848">
        <ele>462</ele>
        <time>2013-01-06T08:34:20Z</time>
      </trkpt>
      <trkpt lat="45.84418" lon="4.8084">
        <ele>463</ele>
        <time>2013-01-06T08:34:25Z</time>
      </trkpt>
      <trkpt lat="45.84419" lon="4.80836">
        <ele>463</ele>
        <time>2013-01-06T08:34:28Z</time>
      </trkpt>
      <trkpt lat="45.8442" lon="4.80831">
        <ele>464</ele>
        <time>2013-01-06T08:34:32Z</time>
      </trkpt>
      <trkpt lat="45.8442" lon="4.80829">
        <ele>465</ele>
        <time>2013-01-06T08:34:33Z</time>
      </trkpt>
      <trkpt lat="45.8442" lon="4.80825">
        <ele>465</ele>
        <time>2013-01-06T08:34:36Z</time>
      </trkpt>
      <trkpt lat="45.84419" lon="4.80816">
        <ele>466</ele>
        <time>2013-01-06T08:34:41Z</time>
      </trkpt>
      <trkpt lat="45.8442" lon="4.808">
        <ele>467</ele>
        <time>2013-01-06T08:34:51Z</time>
      </trkpt>
      <trkpt lat="45.8442" lon="4.80798">
        <ele>467</ele>
        <time>2013-01-06T08:34:52Z</time>
      </trkpt>
      <trkpt lat="45.8442" lon="4.80795">
        <ele>468</ele>
        <time>2013-01-06T08:34:54Z</time>
      </trkpt>
      <trkpt lat="45.8442" lon="4.80792">
        <ele>468</ele>
        <time>2013-01-06T08:34:56Z</time>
      </trkpt>
      <trkpt lat="45.8442" lon="4.8079">
        <ele>468</ele>
        <time>2013-01-06T08:34:58Z</time>
      </trkpt>
      <trkpt lat="45.84418" lon="4.80785">
        <ele>469</ele>
        <time>2013-01-06T08:35:03Z</time>
      </trkpt>
      <trkpt lat="45.84417" lon="4.80784">
        <ele>469</ele>
        <time>2013-01-06T08:35:04Z</time>
      </trkpt>
      <trkpt lat="45.84416" lon="4.80778">
        <ele>472</ele>
        <time>2013-01-06T08:35:08Z</time>
      </trkpt>
      <trkpt lat="45.84416" lon="4.80773">
        <ele>472</ele>
        <time>2013-01-06T08:35:12Z</time>
      </trkpt>
      <trkpt lat="45.84416" lon="4.80772">
        <ele>472</ele>
        <time>2013-01-06T08:35:13Z</time>
      </trkpt>
      <trkpt lat="45.84416" lon="4.80771">
        <ele>472</ele>
        <time>2013-01-06T08:35:14Z</time>
      </trkpt>
      <trkpt lat="45.84415" lon="4.80766">
        <ele>473</ele>
        <time>2013-01-06T08:35:19Z</time>
      </trkpt>
      <trkpt lat="45.84414" lon="4.8076">
        <ele>474</ele>
        <time>2013-01-06T08:35:24Z</time>
      </trkpt>
      <trkpt lat="45.84414" lon="4.80756">
        <ele>474</ele>
        <time>2013-01-06T08:35:27Z</time>
      </trkpt>
      <trkpt lat="45.84414" lon="4.80752">
        <ele>474</ele>
        <time>2013-01-06T08:35:29Z</time>
      </trkpt>
      <trkpt lat="45.84414" lon="4.80751">
        <ele>475</ele>
        <time>2013-01-06T08:35:30Z</time>
      </trkpt>
      <trkpt lat="45.84413" lon="4.80747">
        <ele>476</ele>
        <time>2013-01-06T08:35:33Z</time>
      </trkpt>
      <trkpt lat="45.84413" lon="4.80742">
        <ele>477</ele>
        <time>2013-01-06T08:35:37Z</time>
      </trkpt>
      <trkpt lat="45.84412" lon="4.80734">
        <ele>478</ele>
        <time>2013-01-06T08:35:43Z</time>
      </trkpt>
      <trkpt lat="45.84412" lon="4.80732">
        <ele>478</ele>
        <time>2013-01-06T08:35:44Z</time>
      </trkpt>
      <trkpt lat="45.84411" lon="4.80726">
        <ele>479</ele>
        <time>2013-01-06T08:35:48Z</time>
      </trkpt>
      <trkpt lat="45.84411" lon="4.80725">
        <ele>479</ele>
        <time>2013-01-06T08:35:49Z</time>
      </trkpt>
      <trkpt lat="45.84411" lon="4.8072">
        <ele>479</ele>
        <time>2013-01-06T08:35:52Z</time>
      </trkpt>
      <trkpt lat="45.84411" lon="4.80719">
        <ele>480</ele>
        <time>2013-01-06T08:35:53Z</time>
      </trkpt>
      <trkpt lat="45.8441" lon="4.80709">
        <ele>480</ele>
        <time>2013-01-06T08:35:59Z</time>
      </trkpt>
      <trkpt lat="45.8441" lon="4.80707">
        <ele>481</ele>
        <time>2013-01-06T08:36:00Z</time>
      </trkpt>
      <trkpt lat="45.84411" lon="4.80701">
        <ele>481</ele>
        <time>2013-01-06T08:36:05Z</time>
      </trkpt>
      <trkpt lat="45.84411" lon="4.80696">
        <ele>482</ele>
        <time>2013-01-06T08:36:10Z</time>
      </trkpt>
      <trkpt lat="45.84411" lon="4.80694">
        <ele>482</ele>
        <time>2013-01-06T08:36:11Z</time>
      </trkpt>
      <trkpt lat="45.84411" lon="4.80689">
        <ele>482</ele>
        <time>2013-01-06T08:36:15Z</time>
      </trkpt>
      <trkpt lat="45.84411" lon="4.80688">
        <ele>483</ele>
        <time>2013-01-06T08:36:16Z</time>
      </trkpt>
      <trkpt lat="45.84413" lon="4.8068">
        <ele>484</ele>
        <time>2013-01-06T08:36:21Z</time>
      </trkpt>
      <trkpt lat="45.84412" lon="4.80678">
        <ele>484</ele>
        <time>2013-01-06T08:36:22Z</time>
      </trkpt>
      <trkpt lat="45.8441" lon="4.80672">
        <ele>484</ele>
        <time>2013-01-06T08:36:27Z</time>
      </trkpt>
      <trkpt lat="45.84409" lon="4.80669">
        <ele>485</ele>
        <time>2013-01-06T08:36:29Z</time>
      </trkpt>
      <trkpt lat="45.84409" lon="4.80669">
        <ele>485</ele>
        <time>2013-01-06T08:36:30Z</time>
      </trkpt>
      <trkpt lat="45.84409" lon="4.80668">
        <ele>484</ele>
        <time>2013-01-06T08:36:33Z</time>
      </trkpt>
      <trkpt lat="45.8441" lon="4.80667">
        <ele>485</ele>
        <time>2013-01-06T08:37:02Z</time>
      </trkpt>
      <trkpt lat="45.84411" lon="4.80668">
        <ele>485</ele>
        <time>2013-01-06T08:37:12Z</time>
      </trkpt>
      <trkpt lat="45.84412" lon="4.80668">
        <ele>485</ele>
        <time>2013-01-06T08:37:38Z</time>
      </trkpt>
      <trkpt lat="45.8441" lon="4.80666">
        <ele>487</ele>
        <time>2013-01-06T08:37:49Z</time>
      </trkpt>
      <trkpt lat="45.8441" lon="4.80661">
        <ele>487</ele>
        <time>2013-01-06T08:38:31Z</time>
      </trkpt>
      <trkpt lat="45.84411" lon="4.8066">
        <ele>487</ele>
        <time>2013-01-06T08:38:38Z</time>
      </trkpt>
      <trkpt lat="45.8441" lon="4.80659">
        <ele>488</ele>
        <time>2013-01-06T08:38:57Z</time>
      </trkpt>
      <trkpt lat="45.84409" lon="4.80651">
        <ele>488</ele>
        <time>2013-01-06T08:39:22Z</time>
      </trkpt>
      <trkpt lat="45.8441" lon="4.80642">
        <ele>489</ele>
        <time>2013-01-06T08:39:28Z</time>
      </trkpt>
      <trkpt lat="45.84412" lon="4.80631">
        <ele>490</ele>
        <time>2013-01-06T08:39:34Z</time>
      </trkpt>
      <trkpt lat="45.84413" lon="4.80626">
        <ele>491</ele>
        <time>2013-01-06T08:39:36Z</time>
      </trkpt>
      <trkpt lat="45.84414" lon="4.80624">
        <ele>491</ele>
        <time>2013-01-06T08:39:37Z</time>
      </trkpt>
      <trkpt lat="45.84415" lon="4.80617">
        <ele>492</ele>
        <time>2013-01-06T08:39:40Z</time>
      </trkpt>
      <trkpt lat="45.84417" lon="4.80607">
        <ele>492</ele>
        <time>2013-01-06T08:39:45Z</time>
      </trkpt>
      <trkpt lat="45.84419" lon="4.80601">
        <ele>493</ele>
        <time>2013-01-06T08:39:48Z</time>
      </trkpt>
      <trkpt lat="45.8442" lon="4.80599">
        <ele>493</ele>
        <time>2013-01-06T08:39:50Z</time>
      </trkpt>
      <trkpt lat="45.84423" lon="4.80591">
        <ele>494</ele>
        <time>2013-01-06T08:39:56Z</time>
      </trkpt>
      <trkpt lat="45.84424" lon="4.8059">
        <ele>494</ele>
        <time>2013-01-06T08:39:57Z</time>
      </trkpt>
      <trkpt lat="45.84425" lon="4.80586">
        <ele>495</ele>
        <time>2013-01-06T08:40:01Z</time>
      </trkpt>
      <trkpt lat="45.84425" lon="4.80585">
        <ele>495</ele>
        <time>2013-01-06T08:40:02Z</time>
      </trkpt>
      <trkpt lat="45.8442" lon="4.80581">
        <ele>498</ele>
        <time>2013-01-06T08:40:08Z</time>
      </trkpt>
      <trkpt lat="45.84411" lon="4.80577">
        <ele>498</ele>
        <time>2013-01-06T08:40:14Z</time>
      </trkpt>
      <trkpt lat="45.84402" lon="4.80574">
        <ele>499</ele>
        <time>2013-01-06T08:40:18Z</time>
      </trkpt>
      <trkpt lat="45.84399" lon="4.80572">
        <ele>499</ele>
        <time>2013-01-06T08:40:20Z</time>
      </trkpt>
      <trkpt lat="45.84387" lon="4.80566">
        <ele>499</ele>
        <time>2013-01-06T08:40:26Z</time>
      </trkpt>
      <trkpt lat="45.84384" lon="4.80565">
        <ele>499</ele>
        <time>2013-01-06T08:40:27Z</time>
      </trkpt>
      <trkpt lat="45.84368" lon="4.80559">
        <ele>499</ele>
        <time>2013-01-06T08:40:33Z</time>
      </trkpt>
      <trkpt lat="45.84366" lon="4.80559">
        <ele>499</ele>
        <time>2013-01-06T08:40:34Z</time>
      </trkpt>
      <trkpt lat="45.84358" lon="4.80554">
        <ele>500</ele>
        <time>2013-01-06T08:40:38Z</time>
      </trkpt>
      <trkpt lat="45.84358" lon="4.80552">
        <ele>500</ele>
        <time>2013-01-06T08:40:39Z</time>
      </trkpt>
      <trkpt lat="45.8436" lon="4.80546">
        <ele>500</ele>
        <time>2013-01-06T08:40:43Z</time>
      </trkpt>
      <trkpt lat="45.84363" lon="4.80542">
        <ele>500</ele>
        <time>2013-01-06T08:40:46Z</time>
      </trkpt>
      <trkpt lat="45.84367" lon="4.80538">
        <ele>501</ele>
        <time>2013-01-06T08:40:50Z</time>
      </trkpt>
      <trkpt lat="45.84373" lon="4.80531">
        <ele>501</ele>
        <time>2013-01-06T08:40:57Z</time>
      </trkpt>
      <trkpt lat="45.84375" lon="4.80528">
        <ele>501</ele>
        <time>2013-01-06T08:41:00Z</time>
      </trkpt>
      <trkpt lat="45.84377" lon="4.80526">
        <ele>501</ele>
        <time>2013-01-06T08:41:02Z</time>
      </trkpt>
      <trkpt lat="45.84378" lon="4.80525">
        <ele>501</ele>
        <time>2013-01-06T08:41:03Z</time>
      </trkpt>
      <trkpt lat="45.84382" lon="4.80521">
        <ele>502</ele>
        <time>2013-01-06T08:41:07Z</time>
      </trkpt>
      <trkpt lat="45.84382" lon="4.80521">
        <ele>502</ele>
        <time>2013-01-06T08:41:08Z</time>
      </trkpt>
      <trkpt lat="45.84385" lon="4.80514">
        <ele>502</ele>
        <time>2013-01-06T08:41:15Z</time>
      </trkpt>
      <trkpt lat="45.84385" lon="4.80512">
        <ele>502</ele>
        <time>2013-01-06T08:41:17Z</time>
      </trkpt>
      <trkpt lat="45.84385" lon="4.80509">
        <ele>502</ele>
        <time>2013-01-06T08:41:19Z</time>
      </trkpt>
      <trkpt lat="45.84385" lon="4.80507">
        <ele>502</ele>
        <time>2013-01-06T08:41:21Z</time>
      </trkpt>
      <trkpt lat="45.84385" lon="4.80505">
        <ele>502</ele>
        <time>2013-01-06T08:41:22Z</time>
      </trkpt>
      <trkpt lat="45.84386" lon="4.80503">
        <ele>502</ele>
        <time>2013-01-06T08:41:24Z</time>
      </trkpt>
      <trkpt lat="45.84386" lon="4.80501">
        <ele>502</ele>
        <time>2013-01-06T08:41:25Z</time>
      </trkpt>
      <trkpt lat="45.84386" lon="4.80494">
        <ele>509</ele>
        <time>2013-01-06T08:41:30Z</time>
      </trkpt>
      <trkpt lat="45.84389" lon="4.80487">
        <ele>509</ele>
        <time>2013-01-06T08:41:35Z</time>
      </trkpt>
      <trkpt lat="45.8439" lon="4.80486">
        <ele>509</ele>
        <time>2013-01-06T08:41:36Z</time>
      </trkpt>
      <trkpt lat="45.8439" lon="4.80481">
        <ele>510</ele>
        <time>2013-01-06T08:41:40Z</time>
      </trkpt>
      <trkpt lat="45.84389" lon="4.80478">
        <ele>510</ele>
        <time>2013-01-06T08:41:42Z</time>
      </trkpt>
      <trkpt lat="45.8439" lon="4.80475">
        <ele>510</ele>
        <time>2013-01-06T08:41:44Z</time>
      </trkpt>
      <trkpt lat="45.84391" lon="4.80467">
        <ele>511</ele>
        <time>2013-01-06T08:41:49Z</time>
      </trkpt>
      <trkpt lat="45.84391" lon="4.80463">
        <ele>511</ele>
        <time>2013-01-06T08:41:52Z</time>
      </trkpt>
      <trkpt lat="45.84391" lon="4.80459">
        <ele>512</ele>
        <time>2013-01-06T08:41:55Z</time>
      </trkpt>
      <trkpt lat="45.8439" lon="4.80452">
        <ele>512</ele>
        <time>2013-01-06T08:41:59Z</time>
      </trkpt>
      <trkpt lat="45.84389" lon="4.8045">
        <ele>513</ele>
        <time>2013-01-06T08:42:01Z</time>
      </trkpt>
      <trkpt lat="45.8439" lon="4.80438">
        <ele>514</ele>
        <time>2013-01-06T08:42:08Z</time>
      </trkpt>
      <trkpt lat="45.8439" lon="4.80436">
        <ele>514</ele>
        <time>2013-01-06T08:42:09Z</time>
      </trkpt>
      <trkpt lat="45.84391" lon="4.80433">
        <ele>514</ele>
        <time>2013-01-06T08:42:12Z</time>
      </trkpt>
      <trkpt lat="45.84392" lon="4.8043">
        <ele>514</ele>
        <time>2013-01-06T08:42:15Z</time>
      </trkpt>
      <trkpt lat="45.84392" lon="4.80429">
        <ele>514</ele>
        <time>2013-01-06T08:42:16Z</time>
      </trkpt>
      <trkpt lat="45.84393" lon="4.80426">
        <ele>515</ele>
        <time>2013-01-06T08:42:18Z</time>
      </trkpt>
      <trkpt lat="45.84395" lon="4.80419">
        <ele>515</ele>
        <time>2013-01-06T08:42:22Z</time>
      </trkpt>
      <trkpt lat="45.84397" lon="4.80412">
        <ele>522</ele>
        <time>2013-01-06T08:42:27Z</time>
      </trkpt>
      <trkpt lat="45.84398" lon="4.80405">
        <ele>523</ele>
        <time>2013-01-06T08:42:32Z</time>
      </trkpt>
      <trkpt lat="45.84398" lon="4.80401">
        <ele>523</ele>
        <time>2013-01-06T08:42:34Z</time>
      </trkpt>
      <trkpt lat="45.84398" lon="4.804">
        <ele>523</ele>
        <time>2013-01-06T08:42:35Z</time>
      </trkpt>
      <trkpt lat="45.84397" lon="4.80398">
        <ele>523</ele>
        <time>2013-01-06T08:42:37Z</time>
      </trkpt>
      <trkpt lat="45.84396" lon="4.80397">
        <ele>523</ele>
        <time>2013-01-06T08:42:38Z</time>
      </trkpt>
      <trkpt lat="45.84396" lon="4.8039">
        <ele>524</ele>
        <time>2013-01-06T08:42:42Z</time>
      </trkpt>
      <trkpt lat="45.84396" lon="4.80383">
        <ele>525</ele>
        <time>2013-01-06T08:42:47Z</time>
      </trkpt>
      <trkpt lat="45.84397" lon="4.80381">
        <ele>525</ele>
        <time>2013-01-06T08:42:49Z</time>
      </trkpt>
      <trkpt lat="45.84398" lon="4.80375">
        <ele>525</ele>
        <time>2013-01-06T08:42:53Z</time>
      </trkpt>
      <trkpt lat="45.84398" lon="4.80374">
        <ele>526</ele>
        <time>2013-01-06T08:42:54Z</time>
      </trkpt>
      <trkpt lat="45.84398" lon="4.80368">
        <ele>526</ele>
        <time>2013-01-06T08:42:58Z</time>
      </trkpt>
      <trkpt lat="45.84398" lon="4.80364">
        <ele>527</ele>
        <time>2013-01-06T08:43:00Z</time>
      </trkpt>
      <trkpt lat="45.84397" lon="4.80359">
        <ele>527</ele>
        <time>2013-01-06T08:43:03Z</time>
      </trkpt>
      <trkpt lat="45.84396" lon="4.80355">
        <ele>527</ele>
        <time>2013-01-06T08:43:06Z</time>
      </trkpt>
      <trkpt lat="45.84396" lon="4.80354">
        <ele>528</ele>
        <time>2013-01-06T08:43:07Z</time>
      </trkpt>
      <trkpt lat="45.84396" lon="4.8035">
        <ele>528</ele>
        <time>2013-01-06T08:43:10Z</time>
      </trkpt>
      <trkpt lat="45.84395" lon="4.80347">
        <ele>528</ele>
        <time>2013-01-06T08:43:12Z</time>
      </trkpt>
      <trkpt lat="45.84396" lon="4.80343">
        <ele>529</ele>
        <time>2013-01-06T08:43:15Z</time>
      </trkpt>
      <trkpt lat="45.84396" lon="4.80335">
        <ele>529</ele>
        <time>2013-01-06T08:43:19Z</time>
      </trkpt>
      <trkpt lat="45.84397" lon="4.80334">
        <ele>529</ele>
        <time>2013-01-06T08:43:20Z</time>
      </trkpt>
      <trkpt lat="45.84397" lon="4.80331">
        <ele>535</ele>
        <time>2013-01-06T08:43:23Z</time>
      </trkpt>
      <trkpt lat="45.84397" lon="4.80327">
        <ele>535</ele>
        <time>2013-01-06T08:43:26Z</time>
      </trkpt>
      <trkpt lat="45.84399" lon="4.8032">
        <ele>536</ele>
        <time>2013-01-06T08:43:31Z</time>
      </trkpt>
      <trkpt lat="45.84399" lon="4.80319">
        <ele>536</ele>
        <time>2013-01-06T08:43:32Z</time>
      </trkpt>
      <trkpt lat="45.84398" lon="4.80314">
        <ele>536</ele>
        <time>2013-01-06T08:43:35Z</time>
      </trkpt>
      <trkpt lat="45.84398" lon="4.8031">
        <ele>536</ele>
        <time>2013-01-06T08:43:37Z</time>
      </trkpt>
      <trkpt lat="45.84399" lon="4.80307">
        <ele>536</ele>
        <time>2013-01-06T08:43:39Z</time>
      </trkpt>
      <trkpt lat="45.84399" lon="4.80303">
        <ele>537</ele>
        <time>2013-01-06T08:43:43Z</time>
      </trkpt>
      <trkpt lat="45.84399" lon="4.80301">
        <ele>537</ele>
        <time>2013-01-06T08:43:45Z</time>
      </trkpt>
      <trkpt lat="45.84399" lon="4.80299">
        <ele>537</ele>
        <time>2013-01-06T08:43:46Z</time>
      </trkpt>
      <trkpt lat="45.84401" lon="4.80294">
        <ele>538</ele>
        <time>2013-01-06T08:43:50Z</time>
      </trkpt>
      <trkpt lat="45.84402" lon="4.80283">
        <ele>539</ele>
        <time>2013-01-06T08:43:57Z</time>
      </trkpt>
      <trkpt lat="45.84403" lon="4.80279">
        <ele>539</ele>
        <time>2013-01-06T08:44:00Z</time>
      </trkpt>
      <trkpt lat="45.84404" lon="4.80274">
        <ele>540</ele>
        <time>2013-01-06T08:44:04Z</time>
      </trkpt>
      <trkpt lat="45.84404" lon="4.80268">
        <ele>540</ele>
        <time>2013-01-06T08:44:08Z</time>
      </trkpt>
      <trkpt lat="45.84404" lon="4.80264">
        <ele>541</ele>
        <time>2013-01-06T08:44:10Z</time>
      </trkpt>
      <trkpt lat="45.84404" lon="4.80263">
        <ele>541</ele>
        <time>2013-01-06T08:44:11Z</time>
      </trkpt>
      <trkpt lat="45.84403" lon="4.80257">
        <ele>541</ele>
        <time>2013-01-06T08:44:16Z</time>
      </trkpt>
      <trkpt lat="45.84406" lon="4.80252">
        <ele>542</ele>
        <time>2013-01-06T08:44:20Z</time>
      </trkpt>
      <trkpt lat="45.84408" lon="4.8025">
        <ele>545</ele>
        <time>2013-01-06T08:44:22Z</time>
      </trkpt>
      <trkpt lat="45.84406" lon="4.80242">
        <ele>545</ele>
        <time>2013-01-06T08:44:27Z</time>
      </trkpt>
      <trkpt lat="45.84402" lon="4.80229">
        <ele>546</ele>
        <time>2013-01-06T08:44:35Z</time>
      </trkpt>
      <trkpt lat="45.84398" lon="4.80219">
        <ele>547</ele>
        <time>2013-01-06T08:44:42Z</time>
      </trkpt>
      <trkpt lat="45.84393" lon="4.8021">
        <ele>547</ele>
        <time>2013-01-06T08:44:49Z</time>
      </trkpt>
      <trkpt lat="45.84388" lon="4.80202">
        <ele>548</ele>
        <time>2013-01-06T08:44:55Z</time>
      </trkpt>
      <trkpt lat="45.84386" lon="4.80199">
        <ele>548</ele>
        <time>2013-01-06T08:44:57Z</time>
      </trkpt>
      <trkpt lat="45.84382" lon="4.80192">
        <ele>548</ele>
        <time>2013-01-06T08:45:03Z</time>
      </trkpt>
      <trkpt lat="45.84381" lon="4.8019">
        <ele>548</ele>
        <time>2013-01-06T08:45:04Z</time>
      </trkpt>
      <trkpt lat="45.84376" lon="4.80186">
        <ele>548</ele>
        <time>2013-01-06T08:45:09Z</time>
      </trkpt>
      <trkpt lat="45.84372" lon="4.80184">
        <ele>548</ele>
        <time>2013-01-06T08:45:12Z</time>
      </trkpt>
      <trkpt lat="45.8437" lon="4.80182">
        <ele>548</ele>
        <time>2013-01-06T08:45:14Z</time>
      </trkpt>
      <trkpt lat="45.84359" lon="4.80178">
        <ele>548</ele>
        <time>2013-01-06T08:45:23Z</time>
      </trkpt>
      <trkpt lat="45.84354" lon="4.80177">
        <ele>549</ele>
        <time>2013-01-06T08:45:27Z</time>
      </trkpt>
      <trkpt lat="45.8435" lon="4.80176">
        <ele>549</ele>
        <time>2013-01-06T08:45:30Z</time>
      </trkpt>
      <trkpt lat="45.8434" lon="4.80172">
        <ele>549</ele>
        <time>2013-01-06T08:45:39Z</time>
      </trkpt>
      <trkpt lat="45.84336" lon="4.80171">
        <ele>549</ele>
        <time>2013-01-06T08:45:42Z</time>
      </trkpt>
      <trkpt lat="45.84329" lon="4.80169">
        <ele>549</ele>
        <time>2013-01-06T08:45:49Z</time>
      </trkpt>
      <trkpt lat="45.84324" lon="4.80167">
        <ele>548</ele>
        <time>2013-01-06T08:45:56Z</time>
      </trkpt>
      <trkpt lat="45.8432" lon="4.80163">
        <ele>552</ele>
        <time>2013-01-06T08:46:21Z</time>
      </trkpt>
      <trkpt lat="45.84319" lon="4.80163">
        <ele>552</ele>
        <time>2013-01-06T08:46:22Z</time>
      </trkpt>
      <trkpt lat="45.84311" lon="4.8016">
        <ele>552</ele>
        <time>2013-01-06T08:46:27Z</time>
      </trkpt>
      <trkpt lat="45.84302" lon="4.80156">
        <ele>552</ele>
        <time>2013-01-06T08:46:32Z</time>
      </trkpt>
      <trkpt lat="45.84297" lon="4.80155">
        <ele>552</ele>
        <time>2013-01-06T08:46:34Z</time>
      </trkpt>
      <trkpt lat="45.84283" lon="4.80152">
        <ele>552</ele>
        <time>2013-01-06T08:46:40Z</time>
      </trkpt>
      <trkpt lat="45.84273" lon="4.80151">
        <ele>552</ele>
        <time>2013-01-06T08:46:44Z</time>
      </trkpt>
      <trkpt lat="45.84263" lon="4.80148">
        <ele>551</ele>
        <time>2013-01-06T08:46:48Z</time>
      </trkpt>
      <trkpt lat="45.84256" lon="4.80146">
        <ele>551</ele>
        <time>2013-01-06T08:46:51Z</time>
      </trkpt>
      <trkpt lat="45.84244" lon="4.80144">
        <ele>551</ele>
        <time>2013-01-06T08:46:56Z</time>
      </trkpt>
      <trkpt lat="45.84242" lon="4.80144">
        <ele>551</ele>
        <time>2013-01-06T08:46:57Z</time>
      </trkpt>
      <trkpt lat="45.84229" lon="4.80137">
        <ele>552</ele>
        <time>2013-01-06T08:47:03Z</time>
      </trkpt>
      <trkpt lat="45.84226" lon="4.80133">
        <ele>552</ele>
        <time>2013-01-06T08:47:05Z</time>
      </trkpt>
      <trkpt lat="45.84222" lon="4.80127">
        <ele>553</ele>
        <time>2013-01-06T08:47:09Z</time>
      </trkpt>
      <trkpt lat="45.84219" lon="4.80119">
        <ele>553</ele>
        <time>2013-01-06T08:47:14Z</time>
      </trkpt>
      <trkpt lat="45.84217" lon="4.8011">
        <ele>554</ele>
        <time>2013-01-06T08:47:20Z</time>
      </trkpt>
      <trkpt lat="45.84216" lon="4.80107">
        <ele>554</ele>
        <time>2013-01-06T08:47:22Z</time>
      </trkpt>
      <trkpt lat="45.84214" lon="4.80097">
        <ele>554</ele>
        <time>2013-01-06T08:47:28Z</time>
      </trkpt>
      <trkpt lat="45.84214" lon="4.80084">
        <ele>555</ele>
        <time>2013-01-06T08:47:36Z</time>
      </trkpt>
      <trkpt lat="45.84216" lon="4.80075">
        <ele>562</ele>
        <time>2013-01-06T08:47:42Z</time>
      </trkpt>
      <trkpt lat="45.84217" lon="4.80068">
        <ele>562</ele>
        <time>2013-01-06T08:47:47Z</time>
      </trkpt>
      <trkpt lat="45.84218" lon="4.80066">
        <ele>562</ele>
        <time>2013-01-06T08:47:49Z</time>
      </trkpt>
      <trkpt lat="45.84219" lon="4.80059">
        <ele>562</ele>
        <time>2013-01-06T08:47:53Z</time>
      </trkpt>
      <trkpt lat="45.8422" lon="4.80057">
        <ele>563</ele>
        <time>2013-01-06T08:47:54Z</time>
      </trkpt>
      <trkpt lat="45.84224" lon="4.80049">
        <ele>563</ele>
        <time>2013-01-06T08:48:00Z</time>
      </trkpt>
      <trkpt lat="45.84228" lon="4.80042">
        <ele>564</ele>
        <time>2013-01-06T08:48:05Z</time>
      </trkpt>
      <trkpt lat="45.8423" lon="4.80038">
        <ele>564</ele>
        <time>2013-01-06T08:48:08Z</time>
      </trkpt>
      <trkpt lat="45.84231" lon="4.80034">
        <ele>564</ele>
        <time>2013-01-06T08:48:11Z</time>
      </trkpt>
      <trkpt lat="45.84235" lon="4.80025">
        <ele>565</ele>
        <time>2013-01-06T08:48:17Z</time>
      </trkpt>
      <trkpt lat="45.84238" lon="4.80016">
        <ele>566</ele>
        <time>2013-01-06T08:48:23Z</time>
      </trkpt>
      <trkpt lat="45.84239" lon="4.80015">
        <ele>566</ele>
        <time>2013-01-06T08:48:24Z</time>
      </trkpt>
      <trkpt lat="45.8424" lon="4.80011">
        <ele>567</ele>
        <time>2013-01-06T08:48:26Z</time>
      </trkpt>
      <trkpt lat="45.84242" lon="4.80007">
        <ele>567</ele>
        <time>2013-01-06T08:48:29Z</time>
      </trkpt>
      <trkpt lat="45.84243" lon="4.80002">
        <ele>568</ele>
        <time>2013-01-06T08:48:32Z</time>
      </trkpt>
      <trkpt lat="45.84244" lon="4.79999">
        <ele>570</ele>
        <time>2013-01-06T08:48:34Z</time>
      </trkpt>
      <trkpt lat="45.84246" lon="4.79991">
        <ele>571</ele>
        <time>2013-01-06T08:48:39Z</time>
      </trkpt>
      <trkpt lat="45.84247" lon="4.7999">
        <ele>571</ele>
        <time>2013-01-06T08:48:40Z</time>
      </trkpt>
      <trkpt lat="45.84248" lon="4.79982">
        <ele>572</ele>
        <time>2013-01-06T08:48:45Z</time>
      </trkpt>
      <trkpt lat="45.84249" lon="4.79974">
        <ele>573</ele>
        <time>2013-01-06T08:48:50Z</time>
      </trkpt>
      <trkpt lat="45.84249" lon="4.79973">
        <ele>573</ele>
        <time>2013-01-06T08:48:51Z</time>
      </trkpt>
      <trkpt lat="45.84249" lon="4.79964">
        <ele>574</ele>
        <time>2013-01-06T08:48:56Z</time>
      </trkpt>
      <trkpt lat="45.84249" lon="4.79954">
        <ele>575</ele>
        <time>2013-01-06T08:49:01Z</time>
      </trkpt>
      <trkpt lat="45.84248" lon="4.79942">
        <ele>576</ele>
        <time>2013-01-06T08:49:07Z</time>
      </trkpt>
      <trkpt lat="45.84249" lon="4.79936">
        <ele>576</ele>
        <time>2013-01-06T08:49:10Z</time>
      </trkpt>
      <trkpt lat="45.84249" lon="4.7993">
        <ele>577</ele>
        <time>2013-01-06T08:49:13Z</time>
      </trkpt>
      <trkpt lat="45.84249" lon="4.79927">
        <ele>577</ele>
        <time>2013-01-06T08:49:15Z</time>
      </trkpt>
      <trkpt lat="45.84249" lon="4.79921">
        <ele>578</ele>
        <time>2013-01-06T08:49:18Z</time>
      </trkpt>
      <trkpt lat="45.84249" lon="4.79919">
        <ele>578</ele>
        <time>2013-01-06T08:49:19Z</time>
      </trkpt>
      <trkpt lat="45.84247" lon="4.7991">
        <ele>581</ele>
        <time>2013-01-06T08:49:24Z</time>
      </trkpt>
      <trkpt lat="45.84247" lon="4.79908">
        <ele>581</ele>
        <time>2013-01-06T08:49:25Z</time>
      </trkpt>
      <trkpt lat="45.84244" lon="4.79896">
        <ele>583</ele>
        <time>2013-01-06T08:49:32Z</time>
      </trkpt>
      <trkpt lat="45.84239" lon="4.79885">
        <ele>584</ele>
        <time>2013-01-06T08:49:39Z</time>
      </trkpt>
      <trkpt lat="45.84238" lon="4.79882">
        <ele>584</ele>
        <time>2013-01-06T08:49:41Z</time>
      </trkpt>
      <trkpt lat="45.84235" lon="4.79869">
        <ele>586</ele>
        <time>2013-01-06T08:49:49Z</time>
      </trkpt>
      <trkpt lat="45.84233" lon="4.7986">
        <ele>586</ele>
        <time>2013-01-06T08:49:54Z</time>
      </trkpt>
      <trkpt lat="45.84232" lon="4.79858">
        <ele>586</ele>
        <time>2013-01-06T08:49:55Z</time>
      </trkpt>
      <trkpt lat="45.84229" lon="4.79845">
        <ele>587</ele>
        <time>2013-01-06T08:50:02Z</time>
      </trkpt>
      <trkpt lat="45.84227" lon="4.79836">
        <ele>588</ele>
        <time>2013-01-06T08:50:07Z</time>
      </trkpt>
      <trkpt lat="45.84227" lon="4.79834">
        <ele>588</ele>
        <time>2013-01-06T08:50:08Z</time>
      </trkpt>
      <trkpt lat="45.84224" lon="4.79824">
        <ele>591</ele>
        <time>2013-01-06T08:50:14Z</time>
      </trkpt>
      <trkpt lat="45.84221" lon="4.79812">
        <ele>591</ele>
        <time>2013-01-06T08:50:22Z</time>
      </trkpt>
      <trkpt lat="45.84221" lon="4.79811">
        <ele>591</ele>
        <time>2013-01-06T08:50:23Z</time>
      </trkpt>
      <trkpt lat="45.84221" lon="4.7981">
        <ele>591</ele>
        <time>2013-01-06T08:50:24Z</time>
      </trkpt>
      <trkpt lat="45.84222" lon="4.79808">
        <ele>591</ele>
        <time>2013-01-06T08:50:26Z</time>
      </trkpt>
      <trkpt lat="45.84221" lon="4.79807">
        <ele>591</ele>
        <time>2013-01-06T08:50:27Z</time>
      </trkpt>
      <trkpt lat="45.84218" lon="4.79803">
        <ele>591</ele>
        <time>2013-01-06T08:50:33Z</time>
      </trkpt>
      <trkpt lat="45.84218" lon="4.79804">
        <ele>591</ele>
        <time>2013-01-06T08:50:42Z</time>
      </trkpt>
      <trkpt lat="45.84218" lon="4.79805">
        <ele>591</ele>
        <time>2013-01-06T08:50:53Z</time>
      </trkpt>
      <trkpt lat="45.84218" lon="4.79806">
        <ele>591</ele>
        <time>2013-01-06T08:50:59Z</time>
      </trkpt>
      <trkpt lat="45.84219" lon="4.79808">
        <ele>591</ele>
        <time>2013-01-06T08:51:12Z</time>
      </trkpt>
      <trkpt lat="45.84218" lon="4.79814">
        <ele>591</ele>
        <time>2013-01-06T08:51:19Z</time>
      </trkpt>
      <trkpt lat="45.84217" lon="4.79814">
        <ele>591</ele>
        <time>2013-01-06T08:51:24Z</time>
      </trkpt>
      <trkpt lat="45.84218" lon="4.79811">
        <ele>591</ele>
        <time>2013-01-06T08:51:26Z</time>
      </trkpt>
      <trkpt lat="45.84217" lon="4.79812">
        <ele>591</ele>
        <time>2013-01-06T08:51:28Z</time>
      </trkpt>
      <trkpt lat="45.84217" lon="4.79812">
        <ele>591</ele>
        <time>2013-01-06T08:51:34Z</time>
      </trkpt>
      <trkpt lat="45.84218" lon="4.79809">
        <ele>591</ele>
        <time>2013-01-06T08:51:46Z</time>
      </trkpt>
      <trkpt lat="45.84218" lon="4.79807">
        <ele>591</ele>
        <time>2013-01-06T08:51:55Z</time>
      </trkpt>
      <trkpt lat="45.84219" lon="4.79803">
        <ele>591</ele>
        <time>2013-01-06T08:51:59Z</time>
      </trkpt>
      <trkpt lat="45.84219" lon="4.79807">
        <ele>591</ele>
        <time>2013-01-06T08:52:04Z</time>
      </trkpt>
      <trkpt lat="45.84219" lon="4.7981">
        <ele>591</ele>
        <time>2013-01-06T08:52:19Z</time>
      </trkpt>
      <trkpt lat="45.8422" lon="4.79811">
        <ele>591</ele>
        <time>2013-01-06T08:52:25Z</time>
      </trkpt>
      <trkpt lat="45.84223" lon="4.79812">
        <ele>591</ele>
        <time>2013-01-06T08:52:33Z</time>
      </trkpt>
      <trkpt lat="45.84224" lon="4.79812">
        <ele>591</ele>
        <time>2013-01-06T08:52:34Z</time>
      </trkpt>
      <trkpt lat="45.84228" lon="4.79814">
        <ele>591</ele>
        <time>2013-01-06T08:52:36Z</time>
      </trkpt>
      <trkpt lat="45.84235" lon="4.7982">
        <ele>591</ele>
        <time>2013-01-06T08:52:39Z</time>
      </trkpt>
      <trkpt lat="45.8424" lon="4.79825">
        <ele>591</ele>
        <time>2013-01-06T08:52:41Z</time>
      </trkpt>
      <trkpt lat="45.84249" lon="4.79836">
        <ele>590</ele>
        <time>2013-01-06T08:52:45Z</time>
      </trkpt>
      <trkpt lat="45.84255" lon="4.79844">
        <ele>585</ele>
        <time>2013-01-06T08:52:48Z</time>
      </trkpt>
      <trkpt lat="45.84263" lon="4.79856">
        <ele>581</ele>
        <time>2013-01-06T08:52:52Z</time>
      </trkpt>
      <trkpt lat="45.84269" lon="4.79864">
        <ele>580</ele>
        <time>2013-01-06T08:52:55Z</time>
      </trkpt>
      <trkpt lat="45.84276" lon="4.79871">
        <ele>579</ele>
        <time>2013-01-06T08:52:58Z</time>
      </trkpt>
      <trkpt lat="45.84284" lon="4.79881">
        <ele>578</ele>
        <time>2013-01-06T08:53:02Z</time>
      </trkpt>
      <trkpt lat="45.84287" lon="4.79886">
        <ele>577</ele>
        <time>2013-01-06T08:53:04Z</time>
      </trkpt>
      <trkpt lat="45.84297" lon="4.79897">
        <ele>576</ele>
        <time>2013-01-06T08:53:09Z</time>
      </trkpt>
      <trkpt lat="45.843" lon="4.799">
        <ele>576</ele>
        <time>2013-01-06T08:53:10Z</time>
      </trkpt>
      <trkpt lat="45.84308" lon="4.79908">
        <ele>575</ele>
        <time>2013-01-06T08:53:14Z</time>
      </trkpt>
      <trkpt lat="45.84314" lon="4.79915">
        <ele>574</ele>
        <time>2013-01-06T08:53:17Z</time>
      </trkpt>
      <trkpt lat="45.84318" lon="4.7992">
        <ele>572</ele>
        <time>2013-01-06T08:53:19Z</time>
      </trkpt>
      <trkpt lat="45.8433" lon="4.79932">
        <ele>572</ele>
        <time>2013-01-06T08:53:24Z</time>
      </trkpt>
      <trkpt lat="45.84332" lon="4.79932">
        <ele>572</ele>
        <time>2013-01-06T08:53:25Z</time>
      </trkpt>
      <trkpt lat="45.8434" lon="4.79925">
        <ele>569</ele>
        <time>2013-01-06T08:53:30Z</time>
      </trkpt>
      <trkpt lat="45.84346" lon="4.7992">
        <ele>569</ele>
        <time>2013-01-06T08:53:35Z</time>
      </trkpt>
      <trkpt lat="45.84347" lon="4.7992">
        <ele>568</ele>
        <time>2013-01-06T08:53:36Z</time>
      </trkpt>
      <trkpt lat="45.8435" lon="4.79921">
        <ele>568</ele>
        <time>2013-01-06T08:53:39Z</time>
      </trkpt>
      <trkpt lat="45.84352" lon="4.79925">
        <ele>567</ele>
        <time>2013-01-06T08:53:41Z</time>
      </trkpt>
      <trkpt lat="45.8436" lon="4.79932">
        <ele>566</ele>
        <time>2013-01-06T08:53:46Z</time>
      </trkpt>
      <trkpt lat="45.84363" lon="4.79932">
        <ele>565</ele>
        <time>2013-01-06T08:53:48Z</time>
      </trkpt>
      <trkpt lat="45.84366" lon="4.79936">
        <ele>565</ele>
        <time>2013-01-06T08:53:50Z</time>
      </trkpt>
      <trkpt lat="45.84373" lon="4.79943">
        <ele>564</ele>
        <time>2013-01-06T08:53:55Z</time>
      </trkpt>
      <trkpt lat="45.84379" lon="4.7995">
        <ele>564</ele>
        <time>2013-01-06T08:53:58Z</time>
      </trkpt>
      <trkpt lat="45.84381" lon="4.79956">
        <ele>564</ele>
        <time>2013-01-06T08:54:00Z</time>
      </trkpt>
      <trkpt lat="45.8439" lon="4.79968">
        <ele>563</ele>
        <time>2013-01-06T08:54:05Z</time>
      </trkpt>
      <trkpt lat="45.84392" lon="4.7997">
        <ele>563</ele>
        <time>2013-01-06T08:54:06Z</time>
      </trkpt>
      <trkpt lat="45.84398" lon="4.79978">
        <ele>563</ele>
        <time>2013-01-06T08:54:09Z</time>
      </trkpt>
      <trkpt lat="45.84401" lon="4.79979">
        <ele>563</ele>
        <time>2013-01-06T08:54:10Z</time>
      </trkpt>
      <trkpt lat="45.84408" lon="4.79987">
        <ele>562</ele>
        <time>2013-01-06T08:54:13Z</time>
      </trkpt>
      <trkpt lat="45.8441" lon="4.79989">
        <ele>562</ele>
        <time>2013-01-06T08:54:14Z</time>
      </trkpt>
      <trkpt lat="45.84412" lon="4.79992">
        <ele>562</ele>
        <time>2013-01-06T08:54:15Z</time>
      </trkpt>
      <trkpt lat="45.84418" lon="4.80002">
        <ele>560</ele>
        <time>2013-01-06T08:54:19Z</time>
      </trkpt>
      <trkpt lat="45.84418" lon="4.8001">
        <ele>558</ele>
        <time>2013-01-06T08:54:21Z</time>
      </trkpt>
      <trkpt lat="45.84418" lon="4.80021">
        <ele>556</ele>
        <time>2013-01-06T08:54:24Z</time>
      </trkpt>
      <trkpt lat="45.84426" lon="4.80032">
        <ele>555</ele>
        <time>2013-01-06T08:54:28Z</time>
      </trkpt>
      <trkpt lat="45.84428" lon="4.80033">
        <ele>555</ele>
        <time>2013-01-06T08:54:29Z</time>
      </trkpt>
      <trkpt lat="45.8443" lon="4.80036">
        <ele>554</ele>
        <time>2013-01-06T08:54:30Z</time>
      </trkpt>
      <trkpt lat="45.84433" lon="4.80045">
        <ele>554</ele>
        <time>2013-01-06T08:54:33Z</time>
      </trkpt>
      <trkpt lat="45.84439" lon="4.80052">
        <ele>554</ele>
        <time>2013-01-06T08:54:36Z</time>
      </trkpt>
      <trkpt lat="45.84441" lon="4.80056">
        <ele>554</ele>
        <time>2013-01-06T08:54:37Z</time>
      </trkpt>
      <trkpt lat="45.84442" lon="4.80059">
        <ele>554</ele>
        <time>2013-01-06T08:54:38Z</time>
      </trkpt>
      <trkpt lat="45.84452" lon="4.80075">
        <ele>554</ele>
        <time>2013-01-06T08:54:43Z</time>
      </trkpt>
      <trkpt lat="45.84453" lon="4.8008">
        <ele>554</ele>
        <time>2013-01-06T08:54:44Z</time>
      </trkpt>
      <trkpt lat="45.84456" lon="4.80091">
        <ele>555</ele>
        <time>2013-01-06T08:54:47Z</time>
      </trkpt>
      <trkpt lat="45.84461" lon="4.80099">
        <ele>555</ele>
        <time>2013-01-06T08:54:50Z</time>
      </trkpt>
      <trkpt lat="45.84467" lon="4.801">
        <ele>555</ele>
        <time>2013-01-06T08:54:52Z</time>
      </trkpt>
      <trkpt lat="45.84475" lon="4.80089">
        <ele>554</ele>
        <time>2013-01-06T08:54:56Z</time>
      </trkpt>
      <trkpt lat="45.84477" lon="4.80086">
        <ele>554</ele>
        <time>2013-01-06T08:54:57Z</time>
      </trkpt>
      <trkpt lat="45.84479" lon="4.80084">
        <ele>554</ele>
        <time>2013-01-06T08:54:59Z</time>
      </trkpt>
      <trkpt lat="45.8448" lon="4.80085">
        <ele>553</ele>
        <time>2013-01-06T08:55:00Z</time>
      </trkpt>
      <trkpt lat="45.84486" lon="4.80095">
        <ele>553</ele>
        <time>2013-01-06T08:55:04Z</time>
      </trkpt>
      <trkpt lat="45.8449" lon="4.801">
        <ele>553</ele>
        <time>2013-01-06T08:55:06Z</time>
      </trkpt>
      <trkpt lat="45.84495" lon="4.80102">
        <ele>553</ele>
        <time>2013-01-06T08:55:08Z</time>
      </trkpt>
      <trkpt lat="45.845" lon="4.80104">
        <ele>553</ele>
        <time>2013-01-06T08:55:10Z</time>
      </trkpt>
      <trkpt lat="45.84508" lon="4.80106">
        <ele>547</ele>
        <time>2013-01-06T08:55:14Z</time>
      </trkpt>
      <trkpt lat="45.8451" lon="4.80107">
        <ele>546</ele>
        <time>2013-01-06T08:55:15Z</time>
      </trkpt>
      <trkpt lat="45.84516" lon="4.80113">
        <ele>546</ele>
        <time>2013-01-06T08:55:18Z</time>
      </trkpt>
      <trkpt lat="45.84524" lon="4.8012">
        <ele>545</ele>
        <time>2013-01-06T08:55:21Z</time>
      </trkpt>
      <trkpt lat="45.84529" lon="4.80126">
        <ele>545</ele>
        <time>2013-01-06T08:55:23Z</time>
      </trkpt>
      <trkpt lat="45.84537" lon="4.80136">
        <ele>544</ele>
        <time>2013-01-06T08:55:28Z</time>
      </trkpt>
      <trkpt lat="45.84538" lon="4.80138">
        <ele>544</ele>
        <time>2013-01-06T08:55:29Z</time>
      </trkpt>
      <trkpt lat="45.84547" lon="4.80146">
        <ele>544</ele>
        <time>2013-01-06T08:55:33Z</time>
      </trkpt>
      <trkpt lat="45.84553" lon="4.80155">
        <ele>543</ele>
        <time>2013-01-06T08:55:36Z</time>
      </trkpt>
      <trkpt lat="45.84555" lon="4.80157">
        <ele>543</ele>
        <time>2013-01-06T08:55:37Z</time>
      </trkpt>
      <trkpt lat="45.84559" lon="4.80161">
        <ele>543</ele>
        <time>2013-01-06T08:55:39Z</time>
      </trkpt>
      <trkpt lat="45.84564" lon="4.80165">
        <ele>543</ele>
        <time>2013-01-06T08:55:41Z</time>
      </trkpt>
      <trkpt lat="45.84568" lon="4.80169">
        <ele>544</ele>
        <time>2013-01-06T08:55:43Z</time>
      </trkpt>
      <trkpt lat="45.84571" lon="4.80173">
        <ele>544</ele>
        <time>2013-01-06T08:55:45Z</time>
      </trkpt>
      <trkpt lat="45.84572" lon="4.80176">
        <ele>544</ele>
        <time>2013-01-06T08:55:46Z</time>
      </trkpt>
      <trkpt lat="45.84578" lon="4.80186">
        <ele>544</ele>
        <time>2013-01-06T08:55:50Z</time>
      </trkpt>
      <trkpt lat="45.8458" lon="4.80188">
        <ele>544</ele>
        <time>2013-01-06T08:55:51Z</time>
      </trkpt>
      <trkpt lat="45.84587" lon="4.80205">
        <ele>536</ele>
        <time>2013-01-06T08:55:56Z</time>
      </trkpt>
      <trkpt lat="45.84589" lon="4.8021">
        <ele>536</ele>
        <time>2013-01-06T08:55:58Z</time>
      </trkpt>
      <trkpt lat="45.84588" lon="4.80214">
        <ele>536</ele>
        <time>2013-01-06T08:55:59Z</time>
      </trkpt>
      <trkpt lat="45.84587" lon="4.80217">
        <ele>536</ele>
        <time>2013-01-06T08:56:00Z</time>
      </trkpt>
      <trkpt lat="45.84583" lon="4.80231">
        <ele>545</ele>
        <time>2013-01-06T08:56:05Z</time>
      </trkpt>
      <trkpt lat="45.8458" lon="4.80239">
        <ele>545</ele>
        <time>2013-01-06T08:56:08Z</time>
      </trkpt>
      <trkpt lat="45.8458" lon="4.80245">
        <ele>544</ele>
        <time>2013-01-06T08:56:10Z</time>
      </trkpt>
      <trkpt lat="45.84583" lon="4.80253">
        <ele>543</ele>
        <time>2013-01-06T08:56:12Z</time>
      </trkpt>
      <trkpt lat="45.84587" lon="4.80263">
        <ele>540</ele>
        <time>2013-01-06T08:56:15Z</time>
      </trkpt>
      <trkpt lat="45.84589" lon="4.80266">
        <ele>539</ele>
        <time>2013-01-06T08:56:16Z</time>
      </trkpt>
      <trkpt lat="45.84601" lon="4.80273">
        <ele>537</ele>
        <time>2013-01-06T08:56:21Z</time>
      </trkpt>
      <trkpt lat="45.84605" lon="4.80274">
        <ele>537</ele>
        <time>2013-01-06T08:56:23Z</time>
      </trkpt>
      <trkpt lat="45.84609" lon="4.80275">
        <ele>536</ele>
        <time>2013-01-06T08:56:25Z</time>
      </trkpt>
      <trkpt lat="45.84624" lon="4.80278">
        <ele>535</ele>
        <time>2013-01-06T08:56:31Z</time>
      </trkpt>
      <trkpt lat="45.84642" lon="4.8029">
        <ele>534</ele>
        <time>2013-01-06T08:56:38Z</time>
      </trkpt>
      <trkpt lat="45.84654" lon="4.80308">
        <ele>534</ele>
        <time>2013-01-06T08:56:44Z</time>
      </trkpt>
      <trkpt lat="45.84656" lon="4.8031">
        <ele>533</ele>
        <time>2013-01-06T08:56:45Z</time>
      </trkpt>
      <trkpt lat="45.84667" lon="4.8032">
        <ele>527</ele>
        <time>2013-01-06T08:56:51Z</time>
      </trkpt>
      <trkpt lat="45.84668" lon="4.80322">
        <ele>528</ele>
        <time>2013-01-06T08:56:59Z</time>
      </trkpt>
      <trkpt lat="45.84672" lon="4.80318">
        <ele>526</ele>
        <time>2013-01-06T08:57:15Z</time>
      </trkpt>
      <trkpt lat="45.84672" lon="4.80318">
        <ele>526</ele>
        <time>2013-01-06T08:57:16Z</time>
      </trkpt>
      <trkpt lat="45.84673" lon="4.80317">
        <ele>525</ele>
        <time>2013-01-06T08:57:18Z</time>
      </trkpt>
      <trkpt lat="45.84675" lon="4.80314">
        <ele>524</ele>
        <time>2013-01-06T08:57:27Z</time>
      </trkpt>
      <trkpt lat="45.84678" lon="4.8031">
        <ele>523</ele>
        <time>2013-01-06T08:57:29Z</time>
      </trkpt>
      <trkpt lat="45.84684" lon="4.80308">
        <ele>522</ele>
        <time>2013-01-06T08:57:35Z</time>
      </trkpt>
      <trkpt lat="45.84687" lon="4.80311">
        <ele>522</ele>
        <time>2013-01-06T08:57:37Z</time>
      </trkpt>
      <trkpt lat="45.84692" lon="4.80317">
        <ele>522</ele>
        <time>2013-01-06T08:57:40Z</time>
      </trkpt>
      <trkpt lat="45.84697" lon="4.80327">
        <ele>521</ele>
        <time>2013-01-06T08:57:44Z</time>
      </trkpt>
      <trkpt lat="45.84698" lon="4.80328">
        <ele>521</ele>
        <time>2013-01-06T08:57:45Z</time>
      </trkpt>
      <trkpt lat="45.84702" lon="4.80329">
        <ele>520</ele>
        <time>2013-01-06T08:57:48Z</time>
      </trkpt>
      <trkpt lat="45.84704" lon="4.8033">
        <ele>520</ele>
        <time>2013-01-06T08:57:49Z</time>
      </trkpt>
      <trkpt lat="45.84711" lon="4.80336">
        <ele>523</ele>
        <time>2013-01-06T08:57:53Z</time>
      </trkpt>
      <trkpt lat="45.84713" lon="4.80338">
        <ele>523</ele>
        <time>2013-01-06T08:57:54Z</time>
      </trkpt>
      <trkpt lat="45.84716" lon="4.80345">
        <ele>522</ele>
        <time>2013-01-06T08:57:58Z</time>
      </trkpt>
      <trkpt lat="45.8472" lon="4.8035">
        <ele>522</ele>
        <time>2013-01-06T08:58:01Z</time>
      </trkpt>
      <trkpt lat="45.84721" lon="4.80353">
        <ele>522</ele>
        <time>2013-01-06T08:58:02Z</time>
      </trkpt>
      <trkpt lat="45.8473" lon="4.80365">
        <ele>522</ele>
        <time>2013-01-06T08:58:08Z</time>
      </trkpt>
      <trkpt lat="45.84734" lon="4.80374">
        <ele>522</ele>
        <time>2013-01-06T08:58:12Z</time>
      </trkpt>
      <trkpt lat="45.84735" lon="4.80374">
        <ele>522</ele>
        <time>2013-01-06T08:58:13Z</time>
      </trkpt>
      <trkpt lat="45.84735" lon="4.80374">
        <ele>522</ele>
        <time>2013-01-06T08:58:14Z</time>
      </trkpt>
      <trkpt lat="45.84739" lon="4.80374">
        <ele>522</ele>
        <time>2013-01-06T08:58:16Z</time>
      </trkpt>
      <trkpt lat="45.84742" lon="4.80378">
        <ele>522</ele>
        <time>2013-01-06T08:58:18Z</time>
      </trkpt>
      <trkpt lat="45.84744" lon="4.80381">
        <ele>522</ele>
        <time>2013-01-06T08:58:20Z</time>
      </trkpt>
      <trkpt lat="45.84746" lon="4.80383">
        <ele>522</ele>
        <time>2013-01-06T08:58:21Z</time>
      </trkpt>
      <trkpt lat="45.84747" lon="4.80385">
        <ele>523</ele>
        <time>2013-01-06T08:58:22Z</time>
      </trkpt>
      <trkpt lat="45.84754" lon="4.80392">
        <ele>511</ele>
        <time>2013-01-06T08:58:26Z</time>
      </trkpt>
      <trkpt lat="45.84755" lon="4.80394">
        <ele>512</ele>
        <time>2013-01-06T08:58:27Z</time>
      </trkpt>
      <trkpt lat="45.84757" lon="4.80396">
        <ele>512</ele>
        <time>2013-01-06T08:58:28Z</time>
      </trkpt>
      <trkpt lat="45.84758" lon="4.80398">
        <ele>512</ele>
        <time>2013-01-06T08:58:29Z</time>
      </trkpt>
      <trkpt lat="45.84761" lon="4.80399">
        <ele>512</ele>
        <time>2013-01-06T08:58:31Z</time>
      </trkpt>
      <trkpt lat="45.84765" lon="4.80405">
        <ele>513</ele>
        <time>2013-01-06T08:58:35Z</time>
      </trkpt>
      <trkpt lat="45.84766" lon="4.80407">
        <ele>513</ele>
        <time>2013-01-06T08:58:36Z</time>
      </trkpt>
      <trkpt lat="45.84768" lon="4.80415">
        <ele>513</ele>
        <time>2013-01-06T08:58:39Z</time>
      </trkpt>
      <trkpt lat="45.84768" lon="4.80419">
        <ele>517</ele>
        <time>2013-01-06T08:58:41Z</time>
      </trkpt>
      <trkpt lat="45.84768" lon="4.8042">
        <ele>517</ele>
        <time>2013-01-06T08:58:42Z</time>
      </trkpt>
      <trkpt lat="45.84769" lon="4.8042">
        <ele>517</ele>
        <time>2013-01-06T08:58:43Z</time>
      </trkpt>
      <trkpt lat="45.8477" lon="4.8042">
        <ele>516</ele>
        <time>2013-01-06T08:58:44Z</time>
      </trkpt>
      <trkpt lat="45.84772" lon="4.8042">
        <ele>516</ele>
        <time>2013-01-06T08:58:47Z</time>
      </trkpt>
      <trkpt lat="45.84777" lon="4.80415">
        <ele>510</ele>
        <time>2013-01-06T08:58:52Z</time>
      </trkpt>
      <trkpt lat="45.84783" lon="4.8042">
        <ele>513</ele>
        <time>2013-01-06T08:58:57Z</time>
      </trkpt>
      <trkpt lat="45.84784" lon="4.80423">
        <ele>513</ele>
        <time>2013-01-06T08:58:58Z</time>
      </trkpt>
      <trkpt lat="45.84789" lon="4.80433">
        <ele>512</ele>
        <time>2013-01-06T08:59:02Z</time>
      </trkpt>
      <trkpt lat="45.84793" lon="4.80441">
        <ele>511</ele>
        <time>2013-01-06T08:59:06Z</time>
      </trkpt>
      <trkpt lat="45.84795" lon="4.80441">
        <ele>511</ele>
        <time>2013-01-06T08:59:07Z</time>
      </trkpt>
      <trkpt lat="45.84797" lon="4.80442">
        <ele>511</ele>
        <time>2013-01-06T08:59:09Z</time>
      </trkpt>
      <trkpt lat="45.848" lon="4.80445">
        <ele>510</ele>
        <time>2013-01-06T08:59:11Z</time>
      </trkpt>
      <trkpt lat="45.84804" lon="4.8045">
        <ele>510</ele>
        <time>2013-01-06T08:59:15Z</time>
      </trkpt>
      <trkpt lat="45.84805" lon="4.8045">
        <ele>510</ele>
        <time>2013-01-06T08:59:16Z</time>
      </trkpt>
      <trkpt lat="45.84805" lon="4.80451">
        <ele>510</ele>
        <time>2013-01-06T08:59:17Z</time>
      </trkpt>
      <trkpt lat="45.84809" lon="4.8045">
        <ele>509</ele>
        <time>2013-01-06T08:59:20Z</time>
      </trkpt>
      <trkpt lat="45.84812" lon="4.80451">
        <ele>509</ele>
        <time>2013-01-06T08:59:22Z</time>
      </trkpt>
      <trkpt lat="45.84813" lon="4.80454">
        <ele>509</ele>
        <time>2013-01-06T08:59:24Z</time>
      </trkpt>
      <trkpt lat="45.84815" lon="4.80458">
        <ele>509</ele>
        <time>2013-01-06T08:59:26Z</time>
      </trkpt>
      <trkpt lat="45.84819" lon="4.80465">
        <ele>509</ele>
        <time>2013-01-06T08:59:31Z</time>
      </trkpt>
      <trkpt lat="45.8482" lon="4.80465">
        <ele>509</ele>
        <time>2013-01-06T08:59:32Z</time>
      </trkpt>
      <trkpt lat="45.84825" lon="4.80467">
        <ele>509</ele>
        <time>2013-01-06T08:59:36Z</time>
      </trkpt>
      <trkpt lat="45.84828" lon="4.8047">
        <ele>509</ele>
        <time>2013-01-06T08:59:38Z</time>
      </trkpt>
      <trkpt lat="45.84829" lon="4.80471">
        <ele>509</ele>
        <time>2013-01-06T08:59:39Z</time>
      </trkpt>
      <trkpt lat="45.84832" lon="4.80475">
        <ele>509</ele>
        <time>2013-01-06T08:59:41Z</time>
      </trkpt>
      <trkpt lat="45.84835" lon="4.80476">
        <ele>497</ele>
        <time>2013-01-06T08:59:43Z</time>
      </trkpt>
      <trkpt lat="45.84844" lon="4.80479">
        <ele>496</ele>
        <time>2013-01-06T08:59:49Z</time>
      </trkpt>
      <trkpt lat="45.84845" lon="4.80481">
        <ele>497</ele>
        <time>2013-01-06T08:59:50Z</time>
      </trkpt>
      <trkpt lat="45.84851" lon="4.80489">
        <ele>497</ele>
        <time>2013-01-06T08:59:54Z</time>
      </trkpt>
      <trkpt lat="45.84853" lon="4.80492">
        <ele>497</ele>
        <time>2013-01-06T08:59:55Z</time>
      </trkpt>
      <trkpt lat="45.84857" lon="4.80499">
        <ele>496</ele>
        <time>2013-01-06T08:59:58Z</time>
      </trkpt>
      <trkpt lat="45.84858" lon="4.805">
        <ele>501</ele>
        <time>2013-01-06T08:59:59Z</time>
      </trkpt>
      <trkpt lat="45.84859" lon="4.80502">
        <ele>501</ele>
        <time>2013-01-06T09:00:00Z</time>
      </trkpt>
      <trkpt lat="45.84865" lon="4.80505">
        <ele>499</ele>
        <time>2013-01-06T09:00:04Z</time>
      </trkpt>
      <trkpt lat="45.84872" lon="4.8051">
        <ele>498</ele>
        <time>2013-01-06T09:00:09Z</time>
      </trkpt>
      <trkpt lat="45.84874" lon="4.80512">
        <ele>498</ele>
        <time>2013-01-06T09:00:10Z</time>
      </trkpt>
      <trkpt lat="45.84879" lon="4.80517">
        <ele>497</ele>
        <time>2013-01-06T09:00:13Z</time>
      </trkpt>
      <trkpt lat="45.8488" lon="4.8052">
        <ele>497</ele>
        <time>2013-01-06T09:00:14Z</time>
      </trkpt>
      <trkpt lat="45.84883" lon="4.80525">
        <ele>497</ele>
        <time>2013-01-06T09:00:17Z</time>
      </trkpt>
      <trkpt lat="45.84887" lon="4.80532">
        <ele>497</ele>
        <time>2013-01-06T09:00:21Z</time>
      </trkpt>
      <trkpt lat="45.84889" lon="4.80536">
        <ele>497</ele>
        <time>2013-01-06T09:00:23Z</time>
      </trkpt>
      <trkpt lat="45.84897" lon="4.80546">
        <ele>496</ele>
        <time>2013-01-06T09:00:29Z</time>
      </trkpt>
      <trkpt lat="45.849" lon="4.80552">
        <ele>497</ele>
        <time>2013-01-06T09:00:31Z</time>
      </trkpt>
      <trkpt lat="45.84906" lon="4.80555">
        <ele>496</ele>
        <time>2013-01-06T09:00:34Z</time>
      </trkpt>
      <trkpt lat="45.84907" lon="4.80557">
        <ele>496</ele>
        <time>2013-01-06T09:00:35Z</time>
      </trkpt>
      <trkpt lat="45.84911" lon="4.80561">
        <ele>496</ele>
        <time>2013-01-06T09:00:38Z</time>
      </trkpt>
      <trkpt lat="45.84916" lon="4.80565">
        <ele>496</ele>
        <time>2013-01-06T09:00:42Z</time>
      </trkpt>
      <trkpt lat="45.84917" lon="4.80567">
        <ele>485</ele>
        <time>2013-01-06T09:00:43Z</time>
      </trkpt>
      <trkpt lat="45.84924" lon="4.80574">
        <ele>487</ele>
        <time>2013-01-06T09:00:48Z</time>
      </trkpt>
      <trkpt lat="45.8493" lon="4.80582">
        <ele>486</ele>
        <time>2013-01-06T09:00:53Z</time>
      </trkpt>
      <trkpt lat="45.84932" lon="4.80584">
        <ele>489</ele>
        <time>2013-01-06T09:00:54Z</time>
      </trkpt>
      <trkpt lat="45.8494" lon="4.80592">
        <ele>486</ele>
        <time>2013-01-06T09:00:59Z</time>
      </trkpt>
      <trkpt lat="45.84949" lon="4.806">
        <ele>483</ele>
        <time>2013-01-06T09:01:04Z</time>
      </trkpt>
      <trkpt lat="45.84953" lon="4.80603">
        <ele>483</ele>
        <time>2013-01-06T09:01:06Z</time>
      </trkpt>
      <trkpt lat="45.84957" lon="4.80608">
        <ele>482</ele>
        <time>2013-01-06T09:01:09Z</time>
      </trkpt>
      <trkpt lat="45.84959" lon="4.80614">
        <ele>482</ele>
        <time>2013-01-06T09:01:12Z</time>
      </trkpt>
      <trkpt lat="45.84962" lon="4.80619">
        <ele>481</ele>
        <time>2013-01-06T09:01:15Z</time>
      </trkpt>
      <trkpt lat="45.84963" lon="4.80624">
        <ele>481</ele>
        <time>2013-01-06T09:01:18Z</time>
      </trkpt>
      <trkpt lat="45.84966" lon="4.80631">
        <ele>481</ele>
        <time>2013-01-06T09:01:22Z</time>
      </trkpt>
      <trkpt lat="45.84969" lon="4.80634">
        <ele>481</ele>
        <time>2013-01-06T09:01:24Z</time>
      </trkpt>
      <trkpt lat="45.84972" lon="4.80637">
        <ele>481</ele>
        <time>2013-01-06T09:01:27Z</time>
      </trkpt>
      <trkpt lat="45.84973" lon="4.80637">
        <ele>481</ele>
        <time>2013-01-06T09:01:31Z</time>
      </trkpt>
      <trkpt lat="45.84975" lon="4.80639">
        <ele>480</ele>
        <time>2013-01-06T09:01:38Z</time>
      </trkpt>
      <trkpt lat="45.84976" lon="4.8064">
        <ele>480</ele>
        <time>2013-01-06T09:01:39Z</time>
      </trkpt>
      <trkpt lat="45.84975" lon="4.80645">
        <ele>481</ele>
        <time>2013-01-06T09:01:58Z</time>
      </trkpt>
      <trkpt lat="45.84974" lon="4.80648">
        <ele>481</ele>
        <time>2013-01-06T09:02:08Z</time>
      </trkpt>
      <trkpt lat="45.84974" lon="4.80658">
        <ele>481</ele>
        <time>2013-01-06T09:02:14Z</time>
      </trkpt>
      <trkpt lat="45.84975" lon="4.8066">
        <ele>481</ele>
        <time>2013-01-06T09:02:15Z</time>
      </trkpt>
      <trkpt lat="45.84975" lon="4.80663">
        <ele>481</ele>
        <time>2013-01-06T09:02:17Z</time>
      </trkpt>
      <trkpt lat="45.84976" lon="4.8067">
        <ele>484</ele>
        <time>2013-01-06T09:02:20Z</time>
      </trkpt>
      <trkpt lat="45.84979" lon="4.80682">
        <ele>484</ele>
        <time>2013-01-06T09:02:26Z</time>
      </trkpt>
      <trkpt lat="45.84979" lon="4.80689">
        <ele>485</ele>
        <time>2013-01-06T09:02:30Z</time>
      </trkpt>
      <trkpt lat="45.84978" lon="4.80691">
        <ele>485</ele>
        <time>2013-01-06T09:02:31Z</time>
      </trkpt>
      <trkpt lat="45.84973" lon="4.8069">
        <ele>486</ele>
        <time>2013-01-06T09:02:36Z</time>
      </trkpt>
      <trkpt lat="45.84972" lon="4.80689">
        <ele>486</ele>
        <time>2013-01-06T09:02:37Z</time>
      </trkpt>
      <trkpt lat="45.8497" lon="4.80684">
        <ele>486</ele>
        <time>2013-01-06T09:02:42Z</time>
      </trkpt>
      <trkpt lat="45.84969" lon="4.80683">
        <ele>486</ele>
        <time>2013-01-06T09:02:43Z</time>
      </trkpt>
      <trkpt lat="45.84966" lon="4.80679">
        <ele>486</ele>
        <time>2013-01-06T09:02:47Z</time>
      </trkpt>
      <trkpt lat="45.84963" lon="4.80676">
        <ele>487</ele>
        <time>2013-01-06T09:02:49Z</time>
      </trkpt>
      <trkpt lat="45.84962" lon="4.80675">
        <ele>487</ele>
        <time>2013-01-06T09:02:51Z</time>
      </trkpt>
      <trkpt lat="45.84955" lon="4.80672">
        <ele>488</ele>
        <time>2013-01-06T09:02:57Z</time>
      </trkpt>
      <trkpt lat="45.8495" lon="4.80669">
        <ele>489</ele>
        <time>2013-01-06T09:03:02Z</time>
      </trkpt>
      <trkpt lat="45.84949" lon="4.80668">
        <ele>489</ele>
        <time>2013-01-06T09:03:03Z</time>
      </trkpt>
      <trkpt lat="45.84942" lon="4.80667">
        <ele>490</ele>
        <time>2013-01-06T09:03:09Z</time>
      </trkpt>
      <trkpt lat="45.84941" lon="4.80666">
        <ele>487</ele>
        <time>2013-01-06T09:03:18Z</time>
      </trkpt>
      <trkpt lat="45.84935" lon="4.80664">
        <ele>489</ele>
        <time>2013-01-06T09:03:23Z</time>
      </trkpt>
      <trkpt lat="45.84931" lon="4.80661">
        <ele>490</ele>
        <time>2013-01-06T09:03:26Z</time>
      </trkpt>
      <trkpt lat="45.84923" lon="4.80661">
        <ele>492</ele>
        <time>2013-01-06T09:03:30Z</time>
      </trkpt>
      <trkpt lat="45.84911" lon="4.80659">
        <ele>496</ele>
        <time>2013-01-06T09:03:35Z</time>
      </trkpt>
      <trkpt lat="45.84907" lon="4.80656">
        <ele>496</ele>
        <time>2013-01-06T09:03:37Z</time>
      </trkpt>
      <trkpt lat="45.84894" lon="4.8065">
        <ele>497</ele>
        <time>2013-01-06T09:03:43Z</time>
      </trkpt>
      <trkpt lat="45.84881" lon="4.80645">
        <ele>497</ele>
        <time>2013-01-06T09:03:49Z</time>
      </trkpt>
      <trkpt lat="45.84876" lon="4.80642">
        <ele>497</ele>
        <time>2013-01-06T09:03:51Z</time>
      </trkpt>
      <trkpt lat="45.84866" lon="4.80639">
        <ele>497</ele>
        <time>2013-01-06T09:03:55Z</time>
      </trkpt>
      <trkpt lat="45.84856" lon="4.80636">
        <ele>497</ele>
        <time>2013-01-06T09:03:59Z</time>
      </trkpt>
      <trkpt lat="45.8485" lon="4.80635">
        <ele>497</ele>
        <time>2013-01-06T09:04:01Z</time>
      </trkpt>
      <trkpt lat="45.84836" lon="4.80631">
        <ele>497</ele>
        <time>2013-01-06T09:04:07Z</time>
      </trkpt>
      <trkpt lat="45.84833" lon="4.80631">
        <ele>498</ele>
        <time>2013-01-06T09:04:08Z</time>
      </trkpt>
      <trkpt lat="45.84815" lon="4.80628">
        <ele>498</ele>
        <time>2013-01-06T09:04:15Z</time>
      </trkpt>
      <trkpt lat="45.84813" lon="4.80628">
        <ele>498</ele>
        <time>2013-01-06T09:04:16Z</time>
      </trkpt>
      <trkpt lat="45.84798" lon="4.80626">
        <ele>498</ele>
        <time>2013-01-06T09:04:22Z</time>
      </trkpt>
      <trkpt lat="45.84796" lon="4.80626">
        <ele>498</ele>
        <time>2013-01-06T09:04:23Z</time>
      </trkpt>
      <trkpt lat="45.84784" lon="4.80626">
        <ele>498</ele>
        <time>2013-01-06T09:04:28Z</time>
      </trkpt>
      <trkpt lat="45.84778" lon="4.80627">
        <ele>497</ele>
        <time>2013-01-06T09:04:31Z</time>
      </trkpt>
      <trkpt lat="45.84771" lon="4.80628">
        <ele>497</ele>
        <time>2013-01-06T09:04:34Z</time>
      </trkpt>
      <trkpt lat="45.84758" lon="4.80628">
        <ele>497</ele>
        <time>2013-01-06T09:04:40Z</time>
      </trkpt>
      <trkpt lat="45.84745" lon="4.80633">
        <ele>495</ele>
        <time>2013-01-06T09:04:45Z</time>
      </trkpt>
      <trkpt lat="45.84738" lon="4.80635">
        <ele>495</ele>
        <time>2013-01-06T09:04:48Z</time>
      </trkpt>
      <trkpt lat="45.84734" lon="4.80636">
        <ele>495</ele>
        <time>2013-01-06T09:04:50Z</time>
      </trkpt>
      <trkpt lat="45.84718" lon="4.80637">
        <ele>495</ele>
        <time>2013-01-06T09:04:56Z</time>
      </trkpt>
      <trkpt lat="45.847" lon="4.80639">
        <ele>495</ele>
        <time>2013-01-06T09:05:03Z</time>
      </trkpt>
      <trkpt lat="45.84698" lon="4.80639">
        <ele>495</ele>
        <time>2013-01-06T09:05:04Z</time>
      </trkpt>
      <trkpt lat="45.84685" lon="4.80643">
        <ele>495</ele>
        <time>2013-01-06T09:05:09Z</time>
      </trkpt>
      <trkpt lat="45.84679" lon="4.80642">
        <ele>494</ele>
        <time>2013-01-06T09:05:11Z</time>
      </trkpt>
      <trkpt lat="45.84675" lon="4.80641">
        <ele>494</ele>
        <time>2013-01-06T09:05:13Z</time>
      </trkpt>
      <trkpt lat="45.84659" lon="4.80638">
        <ele>493</ele>
        <time>2013-01-06T09:05:19Z</time>
      </trkpt>
      <trkpt lat="45.84644" lon="4.80636">
        <ele>493</ele>
        <time>2013-01-06T09:05:25Z</time>
      </trkpt>
      <trkpt lat="45.8464" lon="4.80636">
        <ele>492</ele>
        <time>2013-01-06T09:05:27Z</time>
      </trkpt>
      <trkpt lat="45.8463" lon="4.80634">
        <ele>492</ele>
        <time>2013-01-06T09:05:31Z</time>
      </trkpt>
      <trkpt lat="45.84621" lon="4.80633">
        <ele>492</ele>
        <time>2013-01-06T09:05:35Z</time>
      </trkpt>
      <trkpt lat="45.84615" lon="4.80633">
        <ele>492</ele>
        <time>2013-01-06T09:05:37Z</time>
      </trkpt>
      <trkpt lat="45.84603" lon="4.80628">
        <ele>492</ele>
        <time>2013-01-06T09:05:42Z</time>
      </trkpt>
      <trkpt lat="45.84593" lon="4.80613">
        <ele>492</ele>
        <time>2013-01-06T09:05:48Z</time>
      </trkpt>
      <trkpt lat="45.8459" lon="4.80607">
        <ele>493</ele>
        <time>2013-01-06T09:05:50Z</time>
      </trkpt>
      <trkpt lat="45.84588" lon="4.80603">
        <ele>493</ele>
        <time>2013-01-06T09:05:51Z</time>
      </trkpt>
      <trkpt lat="45.84586" lon="4.80599">
        <ele>493</ele>
        <time>2013-01-06T09:05:52Z</time>
      </trkpt>
      <trkpt lat="45.84581" lon="4.80581">
        <ele>495</ele>
        <time>2013-01-06T09:05:57Z</time>
      </trkpt>
      <trkpt lat="45.8458" lon="4.80577">
        <ele>496</ele>
        <time>2013-01-06T09:05:58Z</time>
      </trkpt>
      <trkpt lat="45.84571" lon="4.80563">
        <ele>498</ele>
        <time>2013-01-06T09:06:03Z</time>
      </trkpt>
      <trkpt lat="45.84569" lon="4.80561">
        <ele>498</ele>
        <time>2013-01-06T09:06:04Z</time>
      </trkpt>
      <trkpt lat="45.84559" lon="4.80558">
        <ele>499</ele>
        <time>2013-01-06T09:06:09Z</time>
      </trkpt>
      <trkpt lat="45.84558" lon="4.80559">
        <ele>499</ele>
        <time>2013-01-06T09:06:10Z</time>
      </trkpt>
      <trkpt lat="45.84555" lon="4.80566">
        <ele>498</ele>
        <time>2013-01-06T09:06:13Z</time>
      </trkpt>
      <trkpt lat="45.84553" lon="4.80568">
        <ele>498</ele>
        <time>2013-01-06T09:06:14Z</time>
      </trkpt>
      <trkpt lat="45.84553" lon="4.80575">
        <ele>498</ele>
        <time>2013-01-06T09:06:17Z</time>
      </trkpt>
      <trkpt lat="45.84553" lon="4.80578">
        <ele>498</ele>
        <time>2013-01-06T09:06:18Z</time>
      </trkpt>
      <trkpt lat="45.84553" lon="4.80588">
        <ele>490</ele>
        <time>2013-01-06T09:06:21Z</time>
      </trkpt>
      <trkpt lat="45.84552" lon="4.80591">
        <ele>490</ele>
        <time>2013-01-06T09:06:22Z</time>
      </trkpt>
      <trkpt lat="45.84552" lon="4.80595">
        <ele>490</ele>
        <time>2013-01-06T09:06:23Z</time>
      </trkpt>
      <trkpt lat="45.84553" lon="4.80602">
        <ele>489</ele>
        <time>2013-01-06T09:06:27Z</time>
      </trkpt>
      <trkpt lat="45.84551" lon="4.80604">
        <ele>489</ele>
        <time>2013-01-06T09:06:29Z</time>
      </trkpt>
      <trkpt lat="45.84548" lon="4.80611">
        <ele>489</ele>
        <time>2013-01-06T09:06:32Z</time>
      </trkpt>
      <trkpt lat="45.84546" lon="4.80619">
        <ele>488</ele>
        <time>2013-01-06T09:06:35Z</time>
      </trkpt>
      <trkpt lat="45.84545" lon="4.80622">
        <ele>488</ele>
        <time>2013-01-06T09:06:36Z</time>
      </trkpt>
      <trkpt lat="45.84545" lon="4.80626">
        <ele>488</ele>
        <time>2013-01-06T09:06:38Z</time>
      </trkpt>
      <trkpt lat="45.84543" lon="4.80633">
        <ele>487</ele>
        <time>2013-01-06T09:06:41Z</time>
      </trkpt>
      <trkpt lat="45.84542" lon="4.80635">
        <ele>487</ele>
        <time>2013-01-06T09:06:42Z</time>
      </trkpt>
      <trkpt lat="45.84538" lon="4.80642">
        <ele>487</ele>
        <time>2013-01-06T09:06:45Z</time>
      </trkpt>
      <trkpt lat="45.84531" lon="4.80651">
        <ele>486</ele>
        <time>2013-01-06T09:06:50Z</time>
      </trkpt>
      <trkpt lat="45.84532" lon="4.80655">
        <ele>485</ele>
        <time>2013-01-06T09:06:52Z</time>
      </trkpt>
      <trkpt lat="45.84531" lon="4.80662">
        <ele>485</ele>
        <time>2013-01-06T09:06:55Z</time>
      </trkpt>
      <trkpt lat="45.84531" lon="4.80665">
        <ele>485</ele>
        <time>2013-01-06T09:06:56Z</time>
      </trkpt>
      <trkpt lat="45.84531" lon="4.8067">
        <ele>479</ele>
        <time>2013-01-06T09:06:58Z</time>
      </trkpt>
      <trkpt lat="45.84533" lon="4.80675">
        <ele>478</ele>
        <time>2013-01-06T09:07:00Z</time>
      </trkpt>
      <trkpt lat="45.84536" lon="4.80688">
        <ele>478</ele>
        <time>2013-01-06T09:07:05Z</time>
      </trkpt>
      <trkpt lat="45.84537" lon="4.80691">
        <ele>478</ele>
        <time>2013-01-06T09:07:06Z</time>
      </trkpt>
      <trkpt lat="45.84537" lon="4.80694">
        <ele>478</ele>
        <time>2013-01-06T09:07:07Z</time>
      </trkpt>
      <trkpt lat="45.84536" lon="4.807">
        <ele>478</ele>
        <time>2013-01-06T09:07:09Z</time>
      </trkpt>
      <trkpt lat="45.84536" lon="4.80708">
        <ele>477</ele>
        <time>2013-01-06T09:07:12Z</time>
      </trkpt>
      <trkpt lat="45.84535" lon="4.80713">
        <ele>477</ele>
        <time>2013-01-06T09:07:14Z</time>
      </trkpt>
      <trkpt lat="45.84533" lon="4.80718">
        <ele>476</ele>
        <time>2013-01-06T09:07:16Z</time>
      </trkpt>
      <trkpt lat="45.84531" lon="4.80725">
        <ele>476</ele>
        <time>2013-01-06T09:07:18Z</time>
      </trkpt>
      <trkpt lat="45.84528" lon="4.80734">
        <ele>475</ele>
        <time>2013-01-06T09:07:21Z</time>
      </trkpt>
      <trkpt lat="45.84526" lon="4.80743">
        <ele>475</ele>
        <time>2013-01-06T09:07:24Z</time>
      </trkpt>
      <trkpt lat="45.84525" lon="4.80745">
        <ele>474</ele>
        <time>2013-01-06T09:07:25Z</time>
      </trkpt>
      <trkpt lat="45.84523" lon="4.80765">
        <ele>469</ele>
        <time>2013-01-06T09:07:31Z</time>
      </trkpt>
      <trkpt lat="45.84521" lon="4.80768">
        <ele>469</ele>
        <time>2013-01-06T09:07:32Z</time>
      </trkpt>
      <trkpt lat="45.84517" lon="4.80775">
        <ele>468</ele>
        <time>2013-01-06T09:07:35Z</time>
      </trkpt>
      <trkpt lat="45.84517" lon="4.80778">
        <ele>468</ele>
        <time>2013-01-06T09:07:36Z</time>
      </trkpt>
      <trkpt lat="45.84518" lon="4.80791">
        <ele>467</ele>
        <time>2013-01-06T09:07:41Z</time>
      </trkpt>
      <trkpt lat="45.84519" lon="4.80794">
        <ele>467</ele>
        <time>2013-01-06T09:07:42Z</time>
      </trkpt>
      <trkpt lat="45.84517" lon="4.80808">
        <ele>466</ele>
        <time>2013-01-06T09:07:46Z</time>
      </trkpt>
      <trkpt lat="45.84519" lon="4.80821">
        <ele>465</ele>
        <time>2013-01-06T09:07:50Z</time>
      </trkpt>
      <trkpt lat="45.84518" lon="4.80824">
        <ele>464</ele>
        <time>2013-01-06T09:07:51Z</time>
      </trkpt>
      <trkpt lat="45.84509" lon="4.80836">
        <ele>460</ele>
        <time>2013-01-06T09:07:56Z</time>
      </trkpt>
      <trkpt lat="45.84507" lon="4.80837">
        <ele>460</ele>
        <time>2013-01-06T09:07:57Z</time>
      </trkpt>
      <trkpt lat="45.84506" lon="4.80839">
        <ele>460</ele>
        <time>2013-01-06T09:07:58Z</time>
      </trkpt>
      <trkpt lat="45.84504" lon="4.80845">
        <ele>460</ele>
        <time>2013-01-06T09:08:00Z</time>
      </trkpt>
      <trkpt lat="45.84502" lon="4.80855">
        <ele>459</ele>
        <time>2013-01-06T09:08:04Z</time>
      </trkpt>
      <trkpt lat="45.84501" lon="4.80861">
        <ele>459</ele>
        <time>2013-01-06T09:08:06Z</time>
      </trkpt>
      <trkpt lat="45.845" lon="4.80865">
        <ele>459</ele>
        <time>2013-01-06T09:08:07Z</time>
      </trkpt>
      <trkpt lat="45.84498" lon="4.8087">
        <ele>458</ele>
        <time>2013-01-06T09:08:09Z</time>
      </trkpt>
      <trkpt lat="45.84496" lon="4.80878">
        <ele>457</ele>
        <time>2013-01-06T09:08:11Z</time>
      </trkpt>
      <trkpt lat="45.84493" lon="4.80886">
        <ele>456</ele>
        <time>2013-01-06T09:08:13Z</time>
      </trkpt>
      <trkpt lat="45.84492" lon="4.80889">
        <ele>456</ele>
        <time>2013-01-06T09:08:14Z</time>
      </trkpt>
      <trkpt lat="45.8449" lon="4.80894">
        <ele>456</ele>
        <time>2013-01-06T09:08:19Z</time>
      </trkpt>
      <trkpt lat="45.8449" lon="4.80897">
        <ele>455</ele>
        <time>2013-01-06T09:08:21Z</time>
      </trkpt>
      <trkpt lat="45.84489" lon="4.809">
        <ele>455</ele>
        <time>2013-01-06T09:08:24Z</time>
      </trkpt>
      <trkpt lat="45.84488" lon="4.80901">
        <ele>455</ele>
        <time>2013-01-06T09:08:26Z</time>
      </trkpt>
      <trkpt lat="45.84488" lon="4.80902">
        <ele>455</ele>
        <time>2013-01-06T09:08:27Z</time>
      </trkpt>
      <trkpt lat="45.84487" lon="4.8091">
        <ele>454</ele>
        <time>2013-01-06T09:08:30Z</time>
      </trkpt>
      <trkpt lat="45.84486" lon="4.80912">
        <ele>454</ele>
        <time>2013-01-06T09:08:32Z</time>
      </trkpt>
      <trkpt lat="45.84486" lon="4.80915">
        <ele>454</ele>
        <time>2013-01-06T09:08:35Z</time>
      </trkpt>
      <trkpt lat="45.84488" lon="4.80919">
        <ele>450</ele>
        <time>2013-01-06T09:08:39Z</time>
      </trkpt>
      <trkpt lat="45.84489" lon="4.80921">
        <ele>450</ele>
        <time>2013-01-06T09:08:41Z</time>
      </trkpt>
      <trkpt lat="45.84485" lon="4.80932">
        <ele>450</ele>
        <time>2013-01-06T09:08:45Z</time>
      </trkpt>
      <trkpt lat="45.84483" lon="4.80937">
        <ele>450</ele>
        <time>2013-01-06T09:08:47Z</time>
      </trkpt>
      <trkpt lat="45.84482" lon="4.80942">
        <ele>449</ele>
        <time>2013-01-06T09:08:49Z</time>
      </trkpt>
      <trkpt lat="45.84481" lon="4.80948">
        <ele>449</ele>
        <time>2013-01-06T09:08:51Z</time>
      </trkpt>
      <trkpt lat="45.8448" lon="4.80965">
        <ele>447</ele>
        <time>2013-01-06T09:08:57Z</time>
      </trkpt>
      <trkpt lat="45.84478" lon="4.80979">
        <ele>446</ele>
        <time>2013-01-06T09:09:02Z</time>
      </trkpt>
      <trkpt lat="45.84477" lon="4.80988">
        <ele>445</ele>
        <time>2013-01-06T09:09:06Z</time>
      </trkpt>
      <trkpt lat="45.84477" lon="4.80991">
        <ele>445</ele>
        <time>2013-01-06T09:09:07Z</time>
      </trkpt>
      <trkpt lat="45.84477" lon="4.80998">
        <ele>445</ele>
        <time>2013-01-06T09:09:11Z</time>
      </trkpt>
      <trkpt lat="45.84474" lon="4.81009">
        <ele>438</ele>
        <time>2013-01-06T09:09:16Z</time>
      </trkpt>
      <trkpt lat="45.84471" lon="4.81015">
        <ele>438</ele>
        <time>2013-01-06T09:09:19Z</time>
      </trkpt>
      <trkpt lat="45.84472" lon="4.8102">
        <ele>438</ele>
        <time>2013-01-06T09:09:21Z</time>
      </trkpt>
      <trkpt lat="45.84472" lon="4.81038">
        <ele>437</ele>
        <time>2013-01-06T09:09:26Z</time>
      </trkpt>
      <trkpt lat="45.84472" lon="4.81041">
        <ele>437</ele>
        <time>2013-01-06T09:09:27Z</time>
      </trkpt>
      <trkpt lat="45.8447" lon="4.8105">
        <ele>436</ele>
        <time>2013-01-06T09:09:30Z</time>
      </trkpt>
      <trkpt lat="45.84465" lon="4.81067">
        <ele>435</ele>
        <time>2013-01-06T09:09:35Z</time>
      </trkpt>
      <trkpt lat="45.84464" lon="4.8107">
        <ele>435</ele>
        <time>2013-01-06T09:09:36Z</time>
      </trkpt>
      <trkpt lat="45.84463" lon="4.81074">
        <ele>435</ele>
        <time>2013-01-06T09:09:38Z</time>
      </trkpt>
      <trkpt lat="45.84463" lon="4.81078">
        <ele>435</ele>
        <time>2013-01-06T09:09:40Z</time>
      </trkpt>
      <trkpt lat="45.84459" lon="4.8109">
        <ele>427</ele>
        <time>2013-01-06T09:09:45Z</time>
      </trkpt>
      <trkpt lat="45.84458" lon="4.81093">
        <ele>427</ele>
        <time>2013-01-06T09:09:46Z</time>
      </trkpt>
      <trkpt lat="45.84457" lon="4.81102">
        <ele>427</ele>
        <time>2013-01-06T09:09:49Z</time>
      </trkpt>
      <trkpt lat="45.84457" lon="4.81105">
        <ele>427</ele>
        <time>2013-01-06T09:09:50Z</time>
      </trkpt>
      <trkpt lat="45.84457" lon="4.8112">
        <ele>426</ele>
        <time>2013-01-06T09:09:55Z</time>
      </trkpt>
      <trkpt lat="45.84457" lon="4.81126">
        <ele>425</ele>
        <time>2013-01-06T09:09:57Z</time>
      </trkpt>
      <trkpt lat="45.84457" lon="4.81129">
        <ele>425</ele>
        <time>2013-01-06T09:09:58Z</time>
      </trkpt>
      <trkpt lat="45.84455" lon="4.81137">
        <ele>425</ele>
        <time>2013-01-06T09:10:01Z</time>
      </trkpt>
      <trkpt lat="45.84457" lon="4.81145">
        <ele>424</ele>
        <time>2013-01-06T09:10:04Z</time>
      </trkpt>
      <trkpt lat="45.84459" lon="4.81152">
        <ele>424</ele>
        <time>2013-01-06T09:10:06Z</time>
      </trkpt>
      <trkpt lat="45.8446" lon="4.8117">
        <ele>416</ele>
        <time>2013-01-06T09:10:11Z</time>
      </trkpt>
      <trkpt lat="45.84452" lon="4.81185">
        <ele>416</ele>
        <time>2013-01-06T09:10:16Z</time>
      </trkpt>
      <trkpt lat="45.84451" lon="4.81192">
        <ele>416</ele>
        <time>2013-01-06T09:10:18Z</time>
      </trkpt>
      <trkpt lat="45.84451" lon="4.812">
        <ele>415</ele>
        <time>2013-01-06T09:10:20Z</time>
      </trkpt>
      <trkpt lat="45.84449" lon="4.81218">
        <ele>414</ele>
        <time>2013-01-06T09:10:25Z</time>
      </trkpt>
      <trkpt lat="45.84449" lon="4.81221">
        <ele>414</ele>
        <time>2013-01-06T09:10:26Z</time>
      </trkpt>
      <trkpt lat="45.84449" lon="4.81223">
        <ele>414</ele>
        <time>2013-01-06T09:10:27Z</time>
      </trkpt>
      <trkpt lat="45.84451" lon="4.81224">
        <ele>414</ele>
        <time>2013-01-06T09:10:31Z</time>
      </trkpt>
      <trkpt lat="45.84453" lon="4.81227">
        <ele>413</ele>
        <time>2013-01-06T09:10:36Z</time>
      </trkpt>
      <trkpt lat="45.84456" lon="4.81232">
        <ele>413</ele>
        <time>2013-01-06T09:10:41Z</time>
      </trkpt>
      <trkpt lat="45.84458" lon="4.81237">
        <ele>413</ele>
        <time>2013-01-06T09:10:43Z</time>
      </trkpt>
      <trkpt lat="45.84459" lon="4.81243">
        <ele>412</ele>
        <time>2013-01-06T09:10:45Z</time>
      </trkpt>
      <trkpt lat="45.84459" lon="4.81249">
        <ele>412</ele>
        <time>2013-01-06T09:10:48Z</time>
      </trkpt>
      <trkpt lat="45.84459" lon="4.81252">
        <ele>403</ele>
        <time>2013-01-06T09:10:49Z</time>
      </trkpt>
      <trkpt lat="45.8446" lon="4.81269">
        <ele>402</ele>
        <time>2013-01-06T09:10:56Z</time>
      </trkpt>
      <trkpt lat="45.84459" lon="4.8128">
        <ele>401</ele>
        <time>2013-01-06T09:11:01Z</time>
      </trkpt>
      <trkpt lat="45.84459" lon="4.81295">
        <ele>399</ele>
        <time>2013-01-06T09:11:07Z</time>
      </trkpt>
      <trkpt lat="45.84462" lon="4.81305">
        <ele>398</ele>
        <time>2013-01-06T09:11:12Z</time>
      </trkpt>
      <trkpt lat="45.84462" lon="4.81315">
        <ele>397</ele>
        <time>2013-01-06T09:11:16Z</time>
      </trkpt>
      <trkpt lat="45.84462" lon="4.81317">
        <ele>397</ele>
        <time>2013-01-06T09:11:17Z</time>
      </trkpt>
      <trkpt lat="45.84461" lon="4.81321">
        <ele>397</ele>
        <time>2013-01-06T09:11:19Z</time>
      </trkpt>
      <trkpt lat="45.84462" lon="4.81325">
        <ele>396</ele>
        <time>2013-01-06T09:11:22Z</time>
      </trkpt>
      <trkpt lat="45.84464" lon="4.81337">
        <ele>382</ele>
        <time>2013-01-06T09:11:27Z</time>
      </trkpt>
      <trkpt lat="45.84464" lon="4.81346">
        <ele>382</ele>
        <time>2013-01-06T09:11:30Z</time>
      </trkpt>
      <trkpt lat="45.84465" lon="4.8135">
        <ele>381</ele>
        <time>2013-01-06T09:11:32Z</time>
      </trkpt>
      <trkpt lat="45.84465" lon="4.81352">
        <ele>381</ele>
        <time>2013-01-06T09:11:33Z</time>
      </trkpt>
      <trkpt lat="45.84466" lon="4.81358">
        <ele>380</ele>
        <time>2013-01-06T09:11:36Z</time>
      </trkpt>
      <trkpt lat="45.84466" lon="4.81361">
        <ele>380</ele>
        <time>2013-01-06T09:11:38Z</time>
      </trkpt>
      <trkpt lat="45.84465" lon="4.81361">
        <ele>380</ele>
        <time>2013-01-06T09:11:40Z</time>
      </trkpt>
      <trkpt lat="45.8447" lon="4.81395">
        <ele>373</ele>
        <time>2013-01-06T09:11:50Z</time>
      </trkpt>
      <trkpt lat="45.84473" lon="4.81402">
        <ele>372</ele>
        <time>2013-01-06T09:11:57Z</time>
      </trkpt>
      <trkpt lat="45.84473" lon="4.81402">
        <ele>372</ele>
        <time>2013-01-06T09:11:58Z</time>
      </trkpt>
      <trkpt lat="45.84474" lon="4.81405">
        <ele>371</ele>
        <time>2013-01-06T09:12:03Z</time>
      </trkpt>
      <trkpt lat="45.84477" lon="4.81405">
        <ele>370</ele>
        <time>2013-01-06T09:12:09Z</time>
      </trkpt>
      <trkpt lat="45.84477" lon="4.81404">
        <ele>370</ele>
        <time>2013-01-06T09:12:14Z</time>
      </trkpt>
      <trkpt lat="45.84479" lon="4.81406">
        <ele>369</ele>
        <time>2013-01-06T09:12:16Z</time>
      </trkpt>
      <trkpt lat="45.84481" lon="4.81405">
        <ele>369</ele>
        <time>2013-01-06T09:12:19Z</time>
      </trkpt>
      <trkpt lat="45.84486" lon="4.81404">
        <ele>368</ele>
        <time>2013-01-06T09:12:22Z</time>
      </trkpt>
      <trkpt lat="45.8449" lon="4.81404">
        <ele>366</ele>
        <time>2013-01-06T09:12:25Z</time>
      </trkpt>
      <trkpt lat="45.84495" lon="4.81402">
        <ele>366</ele>
        <time>2013-01-06T09:12:28Z</time>
      </trkpt>
      <trkpt lat="45.84496" lon="4.814">
        <ele>366</ele>
        <time>2013-01-06T09:12:30Z</time>
      </trkpt>
      <trkpt lat="45.84499" lon="4.81398">
        <ele>367</ele>
        <time>2013-01-06T09:12:33Z</time>
      </trkpt>
      <trkpt lat="45.84502" lon="4.81398">
        <ele>364</ele>
        <time>2013-01-06T09:12:36Z</time>
      </trkpt>
      <trkpt lat="45.84505" lon="4.81394">
        <ele>366</ele>
        <time>2013-01-06T09:12:41Z</time>
      </trkpt>
      <trkpt lat="45.84505" lon="4.81394">
        <ele>366</ele>
        <time>2013-01-06T09:12:42Z</time>
      </trkpt>
      <trkpt lat="45.84508" lon="4.81394">
        <ele>366</ele>
        <time>2013-01-06T09:12:45Z</time>
      </trkpt>
      <trkpt lat="45.84508" lon="4.81394">
        <ele>366</ele>
        <time>2013-01-06T09:12:46Z</time>
      </trkpt>
      <trkpt lat="45.84512" lon="4.81396">
        <ele>366</ele>
        <time>2013-01-06T09:12:51Z</time>
      </trkpt>
      <trkpt lat="45.84513" lon="4.81396">
        <ele>366</ele>
        <time>2013-01-06T09:12:52Z</time>
      </trkpt>
      <trkpt lat="45.84517" lon="4.81396">
        <ele>366</ele>
        <time>2013-01-06T09:12:58Z</time>
      </trkpt>
      <trkpt lat="45.84518" lon="4.81397">
        <ele>366</ele>
        <time>2013-01-06T09:13:04Z</time>
      </trkpt>
      <trkpt lat="45.84522" lon="4.81397">
        <ele>367</ele>
        <time>2013-01-06T09:13:30Z</time>
      </trkpt>
      <trkpt lat="45.84525" lon="4.81399">
        <ele>367</ele>
        <time>2013-01-06T09:13:32Z</time>
      </trkpt>
      <trkpt lat="45.84526" lon="4.814">
        <ele>367</ele>
        <time>2013-01-06T09:13:35Z</time>
      </trkpt>
      <trkpt lat="45.84528" lon="4.81404">
        <ele>366</ele>
        <time>2013-01-06T09:13:41Z</time>
      </trkpt>
      <trkpt lat="45.84528" lon="4.81404">
        <ele>366</ele>
        <time>2013-01-06T09:13:42Z</time>
      </trkpt>
      <trkpt lat="45.8453" lon="4.81407">
        <ele>366</ele>
        <time>2013-01-06T09:13:45Z</time>
      </trkpt>
      <trkpt lat="45.84532" lon="4.81409">
        <ele>366</ele>
        <time>2013-01-06T09:13:48Z</time>
      </trkpt>
      <trkpt lat="45.84534" lon="4.8141">
        <ele>366</ele>
        <time>2013-01-06T09:13:51Z</time>
      </trkpt>
      <trkpt lat="45.84536" lon="4.8141">
        <ele>366</ele>
        <time>2013-01-06T09:13:53Z</time>
      </trkpt>
      <trkpt lat="45.84541" lon="4.81408">
        <ele>367</ele>
        <time>2013-01-06T09:13:57Z</time>
      </trkpt>
      <trkpt lat="45.84543" lon="4.81408">
        <ele>367</ele>
        <time>2013-01-06T09:13:59Z</time>
      </trkpt>
      <trkpt lat="45.84545" lon="4.81408">
        <ele>367</ele>
        <time>2013-01-06T09:14:00Z</time>
      </trkpt>
      <trkpt lat="45.8455" lon="4.81406">
        <ele>367</ele>
        <time>2013-01-06T09:14:02Z</time>
      </trkpt>
      <trkpt lat="45.84554" lon="4.81399">
        <ele>368</ele>
        <time>2013-01-06T09:14:06Z</time>
      </trkpt>
      <trkpt lat="45.84555" lon="4.81398">
        <ele>368</ele>
        <time>2013-01-06T09:14:07Z</time>
      </trkpt>
      <trkpt lat="45.8456" lon="4.81396">
        <ele>368</ele>
        <time>2013-01-06T09:14:11Z</time>
      </trkpt>
      <trkpt lat="45.84567" lon="4.81393">
        <ele>368</ele>
        <time>2013-01-06T09:14:17Z</time>
      </trkpt>
      <trkpt lat="45.84567" lon="4.81394">
        <ele>368</ele>
        <time>2013-01-06T09:14:18Z</time>
      </trkpt>
      <trkpt lat="45.84569" lon="4.81393">
        <ele>368</ele>
        <time>2013-01-06T09:14:21Z</time>
      </trkpt>
      <trkpt lat="45.8457" lon="4.81393">
        <ele>368</ele>
        <time>2013-01-06T09:14:22Z</time>
      </trkpt>
      <trkpt lat="45.84573" lon="4.81393">
        <ele>367</ele>
        <time>2013-01-06T09:14:25Z</time>
      </trkpt>
      <trkpt lat="45.84574" lon="4.81395">
        <ele>367</ele>
        <time>2013-01-06T09:14:27Z</time>
      </trkpt>
      <trkpt lat="45.84576" lon="4.81397">
        <ele>366</ele>
        <time>2013-01-06T09:14:28Z</time>
      </trkpt>
      <trkpt lat="45.8458" lon="4.814">
        <ele>364</ele>
        <time>2013-01-06T09:14:32Z</time>
      </trkpt>
      <trkpt lat="45.84583" lon="4.81401">
        <ele>364</ele>
        <time>2013-01-06T09:14:34Z</time>
      </trkpt>
      <trkpt lat="45.84586" lon="4.81401">
        <ele>366</ele>
        <time>2013-01-06T09:14:37Z</time>
      </trkpt>
      <trkpt lat="45.84587" lon="4.81401">
        <ele>366</ele>
        <time>2013-01-06T09:14:38Z</time>
      </trkpt>
      <trkpt lat="45.8459" lon="4.81397">
        <ele>368</ele>
        <time>2013-01-06T09:14:42Z</time>
      </trkpt>
      <trkpt lat="45.84593" lon="4.81395">
        <ele>369</ele>
        <time>2013-01-06T09:14:45Z</time>
      </trkpt>
      <trkpt lat="45.84594" lon="4.81395">
        <ele>369</ele>
        <time>2013-01-06T09:14:46Z</time>
      </trkpt>
      <trkpt lat="45.84595" lon="4.81396">
        <ele>369</ele>
        <time>2013-01-06T09:14:47Z</time>
      </trkpt>
      <trkpt lat="45.84597" lon="4.81397">
        <ele>369</ele>
        <time>2013-01-06T09:14:48Z</time>
      </trkpt>
      <trkpt lat="45.846" lon="4.81398">
        <ele>369</ele>
        <time>2013-01-06T09:14:52Z</time>
      </trkpt>
      <trkpt lat="45.84602" lon="4.81399">
        <ele>369</ele>
        <time>2013-01-06T09:14:54Z</time>
      </trkpt>
      <trkpt lat="45.84605" lon="4.81403">
        <ele>369</ele>
        <time>2013-01-06T09:14:57Z</time>
      </trkpt>
      <trkpt lat="45.8461" lon="4.81408">
        <ele>369</ele>
        <time>2013-01-06T09:15:01Z</time>
      </trkpt>
      <trkpt lat="45.84614" lon="4.81412">
        <ele>369</ele>
        <time>2013-01-06T09:15:05Z</time>
      </trkpt>
      <trkpt lat="45.84616" lon="4.81413">
        <ele>370</ele>
        <time>2013-01-06T09:15:07Z</time>
      </trkpt>
      <trkpt lat="45.84617" lon="4.81414">
        <ele>370</ele>
        <time>2013-01-06T09:15:08Z</time>
      </trkpt>
      <trkpt lat="45.84619" lon="4.81419">
        <ele>360</ele>
        <time>2013-01-06T09:15:11Z</time>
      </trkpt>
      <trkpt lat="45.84623" lon="4.81422">
        <ele>360</ele>
        <time>2013-01-06T09:15:15Z</time>
      </trkpt>
      <trkpt lat="45.84624" lon="4.81422">
        <ele>360</ele>
        <time>2013-01-06T09:15:16Z</time>
      </trkpt>
      <trkpt lat="45.84626" lon="4.81425">
        <ele>361</ele>
        <time>2013-01-06T09:15:19Z</time>
      </trkpt>
      <trkpt lat="45.84625" lon="4.81428">
        <ele>360</ele>
        <time>2013-01-06T09:15:22Z</time>
      </trkpt>
      <trkpt lat="45.84625" lon="4.81429">
        <ele>360</ele>
        <time>2013-01-06T09:15:23Z</time>
      </trkpt>
      <trkpt lat="45.84626" lon="4.8143">
        <ele>361</ele>
        <time>2013-01-06T09:15:24Z</time>
      </trkpt>
      <trkpt lat="45.84629" lon="4.81432">
        <ele>361</ele>
        <time>2013-01-06T09:15:28Z</time>
      </trkpt>
      <trkpt lat="45.8463" lon="4.81431">
        <ele>361</ele>
        <time>2013-01-06T09:15:34Z</time>
      </trkpt>
      <trkpt lat="45.84629" lon="4.81429">
        <ele>361</ele>
        <time>2013-01-06T09:15:43Z</time>
      </trkpt>
      <trkpt lat="45.8463" lon="4.81428">
        <ele>361</ele>
        <time>2013-01-06T09:15:49Z</time>
      </trkpt>
      <trkpt lat="45.84624" lon="4.81428">
        <ele>360</ele>
        <time>2013-01-06T09:16:18Z</time>
      </trkpt>
      <trkpt lat="45.8463" lon="4.81426">
        <ele>361</ele>
        <time>2013-01-06T09:16:28Z</time>
      </trkpt>
      <trkpt lat="45.84636" lon="4.8142">
        <ele>362</ele>
        <time>2013-01-06T09:16:34Z</time>
      </trkpt>
      <trkpt lat="45.8464" lon="4.81418">
        <ele>363</ele>
        <time>2013-01-06T09:16:37Z</time>
      </trkpt>
      <trkpt lat="45.84643" lon="4.81418">
        <ele>363</ele>
        <time>2013-01-06T09:16:40Z</time>
      </trkpt>
      <trkpt lat="45.84664" lon="4.81417">
        <ele>368</ele>
        <time>2013-01-06T09:16:49Z</time>
      </trkpt>
      <trkpt lat="45.84661" lon="4.81414">
        <ele>370</ele>
        <time>2013-01-06T09:16:51Z</time>
      </trkpt>
      <trkpt lat="45.8466" lon="4.81411">
        <ele>371</ele>
        <time>2013-01-06T09:16:52Z</time>
      </trkpt>
      <trkpt lat="45.8466" lon="4.81406">
        <ele>371</ele>
        <time>2013-01-06T09:16:56Z</time>
      </trkpt>
      <trkpt lat="45.84672" lon="4.81388">
        <ele>381</ele>
        <time>2013-01-06T09:17:10Z</time>
      </trkpt>
      <trkpt lat="45.84676" lon="4.81388">
        <ele>381</ele>
        <time>2013-01-06T09:17:15Z</time>
      </trkpt>
      <trkpt lat="45.84678" lon="4.8138">
        <ele>382</ele>
        <time>2013-01-06T09:17:20Z</time>
      </trkpt>
      <trkpt lat="45.84683" lon="4.81376">
        <ele>383</ele>
        <time>2013-01-06T09:17:25Z</time>
      </trkpt>
      <trkpt lat="45.84683" lon="4.81373">
        <ele>383</ele>
        <time>2013-01-06T09:17:28Z</time>
      </trkpt>
      <trkpt lat="45.84683" lon="4.81369">
        <ele>384</ele>
        <time>2013-01-06T09:17:31Z</time>
      </trkpt>
      <trkpt lat="45.84683" lon="4.81368">
        <ele>384</ele>
        <time>2013-01-06T09:17:32Z</time>
      </trkpt>
      <trkpt lat="45.84683" lon="4.81362">
        <ele>384</ele>
        <time>2013-01-06T09:17:36Z</time>
      </trkpt>
      <trkpt lat="45.84684" lon="4.81361">
        <ele>384</ele>
        <time>2013-01-06T09:17:37Z</time>
      </trkpt>
      <trkpt lat="45.84684" lon="4.81363">
        <ele>384</ele>
        <time>2013-01-06T09:17:42Z</time>
      </trkpt>
      <trkpt lat="45.84684" lon="4.81359">
        <ele>384</ele>
        <time>2013-01-06T09:17:57Z</time>
      </trkpt>
      <trkpt lat="45.84687" lon="4.8136">
        <ele>385</ele>
        <time>2013-01-06T09:18:06Z</time>
      </trkpt>
      <trkpt lat="45.84684" lon="4.81357">
        <ele>385</ele>
        <time>2013-01-06T09:18:13Z</time>
      </trkpt>
      <trkpt lat="45.84684" lon="4.81354">
        <ele>385</ele>
        <time>2013-01-06T09:18:16Z</time>
      </trkpt>
      <trkpt lat="45.84684" lon="4.81352">
        <ele>385</ele>
        <time>2013-01-06T09:18:17Z</time>
      </trkpt>
      <trkpt lat="45.84682" lon="4.81349">
        <ele>385</ele>
        <time>2013-01-06T09:18:22Z</time>
      </trkpt>
      <trkpt lat="45.8468" lon="4.81342">
        <ele>385</ele>
        <time>2013-01-06T09:18:28Z</time>
      </trkpt>
      <trkpt lat="45.84678" lon="4.81337">
        <ele>385</ele>
        <time>2013-01-06T09:18:34Z</time>
      </trkpt>
      <trkpt lat="45.84677" lon="4.81333">
        <ele>389</ele>
        <time>2013-01-06T09:18:39Z</time>
      </trkpt>
      <trkpt lat="45.84677" lon="4.81329">
        <ele>390</ele>
        <time>2013-01-06T09:18:42Z</time>
      </trkpt>
      <trkpt lat="45.84677" lon="4.81326">
        <ele>390</ele>
        <time>2013-01-06T09:18:44Z</time>
      </trkpt>
      <trkpt lat="45.84678" lon="4.81319">
        <ele>392</ele>
        <time>2013-01-06T09:18:49Z</time>
      </trkpt>
      <trkpt lat="45.84677" lon="4.8131">
        <ele>394</ele>
        <time>2013-01-06T09:18:54Z</time>
      </trkpt>
      <trkpt lat="45.84677" lon="4.81309">
        <ele>394</ele>
        <time>2013-01-06T09:18:55Z</time>
      </trkpt>
      <trkpt lat="45.84678" lon="4.81307">
        <ele>395</ele>
        <time>2013-01-06T09:18:58Z</time>
      </trkpt>
      <trkpt lat="45.84676" lon="4.81305">
        <ele>395</ele>
        <time>2013-01-06T09:19:00Z</time>
      </trkpt>
      <trkpt lat="45.84674" lon="4.81297">
        <ele>397</ele>
        <time>2013-01-06T09:19:05Z</time>
      </trkpt>
      <trkpt lat="45.84674" lon="4.81295">
        <ele>397</ele>
        <time>2013-01-06T09:19:06Z</time>
      </trkpt>
      <trkpt lat="45.84673" lon="4.81291">
        <ele>398</ele>
        <time>2013-01-06T09:19:11Z</time>
      </trkpt>
      <trkpt lat="45.84673" lon="4.81288">
        <ele>398</ele>
        <time>2013-01-06T09:19:20Z</time>
      </trkpt>
      <trkpt lat="45.84673" lon="4.81281">
        <ele>399</ele>
        <time>2013-01-06T09:19:26Z</time>
      </trkpt>
      <trkpt lat="45.84672" lon="4.8128">
        <ele>399</ele>
        <time>2013-01-06T09:19:27Z</time>
      </trkpt>
      <trkpt lat="45.84672" lon="4.81279">
        <ele>400</ele>
        <time>2013-01-06T09:19:28Z</time>
      </trkpt>
      <trkpt lat="45.8467" lon="4.81276">
        <ele>400</ele>
        <time>2013-01-06T09:19:30Z</time>
      </trkpt>
      <trkpt lat="45.8467" lon="4.81276">
        <ele>400</ele>
        <time>2013-01-06T09:19:31Z</time>
      </trkpt>
      <trkpt lat="45.8467" lon="4.81274">
        <ele>400</ele>
        <time>2013-01-06T09:19:32Z</time>
      </trkpt>
      <trkpt lat="45.8467" lon="4.81269">
        <ele>401</ele>
        <time>2013-01-06T09:19:36Z</time>
      </trkpt>
      <trkpt lat="45.8467" lon="4.81267">
        <ele>401</ele>
        <time>2013-01-06T09:19:38Z</time>
      </trkpt>
      <trkpt lat="45.84669" lon="4.81255">
        <ele>403</ele>
        <time>2013-01-06T09:19:45Z</time>
      </trkpt>
      <trkpt lat="45.84669" lon="4.81253">
        <ele>403</ele>
        <time>2013-01-06T09:19:46Z</time>
      </trkpt>
      <trkpt lat="45.8467" lon="4.81245">
        <ele>407</ele>
        <time>2013-01-06T09:19:52Z</time>
      </trkpt>
      <trkpt lat="45.84672" lon="4.8124">
        <ele>410</ele>
        <time>2013-01-06T09:19:57Z</time>
      </trkpt>
      <trkpt lat="45.84674" lon="4.81237">
        <ele>411</ele>
        <time>2013-01-06T09:20:01Z</time>
      </trkpt>
      <trkpt lat="45.84674" lon="4.81235">
        <ele>412</ele>
        <time>2013-01-06T09:20:02Z</time>
      </trkpt>
      <trkpt lat="45.84673" lon="4.81229">
        <ele>413</ele>
        <time>2013-01-06T09:20:06Z</time>
      </trkpt>
      <trkpt lat="45.84672" lon="4.81228">
        <ele>414</ele>
        <time>2013-01-06T09:20:07Z</time>
      </trkpt>
      <trkpt lat="45.84672" lon="4.81225">
        <ele>414</ele>
        <time>2013-01-06T09:20:09Z</time>
      </trkpt>
      <trkpt lat="45.84673" lon="4.81221">
        <ele>415</ele>
        <time>2013-01-06T09:20:12Z</time>
      </trkpt>
      <trkpt lat="45.84674" lon="4.81218">
        <ele>416</ele>
        <time>2013-01-06T09:20:15Z</time>
      </trkpt>
      <trkpt lat="45.84674" lon="4.81217">
        <ele>416</ele>
        <time>2013-01-06T09:20:16Z</time>
      </trkpt>
      <trkpt lat="45.84677" lon="4.81214">
        <ele>417</ele>
        <time>2013-01-06T09:20:20Z</time>
      </trkpt>
      <trkpt lat="45.84679" lon="4.81209">
        <ele>418</ele>
        <time>2013-01-06T09:20:24Z</time>
      </trkpt>
      <trkpt lat="45.84681" lon="4.81207">
        <ele>419</ele>
        <time>2013-01-06T09:20:26Z</time>
      </trkpt>
      <trkpt lat="45.84683" lon="4.81204">
        <ele>419</ele>
        <time>2013-01-06T09:20:29Z</time>
      </trkpt>
      <trkpt lat="45.84682" lon="4.81194">
        <ele>421</ele>
        <time>2013-01-06T09:20:35Z</time>
      </trkpt>
      <trkpt lat="45.84684" lon="4.81187">
        <ele>422</ele>
        <time>2013-01-06T09:20:45Z</time>
      </trkpt>
      <trkpt lat="45.84684" lon="4.81186">
        <ele>422</ele>
        <time>2013-01-06T09:20:46Z</time>
      </trkpt>
      <trkpt lat="45.84684" lon="4.81182">
        <ele>422</ele>
        <time>2013-01-06T09:20:49Z</time>
      </trkpt>
      <trkpt lat="45.84686" lon="4.81177">
        <ele>423</ele>
        <time>2013-01-06T09:20:55Z</time>
      </trkpt>
      <trkpt lat="45.84686" lon="4.81168">
        <ele>423</ele>
        <time>2013-01-06T09:21:01Z</time>
      </trkpt>
      <trkpt lat="45.84688" lon="4.81163">
        <ele>432</ele>
        <time>2013-01-06T09:21:05Z</time>
      </trkpt>
      <trkpt lat="45.8469" lon="4.8116">
        <ele>432</ele>
        <time>2013-01-06T09:21:10Z</time>
      </trkpt>
      <trkpt lat="45.84691" lon="4.81159">
        <ele>432</ele>
        <time>2013-01-06T09:21:11Z</time>
      </trkpt>
      <trkpt lat="45.84692" lon="4.81159">
        <ele>432</ele>
        <time>2013-01-06T09:21:12Z</time>
      </trkpt>
      <trkpt lat="45.84694" lon="4.81157">
        <ele>433</ele>
        <time>2013-01-06T09:21:15Z</time>
      </trkpt>
      <trkpt lat="45.84695" lon="4.81151">
        <ele>433</ele>
        <time>2013-01-06T09:21:20Z</time>
      </trkpt>
      <trkpt lat="45.84695" lon="4.81149">
        <ele>433</ele>
        <time>2013-01-06T09:21:22Z</time>
      </trkpt>
      <trkpt lat="45.84694" lon="4.81146">
        <ele>434</ele>
        <time>2013-01-06T09:21:24Z</time>
      </trkpt>
      <trkpt lat="45.84695" lon="4.81139">
        <ele>434</ele>
        <time>2013-01-06T09:21:29Z</time>
      </trkpt>
      <trkpt lat="45.84695" lon="4.81137">
        <ele>434</ele>
        <time>2013-01-06T09:21:30Z</time>
      </trkpt>
      <trkpt lat="45.84697" lon="4.81134">
        <ele>435</ele>
        <time>2013-01-06T09:21:33Z</time>
      </trkpt>
      <trkpt lat="45.84697" lon="4.81133">
        <ele>435</ele>
        <time>2013-01-06T09:21:35Z</time>
      </trkpt>
      <trkpt lat="45.84696" lon="4.81128">
        <ele>435</ele>
        <time>2013-01-06T09:21:38Z</time>
      </trkpt>
      <trkpt lat="45.84696" lon="4.81127">
        <ele>435</ele>
        <time>2013-01-06T09:21:39Z</time>
      </trkpt>
      <trkpt lat="45.84695" lon="4.81122">
        <ele>436</ele>
        <time>2013-01-06T09:21:43Z</time>
      </trkpt>
      <trkpt lat="45.84695" lon="4.81121">
        <ele>436</ele>
        <time>2013-01-06T09:21:44Z</time>
      </trkpt>
      <trkpt lat="45.84696" lon="4.81121">
        <ele>436</ele>
        <time>2013-01-06T09:21:45Z</time>
      </trkpt>
      <trkpt lat="45.84698" lon="4.81114">
        <ele>437</ele>
        <time>2013-01-06T09:21:50Z</time>
      </trkpt>
      <trkpt lat="45.84698" lon="4.81112">
        <ele>437</ele>
        <time>2013-01-06T09:21:52Z</time>
      </trkpt>
      <trkpt lat="45.84699" lon="4.81109">
        <ele>437</ele>
        <time>2013-01-06T09:21:54Z</time>
      </trkpt>
      <trkpt lat="45.84699" lon="4.81108">
        <ele>437</ele>
        <time>2013-01-06T09:21:55Z</time>
      </trkpt>
      <trkpt lat="45.84702" lon="4.81104">
        <ele>437</ele>
        <time>2013-01-06T09:22:00Z</time>
      </trkpt>
      <trkpt lat="45.84703" lon="4.81102">
        <ele>437</ele>
        <time>2013-01-06T09:22:02Z</time>
      </trkpt>
      <trkpt lat="45.84705" lon="4.811">
        <ele>438</ele>
        <time>2013-01-06T09:22:04Z</time>
      </trkpt>
      <trkpt lat="45.84705" lon="4.81096">
        <ele>438</ele>
        <time>2013-01-06T09:22:08Z</time>
      </trkpt>
      <trkpt lat="45.84705" lon="4.81093">
        <ele>438</ele>
        <time>2013-01-06T09:22:10Z</time>
      </trkpt>
      <trkpt lat="45.84705" lon="4.81092">
        <ele>438</ele>
        <time>2013-01-06T09:22:11Z</time>
      </trkpt>
      <trkpt lat="45.84706" lon="4.81091">
        <ele>438</ele>
        <time>2013-01-06T09:22:13Z</time>
      </trkpt>
      <trkpt lat="45.84707" lon="4.81089">
        <ele>438</ele>
        <time>2013-01-06T09:22:15Z</time>
      </trkpt>
      <trkpt lat="45.84705" lon="4.81084">
        <ele>438</ele>
        <time>2013-01-06T09:22:18Z</time>
      </trkpt>
      <trkpt lat="45.84705" lon="4.81081">
        <ele>445</ele>
        <time>2013-01-06T09:22:20Z</time>
      </trkpt>
      <trkpt lat="45.84706" lon="4.81079">
        <ele>446</ele>
        <time>2013-01-06T09:22:22Z</time>
      </trkpt>
      <trkpt lat="45.84705" lon="4.81075">
        <ele>446</ele>
        <time>2013-01-06T09:22:24Z</time>
      </trkpt>
      <trkpt lat="45.84705" lon="4.81072">
        <ele>446</ele>
        <time>2013-01-06T09:22:26Z</time>
      </trkpt>
      <trkpt lat="45.84706" lon="4.81067">
        <ele>446</ele>
        <time>2013-01-06T09:22:30Z</time>
      </trkpt>
      <trkpt lat="45.84707" lon="4.81065">
        <ele>446</ele>
        <time>2013-01-06T09:22:32Z</time>
      </trkpt>
      <trkpt lat="45.84708" lon="4.8106">
        <ele>447</ele>
        <time>2013-01-06T09:22:36Z</time>
      </trkpt>
      <trkpt lat="45.84709" lon="4.81057">
        <ele>447</ele>
        <time>2013-01-06T09:22:38Z</time>
      </trkpt>
      <trkpt lat="45.84709" lon="4.81052">
        <ele>447</ele>
        <time>2013-01-06T09:22:42Z</time>
      </trkpt>
      <trkpt lat="45.84711" lon="4.81047">
        <ele>447</ele>
        <time>2013-01-06T09:22:46Z</time>
      </trkpt>
      <trkpt lat="45.84714" lon="4.81041">
        <ele>448</ele>
        <time>2013-01-06T09:22:51Z</time>
      </trkpt>
      <trkpt lat="45.84716" lon="4.81032">
        <ele>448</ele>
        <time>2013-01-06T09:22:57Z</time>
      </trkpt>
      <trkpt lat="45.84721" lon="4.81025">
        <ele>449</ele>
        <time>2013-01-06T09:23:03Z</time>
      </trkpt>
      <trkpt lat="45.84724" lon="4.8102">
        <ele>449</ele>
        <time>2013-01-06T09:23:09Z</time>
      </trkpt>
      <trkpt lat="45.84725" lon="4.81019">
        <ele>449</ele>
        <time>2013-01-06T09:23:11Z</time>
      </trkpt>
      <trkpt lat="45.84725" lon="4.81018">
        <ele>449</ele>
        <time>2013-01-06T09:23:12Z</time>
      </trkpt>
      <trkpt lat="45.84726" lon="4.81016">
        <ele>449</ele>
        <time>2013-01-06T09:23:14Z</time>
      </trkpt>
      <trkpt lat="45.84729" lon="4.81013">
        <ele>450</ele>
        <time>2013-01-06T09:23:17Z</time>
      </trkpt>
      <trkpt lat="45.84733" lon="4.81009">
        <ele>450</ele>
        <time>2013-01-06T09:23:22Z</time>
      </trkpt>
      <trkpt lat="45.84734" lon="4.81003">
        <ele>450</ele>
        <time>2013-01-06T09:23:26Z</time>
      </trkpt>
      <trkpt lat="45.84737" lon="4.80997">
        <ele>454</ele>
        <time>2013-01-06T09:23:33Z</time>
      </trkpt>
      <trkpt lat="45.84739" lon="4.80993">
        <ele>454</ele>
        <time>2013-01-06T09:23:37Z</time>
      </trkpt>
      <trkpt lat="45.8474" lon="4.80992">
        <ele>454</ele>
        <time>2013-01-06T09:23:38Z</time>
      </trkpt>
      <trkpt lat="45.8474" lon="4.80984">
        <ele>455</ele>
        <time>2013-01-06T09:23:42Z</time>
      </trkpt>
      <trkpt lat="45.8474" lon="4.80983">
        <ele>455</ele>
        <time>2013-01-06T09:23:43Z</time>
      </trkpt>
      <trkpt lat="45.84738" lon="4.8098">
        <ele>456</ele>
        <time>2013-01-06T09:23:49Z</time>
      </trkpt>
      <trkpt lat="45.84732" lon="4.80975">
        <ele>456</ele>
        <time>2013-01-06T09:24:13Z</time>
      </trkpt>
      <trkpt lat="45.8473" lon="4.8097">
        <ele>457</ele>
        <time>2013-01-06T09:24:18Z</time>
      </trkpt>
      <trkpt lat="45.84731" lon="4.80968">
        <ele>457</ele>
        <time>2013-01-06T09:24:20Z</time>
      </trkpt>
      <trkpt lat="45.84732" lon="4.80967">
        <ele>457</ele>
        <time>2013-01-06T09:24:23Z</time>
      </trkpt>
      <trkpt lat="45.84734" lon="4.80963">
        <ele>457</ele>
        <time>2013-01-06T09:24:26Z</time>
      </trkpt>
      <trkpt lat="45.84734" lon="4.80959">
        <ele>457</ele>
        <time>2013-01-06T09:24:29Z</time>
      </trkpt>
      <trkpt lat="45.84734" lon="4.80954">
        <ele>458</ele>
        <time>2013-01-06T09:24:33Z</time>
      </trkpt>
      <trkpt lat="45.84731" lon="4.80952">
        <ele>458</ele>
        <time>2013-01-06T09:24:36Z</time>
      </trkpt>
      <trkpt lat="45.84727" lon="4.80951">
        <ele>458</ele>
        <time>2013-01-06T09:24:40Z</time>
      </trkpt>
      <trkpt lat="45.84726" lon="4.80951">
        <ele>458</ele>
        <time>2013-01-06T09:24:41Z</time>
      </trkpt>
      <trkpt lat="45.84725" lon="4.80951">
        <ele>458</ele>
        <time>2013-01-06T09:24:43Z</time>
      </trkpt>
      <trkpt lat="45.84724" lon="4.80951">
        <ele>458</ele>
        <time>2013-01-06T09:24:44Z</time>
      </trkpt>
      <trkpt lat="45.84722" lon="4.80949">
        <ele>458</ele>
        <time>2013-01-06T09:24:48Z</time>
      </trkpt>
      <trkpt lat="45.84717" lon="4.80947">
        <ele>458</ele>
        <time>2013-01-06T09:24:54Z</time>
      </trkpt>
      <trkpt lat="45.84715" lon="4.80946">
        <ele>458</ele>
        <time>2013-01-06T09:24:55Z</time>
      </trkpt>
      <trkpt lat="45.84713" lon="4.80945">
        <ele>459</ele>
        <time>2013-01-06T09:24:58Z</time>
      </trkpt>
      <trkpt lat="45.84713" lon="4.80944">
        <ele>459</ele>
        <time>2013-01-06T09:24:59Z</time>
      </trkpt>
      <trkpt lat="45.84709" lon="4.80941">
        <ele>459</ele>
        <time>2013-01-06T09:25:03Z</time>
      </trkpt>
      <trkpt lat="45.84708" lon="4.80941">
        <ele>459</ele>
        <time>2013-01-06T09:25:04Z</time>
      </trkpt>
      <trkpt lat="45.84705" lon="4.80938">
        <ele>459</ele>
        <time>2013-01-06T09:25:09Z</time>
      </trkpt>
      <trkpt lat="45.84704" lon="4.80938">
        <ele>459</ele>
        <time>2013-01-06T09:25:11Z</time>
      </trkpt>
      <trkpt lat="45.84701" lon="4.80936">
        <ele>459</ele>
        <time>2013-01-06T09:25:14Z</time>
      </trkpt>
      <trkpt lat="45.84696" lon="4.80935">
        <ele>460</ele>
        <time>2013-01-06T09:25:19Z</time>
      </trkpt>
      <trkpt lat="45.84695" lon="4.80934">
        <ele>460</ele>
        <time>2013-01-06T09:25:20Z</time>
      </trkpt>
      <trkpt lat="45.84695" lon="4.80935">
        <ele>460</ele>
        <time>2013-01-06T09:25:21Z</time>
      </trkpt>
      <trkpt lat="45.84693" lon="4.80934">
        <ele>460</ele>
        <time>2013-01-06T09:25:24Z</time>
      </trkpt>
      <trkpt lat="45.84692" lon="4.80933">
        <ele>460</ele>
        <time>2013-01-06T09:25:25Z</time>
      </trkpt>
      <trkpt lat="45.84688" lon="4.80931">
        <ele>460</ele>
        <time>2013-01-06T09:25:29Z</time>
      </trkpt>
      <trkpt lat="45.84682" lon="4.80927">
        <ele>461</ele>
        <time>2013-01-06T09:25:35Z</time>
      </trkpt>
      <trkpt lat="45.84679" lon="4.80927">
        <ele>462</ele>
        <time>2013-01-06T09:25:38Z</time>
      </trkpt>
      <trkpt lat="45.84675" lon="4.80926">
        <ele>462</ele>
        <time>2013-01-06T09:25:42Z</time>
      </trkpt>
      <trkpt lat="45.84673" lon="4.80925">
        <ele>462</ele>
        <time>2013-01-06T09:25:43Z</time>
      </trkpt>
      <trkpt lat="45.84668" lon="4.80924">
        <ele>463</ele>
        <time>2013-01-06T09:25:48Z</time>
      </trkpt>
      <trkpt lat="45.84661" lon="4.80921">
        <ele>463</ele>
        <time>2013-01-06T09:25:55Z</time>
      </trkpt>
      <trkpt lat="45.84656" lon="4.80922">
        <ele>462</ele>
        <time>2013-01-06T09:26:00Z</time>
      </trkpt>
      <trkpt lat="45.84655" lon="4.80923">
        <ele>462</ele>
        <time>2013-01-06T09:26:01Z</time>
      </trkpt>
      <trkpt lat="45.84649" lon="4.80923">
        <ele>461</ele>
        <time>2013-01-06T09:26:05Z</time>
      </trkpt>
      <trkpt lat="45.84648" lon="4.80922">
        <ele>461</ele>
        <time>2013-01-06T09:26:06Z</time>
      </trkpt>
      <trkpt lat="45.84646" lon="4.80922">
        <ele>461</ele>
        <time>2013-01-06T09:26:07Z</time>
      </trkpt>
      <trkpt lat="45.84643" lon="4.80922">
        <ele>461</ele>
        <time>2013-01-06T09:26:09Z</time>
      </trkpt>
      <trkpt lat="45.84638" lon="4.80922">
        <ele>460</ele>
        <time>2013-01-06T09:26:11Z</time>
      </trkpt>
      <trkpt lat="45.84636" lon="4.80923">
        <ele>460</ele>
        <time>2013-01-06T09:26:13Z</time>
      </trkpt>
      <trkpt lat="45.84635" lon="4.80925">
        <ele>460</ele>
        <time>2013-01-06T09:26:14Z</time>
      </trkpt>
      <trkpt lat="45.84634" lon="4.80927">
        <ele>460</ele>
        <time>2013-01-06T09:26:15Z</time>
      </trkpt>
      <trkpt lat="45.84625" lon="4.80936">
        <ele>459</ele>
        <time>2013-01-06T09:26:21Z</time>
      </trkpt>
      <trkpt lat="45.84621" lon="4.80937">
        <ele>459</ele>
        <time>2013-01-06T09:26:24Z</time>
      </trkpt>
      <trkpt lat="45.84619" lon="4.80939">
        <ele>459</ele>
        <time>2013-01-06T09:26:26Z</time>
      </trkpt>
      <trkpt lat="45.84617" lon="4.80946">
        <ele>458</ele>
        <time>2013-01-06T09:26:31Z</time>
      </trkpt>
      <trkpt lat="45.84614" lon="4.80958">
        <ele>457</ele>
        <time>2013-01-06T09:26:36Z</time>
      </trkpt>
      <trkpt lat="45.84612" lon="4.80962">
        <ele>457</ele>
        <time>2013-01-06T09:26:37Z</time>
      </trkpt>
      <trkpt lat="45.84608" lon="4.80973">
        <ele>456</ele>
        <time>2013-01-06T09:26:41Z</time>
      </trkpt>
      <trkpt lat="45.84606" lon="4.80977">
        <ele>456</ele>
        <time>2013-01-06T09:26:42Z</time>
      </trkpt>
      <trkpt lat="45.84603" lon="4.80986">
        <ele>455</ele>
        <time>2013-01-06T09:26:45Z</time>
      </trkpt>
      <trkpt lat="45.84599" lon="4.80993">
        <ele>454</ele>
        <time>2013-01-06T09:26:47Z</time>
      </trkpt>
      <trkpt lat="45.84593" lon="4.81007">
        <ele>450</ele>
        <time>2013-01-06T09:26:51Z</time>
      </trkpt>
      <trkpt lat="45.84592" lon="4.81011">
        <ele>449</ele>
        <time>2013-01-06T09:26:52Z</time>
      </trkpt>
      <trkpt lat="45.84588" lon="4.81029">
        <ele>448</ele>
        <time>2013-01-06T09:26:56Z</time>
      </trkpt>
      <trkpt lat="45.84585" lon="4.8104">
        <ele>447</ele>
        <time>2013-01-06T09:26:58Z</time>
      </trkpt>
      <trkpt lat="45.84584" lon="4.81051">
        <ele>446</ele>
        <time>2013-01-06T09:27:00Z</time>
      </trkpt>
      <trkpt lat="45.84582" lon="4.81069">
        <ele>442</ele>
        <time>2013-01-06T09:27:04Z</time>
      </trkpt>
      <trkpt lat="45.84582" lon="4.81074">
        <ele>442</ele>
        <time>2013-01-06T09:27:05Z</time>
      </trkpt>
      <trkpt lat="45.84581" lon="4.81091">
        <ele>439</ele>
        <time>2013-01-06T09:27:09Z</time>
      </trkpt>
      <trkpt lat="45.8458" lon="4.81095">
        <ele>438</ele>
        <time>2013-01-06T09:27:10Z</time>
      </trkpt>
      <trkpt lat="45.84579" lon="4.81108">
        <ele>434</ele>
        <time>2013-01-06T09:27:13Z</time>
      </trkpt>
      <trkpt lat="45.84577" lon="4.81121">
        <ele>432</ele>
        <time>2013-01-06T09:27:16Z</time>
      </trkpt>
      <trkpt lat="45.84575" lon="4.81125">
        <ele>432</ele>
        <time>2013-01-06T09:27:17Z</time>
      </trkpt>
      <trkpt lat="45.84573" lon="4.81141">
        <ele>430</ele>
        <time>2013-01-06T09:27:22Z</time>
      </trkpt>
      <trkpt lat="45.84572" lon="4.81147">
        <ele>430</ele>
        <time>2013-01-06T09:27:24Z</time>
      </trkpt>
      <trkpt lat="45.84571" lon="4.81151">
        <ele>430</ele>
        <time>2013-01-06T09:27:26Z</time>
      </trkpt>
      <trkpt lat="45.84571" lon="4.81152">
        <ele>430</ele>
        <time>2013-01-06T09:27:27Z</time>
      </trkpt>
      <trkpt lat="45.84569" lon="4.81161">
        <ele>430</ele>
        <time>2013-01-06T09:27:33Z</time>
      </trkpt>
      <trkpt lat="45.84563" lon="4.81168">
        <ele>423</ele>
        <time>2013-01-06T09:27:37Z</time>
      </trkpt>
      <trkpt lat="45.84561" lon="4.81168">
        <ele>422</ele>
        <time>2013-01-06T09:27:38Z</time>
      </trkpt>
      <trkpt lat="45.84547" lon="4.81175">
        <ele>419</ele>
        <time>2013-01-06T09:27:44Z</time>
      </trkpt>
      <trkpt lat="45.84546" lon="4.81177">
        <ele>419</ele>
        <time>2013-01-06T09:27:45Z</time>
      </trkpt>
      <trkpt lat="45.84545" lon="4.81185">
        <ele>418</ele>
        <time>2013-01-06T09:27:48Z</time>
      </trkpt>
      <trkpt lat="45.8455" lon="4.81195">
        <ele>418</ele>
        <time>2013-01-06T09:27:51Z</time>
      </trkpt>
      <trkpt lat="45.84552" lon="4.81198">
        <ele>418</ele>
        <time>2013-01-06T09:27:52Z</time>
      </trkpt>
      <trkpt lat="45.8456" lon="4.81213">
        <ele>417</ele>
        <time>2013-01-06T09:27:56Z</time>
      </trkpt>
      <trkpt lat="45.84562" lon="4.81222">
        <ele>416</ele>
        <time>2013-01-06T09:27:59Z</time>
      </trkpt>
      <trkpt lat="45.84562" lon="4.81226">
        <ele>416</ele>
        <time>2013-01-06T09:28:00Z</time>
      </trkpt>
      <trkpt lat="45.84556" lon="4.81228">
        <ele>416</ele>
        <time>2013-01-06T09:28:04Z</time>
      </trkpt>
      <trkpt lat="45.84555" lon="4.81228">
        <ele>416</ele>
        <time>2013-01-06T09:28:05Z</time>
      </trkpt>
      <trkpt lat="45.84551" lon="4.8123">
        <ele>415</ele>
        <time>2013-01-06T09:28:09Z</time>
      </trkpt>
      <trkpt lat="45.84549" lon="4.81237">
        <ele>415</ele>
        <time>2013-01-06T09:28:12Z</time>
      </trkpt>
      <trkpt lat="45.84549" lon="4.81241">
        <ele>414</ele>
        <time>2013-01-06T09:28:13Z</time>
      </trkpt>
      <trkpt lat="45.84553" lon="4.81253">
        <ele>404</ele>
        <time>2013-01-06T09:28:17Z</time>
      </trkpt>
      <trkpt lat="45.84555" lon="4.81256">
        <ele>404</ele>
        <time>2013-01-06T09:28:18Z</time>
      </trkpt>
      <trkpt lat="45.84556" lon="4.81259">
        <ele>404</ele>
        <time>2013-01-06T09:28:19Z</time>
      </trkpt>
      <trkpt lat="45.84558" lon="4.81261">
        <ele>404</ele>
        <time>2013-01-06T09:28:20Z</time>
      </trkpt>
      <trkpt lat="45.8456" lon="4.81264">
        <ele>404</ele>
        <time>2013-01-06T09:28:21Z</time>
      </trkpt>
      <trkpt lat="45.84564" lon="4.81269">
        <ele>404</ele>
        <time>2013-01-06T09:28:24Z</time>
      </trkpt>
      <trkpt lat="45.84564" lon="4.81271">
        <ele>404</ele>
        <time>2013-01-06T09:28:26Z</time>
      </trkpt>
      <trkpt lat="45.84563" lon="4.81272">
        <ele>403</ele>
        <time>2013-01-06T09:28:28Z</time>
      </trkpt>
      <trkpt lat="45.84562" lon="4.81275">
        <ele>403</ele>
        <time>2013-01-06T09:28:31Z</time>
      </trkpt>
      <trkpt lat="45.84561" lon="4.81275">
        <ele>403</ele>
        <time>2013-01-06T09:28:32Z</time>
      </trkpt>
      <trkpt lat="45.84563" lon="4.81281">
        <ele>402</ele>
        <time>2013-01-06T09:28:43Z</time>
      </trkpt>
      <trkpt lat="45.84563" lon="4.81282">
        <ele>402</ele>
        <time>2013-01-06T09:28:45Z</time>
      </trkpt>
      <trkpt lat="45.84564" lon="4.81282">
        <ele>402</ele>
        <time>2013-01-06T09:29:02Z</time>
      </trkpt>
      <trkpt lat="45.84564" lon="4.81289">
        <ele>401</ele>
        <time>2013-01-06T09:29:14Z</time>
      </trkpt>
      <trkpt lat="45.84563" lon="4.8129">
        <ele>400</ele>
        <time>2013-01-06T09:29:15Z</time>
      </trkpt>
      <trkpt lat="45.84567" lon="4.81297">
        <ele>399</ele>
        <time>2013-01-06T09:29:20Z</time>
      </trkpt>
      <trkpt lat="45.84572" lon="4.81303">
        <ele>399</ele>
        <time>2013-01-06T09:29:24Z</time>
      </trkpt>
      <trkpt lat="45.84573" lon="4.81306">
        <ele>398</ele>
        <time>2013-01-06T09:29:25Z</time>
      </trkpt>
      <trkpt lat="45.84575" lon="4.81309">
        <ele>398</ele>
        <time>2013-01-06T09:29:27Z</time>
      </trkpt>
      <trkpt lat="45.84576" lon="4.8131">
        <ele>397</ele>
        <time>2013-01-06T09:29:28Z</time>
      </trkpt>
      <trkpt lat="45.84581" lon="4.81313">
        <ele>397</ele>
        <time>2013-01-06T09:29:31Z</time>
      </trkpt>
      <trkpt lat="45.84588" lon="4.81314">
        <ele>397</ele>
        <time>2013-01-06T09:29:36Z</time>
      </trkpt>
      <trkpt lat="45.84597" lon="4.81317">
        <ele>396</ele>
        <time>2013-01-06T09:29:42Z</time>
      </trkpt>
      <trkpt lat="45.84601" lon="4.81314">
        <ele>397</ele>
        <time>2013-01-06T09:29:46Z</time>
      </trkpt>
      <trkpt lat="45.84602" lon="4.81314">
        <ele>397</ele>
        <time>2013-01-06T09:29:47Z</time>
      </trkpt>
      <trkpt lat="45.84605" lon="4.81318">
        <ele>397</ele>
        <time>2013-01-06T09:29:51Z</time>
      </trkpt>
      <trkpt lat="45.84605" lon="4.8132">
        <ele>396</ele>
        <time>2013-01-06T09:29:53Z</time>
      </trkpt>
      <trkpt lat="45.84606" lon="4.81324">
        <ele>396</ele>
        <time>2013-01-06T09:29:57Z</time>
      </trkpt>
      <trkpt lat="45.84608" lon="4.8133">
        <ele>396</ele>
        <time>2013-01-06T09:30:03Z</time>
      </trkpt>
      <trkpt lat="45.84611" lon="4.81334">
        <ele>382</ele>
        <time>2013-01-06T09:30:08Z</time>
      </trkpt>
      <trkpt lat="45.84611" lon="4.81336">
        <ele>382</ele>
        <time>2013-01-06T09:30:09Z</time>
      </trkpt>
      <trkpt lat="45.84611" lon="4.81337">
        <ele>382</ele>
        <time>2013-01-06T09:30:10Z</time>
      </trkpt>
      <trkpt lat="45.84613" lon="4.81338">
        <ele>381</ele>
        <time>2013-01-06T09:30:14Z</time>
      </trkpt>
      <trkpt lat="45.84614" lon="4.81339">
        <ele>381</ele>
        <time>2013-01-06T09:30:15Z</time>
      </trkpt>
      <trkpt lat="45.84614" lon="4.81341">
        <ele>381</ele>
        <time>2013-01-06T09:30:16Z</time>
      </trkpt>
      <trkpt lat="45.84618" lon="4.81344">
        <ele>380</ele>
        <time>2013-01-06T09:30:19Z</time>
      </trkpt>
      <trkpt lat="45.84621" lon="4.81343">
        <ele>380</ele>
        <time>2013-01-06T09:30:21Z</time>
      </trkpt>
      <trkpt lat="45.84627" lon="4.81338">
        <ele>380</ele>
        <time>2013-01-06T09:30:26Z</time>
      </trkpt>
      <trkpt lat="45.84629" lon="4.81337">
        <ele>380</ele>
        <time>2013-01-06T09:30:27Z</time>
      </trkpt>
      <trkpt lat="45.84631" lon="4.81336">
        <ele>380</ele>
        <time>2013-01-06T09:30:28Z</time>
      </trkpt>
      <trkpt lat="45.84634" lon="4.81339">
        <ele>380</ele>
        <time>2013-01-06T09:30:30Z</time>
      </trkpt>
      <trkpt lat="45.84639" lon="4.81343">
        <ele>380</ele>
        <time>2013-01-06T09:30:33Z</time>
      </trkpt>
      <trkpt lat="45.84641" lon="4.81343">
        <ele>380</ele>
        <time>2013-01-06T09:30:35Z</time>
      </trkpt>
      <trkpt lat="45.84641" lon="4.81347">
        <ele>379</ele>
        <time>2013-01-06T09:30:42Z</time>
      </trkpt>
      <trkpt lat="45.84639" lon="4.8135">
        <ele>379</ele>
        <time>2013-01-06T09:30:50Z</time>
      </trkpt>
      <trkpt lat="45.84637" lon="4.81353">
        <ele>379</ele>
        <time>2013-01-06T09:30:52Z</time>
      </trkpt>
      <trkpt lat="45.84635" lon="4.81356">
        <ele>378</ele>
        <time>2013-01-06T09:30:55Z</time>
      </trkpt>
      <trkpt lat="45.84633" lon="4.81359">
        <ele>378</ele>
        <time>2013-01-06T09:30:59Z</time>
      </trkpt>
      <trkpt lat="45.84633" lon="4.81363">
        <ele>377</ele>
        <time>2013-01-06T09:31:03Z</time>
      </trkpt>
      <trkpt lat="45.84634" lon="4.81368">
        <ele>377</ele>
        <time>2013-01-06T09:31:07Z</time>
      </trkpt>
      <trkpt lat="45.84638" lon="4.81374">
        <ele>376</ele>
        <time>2013-01-06T09:31:13Z</time>
      </trkpt>
      <trkpt lat="45.84638" lon="4.81376">
        <ele>376</ele>
        <time>2013-01-06T09:31:16Z</time>
      </trkpt>
      <trkpt lat="45.84639" lon="4.81376">
        <ele>375</ele>
        <time>2013-01-06T09:31:17Z</time>
      </trkpt>
      <trkpt lat="45.8464" lon="4.81377">
        <ele>375</ele>
        <time>2013-01-06T09:31:19Z</time>
      </trkpt>
      <trkpt lat="45.84644" lon="4.81382">
        <ele>375</ele>
        <time>2013-01-06T09:31:23Z</time>
      </trkpt>
      <trkpt lat="45.84645" lon="4.81391">
        <ele>374</ele>
        <time>2013-01-06T09:31:27Z</time>
      </trkpt>
      <trkpt lat="45.84644" lon="4.81392">
        <ele>373</ele>
        <time>2013-01-06T09:31:28Z</time>
      </trkpt>
      <trkpt lat="45.84643" lon="4.81396">
        <ele>373</ele>
        <time>2013-01-06T09:31:30Z</time>
      </trkpt>
      <trkpt lat="45.84645" lon="4.814">
        <ele>372</ele>
        <time>2013-01-06T09:31:32Z</time>
      </trkpt>
      <trkpt lat="45.84649" lon="4.81411">
        <ele>371</ele>
        <time>2013-01-06T09:31:36Z</time>
      </trkpt>
      <trkpt lat="45.84651" lon="4.81417">
        <ele>365</ele>
        <time>2013-01-06T09:31:40Z</time>
      </trkpt>
      <trkpt lat="45.84653" lon="4.8142">
        <ele>365</ele>
        <time>2013-01-06T09:31:41Z</time>
      </trkpt>
      <trkpt lat="45.84654" lon="4.81422">
        <ele>365</ele>
        <time>2013-01-06T09:31:42Z</time>
      </trkpt>
      <trkpt lat="45.84655" lon="4.81426">
        <ele>365</ele>
        <time>2013-01-06T09:31:44Z</time>
      </trkpt>
      <trkpt lat="45.84656" lon="4.81428">
        <ele>365</ele>
        <time>2013-01-06T09:31:45Z</time>
      </trkpt>
      <trkpt lat="45.84658" lon="4.81432">
        <ele>365</ele>
        <time>2013-01-06T09:31:48Z</time>
      </trkpt>
      <trkpt lat="45.84661" lon="4.81434">
        <ele>365</ele>
        <time>2013-01-06T09:31:51Z</time>
      </trkpt>
      <trkpt lat="45.84664" lon="4.81435">
        <ele>365</ele>
        <time>2013-01-06T09:31:55Z</time>
      </trkpt>
      <trkpt lat="45.84666" lon="4.81436">
        <ele>365</ele>
        <time>2013-01-06T09:31:57Z</time>
      </trkpt>
      <trkpt lat="45.84667" lon="4.81437">
        <ele>378</ele>
        <time>2013-01-06T09:31:58Z</time>
      </trkpt>
      <trkpt lat="45.8467" lon="4.81439">
        <ele>378</ele>
        <time>2013-01-06T09:32:02Z</time>
      </trkpt>
      <trkpt lat="45.84673" lon="4.81444">
        <ele>380</ele>
        <time>2013-01-06T09:32:08Z</time>
      </trkpt>
      <trkpt lat="45.84673" lon="4.81444">
        <ele>380</ele>
        <time>2013-01-06T09:32:09Z</time>
      </trkpt>
      <trkpt lat="45.84671" lon="4.8145">
        <ele>380</ele>
        <time>2013-01-06T09:32:13Z</time>
      </trkpt>
      <trkpt lat="45.8467" lon="4.81459">
        <ele>381</ele>
        <time>2013-01-06T09:32:18Z</time>
      </trkpt>
      <trkpt lat="45.8467" lon="4.81468">
        <ele>381</ele>
        <time>2013-01-06T09:32:22Z</time>
      </trkpt>
      <trkpt lat="45.84668" lon="4.81472">
        <ele>381</ele>
        <time>2013-01-06T09:32:24Z</time>
      </trkpt>
      <trkpt lat="45.84662" lon="4.81481">
        <ele>367</ele>
        <time>2013-01-06T09:32:30Z</time>
      </trkpt>
      <trkpt lat="45.84661" lon="4.81488">
        <ele>368</ele>
        <time>2013-01-06T09:32:35Z</time>
      </trkpt>
      <trkpt lat="45.84661" lon="4.8149">
        <ele>369</ele>
        <time>2013-01-06T09:32:38Z</time>
      </trkpt>
      <trkpt lat="45.84661" lon="4.81491">
        <ele>369</ele>
        <time>2013-01-06T09:32:39Z</time>
      </trkpt>
      <trkpt lat="45.84661" lon="4.81494">
        <ele>370</ele>
        <time>2013-01-06T09:32:41Z</time>
      </trkpt>
      <trkpt lat="45.84661" lon="4.81501">
        <ele>371</ele>
        <time>2013-01-06T09:32:47Z</time>
      </trkpt>
      <trkpt lat="45.84661" lon="4.81504">
        <ele>371</ele>
        <time>2013-01-06T09:32:50Z</time>
      </trkpt>
      <trkpt lat="45.84661" lon="4.81506">
        <ele>370</ele>
        <time>2013-01-06T09:32:53Z</time>
      </trkpt>
      <trkpt lat="45.84661" lon="4.81507">
        <ele>370</ele>
        <time>2013-01-06T09:32:54Z</time>
      </trkpt>
      <trkpt lat="45.84661" lon="4.81509">
        <ele>369</ele>
        <time>2013-01-06T09:33:00Z</time>
      </trkpt>
      <trkpt lat="45.8466" lon="4.81514">
        <ele>367</ele>
        <time>2013-01-06T09:33:10Z</time>
      </trkpt>
      <trkpt lat="45.84659" lon="4.81515">
        <ele>367</ele>
        <time>2013-01-06T09:33:11Z</time>
      </trkpt>
      <trkpt lat="45.84655" lon="4.81519">
        <ele>365</ele>
        <time>2013-01-06T09:33:14Z</time>
      </trkpt>
      <trkpt lat="45.84652" lon="4.81521">
        <ele>364</ele>
        <time>2013-01-06T09:33:16Z</time>
      </trkpt>
      <trkpt lat="45.8465" lon="4.81524">
        <ele>364</ele>
        <time>2013-01-06T09:33:18Z</time>
      </trkpt>
      <trkpt lat="45.84645" lon="4.81526">
        <ele>362</ele>
        <time>2013-01-06T09:33:22Z</time>
      </trkpt>
      <trkpt lat="45.84638" lon="4.8153">
        <ele>360</ele>
        <time>2013-01-06T09:33:28Z</time>
      </trkpt>
      <trkpt lat="45.84636" lon="4.81531">
        <ele>360</ele>
        <time>2013-01-06T09:33:30Z</time>
      </trkpt>
      <trkpt lat="45.84634" lon="4.81533">
        <ele>360</ele>
        <time>2013-01-06T09:33:33Z</time>
      </trkpt>
      <trkpt lat="45.84633" lon="4.81532">
        <ele>359</ele>
        <time>2013-01-06T09:33:35Z</time>
      </trkpt>
      <trkpt lat="45.84631" lon="4.81534">
        <ele>359</ele>
        <time>2013-01-06T09:33:39Z</time>
      </trkpt>
      <trkpt lat="45.84629" lon="4.81535">
        <ele>358</ele>
        <time>2013-01-06T09:33:50Z</time>
      </trkpt>
      <trkpt lat="45.84627" lon="4.81535">
        <ele>358</ele>
        <time>2013-01-06T09:34:15Z</time>
      </trkpt>
      <trkpt lat="45.84627" lon="4.81535">
        <ele>358</ele>
        <time>2013-01-06T09:34:32Z</time>
      </trkpt>
      <trkpt lat="45.84624" lon="4.81539">
        <ele>357</ele>
        <time>2013-01-06T09:34:44Z</time>
      </trkpt>
      <trkpt lat="45.84623" lon="4.81539">
        <ele>357</ele>
        <time>2013-01-06T09:34:50Z</time>
      </trkpt>
      <trkpt lat="45.84622" lon="4.8154">
        <ele>356</ele>
        <time>2013-01-06T09:34:57Z</time>
      </trkpt>
      <trkpt lat="45.84621" lon="4.81541">
        <ele>356</ele>
        <time>2013-01-06T09:35:03Z</time>
      </trkpt>
      <trkpt lat="45.84619" lon="4.81541">
        <ele>356</ele>
        <time>2013-01-06T09:35:08Z</time>
      </trkpt>
      <trkpt lat="45.84619" lon="4.81541">
        <ele>356</ele>
        <time>2013-01-06T09:35:09Z</time>
      </trkpt>
      <trkpt lat="45.84618" lon="4.81543">
        <ele>355</ele>
        <time>2013-01-06T09:35:13Z</time>
      </trkpt>
      <trkpt lat="45.84616" lon="4.81544">
        <ele>355</ele>
        <time>2013-01-06T09:35:19Z</time>
      </trkpt>
      <trkpt lat="45.84615" lon="4.81545">
        <ele>355</ele>
        <time>2013-01-06T09:35:24Z</time>
      </trkpt>
      <trkpt lat="45.84613" lon="4.81547">
        <ele>354</ele>
        <time>2013-01-06T09:35:28Z</time>
      </trkpt>
      <trkpt lat="45.84612" lon="4.81548">
        <ele>354</ele>
        <time>2013-01-06T09:35:35Z</time>
      </trkpt>
      <trkpt lat="45.8461" lon="4.81549">
        <ele>353</ele>
        <time>2013-01-06T09:35:41Z</time>
      </trkpt>
      <trkpt lat="45.84608" lon="4.8155">
        <ele>353</ele>
        <time>2013-01-06T09:35:54Z</time>
      </trkpt>
      <trkpt lat="45.84607" lon="4.81553">
        <ele>352</ele>
        <time>2013-01-06T09:35:59Z</time>
      </trkpt>
      <trkpt lat="45.84606" lon="4.81553">
        <ele>352</ele>
        <time>2013-01-06T09:36:00Z</time>
      </trkpt>
      <trkpt lat="45.84603" lon="4.8155">
        <ele>352</ele>
        <time>2013-01-06T09:36:10Z</time>
      </trkpt>
      <trkpt lat="45.846" lon="4.81546">
        <ele>351</ele>
        <time>2013-01-06T09:36:16Z</time>
      </trkpt>
      <trkpt lat="45.84598" lon="4.81543">
        <ele>351</ele>
        <time>2013-01-06T09:36:21Z</time>
      </trkpt>
      <trkpt lat="45.84596" lon="4.81543">
        <ele>351</ele>
        <time>2013-01-06T09:36:26Z</time>
      </trkpt>
      <trkpt lat="45.84593" lon="4.81541">
        <ele>350</ele>
        <time>2013-01-06T09:36:33Z</time>
      </trkpt>
      <trkpt lat="45.84592" lon="4.8154">
        <ele>350</ele>
        <time>2013-01-06T09:36:35Z</time>
      </trkpt>
      <trkpt lat="45.84594" lon="4.81536">
        <ele>350</ele>
        <time>2013-01-06T09:36:38Z</time>
      </trkpt>
      <trkpt lat="45.84594" lon="4.81534">
        <ele>350</ele>
        <time>2013-01-06T09:36:43Z</time>
      </trkpt>
      <trkpt lat="45.84594" lon="4.81529">
        <ele>350</ele>
        <time>2013-01-06T09:36:52Z</time>
      </trkpt>
      <trkpt lat="45.84599" lon="4.81528">
        <ele>351</ele>
        <time>2013-01-06T09:36:57Z</time>
      </trkpt>
      <trkpt lat="45.84599" lon="4.81527">
        <ele>351</ele>
        <time>2013-01-06T09:36:58Z</time>
      </trkpt>
      <trkpt lat="45.84603" lon="4.81523">
        <ele>351</ele>
        <time>2013-01-06T09:37:03Z</time>
      </trkpt>
      <trkpt lat="45.84604" lon="4.81518">
        <ele>351</ele>
        <time>2013-01-06T09:37:08Z</time>
      </trkpt>
      <trkpt lat="45.84599" lon="4.81518">
        <ele>349</ele>
        <time>2013-01-06T09:37:17Z</time>
      </trkpt>
      <trkpt lat="45.84597" lon="4.81513">
        <ele>348</ele>
        <time>2013-01-06T09:37:25Z</time>
      </trkpt>
      <trkpt lat="45.84598" lon="4.81506">
        <ele>347</ele>
        <time>2013-01-06T09:37:30Z</time>
      </trkpt>
      <trkpt lat="45.84599" lon="4.81501">
        <ele>347</ele>
        <time>2013-01-06T09:37:34Z</time>
      </trkpt>
      <trkpt lat="45.84599" lon="4.815">
        <ele>347</ele>
        <time>2013-01-06T09:37:35Z</time>
      </trkpt>
      <trkpt lat="45.84597" lon="4.81496">
        <ele>348</ele>
        <time>2013-01-06T09:37:37Z</time>
      </trkpt>
      <trkpt lat="45.84596" lon="4.81494">
        <ele>348</ele>
        <time>2013-01-06T09:37:39Z</time>
      </trkpt>
      <trkpt lat="45.84591" lon="4.81488">
        <ele>348</ele>
        <time>2013-01-06T09:37:43Z</time>
      </trkpt>
      <trkpt lat="45.84586" lon="4.81484">
        <ele>348</ele>
        <time>2013-01-06T09:37:46Z</time>
      </trkpt>
      <trkpt lat="45.8458" lon="4.81481">
        <ele>342</ele>
        <time>2013-01-06T09:37:50Z</time>
      </trkpt>
      <trkpt lat="45.84579" lon="4.81481">
        <ele>342</ele>
        <time>2013-01-06T09:38:00Z</time>
      </trkpt>
      <trkpt lat="45.84573" lon="4.81486">
        <ele>342</ele>
        <time>2013-01-06T09:38:40Z</time>
      </trkpt>
      <trkpt lat="45.84571" lon="4.81492">
        <ele>341</ele>
        <time>2013-01-06T09:38:42Z</time>
      </trkpt>
      <trkpt lat="45.8457" lon="4.81498">
        <ele>341</ele>
        <time>2013-01-06T09:38:44Z</time>
      </trkpt>
      <trkpt lat="45.84569" lon="4.81503">
        <ele>334</ele>
        <time>2013-01-06T09:38:46Z</time>
      </trkpt>
      <trkpt lat="45.84569" lon="4.81509">
        <ele>334</ele>
        <time>2013-01-06T09:38:48Z</time>
      </trkpt>
      <trkpt lat="45.84567" lon="4.8152">
        <ele>333</ele>
        <time>2013-01-06T09:38:52Z</time>
      </trkpt>
      <trkpt lat="45.84565" lon="4.81526">
        <ele>332</ele>
        <time>2013-01-06T09:38:54Z</time>
      </trkpt>
      <trkpt lat="45.84565" lon="4.81541">
        <ele>331</ele>
        <time>2013-01-06T09:38:59Z</time>
      </trkpt>
      <trkpt lat="45.84565" lon="4.81547">
        <ele>331</ele>
        <time>2013-01-06T09:39:01Z</time>
      </trkpt>
      <trkpt lat="45.84567" lon="4.81555">
        <ele>331</ele>
        <time>2013-01-06T09:39:04Z</time>
      </trkpt>
      <trkpt lat="45.8457" lon="4.81561">
        <ele>331</ele>
        <time>2013-01-06T09:39:07Z</time>
      </trkpt>
      <trkpt lat="45.84572" lon="4.81562">
        <ele>331</ele>
        <time>2013-01-06T09:39:08Z</time>
      </trkpt>
      <trkpt lat="45.84578" lon="4.81568">
        <ele>332</ele>
        <time>2013-01-06T09:39:11Z</time>
      </trkpt>
      <trkpt lat="45.84581" lon="4.81576">
        <ele>332</ele>
        <time>2013-01-06T09:39:14Z</time>
      </trkpt>
      <trkpt lat="45.84587" lon="4.81582">
        <ele>337</ele>
        <time>2013-01-06T09:39:18Z</time>
      </trkpt>
      <trkpt lat="45.84588" lon="4.81588">
        <ele>338</ele>
        <time>2013-01-06T09:39:21Z</time>
      </trkpt>
      <trkpt lat="45.84589" lon="4.81589">
        <ele>339</ele>
        <time>2013-01-06T09:39:22Z</time>
      </trkpt>
      <trkpt lat="45.84591" lon="4.81593">
        <ele>341</ele>
        <time>2013-01-06T09:39:27Z</time>
      </trkpt>
      <trkpt lat="45.84591" lon="4.81597">
        <ele>342</ele>
        <time>2013-01-06T09:39:30Z</time>
      </trkpt>
      <trkpt lat="45.8459" lon="4.816">
        <ele>342</ele>
        <time>2013-01-06T09:39:32Z</time>
      </trkpt>
      <trkpt lat="45.84588" lon="4.81603">
        <ele>342</ele>
        <time>2013-01-06T09:39:35Z</time>
      </trkpt>
      <trkpt lat="45.84588" lon="4.81609">
        <ele>343</ele>
        <time>2013-01-06T09:39:40Z</time>
      </trkpt>
      <trkpt lat="45.84588" lon="4.81612">
        <ele>343</ele>
        <time>2013-01-06T09:39:43Z</time>
      </trkpt>
      <trkpt lat="45.84588" lon="4.81612">
        <ele>343</ele>
        <time>2013-01-06T09:39:45Z</time>
      </trkpt>
      <trkpt lat="45.84589" lon="4.81621">
        <ele>343</ele>
        <time>2013-01-06T09:40:01Z</time>
      </trkpt>
      <trkpt lat="45.84586" lon="4.81631">
        <ele>341</ele>
        <time>2013-01-06T09:40:07Z</time>
      </trkpt>
      <trkpt lat="45.84585" lon="4.81634">
        <ele>340</ele>
        <time>2013-01-06T09:40:09Z</time>
      </trkpt>
      <trkpt lat="45.84585" lon="4.81636">
        <ele>340</ele>
        <time>2013-01-06T09:40:10Z</time>
      </trkpt>
      <trkpt lat="45.84585" lon="4.8164">
        <ele>338</ele>
        <time>2013-01-06T09:40:13Z</time>
      </trkpt>
      <trkpt lat="45.84584" lon="4.81655">
        <ele>330</ele>
        <time>2013-01-06T09:40:18Z</time>
      </trkpt>
      <trkpt lat="45.84585" lon="4.81664">
        <ele>323</ele>
        <time>2013-01-06T09:40:20Z</time>
      </trkpt>
      <trkpt lat="45.84586" lon="4.81671">
        <ele>323</ele>
        <time>2013-01-06T09:40:22Z</time>
      </trkpt>
      <trkpt lat="45.84588" lon="4.81692">
        <ele>328</ele>
        <time>2013-01-06T09:40:26Z</time>
      </trkpt>
      <trkpt lat="45.84589" lon="4.81696">
        <ele>329</ele>
        <time>2013-01-06T09:40:27Z</time>
      </trkpt>
      <trkpt lat="45.8459" lon="4.817">
        <ele>329</ele>
        <time>2013-01-06T09:40:28Z</time>
      </trkpt>
      <trkpt lat="45.84593" lon="4.81705">
        <ele>329</ele>
        <time>2013-01-06T09:40:31Z</time>
      </trkpt>
      <trkpt lat="45.84593" lon="4.81707">
        <ele>329</ele>
        <time>2013-01-06T09:40:33Z</time>
      </trkpt>
      <trkpt lat="45.84597" lon="4.81714">
        <ele>329</ele>
        <time>2013-01-06T09:40:38Z</time>
      </trkpt>
      <trkpt lat="45.84598" lon="4.81715">
        <ele>329</ele>
        <time>2013-01-06T09:40:39Z</time>
      </trkpt>
      <trkpt lat="45.84602" lon="4.81719">
        <ele>329</ele>
        <time>2013-01-06T09:40:44Z</time>
      </trkpt>
      <trkpt lat="45.84603" lon="4.8172">
        <ele>329</ele>
        <time>2013-01-06T09:40:45Z</time>
      </trkpt>
      <trkpt lat="45.84604" lon="4.81726">
        <ele>328</ele>
        <time>2013-01-06T09:40:49Z</time>
      </trkpt>
      <trkpt lat="45.84606" lon="4.81734">
        <ele>327</ele>
        <time>2013-01-06T09:40:54Z</time>
      </trkpt>
      <trkpt lat="45.84606" lon="4.81736">
        <ele>326</ele>
        <time>2013-01-06T09:40:55Z</time>
      </trkpt>
      <trkpt lat="45.84606" lon="4.81741">
        <ele>326</ele>
        <time>2013-01-06T09:40:57Z</time>
      </trkpt>
      <trkpt lat="45.84608" lon="4.81748">
        <ele>326</ele>
        <time>2013-01-06T09:41:00Z</time>
      </trkpt>
      <trkpt lat="45.84611" lon="4.81754">
        <ele>319</ele>
        <time>2013-01-06T09:41:06Z</time>
      </trkpt>
      <trkpt lat="45.84613" lon="4.81757">
        <ele>320</ele>
        <time>2013-01-06T09:41:09Z</time>
      </trkpt>
      <trkpt lat="45.84614" lon="4.8176">
        <ele>320</ele>
        <time>2013-01-06T09:41:11Z</time>
      </trkpt>
      <trkpt lat="45.84615" lon="4.81762">
        <ele>321</ele>
        <time>2013-01-06T09:41:13Z</time>
      </trkpt>
      <trkpt lat="45.84617" lon="4.81764">
        <ele>322</ele>
        <time>2013-01-06T09:41:18Z</time>
      </trkpt>
      <trkpt lat="45.84621" lon="4.81765">
        <ele>323</ele>
        <time>2013-01-06T09:41:25Z</time>
      </trkpt>
      <trkpt lat="45.84624" lon="4.81767">
        <ele>324</ele>
        <time>2013-01-06T09:41:30Z</time>
      </trkpt>
      <trkpt lat="45.84627" lon="4.81771">
        <ele>325</ele>
        <time>2013-01-06T09:41:36Z</time>
      </trkpt>
      <trkpt lat="45.84628" lon="4.81774">
        <ele>325</ele>
        <time>2013-01-06T09:41:40Z</time>
      </trkpt>
      <trkpt lat="45.84631" lon="4.81777">
        <ele>326</ele>
        <time>2013-01-06T09:41:45Z</time>
      </trkpt>
      <trkpt lat="45.84634" lon="4.81781">
        <ele>326</ele>
        <time>2013-01-06T09:41:51Z</time>
      </trkpt>
      <trkpt lat="45.84637" lon="4.81783">
        <ele>327</ele>
        <time>2013-01-06T09:41:56Z</time>
      </trkpt>
      <trkpt lat="45.84637" lon="4.81793">
        <ele>326</ele>
        <time>2013-01-06T09:42:02Z</time>
      </trkpt>
      <trkpt lat="45.84638" lon="4.81796">
        <ele>325</ele>
        <time>2013-01-06T09:42:05Z</time>
      </trkpt>
      <trkpt lat="45.84639" lon="4.81798">
        <ele>326</ele>
        <time>2013-01-06T09:42:07Z</time>
      </trkpt>
      <trkpt lat="45.8464" lon="4.81799">
        <ele>326</ele>
        <time>2013-01-06T09:42:08Z</time>
      </trkpt>
      <trkpt lat="45.84645" lon="4.81806">
        <ele>326</ele>
        <time>2013-01-06T09:42:14Z</time>
      </trkpt>
      <trkpt lat="45.84646" lon="4.81812">
        <ele>327</ele>
        <time>2013-01-06T09:42:17Z</time>
      </trkpt>
      <trkpt lat="45.84647" lon="4.81813">
        <ele>327</ele>
        <time>2013-01-06T09:42:18Z</time>
      </trkpt>
      <trkpt lat="45.84647" lon="4.81815">
        <ele>327</ele>
        <time>2013-01-06T09:42:19Z</time>
      </trkpt>
      <trkpt lat="45.84652" lon="4.81825">
        <ele>329</ele>
        <time>2013-01-06T09:42:25Z</time>
      </trkpt>
      <trkpt lat="45.84652" lon="4.81827">
        <ele>329</ele>
        <time>2013-01-06T09:42:26Z</time>
      </trkpt>
      <trkpt lat="45.84654" lon="4.81833">
        <ele>324</ele>
        <time>2013-01-06T09:42:31Z</time>
      </trkpt>
      <trkpt lat="45.84655" lon="4.81836">
        <ele>324</ele>
        <time>2013-01-06T09:42:34Z</time>
      </trkpt>
      <trkpt lat="45.84656" lon="4.81837">
        <ele>325</ele>
        <time>2013-01-06T09:42:38Z</time>
      </trkpt>
      <trkpt lat="45.84655" lon="4.81842">
        <ele>323</ele>
        <time>2013-01-06T09:42:42Z</time>
      </trkpt>
      <trkpt lat="45.84655" lon="4.81849">
        <ele>320</ele>
        <time>2013-01-06T09:42:46Z</time>
      </trkpt>
      <trkpt lat="45.84656" lon="4.81851">
        <ele>319</ele>
        <time>2013-01-06T09:42:47Z</time>
      </trkpt>
      <trkpt lat="45.84662" lon="4.81861">
        <ele>316</ele>
        <time>2013-01-06T09:42:52Z</time>
      </trkpt>
      <trkpt lat="45.84663" lon="4.81865">
        <ele>315</ele>
        <time>2013-01-06T09:42:53Z</time>
      </trkpt>
      <trkpt lat="45.84664" lon="4.81874">
        <ele>313</ele>
        <time>2013-01-06T09:42:57Z</time>
      </trkpt>
      <trkpt lat="45.84664" lon="4.81874">
        <ele>313</ele>
        <time>2013-01-06T09:42:58Z</time>
      </trkpt>
      <trkpt lat="45.84668" lon="4.8188">
        <ele>327</ele>
        <time>2013-01-06T09:43:30Z</time>
      </trkpt>
      <trkpt lat="45.84669" lon="4.81881">
        <ele>326</ele>
        <time>2013-01-06T09:43:31Z</time>
      </trkpt>
      <trkpt lat="45.84672" lon="4.81881">
        <ele>327</ele>
        <time>2013-01-06T09:43:35Z</time>
      </trkpt>
      <trkpt lat="45.84673" lon="4.81881">
        <ele>327</ele>
        <time>2013-01-06T09:43:36Z</time>
      </trkpt>
      <trkpt lat="45.84676" lon="4.81882">
        <ele>326</ele>
        <time>2013-01-06T09:43:38Z</time>
      </trkpt>
      <trkpt lat="45.84678" lon="4.81881">
        <ele>327</ele>
        <time>2013-01-06T09:43:43Z</time>
      </trkpt>
      <trkpt lat="45.8468" lon="4.81881">
        <ele>327</ele>
        <time>2013-01-06T09:43:49Z</time>
      </trkpt>
      <trkpt lat="45.8468" lon="4.81876">
        <ele>328</ele>
        <time>2013-01-06T09:44:00Z</time>
      </trkpt>
      <trkpt lat="45.84683" lon="4.81873">
        <ele>329</ele>
        <time>2013-01-06T09:44:05Z</time>
      </trkpt>
      <trkpt lat="45.84685" lon="4.8187">
        <ele>329</ele>
        <time>2013-01-06T09:44:11Z</time>
      </trkpt>
      <trkpt lat="45.84687" lon="4.81866">
        <ele>330</ele>
        <time>2013-01-06T09:44:17Z</time>
      </trkpt>
      <trkpt lat="45.84688" lon="4.81867">
        <ele>330</ele>
        <time>2013-01-06T09:44:18Z</time>
      </trkpt>
      <trkpt lat="45.84691" lon="4.8187">
        <ele>330</ele>
        <time>2013-01-06T09:44:22Z</time>
      </trkpt>
      <trkpt lat="45.84694" lon="4.81873">
        <ele>329</ele>
        <time>2013-01-06T09:44:25Z</time>
      </trkpt>
      <trkpt lat="45.84695" lon="4.81876">
        <ele>329</ele>
        <time>2013-01-06T09:44:27Z</time>
      </trkpt>
      <trkpt lat="45.84699" lon="4.8188">
        <ele>329</ele>
        <time>2013-01-06T09:44:32Z</time>
      </trkpt>
      <trkpt lat="45.84701" lon="4.81882">
        <ele>328</ele>
        <time>2013-01-06T09:44:34Z</time>
      </trkpt>
      <trkpt lat="45.84704" lon="4.81883">
        <ele>328</ele>
        <time>2013-01-06T09:44:36Z</time>
      </trkpt>
      <trkpt lat="45.84705" lon="4.81883">
        <ele>329</ele>
        <time>2013-01-06T09:44:38Z</time>
      </trkpt>
      <trkpt lat="45.84709" lon="4.81881">
        <ele>329</ele>
        <time>2013-01-06T09:44:41Z</time>
      </trkpt>
      <trkpt lat="45.84718" lon="4.81873">
        <ele>331</ele>
        <time>2013-01-06T09:44:47Z</time>
      </trkpt>
      <trkpt lat="45.84729" lon="4.81868">
        <ele>333</ele>
        <time>2013-01-06T09:44:53Z</time>
      </trkpt>
      <trkpt lat="45.84736" lon="4.81861">
        <ele>335</ele>
        <time>2013-01-06T09:44:59Z</time>
      </trkpt>
      <trkpt lat="45.84745" lon="4.81859">
        <ele>336</ele>
        <time>2013-01-06T09:45:04Z</time>
      </trkpt>
      <trkpt lat="45.84746" lon="4.81861">
        <ele>336</ele>
        <time>2013-01-06T09:45:05Z</time>
      </trkpt>
      <trkpt lat="45.84753" lon="4.81865">
        <ele>341</ele>
        <time>2013-01-06T09:45:10Z</time>
      </trkpt>
      <trkpt lat="45.84759" lon="4.8186">
        <ele>341</ele>
        <time>2013-01-06T09:45:13Z</time>
      </trkpt>
      <trkpt lat="45.84761" lon="4.81859">
        <ele>342</ele>
        <time>2013-01-06T09:45:14Z</time>
      </trkpt>
      <trkpt lat="45.84764" lon="4.8186">
        <ele>341</ele>
        <time>2013-01-06T09:45:16Z</time>
      </trkpt>
      <trkpt lat="45.84766" lon="4.81861">
        <ele>341</ele>
        <time>2013-01-06T09:45:18Z</time>
      </trkpt>
      <trkpt lat="45.8477" lon="4.81864">
        <ele>341</ele>
        <time>2013-01-06T09:45:22Z</time>
      </trkpt>
      <trkpt lat="45.84771" lon="4.81864">
        <ele>341</ele>
        <time>2013-01-06T09:45:23Z</time>
      </trkpt>
      <trkpt lat="45.84776" lon="4.81863">
        <ele>341</ele>
        <time>2013-01-06T09:45:28Z</time>
      </trkpt>
      <trkpt lat="45.84777" lon="4.81863">
        <ele>341</ele>
        <time>2013-01-06T09:45:29Z</time>
      </trkpt>
      <trkpt lat="45.84779" lon="4.81862">
        <ele>341</ele>
        <time>2013-01-06T09:45:31Z</time>
      </trkpt>
      <trkpt lat="45.84782" lon="4.81858">
        <ele>341</ele>
        <time>2013-01-06T09:45:34Z</time>
      </trkpt>
      <trkpt lat="45.84784" lon="4.81851">
        <ele>342</ele>
        <time>2013-01-06T09:45:38Z</time>
      </trkpt>
      <trkpt lat="45.84784" lon="4.81848">
        <ele>342</ele>
        <time>2013-01-06T09:45:41Z</time>
      </trkpt>
      <trkpt lat="45.84784" lon="4.81847">
        <ele>342</ele>
        <time>2013-01-06T09:45:42Z</time>
      </trkpt>
      <trkpt lat="45.84781" lon="4.81845">
        <ele>343</ele>
        <time>2013-01-06T09:45:46Z</time>
      </trkpt>
      <trkpt lat="45.8478" lon="4.81843">
        <ele>343</ele>
        <time>2013-01-06T09:45:48Z</time>
      </trkpt>
      <trkpt lat="45.84777" lon="4.81838">
        <ele>343</ele>
        <time>2013-01-06T09:45:53Z</time>
      </trkpt>
      <trkpt lat="45.84778" lon="4.81833">
        <ele>358</ele>
        <time>2013-01-06T09:45:58Z</time>
      </trkpt>
      <trkpt lat="45.84776" lon="4.81828">
        <ele>358</ele>
        <time>2013-01-06T09:46:13Z</time>
      </trkpt>
      <trkpt lat="45.84778" lon="4.8183">
        <ele>358</ele>
        <time>2013-01-06T09:46:42Z</time>
      </trkpt>
      <trkpt lat="45.84779" lon="4.81831">
        <ele>358</ele>
        <time>2013-01-06T09:46:53Z</time>
      </trkpt>
      <trkpt lat="45.84779" lon="4.81833">
        <ele>358</ele>
        <time>2013-01-06T09:46:55Z</time>
      </trkpt>
      <trkpt lat="45.84796" lon="4.81842">
        <ele>343</ele>
        <time>2013-01-06T09:47:27Z</time>
      </trkpt>
      <trkpt lat="45.84801" lon="4.81838">
        <ele>343</ele>
        <time>2013-01-06T09:47:29Z</time>
      </trkpt>
      <trkpt lat="45.84803" lon="4.81842">
        <ele>343</ele>
        <time>2013-01-06T09:47:35Z</time>
      </trkpt>
      <trkpt lat="45.84806" lon="4.8185">
        <ele>342</ele>
        <time>2013-01-06T09:47:42Z</time>
      </trkpt>
      <trkpt lat="45.84806" lon="4.81853">
        <ele>342</ele>
        <time>2013-01-06T09:47:44Z</time>
      </trkpt>
      <trkpt lat="45.84806" lon="4.81856">
        <ele>342</ele>
        <time>2013-01-06T09:47:46Z</time>
      </trkpt>
      <trkpt lat="45.84807" lon="4.8186">
        <ele>342</ele>
        <time>2013-01-06T09:47:48Z</time>
      </trkpt>
      <trkpt lat="45.84808" lon="4.81868">
        <ele>341</ele>
        <time>2013-01-06T09:47:53Z</time>
      </trkpt>
      <trkpt lat="45.84812" lon="4.81876">
        <ele>340</ele>
        <time>2013-01-06T09:47:59Z</time>
      </trkpt>
      <trkpt lat="45.84812" lon="4.81878">
        <ele>340</ele>
        <time>2013-01-06T09:48:00Z</time>
      </trkpt>
      <trkpt lat="45.84813" lon="4.81879">
        <ele>340</ele>
        <time>2013-01-06T09:48:01Z</time>
      </trkpt>
      <trkpt lat="45.84814" lon="4.81883">
        <ele>340</ele>
        <time>2013-01-06T09:48:04Z</time>
      </trkpt>
      <trkpt lat="45.84814" lon="4.81886">
        <ele>340</ele>
        <time>2013-01-06T09:48:07Z</time>
      </trkpt>
      <trkpt lat="45.84814" lon="4.8189">
        <ele>340</ele>
        <time>2013-01-06T09:48:10Z</time>
      </trkpt>
      <trkpt lat="45.84813" lon="4.81893">
        <ele>339</ele>
        <time>2013-01-06T09:48:13Z</time>
      </trkpt>
      <trkpt lat="45.84814" lon="4.81898">
        <ele>339</ele>
        <time>2013-01-06T09:48:16Z</time>
      </trkpt>
      <trkpt lat="45.84815" lon="4.819">
        <ele>339</ele>
        <time>2013-01-06T09:48:20Z</time>
      </trkpt>
      <trkpt lat="45.84814" lon="4.81902">
        <ele>339</ele>
        <time>2013-01-06T09:48:30Z</time>
      </trkpt>
      <trkpt lat="45.84816" lon="4.81902">
        <ele>339</ele>
        <time>2013-01-06T09:48:32Z</time>
      </trkpt>
      <trkpt lat="45.84817" lon="4.81902">
        <ele>339</ele>
        <time>2013-01-06T09:48:34Z</time>
      </trkpt>
      <trkpt lat="45.84823" lon="4.81895">
        <ele>340</ele>
        <time>2013-01-06T09:48:40Z</time>
      </trkpt>
      <trkpt lat="45.84826" lon="4.81889">
        <ele>340</ele>
        <time>2013-01-06T09:48:43Z</time>
      </trkpt>
      <trkpt lat="45.84828" lon="4.81887">
        <ele>340</ele>
        <time>2013-01-06T09:48:44Z</time>
      </trkpt>
      <trkpt lat="45.84828" lon="4.81885">
        <ele>340</ele>
        <time>2013-01-06T09:48:45Z</time>
      </trkpt>
      <trkpt lat="45.84831" lon="4.81882">
        <ele>341</ele>
        <time>2013-01-06T09:48:47Z</time>
      </trkpt>
      <trkpt lat="45.84837" lon="4.81877">
        <ele>353</ele>
        <time>2013-01-06T09:48:51Z</time>
      </trkpt>
      <trkpt lat="45.84843" lon="4.81871">
        <ele>354</ele>
        <time>2013-01-06T09:48:56Z</time>
      </trkpt>
      <trkpt lat="45.84843" lon="4.8187">
        <ele>354</ele>
        <time>2013-01-06T09:48:58Z</time>
      </trkpt>
      <trkpt lat="45.84842" lon="4.81869">
        <ele>354</ele>
        <time>2013-01-06T09:49:01Z</time>
      </trkpt>
      <trkpt lat="45.84844" lon="4.81864">
        <ele>354</ele>
        <time>2013-01-06T09:49:07Z</time>
      </trkpt>
      <trkpt lat="45.84845" lon="4.81862">
        <ele>354</ele>
        <time>2013-01-06T09:49:08Z</time>
      </trkpt>
      <trkpt lat="45.84848" lon="4.81858">
        <ele>354</ele>
        <time>2013-01-06T09:49:12Z</time>
      </trkpt>
      <trkpt lat="45.84853" lon="4.81855">
        <ele>355</ele>
        <time>2013-01-06T09:49:17Z</time>
      </trkpt>
      <trkpt lat="45.84853" lon="4.81854">
        <ele>355</ele>
        <time>2013-01-06T09:49:18Z</time>
      </trkpt>
      <trkpt lat="45.84855" lon="4.81852">
        <ele>355</ele>
        <time>2013-01-06T09:49:20Z</time>
      </trkpt>
      <trkpt lat="45.84856" lon="4.81851">
        <ele>355</ele>
        <time>2013-01-06T09:49:22Z</time>
      </trkpt>
      <trkpt lat="45.84858" lon="4.81847">
        <ele>356</ele>
        <time>2013-01-06T09:49:26Z</time>
      </trkpt>
      <trkpt lat="45.84859" lon="4.81846">
        <ele>356</ele>
        <time>2013-01-06T09:49:28Z</time>
      </trkpt>
      <trkpt lat="45.8486" lon="4.81842">
        <ele>356</ele>
        <time>2013-01-06T09:49:31Z</time>
      </trkpt>
      <trkpt lat="45.84861" lon="4.81835">
        <ele>356</ele>
        <time>2013-01-06T09:49:36Z</time>
      </trkpt>
      <trkpt lat="45.84863" lon="4.8183">
        <ele>362</ele>
        <time>2013-01-06T09:49:40Z</time>
      </trkpt>
      <trkpt lat="45.84864" lon="4.81828">
        <ele>362</ele>
        <time>2013-01-06T09:49:41Z</time>
      </trkpt>
      <trkpt lat="45.84867" lon="4.81824">
        <ele>363</ele>
        <time>2013-01-06T09:49:46Z</time>
      </trkpt>
      <trkpt lat="45.84868" lon="4.81823">
        <ele>364</ele>
        <time>2013-01-06T09:49:47Z</time>
      </trkpt>
      <trkpt lat="45.84869" lon="4.81819">
        <ele>364</ele>
        <time>2013-01-06T09:49:50Z</time>
      </trkpt>
      <trkpt lat="45.84869" lon="4.81816">
        <ele>364</ele>
        <time>2013-01-06T09:49:54Z</time>
      </trkpt>
      <trkpt lat="45.84869" lon="4.81816">
        <ele>364</ele>
        <time>2013-01-06T09:49:55Z</time>
      </trkpt>
      <trkpt lat="45.84873" lon="4.81811">
        <ele>365</ele>
        <time>2013-01-06T09:50:04Z</time>
      </trkpt>
      <trkpt lat="45.84873" lon="4.81809">
        <ele>366</ele>
        <time>2013-01-06T09:50:06Z</time>
      </trkpt>
      <trkpt lat="45.84874" lon="4.81804">
        <ele>366</ele>
        <time>2013-01-06T09:50:10Z</time>
      </trkpt>
      <trkpt lat="45.84874" lon="4.81803">
        <ele>366</ele>
        <time>2013-01-06T09:50:11Z</time>
      </trkpt>
      <trkpt lat="45.84875" lon="4.81801">
        <ele>367</ele>
        <time>2013-01-06T09:50:14Z</time>
      </trkpt>
      <trkpt lat="45.84878" lon="4.81798">
        <ele>367</ele>
        <time>2013-01-06T09:50:17Z</time>
      </trkpt>
      <trkpt lat="45.8488" lon="4.81795">
        <ele>368</ele>
        <time>2013-01-06T09:50:19Z</time>
      </trkpt>
      <trkpt lat="45.84883" lon="4.8179">
        <ele>368</ele>
        <time>2013-01-06T09:50:24Z</time>
      </trkpt>
      <trkpt lat="45.84885" lon="4.81789">
        <ele>369</ele>
        <time>2013-01-06T09:50:26Z</time>
      </trkpt>
      <trkpt lat="45.84888" lon="4.81783">
        <ele>369</ele>
        <time>2013-01-06T09:50:30Z</time>
      </trkpt>
      <trkpt lat="45.84891" lon="4.81774">
        <ele>370</ele>
        <time>2013-01-06T09:50:36Z</time>
      </trkpt>
      <trkpt lat="45.84895" lon="4.81767">
        <ele>371</ele>
        <time>2013-01-06T09:50:42Z</time>
      </trkpt>
      <trkpt lat="45.84896" lon="4.81766">
        <ele>371</ele>
        <time>2013-01-06T09:50:43Z</time>
      </trkpt>
      <trkpt lat="45.84898" lon="4.8176">
        <ele>372</ele>
        <time>2013-01-06T09:50:51Z</time>
      </trkpt>
      <trkpt lat="45.849" lon="4.81755">
        <ele>373</ele>
        <time>2013-01-06T09:50:56Z</time>
      </trkpt>
      <trkpt lat="45.84903" lon="4.8175">
        <ele>380</ele>
        <time>2013-01-06T09:51:02Z</time>
      </trkpt>
      <trkpt lat="45.84906" lon="4.81749">
        <ele>379</ele>
        <time>2013-01-06T09:51:07Z</time>
      </trkpt>
      <trkpt lat="45.84908" lon="4.81746">
        <ele>379</ele>
        <time>2013-01-06T09:51:11Z</time>
      </trkpt>
      <trkpt lat="45.84909" lon="4.81742">
        <ele>380</ele>
        <time>2013-01-06T09:51:14Z</time>
      </trkpt>
      <trkpt lat="45.84912" lon="4.81737">
        <ele>380</ele>
        <time>2013-01-06T09:51:18Z</time>
      </trkpt>
      <trkpt lat="45.84914" lon="4.81734">
        <ele>381</ele>
        <time>2013-01-06T09:51:21Z</time>
      </trkpt>
      <trkpt lat="45.84917" lon="4.8173">
        <ele>382</ele>
        <time>2013-01-06T09:51:24Z</time>
      </trkpt>
      <trkpt lat="45.84918" lon="4.81728">
        <ele>386</ele>
        <time>2013-01-06T09:51:26Z</time>
      </trkpt>
      <trkpt lat="45.8492" lon="4.81727">
        <ele>386</ele>
        <time>2013-01-06T09:51:28Z</time>
      </trkpt>
      <trkpt lat="45.8492" lon="4.81727">
        <ele>387</ele>
        <time>2013-01-06T09:51:29Z</time>
      </trkpt>
      <trkpt lat="45.84922" lon="4.81724">
        <ele>387</ele>
        <time>2013-01-06T09:51:32Z</time>
      </trkpt>
      <trkpt lat="45.84922" lon="4.81723">
        <ele>388</ele>
        <time>2013-01-06T09:51:33Z</time>
      </trkpt>
      <trkpt lat="45.84925" lon="4.8172">
        <ele>388</ele>
        <time>2013-01-06T09:51:38Z</time>
      </trkpt>
      <trkpt lat="45.84927" lon="4.81718">
        <ele>389</ele>
        <time>2013-01-06T09:51:41Z</time>
      </trkpt>
      <trkpt lat="45.84928" lon="4.81714">
        <ele>390</ele>
        <time>2013-01-06T09:51:43Z</time>
      </trkpt>
      <trkpt lat="45.8493" lon="4.81709">
        <ele>391</ele>
        <time>2013-01-06T09:51:48Z</time>
      </trkpt>
      <trkpt lat="45.84932" lon="4.81706">
        <ele>391</ele>
        <time>2013-01-06T09:51:53Z</time>
      </trkpt>
      <trkpt lat="45.84932" lon="4.81704">
        <ele>391</ele>
        <time>2013-01-06T09:51:55Z</time>
      </trkpt>
      <trkpt lat="45.84933" lon="4.81702">
        <ele>392</ele>
        <time>2013-01-06T09:51:57Z</time>
      </trkpt>
      <trkpt lat="45.84935" lon="4.81698">
        <ele>392</ele>
        <time>2013-01-06T09:52:00Z</time>
      </trkpt>
      <trkpt lat="45.84935" lon="4.81696">
        <ele>392</ele>
        <time>2013-01-06T09:52:01Z</time>
      </trkpt>
      <trkpt lat="45.84936" lon="4.81694">
        <ele>392</ele>
        <time>2013-01-06T09:52:03Z</time>
      </trkpt>
      <trkpt lat="45.84937" lon="4.81693">
        <ele>392</ele>
        <time>2013-01-06T09:52:04Z</time>
      </trkpt>
      <trkpt lat="45.84939" lon="4.81685">
        <ele>393</ele>
        <time>2013-01-06T09:52:10Z</time>
      </trkpt>
      <trkpt lat="45.84939" lon="4.81684">
        <ele>393</ele>
        <time>2013-01-06T09:52:11Z</time>
      </trkpt>
      <trkpt lat="45.84939" lon="4.81683">
        <ele>393</ele>
        <time>2013-01-06T09:52:12Z</time>
      </trkpt>
      <trkpt lat="45.8494" lon="4.8168">
        <ele>393</ele>
        <time>2013-01-06T09:52:14Z</time>
      </trkpt>
      <trkpt lat="45.8494" lon="4.81678">
        <ele>393</ele>
        <time>2013-01-06T09:52:15Z</time>
      </trkpt>
      <trkpt lat="45.84943" lon="4.81673">
        <ele>394</ele>
        <time>2013-01-06T09:52:19Z</time>
      </trkpt>
      <trkpt lat="45.84944" lon="4.81671">
        <ele>394</ele>
        <time>2013-01-06T09:52:20Z</time>
      </trkpt>
      <trkpt lat="45.84947" lon="4.81668">
        <ele>394</ele>
        <time>2013-01-06T09:52:23Z</time>
      </trkpt>
      <trkpt lat="45.84948" lon="4.81662">
        <ele>399</ele>
        <time>2013-01-06T09:52:27Z</time>
      </trkpt>
      <trkpt lat="45.84948" lon="4.81661">
        <ele>400</ele>
        <time>2013-01-06T09:52:28Z</time>
      </trkpt>
      <trkpt lat="45.84949" lon="4.8166">
        <ele>400</ele>
        <time>2013-01-06T09:52:29Z</time>
      </trkpt>
      <trkpt lat="45.84949" lon="4.81659">
        <ele>400</ele>
        <time>2013-01-06T09:52:30Z</time>
      </trkpt>
      <trkpt lat="45.8495" lon="4.81654">
        <ele>400</ele>
        <time>2013-01-06T09:52:34Z</time>
      </trkpt>
      <trkpt lat="45.84951" lon="4.81645">
        <ele>401</ele>
        <time>2013-01-06T09:52:39Z</time>
      </trkpt>
      <trkpt lat="45.84954" lon="4.81641">
        <ele>401</ele>
        <time>2013-01-06T09:52:43Z</time>
      </trkpt>
      <trkpt lat="45.84955" lon="4.81636">
        <ele>401</ele>
        <time>2013-01-06T09:52:47Z</time>
      </trkpt>
      <trkpt lat="45.84955" lon="4.81633">
        <ele>401</ele>
        <time>2013-01-06T09:52:49Z</time>
      </trkpt>
      <trkpt lat="45.84956" lon="4.81628">
        <ele>402</ele>
        <time>2013-01-06T09:52:52Z</time>
      </trkpt>
      <trkpt lat="45.84956" lon="4.81627">
        <ele>402</ele>
        <time>2013-01-06T09:52:53Z</time>
      </trkpt>
      <trkpt lat="45.84957" lon="4.81626">
        <ele>402</ele>
        <time>2013-01-06T09:52:54Z</time>
      </trkpt>
      <trkpt lat="45.84959" lon="4.81621">
        <ele>402</ele>
        <time>2013-01-06T09:52:59Z</time>
      </trkpt>
      <trkpt lat="45.8496" lon="4.81613">
        <ele>403</ele>
        <time>2013-01-06T09:53:04Z</time>
      </trkpt>
      <trkpt lat="45.84961" lon="4.8161">
        <ele>403</ele>
        <time>2013-01-06T09:53:06Z</time>
      </trkpt>
      <trkpt lat="45.84963" lon="4.81603">
        <ele>403</ele>
        <time>2013-01-06T09:53:12Z</time>
      </trkpt>
      <trkpt lat="45.84962" lon="4.81597">
        <ele>403</ele>
        <time>2013-01-06T09:53:16Z</time>
      </trkpt>
      <trkpt lat="45.84962" lon="4.81596">
        <ele>403</ele>
        <time>2013-01-06T09:53:17Z</time>
      </trkpt>
      <trkpt lat="45.84962" lon="4.81595">
        <ele>403</ele>
        <time>2013-01-06T09:53:18Z</time>
      </trkpt>
      <trkpt lat="45.84963" lon="4.81593">
        <ele>404</ele>
        <time>2013-01-06T09:53:20Z</time>
      </trkpt>
      <trkpt lat="45.84965" lon="4.81589">
        <ele>404</ele>
        <time>2013-01-06T09:53:22Z</time>
      </trkpt>
      <trkpt lat="45.84965" lon="4.81586">
        <ele>404</ele>
        <time>2013-01-06T09:53:24Z</time>
      </trkpt>
      <trkpt lat="45.84965" lon="4.81584">
        <ele>404</ele>
        <time>2013-01-06T09:53:26Z</time>
      </trkpt>
      <trkpt lat="45.84966" lon="4.81582">
        <ele>410</ele>
        <time>2013-01-06T09:53:28Z</time>
      </trkpt>
      <trkpt lat="45.84967" lon="4.8158">
        <ele>410</ele>
        <time>2013-01-06T09:53:30Z</time>
      </trkpt>
      <trkpt lat="45.84967" lon="4.81573">
        <ele>410</ele>
        <time>2013-01-06T09:53:37Z</time>
      </trkpt>
      <trkpt lat="45.8497" lon="4.81568">
        <ele>410</ele>
        <time>2013-01-06T09:53:53Z</time>
      </trkpt>
      <trkpt lat="45.84971" lon="4.81566">
        <ele>410</ele>
        <time>2013-01-06T09:53:54Z</time>
      </trkpt>
      <trkpt lat="45.84973" lon="4.81561">
        <ele>411</ele>
        <time>2013-01-06T09:53:59Z</time>
      </trkpt>
      <trkpt lat="45.84973" lon="4.8156">
        <ele>411</ele>
        <time>2013-01-06T09:54:00Z</time>
      </trkpt>
      <trkpt lat="45.84975" lon="4.81555">
        <ele>411</ele>
        <time>2013-01-06T09:54:06Z</time>
      </trkpt>
      <trkpt lat="45.84976" lon="4.81548">
        <ele>411</ele>
        <time>2013-01-06T09:54:11Z</time>
      </trkpt>
      <trkpt lat="45.84977" lon="4.81543">
        <ele>412</ele>
        <time>2013-01-06T09:54:14Z</time>
      </trkpt>
      <trkpt lat="45.84978" lon="4.81541">
        <ele>412</ele>
        <time>2013-01-06T09:54:15Z</time>
      </trkpt>
      <trkpt lat="45.84979" lon="4.81541">
        <ele>412</ele>
        <time>2013-01-06T09:54:17Z</time>
      </trkpt>
      <trkpt lat="45.84982" lon="4.81537">
        <ele>412</ele>
        <time>2013-01-06T09:54:20Z</time>
      </trkpt>
      <trkpt lat="45.84983" lon="4.81532">
        <ele>412</ele>
        <time>2013-01-06T09:54:25Z</time>
      </trkpt>
      <trkpt lat="45.84985" lon="4.8153">
        <ele>412</ele>
        <time>2013-01-06T09:54:28Z</time>
      </trkpt>
      <trkpt lat="45.84987" lon="4.81524">
        <ele>413</ele>
        <time>2013-01-06T09:54:32Z</time>
      </trkpt>
      <trkpt lat="45.84988" lon="4.81522">
        <ele>413</ele>
        <time>2013-01-06T09:54:35Z</time>
      </trkpt>
      <trkpt lat="45.84989" lon="4.81519">
        <ele>413</ele>
        <time>2013-01-06T09:54:36Z</time>
      </trkpt>
      <trkpt lat="45.8499" lon="4.81518">
        <ele>413</ele>
        <time>2013-01-06T09:54:37Z</time>
      </trkpt>
      <trkpt lat="45.84991" lon="4.81516">
        <ele>413</ele>
        <time>2013-01-06T09:54:40Z</time>
      </trkpt>
      <trkpt lat="45.84993" lon="4.81511">
        <ele>413</ele>
        <time>2013-01-06T09:54:43Z</time>
      </trkpt>
      <trkpt lat="45.84997" lon="4.81501">
        <ele>414</ele>
        <time>2013-01-06T09:54:48Z</time>
      </trkpt>
      <trkpt lat="45.84998" lon="4.81499">
        <ele>415</ele>
        <time>2013-01-06T09:54:50Z</time>
      </trkpt>
      <trkpt lat="45.85001" lon="4.81494">
        <ele>417</ele>
        <time>2013-01-06T09:54:55Z</time>
      </trkpt>
      <trkpt lat="45.85002" lon="4.81494">
        <ele>417</ele>
        <time>2013-01-06T09:54:56Z</time>
      </trkpt>
      <trkpt lat="45.85004" lon="4.8149">
        <ele>418</ele>
        <time>2013-01-06T09:55:00Z</time>
      </trkpt>
      <trkpt lat="45.85004" lon="4.81489">
        <ele>419</ele>
        <time>2013-01-06T09:55:01Z</time>
      </trkpt>
      <trkpt lat="45.85008" lon="4.81485">
        <ele>420</ele>
        <time>2013-01-06T09:55:07Z</time>
      </trkpt>
      <trkpt lat="45.85009" lon="4.81483">
        <ele>421</ele>
        <time>2013-01-06T09:55:09Z</time>
      </trkpt>
      <trkpt lat="45.85011" lon="4.81481">
        <ele>421</ele>
        <time>2013-01-06T09:55:12Z</time>
      </trkpt>
      <trkpt lat="45.85012" lon="4.8148">
        <ele>422</ele>
        <time>2013-01-06T09:55:13Z</time>
      </trkpt>
      <trkpt lat="45.85014" lon="4.81477">
        <ele>422</ele>
        <time>2013-01-06T09:55:16Z</time>
      </trkpt>
      <trkpt lat="45.85015" lon="4.81476">
        <ele>423</ele>
        <time>2013-01-06T09:55:17Z</time>
      </trkpt>
      <trkpt lat="45.85017" lon="4.81474">
        <ele>423</ele>
        <time>2013-01-06T09:55:19Z</time>
      </trkpt>
      <trkpt lat="45.85018" lon="4.81468">
        <ele>424</ele>
        <time>2013-01-06T09:55:24Z</time>
      </trkpt>
      <trkpt lat="45.85019" lon="4.81467">
        <ele>424</ele>
        <time>2013-01-06T09:55:25Z</time>
      </trkpt>
      <trkpt lat="45.85022" lon="4.8146">
        <ele>425</ele>
        <time>2013-01-06T09:55:31Z</time>
      </trkpt>
      <trkpt lat="45.85023" lon="4.81455">
        <ele>425</ele>
        <time>2013-01-06T09:55:35Z</time>
      </trkpt>
      <trkpt lat="45.85023" lon="4.81452">
        <ele>425</ele>
        <time>2013-01-06T09:55:37Z</time>
      </trkpt>
      <trkpt lat="45.85024" lon="4.8145">
        <ele>426</ele>
        <time>2013-01-06T09:55:39Z</time>
      </trkpt>
      <trkpt lat="45.85026" lon="4.81442">
        <ele>426</ele>
        <time>2013-01-06T09:55:44Z</time>
      </trkpt>
      <trkpt lat="45.85028" lon="4.8144">
        <ele>426</ele>
        <time>2013-01-06T09:55:46Z</time>
      </trkpt>
      <trkpt lat="45.85028" lon="4.81439">
        <ele>426</ele>
        <time>2013-01-06T09:55:47Z</time>
      </trkpt>
      <trkpt lat="45.85028" lon="4.81437">
        <ele>426</ele>
        <time>2013-01-06T09:55:48Z</time>
      </trkpt>
      <trkpt lat="45.85032" lon="4.81432">
        <ele>427</ele>
        <time>2013-01-06T09:55:54Z</time>
      </trkpt>
      <trkpt lat="45.85033" lon="4.8143">
        <ele>427</ele>
        <time>2013-01-06T09:55:56Z</time>
      </trkpt>
      <trkpt lat="45.85035" lon="4.81424">
        <ele>427</ele>
        <time>2013-01-06T09:55:59Z</time>
      </trkpt>
      <trkpt lat="45.85038" lon="4.81418">
        <ele>427</ele>
        <time>2013-01-06T09:56:05Z</time>
      </trkpt>
      <trkpt lat="45.85041" lon="4.81411">
        <ele>433</ele>
        <time>2013-01-06T09:56:11Z</time>
      </trkpt>
      <trkpt lat="45.85041" lon="4.8141">
        <ele>433</ele>
        <time>2013-01-06T09:56:12Z</time>
      </trkpt>
      <trkpt lat="45.85041" lon="4.81409">
        <ele>433</ele>
        <time>2013-01-06T09:56:13Z</time>
      </trkpt>
      <trkpt lat="45.85042" lon="4.81406">
        <ele>433</ele>
        <time>2013-01-06T09:56:16Z</time>
      </trkpt>
      <trkpt lat="45.85043" lon="4.81404">
        <ele>434</ele>
        <time>2013-01-06T09:56:18Z</time>
      </trkpt>
      <trkpt lat="45.85046" lon="4.814">
        <ele>434</ele>
        <time>2013-01-06T09:56:24Z</time>
      </trkpt>
      <trkpt lat="45.85048" lon="4.81395">
        <ele>434</ele>
        <time>2013-01-06T09:56:29Z</time>
      </trkpt>
      <trkpt lat="45.85051" lon="4.8139">
        <ele>434</ele>
        <time>2013-01-06T09:56:34Z</time>
      </trkpt>
      <trkpt lat="45.85052" lon="4.8139">
        <ele>434</ele>
        <time>2013-01-06T09:56:35Z</time>
      </trkpt>
      <trkpt lat="45.85053" lon="4.81389">
        <ele>434</ele>
        <time>2013-01-06T09:56:37Z</time>
      </trkpt>
      <trkpt lat="45.85055" lon="4.81389">
        <ele>434</ele>
        <time>2013-01-06T09:56:39Z</time>
      </trkpt>
      <trkpt lat="45.85057" lon="4.81387">
        <ele>435</ele>
        <time>2013-01-06T09:56:41Z</time>
      </trkpt>
      <trkpt lat="45.85058" lon="4.81385">
        <ele>435</ele>
        <time>2013-01-06T09:56:44Z</time>
      </trkpt>
      <trkpt lat="45.85064" lon="4.81385">
        <ele>435</ele>
        <time>2013-01-06T09:56:50Z</time>
      </trkpt>
      <trkpt lat="45.85068" lon="4.81383">
        <ele>435</ele>
        <time>2013-01-06T09:56:55Z</time>
      </trkpt>
      <trkpt lat="45.8507" lon="4.81381">
        <ele>435</ele>
        <time>2013-01-06T09:56:58Z</time>
      </trkpt>
      <trkpt lat="45.85072" lon="4.81379">
        <ele>435</ele>
        <time>2013-01-06T09:57:00Z</time>
      </trkpt>
      <trkpt lat="45.85072" lon="4.81378">
        <ele>435</ele>
        <time>2013-01-06T09:57:01Z</time>
      </trkpt>
      <trkpt lat="45.85073" lon="4.81378">
        <ele>435</ele>
        <time>2013-01-06T09:57:02Z</time>
      </trkpt>
      <trkpt lat="45.85074" lon="4.81376">
        <ele>435</ele>
        <time>2013-01-06T09:57:04Z</time>
      </trkpt>
      <trkpt lat="45.85075" lon="4.81376">
        <ele>435</ele>
        <time>2013-01-06T09:57:05Z</time>
      </trkpt>
      <trkpt lat="45.85078" lon="4.81372">
        <ele>436</ele>
        <time>2013-01-06T09:57:09Z</time>
      </trkpt>
      <trkpt lat="45.85079" lon="4.81372">
        <ele>436</ele>
        <time>2013-01-06T09:57:10Z</time>
      </trkpt>
      <trkpt lat="45.8508" lon="4.81367">
        <ele>436</ele>
        <time>2013-01-06T09:57:15Z</time>
      </trkpt>
      <trkpt lat="45.8508" lon="4.81365">
        <ele>436</ele>
        <time>2013-01-06T09:57:16Z</time>
      </trkpt>
      <trkpt lat="45.8508" lon="4.81364">
        <ele>436</ele>
        <time>2013-01-06T09:57:21Z</time>
      </trkpt>
      <trkpt lat="45.85083" lon="4.81361">
        <ele>441</ele>
        <time>2013-01-06T09:57:28Z</time>
      </trkpt>
      <trkpt lat="45.85085" lon="4.81361">
        <ele>441</ele>
        <time>2013-01-06T09:57:38Z</time>
      </trkpt>
      <trkpt lat="45.85086" lon="4.81356">
        <ele>441</ele>
        <time>2013-01-06T09:57:44Z</time>
      </trkpt>
      <trkpt lat="45.85083" lon="4.81351">
        <ele>437</ele>
        <time>2013-01-06T09:57:51Z</time>
      </trkpt>
      <trkpt lat="45.85077" lon="4.81352">
        <ele>437</ele>
        <time>2013-01-06T09:57:56Z</time>
      </trkpt>
      <trkpt lat="45.85073" lon="4.81353">
        <ele>437</ele>
        <time>2013-01-06T09:57:58Z</time>
      </trkpt>
      <trkpt lat="45.8507" lon="4.81353">
        <ele>437</ele>
        <time>2013-01-06T09:58:00Z</time>
      </trkpt>
      <trkpt lat="45.85069" lon="4.81354">
        <ele>437</ele>
        <time>2013-01-06T09:58:01Z</time>
      </trkpt>
      <trkpt lat="45.85064" lon="4.81359">
        <ele>436</ele>
        <time>2013-01-06T09:58:06Z</time>
      </trkpt>
      <trkpt lat="45.85061" lon="4.81362">
        <ele>436</ele>
        <time>2013-01-06T09:58:11Z</time>
      </trkpt>
      <trkpt lat="45.8506" lon="4.81363">
        <ele>436</ele>
        <time>2013-01-06T09:58:12Z</time>
      </trkpt>
      <trkpt lat="45.85056" lon="4.81364">
        <ele>436</ele>
        <time>2013-01-06T09:58:14Z</time>
      </trkpt>
      <trkpt lat="45.85052" lon="4.81365">
        <ele>436</ele>
        <time>2013-01-06T09:58:16Z</time>
      </trkpt>
      <trkpt lat="45.8504" lon="4.81374">
        <ele>435</ele>
        <time>2013-01-06T09:58:22Z</time>
      </trkpt>
      <trkpt lat="45.85038" lon="4.81375">
        <ele>435</ele>
        <time>2013-01-06T09:58:23Z</time>
      </trkpt>
      <trkpt lat="45.85032" lon="4.81384">
        <ele>434</ele>
        <time>2013-01-06T09:58:28Z</time>
      </trkpt>
      <trkpt lat="45.85027" lon="4.81392">
        <ele>434</ele>
        <time>2013-01-06T09:58:34Z</time>
      </trkpt>
      <trkpt lat="45.85026" lon="4.81394">
        <ele>433</ele>
        <time>2013-01-06T09:58:35Z</time>
      </trkpt>
      <trkpt lat="45.8502" lon="4.81401">
        <ele>432</ele>
        <time>2013-01-06T09:58:41Z</time>
      </trkpt>
      <trkpt lat="45.85014" lon="4.81406">
        <ele>431</ele>
        <time>2013-01-06T09:58:47Z</time>
      </trkpt>
      <trkpt lat="45.85013" lon="4.81406">
        <ele>431</ele>
        <time>2013-01-06T09:58:48Z</time>
      </trkpt>
      <trkpt lat="45.8501" lon="4.81406">
        <ele>431</ele>
        <time>2013-01-06T09:58:50Z</time>
      </trkpt>
      <trkpt lat="45.8501" lon="4.81406">
        <ele>431</ele>
        <time>2013-01-06T09:58:52Z</time>
      </trkpt>
      <trkpt lat="45.85008" lon="4.81403">
        <ele>431</ele>
        <time>2013-01-06T09:58:55Z</time>
      </trkpt>
      <trkpt lat="45.85005" lon="4.81401">
        <ele>431</ele>
        <time>2013-01-06T09:58:58Z</time>
      </trkpt>
      <trkpt lat="45.85003" lon="4.81399">
        <ele>432</ele>
        <time>2013-01-06T09:59:02Z</time>
      </trkpt>
      <trkpt lat="45.85002" lon="4.81398">
        <ele>432</ele>
        <time>2013-01-06T09:59:03Z</time>
      </trkpt>
      <trkpt lat="45.85" lon="4.81397">
        <ele>432</ele>
        <time>2013-01-06T09:59:05Z</time>
      </trkpt>
      <trkpt lat="45.84998" lon="4.81398">
        <ele>432</ele>
        <time>2013-01-06T09:59:08Z</time>
      </trkpt>
      <trkpt lat="45.84994" lon="4.81398">
        <ele>432</ele>
        <time>2013-01-06T09:59:13Z</time>
      </trkpt>
      <trkpt lat="45.84993" lon="4.81397">
        <ele>432</ele>
        <time>2013-01-06T09:59:14Z</time>
      </trkpt>
      <trkpt lat="45.84991" lon="4.81396">
        <ele>432</ele>
        <time>2013-01-06T09:59:18Z</time>
      </trkpt>
      <trkpt lat="45.84988" lon="4.81395">
        <ele>432</ele>
        <time>2013-01-06T09:59:22Z</time>
      </trkpt>
      <trkpt lat="45.84984" lon="4.81397">
        <ele>432</ele>
        <time>2013-01-06T09:59:28Z</time>
      </trkpt>
      <trkpt lat="45.84981" lon="4.814">
        <ele>432</ele>
        <time>2013-01-06T09:59:35Z</time>
      </trkpt>
      <trkpt lat="45.84978" lon="4.81404">
        <ele>432</ele>
        <time>2013-01-06T09:59:39Z</time>
      </trkpt>
      <trkpt lat="45.84974" lon="4.81406">
        <ele>432</ele>
        <time>2013-01-06T09:59:41Z</time>
      </trkpt>
      <trkpt lat="45.84965" lon="4.81405">
        <ele>433</ele>
        <time>2013-01-06T09:59:46Z</time>
      </trkpt>
      <trkpt lat="45.84963" lon="4.81404">
        <ele>433</ele>
        <time>2013-01-06T09:59:47Z</time>
      </trkpt>
      <trkpt lat="45.84959" lon="4.81405">
        <ele>433</ele>
        <time>2013-01-06T09:59:50Z</time>
      </trkpt>
      <trkpt lat="45.84954" lon="4.81403">
        <ele>433</ele>
        <time>2013-01-06T09:59:54Z</time>
      </trkpt>
      <trkpt lat="45.84946" lon="4.81402">
        <ele>433</ele>
        <time>2013-01-06T10:00:01Z</time>
      </trkpt>
      <trkpt lat="45.84943" lon="4.81403">
        <ele>433</ele>
        <time>2013-01-06T10:00:04Z</time>
      </trkpt>
      <trkpt lat="45.84941" lon="4.81404">
        <ele>433</ele>
        <time>2013-01-06T10:00:07Z</time>
      </trkpt>
      <trkpt lat="45.84941" lon="4.81405">
        <ele>433</ele>
        <time>2013-01-06T10:00:10Z</time>
      </trkpt>
      <trkpt lat="45.84939" lon="4.81408">
        <ele>433</ele>
        <time>2013-01-06T10:00:26Z</time>
      </trkpt>
      <trkpt lat="45.84935" lon="4.81412">
        <ele>433</ele>
        <time>2013-01-06T10:00:48Z</time>
      </trkpt>
      <trkpt lat="45.84928" lon="4.81421">
        <ele>428</ele>
        <time>2013-01-06T10:00:52Z</time>
      </trkpt>
      <trkpt lat="45.84925" lon="4.81426">
        <ele>428</ele>
        <time>2013-01-06T10:00:54Z</time>
      </trkpt>
      <trkpt lat="45.84914" lon="4.81437">
        <ele>426</ele>
        <time>2013-01-06T10:01:00Z</time>
      </trkpt>
      <trkpt lat="45.84912" lon="4.81438">
        <ele>426</ele>
        <time>2013-01-06T10:01:01Z</time>
      </trkpt>
      <trkpt lat="45.849" lon="4.81451">
        <ele>424</ele>
        <time>2013-01-06T10:01:06Z</time>
      </trkpt>
      <trkpt lat="45.84897" lon="4.81453">
        <ele>424</ele>
        <time>2013-01-06T10:01:07Z</time>
      </trkpt>
      <trkpt lat="45.84886" lon="4.81459">
        <ele>423</ele>
        <time>2013-01-06T10:01:11Z</time>
      </trkpt>
      <trkpt lat="45.84881" lon="4.81462">
        <ele>423</ele>
        <time>2013-01-06T10:01:13Z</time>
      </trkpt>
      <trkpt lat="45.84879" lon="4.81465">
        <ele>422</ele>
        <time>2013-01-06T10:01:14Z</time>
      </trkpt>
      <trkpt lat="45.84875" lon="4.81472">
        <ele>422</ele>
        <time>2013-01-06T10:01:16Z</time>
      </trkpt>
      <trkpt lat="45.84872" lon="4.8149">
        <ele>422</ele>
        <time>2013-01-06T10:01:20Z</time>
      </trkpt>
      <trkpt lat="45.84867" lon="4.81506">
        <ele>416</ele>
        <time>2013-01-06T10:01:24Z</time>
      </trkpt>
      <trkpt lat="45.8487" lon="4.81516">
        <ele>416</ele>
        <time>2013-01-06T10:01:27Z</time>
      </trkpt>
      <trkpt lat="45.84872" lon="4.81522">
        <ele>416</ele>
        <time>2013-01-06T10:01:29Z</time>
      </trkpt>
      <trkpt lat="45.84873" lon="4.81525">
        <ele>416</ele>
        <time>2013-01-06T10:01:30Z</time>
      </trkpt>
      <trkpt lat="45.84876" lon="4.81535">
        <ele>415</ele>
        <time>2013-01-06T10:01:34Z</time>
      </trkpt>
      <trkpt lat="45.8488" lon="4.81535">
        <ele>415</ele>
        <time>2013-01-06T10:01:37Z</time>
      </trkpt>
      <trkpt lat="45.84885" lon="4.81535">
        <ele>415</ele>
        <time>2013-01-06T10:01:39Z</time>
      </trkpt>
      <trkpt lat="45.84889" lon="4.81543">
        <ele>415</ele>
        <time>2013-01-06T10:01:43Z</time>
      </trkpt>
      <trkpt lat="45.8489" lon="4.81551">
        <ele>414</ele>
        <time>2013-01-06T10:01:46Z</time>
      </trkpt>
      <trkpt lat="45.8489" lon="4.81553">
        <ele>414</ele>
        <time>2013-01-06T10:01:47Z</time>
      </trkpt>
      <trkpt lat="45.84892" lon="4.81558">
        <ele>413</ele>
        <time>2013-01-06T10:01:49Z</time>
      </trkpt>
      <trkpt lat="45.84893" lon="4.81561">
        <ele>413</ele>
        <time>2013-01-06T10:01:51Z</time>
      </trkpt>
      <trkpt lat="45.84894" lon="4.81569">
        <ele>412</ele>
        <time>2013-01-06T10:01:54Z</time>
      </trkpt>
      <trkpt lat="45.84894" lon="4.81574">
        <ele>412</ele>
        <time>2013-01-06T10:01:57Z</time>
      </trkpt>
      <trkpt lat="45.84896" lon="4.81578">
        <ele>411</ele>
        <time>2013-01-06T10:01:59Z</time>
      </trkpt>
      <trkpt lat="45.84894" lon="4.8159">
        <ele>405</ele>
        <time>2013-01-06T10:02:02Z</time>
      </trkpt>
      <trkpt lat="45.84894" lon="4.816">
        <ele>404</ele>
        <time>2013-01-06T10:02:07Z</time>
      </trkpt>
      <trkpt lat="45.84895" lon="4.81603">
        <ele>404</ele>
        <time>2013-01-06T10:02:08Z</time>
      </trkpt>
      <trkpt lat="45.84902" lon="4.81615">
        <ele>403</ele>
        <time>2013-01-06T10:02:13Z</time>
      </trkpt>
      <trkpt lat="45.84903" lon="4.81615">
        <ele>403</ele>
        <time>2013-01-06T10:02:14Z</time>
      </trkpt>
      <trkpt lat="45.84911" lon="4.81612">
        <ele>403</ele>
        <time>2013-01-06T10:02:18Z</time>
      </trkpt>
      <trkpt lat="45.84914" lon="4.81611">
        <ele>403</ele>
        <time>2013-01-06T10:02:19Z</time>
      </trkpt>
      <trkpt lat="45.84928" lon="4.81605">
        <ele>403</ele>
        <time>2013-01-06T10:02:25Z</time>
      </trkpt>
      <trkpt lat="45.84931" lon="4.81604">
        <ele>403</ele>
        <time>2013-01-06T10:02:26Z</time>
      </trkpt>
      <trkpt lat="45.84938" lon="4.81599">
        <ele>404</ele>
        <time>2013-01-06T10:02:30Z</time>
      </trkpt>
      <trkpt lat="45.84945" lon="4.81594">
        <ele>404</ele>
        <time>2013-01-06T10:02:34Z</time>
      </trkpt>
      <trkpt lat="45.84949" lon="4.8159">
        <ele>404</ele>
        <time>2013-01-06T10:02:36Z</time>
      </trkpt>
      <trkpt lat="45.84957" lon="4.81581">
        <ele>410</ele>
        <time>2013-01-06T10:02:41Z</time>
      </trkpt>
      <trkpt lat="45.84959" lon="4.8158">
        <ele>410</ele>
        <time>2013-01-06T10:02:42Z</time>
      </trkpt>
      <trkpt lat="45.84962" lon="4.81578">
        <ele>410</ele>
        <time>2013-01-06T10:02:44Z</time>
      </trkpt>
      <trkpt lat="45.84966" lon="4.81576">
        <ele>410</ele>
        <time>2013-01-06T10:02:46Z</time>
      </trkpt>
      <trkpt lat="45.84972" lon="4.81574">
        <ele>410</ele>
        <time>2013-01-06T10:02:50Z</time>
      </trkpt>
      <trkpt lat="45.84978" lon="4.81572">
        <ele>410</ele>
        <time>2013-01-06T10:02:55Z</time>
      </trkpt>
      <trkpt lat="45.84979" lon="4.81572">
        <ele>410</ele>
        <time>2013-01-06T10:02:56Z</time>
      </trkpt>
      <trkpt lat="45.84979" lon="4.81572">
        <ele>410</ele>
        <time>2013-01-06T10:02:57Z</time>
      </trkpt>
      <trkpt lat="45.84981" lon="4.81572">
        <ele>409</ele>
        <time>2013-01-06T10:02:59Z</time>
      </trkpt>
      <trkpt lat="45.84982" lon="4.81574">
        <ele>409</ele>
        <time>2013-01-06T10:03:01Z</time>
      </trkpt>
      <trkpt lat="45.84983" lon="4.81574">
        <ele>409</ele>
        <time>2013-01-06T10:03:02Z</time>
      </trkpt>
      <trkpt lat="45.84985" lon="4.81574">
        <ele>409</ele>
        <time>2013-01-06T10:03:05Z</time>
      </trkpt>
      <trkpt lat="45.8499" lon="4.81575">
        <ele>408</ele>
        <time>2013-01-06T10:03:10Z</time>
      </trkpt>
      <trkpt lat="45.84992" lon="4.81575">
        <ele>408</ele>
        <time>2013-01-06T10:03:12Z</time>
      </trkpt>
      <trkpt lat="45.84994" lon="4.81577">
        <ele>408</ele>
        <time>2013-01-06T10:03:15Z</time>
      </trkpt>
      <trkpt lat="45.84994" lon="4.81577">
        <ele>408</ele>
        <time>2013-01-06T10:03:16Z</time>
      </trkpt>
      <trkpt lat="45.84997" lon="4.81578">
        <ele>407</ele>
        <time>2013-01-06T10:03:20Z</time>
      </trkpt>
      <trkpt lat="45.84997" lon="4.81578">
        <ele>407</ele>
        <time>2013-01-06T10:03:21Z</time>
      </trkpt>
      <trkpt lat="45.84999" lon="4.81578">
        <ele>407</ele>
        <time>2013-01-06T10:03:24Z</time>
      </trkpt>
      <trkpt lat="45.85" lon="4.81578">
        <ele>407</ele>
        <time>2013-01-06T10:03:26Z</time>
      </trkpt>
      <trkpt lat="45.85003" lon="4.81579">
        <ele>409</ele>
        <time>2013-01-06T10:03:31Z</time>
      </trkpt>
      <trkpt lat="45.85007" lon="4.81581">
        <ele>410</ele>
        <time>2013-01-06T10:03:37Z</time>
      </trkpt>
      <trkpt lat="45.8501" lon="4.81582">
        <ele>412</ele>
        <time>2013-01-06T10:03:42Z</time>
      </trkpt>
      <trkpt lat="45.85013" lon="4.81586">
        <ele>412</ele>
        <time>2013-01-06T10:03:48Z</time>
      </trkpt>
      <trkpt lat="45.85015" lon="4.81588">
        <ele>412</ele>
        <time>2013-01-06T10:03:51Z</time>
      </trkpt>
      <trkpt lat="45.85016" lon="4.81592">
        <ele>413</ele>
        <time>2013-01-06T10:03:55Z</time>
      </trkpt>
      <trkpt lat="45.85018" lon="4.81601">
        <ele>414</ele>
        <time>2013-01-06T10:04:00Z</time>
      </trkpt>
      <trkpt lat="45.85019" lon="4.81604">
        <ele>414</ele>
        <time>2013-01-06T10:04:02Z</time>
      </trkpt>
      <trkpt lat="45.85019" lon="4.81609">
        <ele>415</ele>
        <time>2013-01-06T10:04:06Z</time>
      </trkpt>
      <trkpt lat="45.85019" lon="4.81614">
        <ele>415</ele>
        <time>2013-01-06T10:04:09Z</time>
      </trkpt>
      <trkpt lat="45.85019" lon="4.81618">
        <ele>415</ele>
        <time>2013-01-06T10:04:12Z</time>
      </trkpt>
      <trkpt lat="45.85018" lon="4.8163">
        <ele>415</ele>
        <time>2013-01-06T10:04:18Z</time>
      </trkpt>
      <trkpt lat="45.85015" lon="4.8164">
        <ele>413</ele>
        <time>2013-01-06T10:04:23Z</time>
      </trkpt>
      <trkpt lat="45.85015" lon="4.81643">
        <ele>413</ele>
        <time>2013-01-06T10:04:24Z</time>
      </trkpt>
      <trkpt lat="45.85013" lon="4.81652">
        <ele>411</ele>
        <time>2013-01-06T10:04:28Z</time>
      </trkpt>
      <trkpt lat="45.85012" lon="4.81657">
        <ele>410</ele>
        <time>2013-01-06T10:04:30Z</time>
      </trkpt>
      <trkpt lat="45.85007" lon="4.81664">
        <ele>407</ele>
        <time>2013-01-06T10:04:35Z</time>
      </trkpt>
      <trkpt lat="45.85006" lon="4.81671">
        <ele>405</ele>
        <time>2013-01-06T10:04:39Z</time>
      </trkpt>
      <trkpt lat="45.85006" lon="4.81678">
        <ele>407</ele>
        <time>2013-01-06T10:04:44Z</time>
      </trkpt>
      <trkpt lat="45.85006" lon="4.81684">
        <ele>409</ele>
        <time>2013-01-06T10:04:48Z</time>
      </trkpt>
      <trkpt lat="45.85006" lon="4.81688">
        <ele>409</ele>
        <time>2013-01-06T10:04:51Z</time>
      </trkpt>
      <trkpt lat="45.85006" lon="4.81689">
        <ele>410</ele>
        <time>2013-01-06T10:04:52Z</time>
      </trkpt>
      <trkpt lat="45.85009" lon="4.81695">
        <ele>411</ele>
        <time>2013-01-06T10:04:59Z</time>
      </trkpt>
      <trkpt lat="45.85009" lon="4.81696">
        <ele>411</ele>
        <time>2013-01-06T10:05:00Z</time>
      </trkpt>
      <trkpt lat="45.85007" lon="4.81704">
        <ele>411</ele>
        <time>2013-01-06T10:05:04Z</time>
      </trkpt>
      <trkpt lat="45.85006" lon="4.81713">
        <ele>411</ele>
        <time>2013-01-06T10:05:09Z</time>
      </trkpt>
      <trkpt lat="45.85006" lon="4.81715">
        <ele>411</ele>
        <time>2013-01-06T10:05:10Z</time>
      </trkpt>
      <trkpt lat="45.85007" lon="4.81719">
        <ele>411</ele>
        <time>2013-01-06T10:05:13Z</time>
      </trkpt>
      <trkpt lat="45.85008" lon="4.81723">
        <ele>410</ele>
        <time>2013-01-06T10:05:15Z</time>
      </trkpt>
      <trkpt lat="45.85008" lon="4.81733">
        <ele>409</ele>
        <time>2013-01-06T10:05:20Z</time>
      </trkpt>
      <trkpt lat="45.85007" lon="4.81735">
        <ele>408</ele>
        <time>2013-01-06T10:05:21Z</time>
      </trkpt>
      <trkpt lat="45.85007" lon="4.81737">
        <ele>408</ele>
        <time>2013-01-06T10:05:22Z</time>
      </trkpt>
      <trkpt lat="45.85005" lon="4.81745">
        <ele>405</ele>
        <time>2013-01-06T10:05:26Z</time>
      </trkpt>
      <trkpt lat="45.85006" lon="4.81751">
        <ele>405</ele>
        <time>2013-01-06T10:05:30Z</time>
      </trkpt>
      <trkpt lat="45.85005" lon="4.81754">
        <ele>405</ele>
        <time>2013-01-06T10:05:32Z</time>
      </trkpt>
      <trkpt lat="45.85004" lon="4.81757">
        <ele>406</ele>
        <time>2013-01-06T10:05:34Z</time>
      </trkpt>
      <trkpt lat="45.85004" lon="4.81759">
        <ele>406</ele>
        <time>2013-01-06T10:05:36Z</time>
      </trkpt>
      <trkpt lat="45.85004" lon="4.8176">
        <ele>407</ele>
        <time>2013-01-06T10:05:38Z</time>
      </trkpt>
      <trkpt lat="45.85003" lon="4.81761">
        <ele>407</ele>
        <time>2013-01-06T10:06:33Z</time>
      </trkpt>
      <trkpt lat="45.85004" lon="4.81765">
        <ele>408</ele>
        <time>2013-01-06T10:06:37Z</time>
      </trkpt>
      <trkpt lat="45.8501" lon="4.81772">
        <ele>410</ele>
        <time>2013-01-06T10:06:43Z</time>
      </trkpt>
      <trkpt lat="45.85011" lon="4.81774">
        <ele>410</ele>
        <time>2013-01-06T10:06:44Z</time>
      </trkpt>
      <trkpt lat="45.85012" lon="4.81781">
        <ele>411</ele>
        <time>2013-01-06T10:06:47Z</time>
      </trkpt>
      <trkpt lat="45.85013" lon="4.81783">
        <ele>412</ele>
        <time>2013-01-06T10:06:48Z</time>
      </trkpt>
      <trkpt lat="45.85014" lon="4.81789">
        <ele>412</ele>
        <time>2013-01-06T10:06:50Z</time>
      </trkpt>
      <trkpt lat="45.85013" lon="4.81797">
        <ele>412</ele>
        <time>2013-01-06T10:06:53Z</time>
      </trkpt>
      <trkpt lat="45.85012" lon="4.81801">
        <ele>412</ele>
        <time>2013-01-06T10:06:55Z</time>
      </trkpt>
      <trkpt lat="45.85012" lon="4.81807">
        <ele>412</ele>
        <time>2013-01-06T10:06:57Z</time>
      </trkpt>
      <trkpt lat="45.85011" lon="4.81808">
        <ele>412</ele>
        <time>2013-01-06T10:06:58Z</time>
      </trkpt>
      <trkpt lat="45.85002" lon="4.81822">
        <ele>410</ele>
        <time>2013-01-06T10:07:05Z</time>
      </trkpt>
      <trkpt lat="45.84999" lon="4.81827">
        <ele>403</ele>
        <time>2013-01-06T10:07:07Z</time>
      </trkpt>
      <trkpt lat="45.84995" lon="4.81834">
        <ele>404</ele>
        <time>2013-01-06T10:07:10Z</time>
      </trkpt>
      <trkpt lat="45.84988" lon="4.81845">
        <ele>399</ele>
        <time>2013-01-06T10:07:15Z</time>
      </trkpt>
      <trkpt lat="45.84987" lon="4.81848">
        <ele>399</ele>
        <time>2013-01-06T10:07:16Z</time>
      </trkpt>
      <trkpt lat="45.84983" lon="4.8186">
        <ele>397</ele>
        <time>2013-01-06T10:07:21Z</time>
      </trkpt>
      <trkpt lat="45.84976" lon="4.81871">
        <ele>395</ele>
        <time>2013-01-06T10:07:26Z</time>
      </trkpt>
      <trkpt lat="45.84975" lon="4.81873">
        <ele>395</ele>
        <time>2013-01-06T10:07:27Z</time>
      </trkpt>
      <trkpt lat="45.84969" lon="4.81881">
        <ele>394</ele>
        <time>2013-01-06T10:07:32Z</time>
      </trkpt>
      <trkpt lat="45.84962" lon="4.81891">
        <ele>394</ele>
        <time>2013-01-06T10:07:36Z</time>
      </trkpt>
      <trkpt lat="45.84961" lon="4.81894">
        <ele>393</ele>
        <time>2013-01-06T10:07:37Z</time>
      </trkpt>
      <trkpt lat="45.84954" lon="4.81906">
        <ele>392</ele>
        <time>2013-01-06T10:07:43Z</time>
      </trkpt>
      <trkpt lat="45.84951" lon="4.81911">
        <ele>391</ele>
        <time>2013-01-06T10:07:45Z</time>
      </trkpt>
      <trkpt lat="45.84947" lon="4.81917">
        <ele>394</ele>
        <time>2013-01-06T10:07:48Z</time>
      </trkpt>
      <trkpt lat="45.84941" lon="4.81926">
        <ele>392</ele>
        <time>2013-01-06T10:07:54Z</time>
      </trkpt>
      <trkpt lat="45.84938" lon="4.81931">
        <ele>392</ele>
        <time>2013-01-06T10:07:57Z</time>
      </trkpt>
      <trkpt lat="45.84933" lon="4.8194">
        <ele>392</ele>
        <time>2013-01-06T10:08:01Z</time>
      </trkpt>
      <trkpt lat="45.84926" lon="4.81948">
        <ele>392</ele>
        <time>2013-01-06T10:08:05Z</time>
      </trkpt>
      <trkpt lat="45.84925" lon="4.81951">
        <ele>393</ele>
        <time>2013-01-06T10:08:06Z</time>
      </trkpt>
      <trkpt lat="45.84921" lon="4.81958">
        <ele>393</ele>
        <time>2013-01-06T10:08:10Z</time>
      </trkpt>
      <trkpt lat="45.84913" lon="4.81973">
        <ele>373</ele>
        <time>2013-01-06T10:08:17Z</time>
      </trkpt>
      <trkpt lat="45.84905" lon="4.81985">
        <ele>375</ele>
        <time>2013-01-06T10:08:23Z</time>
      </trkpt>
      <trkpt lat="45.849" lon="4.81993">
        <ele>375</ele>
        <time>2013-01-06T10:08:26Z</time>
      </trkpt>
      <trkpt lat="45.84895" lon="4.82001">
        <ele>375</ele>
        <time>2013-01-06T10:08:29Z</time>
      </trkpt>
      <trkpt lat="45.84888" lon="4.82015">
        <ele>371</ele>
        <time>2013-01-06T10:08:34Z</time>
      </trkpt>
      <trkpt lat="45.84886" lon="4.82017">
        <ele>370</ele>
        <time>2013-01-06T10:08:35Z</time>
      </trkpt>
      <trkpt lat="45.84879" lon="4.82028">
        <ele>367</ele>
        <time>2013-01-06T10:08:40Z</time>
      </trkpt>
      <trkpt lat="45.84875" lon="4.82036">
        <ele>366</ele>
        <time>2013-01-06T10:08:44Z</time>
      </trkpt>
      <trkpt lat="45.84873" lon="4.8204">
        <ele>366</ele>
        <time>2013-01-06T10:08:46Z</time>
      </trkpt>
      <trkpt lat="45.84867" lon="4.8205">
        <ele>364</ele>
        <time>2013-01-06T10:08:51Z</time>
      </trkpt>
      <trkpt lat="45.84865" lon="4.82053">
        <ele>363</ele>
        <time>2013-01-06T10:08:52Z</time>
      </trkpt>
      <trkpt lat="45.84864" lon="4.82057">
        <ele>363</ele>
        <time>2013-01-06T10:08:53Z</time>
      </trkpt>
      <trkpt lat="45.84861" lon="4.82062">
        <ele>362</ele>
        <time>2013-01-06T10:08:55Z</time>
      </trkpt>
      <trkpt lat="45.8486" lon="4.82065">
        <ele>361</ele>
        <time>2013-01-06T10:08:56Z</time>
      </trkpt>
      <trkpt lat="45.84856" lon="4.82075">
        <ele>359</ele>
        <time>2013-01-06T10:09:00Z</time>
      </trkpt>
      <trkpt lat="45.84854" lon="4.82081">
        <ele>357</ele>
        <time>2013-01-06T10:09:02Z</time>
      </trkpt>
      <trkpt lat="45.84853" lon="4.82084">
        <ele>355</ele>
        <time>2013-01-06T10:09:03Z</time>
      </trkpt>
      <trkpt lat="45.84851" lon="4.82093">
        <ele>355</ele>
        <time>2013-01-06T10:09:06Z</time>
      </trkpt>
      <trkpt lat="45.84848" lon="4.82105">
        <ele>355</ele>
        <time>2013-01-06T10:09:10Z</time>
      </trkpt>
      <trkpt lat="45.84846" lon="4.82108">
        <ele>356</ele>
        <time>2013-01-06T10:09:11Z</time>
      </trkpt>
      <trkpt lat="45.84842" lon="4.82124">
        <ele>355</ele>
        <time>2013-01-06T10:09:16Z</time>
      </trkpt>
      <trkpt lat="45.84841" lon="4.8213">
        <ele>355</ele>
        <time>2013-01-06T10:09:18Z</time>
      </trkpt>
      <trkpt lat="45.8484" lon="4.82147">
        <ele>351</ele>
        <time>2013-01-06T10:09:23Z</time>
      </trkpt>
      <trkpt lat="45.8484" lon="4.82157">
        <ele>348</ele>
        <time>2013-01-06T10:09:26Z</time>
      </trkpt>
      <trkpt lat="45.84841" lon="4.82167">
        <ele>341</ele>
        <time>2013-01-06T10:09:29Z</time>
      </trkpt>
      <trkpt lat="45.84842" lon="4.82181">
        <ele>342</ele>
        <time>2013-01-06T10:09:34Z</time>
      </trkpt>
      <trkpt lat="45.84843" lon="4.82184">
        <ele>342</ele>
        <time>2013-01-06T10:09:35Z</time>
      </trkpt>
      <trkpt lat="45.84846" lon="4.82194">
        <ele>343</ele>
        <time>2013-01-06T10:09:39Z</time>
      </trkpt>
      <trkpt lat="45.84854" lon="4.82206">
        <ele>343</ele>
        <time>2013-01-06T10:09:44Z</time>
      </trkpt>
      <trkpt lat="45.84857" lon="4.82207">
        <ele>343</ele>
        <time>2013-01-06T10:09:45Z</time>
      </trkpt>
      <trkpt lat="45.84865" lon="4.82212">
        <ele>343</ele>
        <time>2013-01-06T10:09:49Z</time>
      </trkpt>
      <trkpt lat="45.84872" lon="4.82215">
        <ele>344</ele>
        <time>2013-01-06T10:09:52Z</time>
      </trkpt>
      <trkpt lat="45.84876" lon="4.82218">
        <ele>345</ele>
        <time>2013-01-06T10:09:54Z</time>
      </trkpt>
      <trkpt lat="45.84885" lon="4.82225">
        <ele>345</ele>
        <time>2013-01-06T10:09:58Z</time>
      </trkpt>
      <trkpt lat="45.84888" lon="4.8223">
        <ele>345</ele>
        <time>2013-01-06T10:10:00Z</time>
      </trkpt>
      <trkpt lat="45.84891" lon="4.82237">
        <ele>345</ele>
        <time>2013-01-06T10:10:03Z</time>
      </trkpt>
      <trkpt lat="45.84896" lon="4.82249">
        <ele>345</ele>
        <time>2013-01-06T10:10:08Z</time>
      </trkpt>
      <trkpt lat="45.84897" lon="4.82253">
        <ele>336</ele>
        <time>2013-01-06T10:10:09Z</time>
      </trkpt>
      <trkpt lat="45.849" lon="4.82262">
        <ele>335</ele>
        <time>2013-01-06T10:10:13Z</time>
      </trkpt>
      <trkpt lat="45.849" lon="4.82268">
        <ele>334</ele>
        <time>2013-01-06T10:10:15Z</time>
      </trkpt>
      <trkpt lat="45.84902" lon="4.82273">
        <ele>333</ele>
        <time>2013-01-06T10:10:17Z</time>
      </trkpt>
      <trkpt lat="45.84903" lon="4.82279">
        <ele>332</ele>
        <time>2013-01-06T10:10:19Z</time>
      </trkpt>
      <trkpt lat="45.84903" lon="4.82286">
        <ele>331</ele>
        <time>2013-01-06T10:10:22Z</time>
      </trkpt>
      <trkpt lat="45.84903" lon="4.8229">
        <ele>330</ele>
        <time>2013-01-06T10:10:24Z</time>
      </trkpt>
      <trkpt lat="45.84905" lon="4.82291">
        <ele>330</ele>
        <time>2013-01-06T10:10:27Z</time>
      </trkpt>
      <trkpt lat="45.84909" lon="4.82288">
        <ele>331</ele>
        <time>2013-01-06T10:10:32Z</time>
      </trkpt>
      <trkpt lat="45.84913" lon="4.82286">
        <ele>331</ele>
        <time>2013-01-06T10:10:36Z</time>
      </trkpt>
      <trkpt lat="45.84919" lon="4.82282">
        <ele>343</ele>
        <time>2013-01-06T10:10:42Z</time>
      </trkpt>
      <trkpt lat="45.84923" lon="4.82279">
        <ele>343</ele>
        <time>2013-01-06T10:10:45Z</time>
      </trkpt>
      <trkpt lat="45.84926" lon="4.82277">
        <ele>344</ele>
        <time>2013-01-06T10:10:48Z</time>
      </trkpt>
      <trkpt lat="45.8493" lon="4.82274">
        <ele>344</ele>
        <time>2013-01-06T10:10:52Z</time>
      </trkpt>
      <trkpt lat="45.84932" lon="4.82272">
        <ele>345</ele>
        <time>2013-01-06T10:10:54Z</time>
      </trkpt>
      <trkpt lat="45.84933" lon="4.82272">
        <ele>345</ele>
        <time>2013-01-06T10:10:59Z</time>
      </trkpt>
      <trkpt lat="45.84937" lon="4.82266">
        <ele>345</ele>
        <time>2013-01-06T10:11:15Z</time>
      </trkpt>
      <trkpt lat="45.84942" lon="4.82264">
        <ele>346</ele>
        <time>2013-01-06T10:11:20Z</time>
      </trkpt>
      <trkpt lat="45.84946" lon="4.82264">
        <ele>346</ele>
        <time>2013-01-06T10:11:24Z</time>
      </trkpt>
      <trkpt lat="45.84947" lon="4.82264">
        <ele>346</ele>
        <time>2013-01-06T10:11:26Z</time>
      </trkpt>
      <trkpt lat="45.8495" lon="4.82265">
        <ele>347</ele>
        <time>2013-01-06T10:11:30Z</time>
      </trkpt>
      <trkpt lat="45.84957" lon="4.82265">
        <ele>347</ele>
        <time>2013-01-06T10:11:36Z</time>
      </trkpt>
      <trkpt lat="45.84958" lon="4.82265">
        <ele>347</ele>
        <time>2013-01-06T10:11:37Z</time>
      </trkpt>
      <trkpt lat="45.84961" lon="4.82265">
        <ele>348</ele>
        <time>2013-01-06T10:11:41Z</time>
      </trkpt>
      <trkpt lat="45.84963" lon="4.82265">
        <ele>348</ele>
        <time>2013-01-06T10:11:43Z</time>
      </trkpt>
      <trkpt lat="45.84965" lon="4.82266">
        <ele>348</ele>
        <time>2013-01-06T10:11:45Z</time>
      </trkpt>
      <trkpt lat="45.84966" lon="4.82267">
        <ele>348</ele>
        <time>2013-01-06T10:11:46Z</time>
      </trkpt>
      <trkpt lat="45.84971" lon="4.82269">
        <ele>349</ele>
        <time>2013-01-06T10:11:51Z</time>
      </trkpt>
      <trkpt lat="45.84975" lon="4.82271">
        <ele>349</ele>
        <time>2013-01-06T10:11:55Z</time>
      </trkpt>
      <trkpt lat="45.84978" lon="4.82272">
        <ele>350</ele>
        <time>2013-01-06T10:11:57Z</time>
      </trkpt>
      <trkpt lat="45.84979" lon="4.82273">
        <ele>350</ele>
        <time>2013-01-06T10:11:59Z</time>
      </trkpt>
      <trkpt lat="45.84982" lon="4.82275">
        <ele>350</ele>
        <time>2013-01-06T10:12:02Z</time>
      </trkpt>
      <trkpt lat="45.84982" lon="4.82275">
        <ele>350</ele>
        <time>2013-01-06T10:12:03Z</time>
      </trkpt>
      <trkpt lat="45.84985" lon="4.82276">
        <ele>350</ele>
        <time>2013-01-06T10:12:07Z</time>
      </trkpt>
      <trkpt lat="45.84986" lon="4.82276">
        <ele>350</ele>
        <time>2013-01-06T10:12:08Z</time>
      </trkpt>
      <trkpt lat="45.84989" lon="4.82275">
        <ele>351</ele>
        <time>2013-01-06T10:12:13Z</time>
      </trkpt>
      <trkpt lat="45.84992" lon="4.82276">
        <ele>351</ele>
        <time>2013-01-06T10:12:15Z</time>
      </trkpt>
      <trkpt lat="45.84994" lon="4.82278">
        <ele>350</ele>
        <time>2013-01-06T10:12:18Z</time>
      </trkpt>
      <trkpt lat="45.84995" lon="4.82277">
        <ele>351</ele>
        <time>2013-01-06T10:12:20Z</time>
      </trkpt>
      <trkpt lat="45.84999" lon="4.82277">
        <ele>351</ele>
        <time>2013-01-06T10:12:24Z</time>
      </trkpt>
      <trkpt lat="45.85001" lon="4.82276">
        <ele>356</ele>
        <time>2013-01-06T10:12:26Z</time>
      </trkpt>
      <trkpt lat="45.85003" lon="4.82275">
        <ele>356</ele>
        <time>2013-01-06T10:12:28Z</time>
      </trkpt>
      <trkpt lat="45.85004" lon="4.82275">
        <ele>356</ele>
        <time>2013-01-06T10:12:29Z</time>
      </trkpt>
      <trkpt lat="45.85005" lon="4.82275">
        <ele>356</ele>
        <time>2013-01-06T10:12:30Z</time>
      </trkpt>
      <trkpt lat="45.85007" lon="4.82275">
        <ele>356</ele>
        <time>2013-01-06T10:12:33Z</time>
      </trkpt>
      <trkpt lat="45.85008" lon="4.82276">
        <ele>356</ele>
        <time>2013-01-06T10:12:35Z</time>
      </trkpt>
      <trkpt lat="45.85009" lon="4.82276">
        <ele>356</ele>
        <time>2013-01-06T10:12:36Z</time>
      </trkpt>
      <trkpt lat="45.8501" lon="4.82276">
        <ele>356</ele>
        <time>2013-01-06T10:12:37Z</time>
      </trkpt>
      <trkpt lat="45.85014" lon="4.82275">
        <ele>356</ele>
        <time>2013-01-06T10:12:41Z</time>
      </trkpt>
      <trkpt lat="45.85018" lon="4.82272">
        <ele>356</ele>
        <time>2013-01-06T10:12:45Z</time>
      </trkpt>
      <trkpt lat="45.85019" lon="4.82272">
        <ele>356</ele>
        <time>2013-01-06T10:12:46Z</time>
      </trkpt>
      <trkpt lat="45.8502" lon="4.82272">
        <ele>356</ele>
        <time>2013-01-06T10:12:48Z</time>
      </trkpt>
      <trkpt lat="45.85023" lon="4.82272">
        <ele>356</ele>
        <time>2013-01-06T10:12:51Z</time>
      </trkpt>
      <trkpt lat="45.85026" lon="4.82272">
        <ele>356</ele>
        <time>2013-01-06T10:12:54Z</time>
      </trkpt>
      <trkpt lat="45.85027" lon="4.82271">
        <ele>356</ele>
        <time>2013-01-06T10:12:56Z</time>
      </trkpt>
      <trkpt lat="45.8503" lon="4.82269">
        <ele>356</ele>
        <time>2013-01-06T10:13:00Z</time>
      </trkpt>
      <trkpt lat="45.85033" lon="4.82267">
        <ele>356</ele>
        <time>2013-01-06T10:13:03Z</time>
      </trkpt>
      <trkpt lat="45.85035" lon="4.82267">
        <ele>356</ele>
        <time>2013-01-06T10:13:05Z</time>
      </trkpt>
      <trkpt lat="45.85036" lon="4.82266">
        <ele>356</ele>
        <time>2013-01-06T10:13:06Z</time>
      </trkpt>
      <trkpt lat="45.85039" lon="4.82264">
        <ele>356</ele>
        <time>2013-01-06T10:13:10Z</time>
      </trkpt>
      <trkpt lat="45.85045" lon="4.8226">
        <ele>357</ele>
        <time>2013-01-06T10:13:16Z</time>
      </trkpt>
      <trkpt lat="45.85047" lon="4.82256">
        <ele>357</ele>
        <time>2013-01-06T10:13:20Z</time>
      </trkpt>
      <trkpt lat="45.85048" lon="4.82255">
        <ele>357</ele>
        <time>2013-01-06T10:13:21Z</time>
      </trkpt>
      <trkpt lat="45.85051" lon="4.82252">
        <ele>357</ele>
        <time>2013-01-06T10:13:26Z</time>
      </trkpt>
      <trkpt lat="45.85058" lon="4.82241">
        <ele>371</ele>
        <time>2013-01-06T10:13:34Z</time>
      </trkpt>
      <trkpt lat="45.85062" lon="4.82242">
        <ele>371</ele>
        <time>2013-01-06T10:13:39Z</time>
      </trkpt>
      <trkpt lat="45.85063" lon="4.82242">
        <ele>371</ele>
        <time>2013-01-06T10:13:46Z</time>
      </trkpt>
      <trkpt lat="45.85067" lon="4.82243">
        <ele>370</ele>
        <time>2013-01-06T10:14:14Z</time>
      </trkpt>
      <trkpt lat="45.85066" lon="4.82245">
        <ele>370</ele>
        <time>2013-01-06T10:14:19Z</time>
      </trkpt>
      <trkpt lat="45.85068" lon="4.82248">
        <ele>369</ele>
        <time>2013-01-06T10:14:42Z</time>
      </trkpt>
      <trkpt lat="45.8507" lon="4.82248">
        <ele>369</ele>
        <time>2013-01-06T10:14:45Z</time>
      </trkpt>
      <trkpt lat="45.85073" lon="4.82255">
        <ele>360</ele>
        <time>2013-01-06T10:14:52Z</time>
      </trkpt>
      <trkpt lat="45.85074" lon="4.82258">
        <ele>360</ele>
        <time>2013-01-06T10:14:54Z</time>
      </trkpt>
      <trkpt lat="45.85079" lon="4.82266">
        <ele>359</ele>
        <time>2013-01-06T10:14:58Z</time>
      </trkpt>
      <trkpt lat="45.85084" lon="4.82276">
        <ele>352</ele>
        <time>2013-01-06T10:15:03Z</time>
      </trkpt>
      <trkpt lat="45.85085" lon="4.82279">
        <ele>351</ele>
        <time>2013-01-06T10:15:05Z</time>
      </trkpt>
      <trkpt lat="45.85089" lon="4.82284">
        <ele>350</ele>
        <time>2013-01-06T10:15:08Z</time>
      </trkpt>
      <trkpt lat="45.85091" lon="4.82289">
        <ele>349</ele>
        <time>2013-01-06T10:15:10Z</time>
      </trkpt>
      <trkpt lat="45.85094" lon="4.823">
        <ele>347</ele>
        <time>2013-01-06T10:15:14Z</time>
      </trkpt>
      <trkpt lat="45.85095" lon="4.82302">
        <ele>346</ele>
        <time>2013-01-06T10:15:15Z</time>
      </trkpt>
      <trkpt lat="45.85095" lon="4.82303">
        <ele>346</ele>
        <time>2013-01-06T10:15:16Z</time>
      </trkpt>
      <trkpt lat="45.85099" lon="4.82304">
        <ele>346</ele>
        <time>2013-01-06T10:15:19Z</time>
      </trkpt>
      <trkpt lat="45.85103" lon="4.82305">
        <ele>346</ele>
        <time>2013-01-06T10:15:24Z</time>
      </trkpt>
      <trkpt lat="45.85109" lon="4.8231">
        <ele>345</ele>
        <time>2013-01-06T10:15:30Z</time>
      </trkpt>
      <trkpt lat="45.8511" lon="4.82309">
        <ele>345</ele>
        <time>2013-01-06T10:15:33Z</time>
      </trkpt>
      <trkpt lat="45.85111" lon="4.82308">
        <ele>345</ele>
        <time>2013-01-06T10:15:34Z</time>
      </trkpt>
      <trkpt lat="45.85111" lon="4.82307">
        <ele>345</ele>
        <time>2013-01-06T10:15:36Z</time>
      </trkpt>
      <trkpt lat="45.85116" lon="4.823">
        <ele>345</ele>
        <time>2013-01-06T10:15:44Z</time>
      </trkpt>
      <trkpt lat="45.85118" lon="4.82294">
        <ele>346</ele>
        <time>2013-01-06T10:15:50Z</time>
      </trkpt>
      <trkpt lat="45.85119" lon="4.82293">
        <ele>346</ele>
        <time>2013-01-06T10:15:51Z</time>
      </trkpt>
      <trkpt lat="45.85121" lon="4.82288">
        <ele>346</ele>
        <time>2013-01-06T10:15:56Z</time>
      </trkpt>
      <trkpt lat="45.85126" lon="4.82283">
        <ele>346</ele>
        <time>2013-01-06T10:16:01Z</time>
      </trkpt>
      <trkpt lat="45.85131" lon="4.82275">
        <ele>347</ele>
        <time>2013-01-06T10:16:07Z</time>
      </trkpt>
      <trkpt lat="45.85133" lon="4.82272">
        <ele>347</ele>
        <time>2013-01-06T10:16:09Z</time>
      </trkpt>
      <trkpt lat="45.85134" lon="4.82268">
        <ele>347</ele>
        <time>2013-01-06T10:16:11Z</time>
      </trkpt>
      <trkpt lat="45.85135" lon="4.82264">
        <ele>347</ele>
        <time>2013-01-06T10:16:14Z</time>
      </trkpt>
      <trkpt lat="45.85138" lon="4.82255">
        <ele>348</ele>
        <time>2013-01-06T10:16:20Z</time>
      </trkpt>
      <trkpt lat="45.85144" lon="4.82245">
        <ele>359</ele>
        <time>2013-01-06T10:16:26Z</time>
      </trkpt>
      <trkpt lat="45.85151" lon="4.82231">
        <ele>359</ele>
        <time>2013-01-06T10:16:33Z</time>
      </trkpt>
      <trkpt lat="45.85155" lon="4.82223">
        <ele>361</ele>
        <time>2013-01-06T10:16:37Z</time>
      </trkpt>
      <trkpt lat="45.85157" lon="4.82217">
        <ele>362</ele>
        <time>2013-01-06T10:16:40Z</time>
      </trkpt>
      <trkpt lat="45.85163" lon="4.82201">
        <ele>364</ele>
        <time>2013-01-06T10:16:46Z</time>
      </trkpt>
      <trkpt lat="45.85164" lon="4.82199">
        <ele>364</ele>
        <time>2013-01-06T10:16:47Z</time>
      </trkpt>
      <trkpt lat="45.85171" lon="4.82188">
        <ele>352</ele>
        <time>2013-01-06T10:16:52Z</time>
      </trkpt>
      <trkpt lat="45.85169" lon="4.82173">
        <ele>361</ele>
        <time>2013-01-06T10:16:56Z</time>
      </trkpt>
      <trkpt lat="45.8517" lon="4.82167">
        <ele>363</ele>
        <time>2013-01-06T10:16:58Z</time>
      </trkpt>
      <trkpt lat="45.85171" lon="4.82165">
        <ele>367</ele>
        <time>2013-01-06T10:16:59Z</time>
      </trkpt>
      <trkpt lat="45.8517" lon="4.82154">
        <ele>366</ele>
        <time>2013-01-06T10:17:02Z</time>
      </trkpt>
      <trkpt lat="45.8517" lon="4.82147">
        <ele>367</ele>
        <time>2013-01-06T10:17:04Z</time>
      </trkpt>
      <trkpt lat="45.85172" lon="4.82137">
        <ele>367</ele>
        <time>2013-01-06T10:17:07Z</time>
      </trkpt>
      <trkpt lat="45.85176" lon="4.82129">
        <ele>368</ele>
        <time>2013-01-06T10:17:10Z</time>
      </trkpt>
      <trkpt lat="45.85179" lon="4.82123">
        <ele>369</ele>
        <time>2013-01-06T10:17:12Z</time>
      </trkpt>
      <trkpt lat="45.85188" lon="4.82109">
        <ele>371</ele>
        <time>2013-01-06T10:17:18Z</time>
      </trkpt>
      <trkpt lat="45.85193" lon="4.82102">
        <ele>371</ele>
        <time>2013-01-06T10:17:23Z</time>
      </trkpt>
      <trkpt lat="45.85194" lon="4.82101">
        <ele>371</ele>
        <time>2013-01-06T10:17:24Z</time>
      </trkpt>
      <trkpt lat="45.85198" lon="4.82094">
        <ele>371</ele>
        <time>2013-01-06T10:17:29Z</time>
      </trkpt>
      <trkpt lat="45.85199" lon="4.82091">
        <ele>371</ele>
        <time>2013-01-06T10:17:31Z</time>
      </trkpt>
      <trkpt lat="45.85204" lon="4.82088">
        <ele>370</ele>
        <time>2013-01-06T10:17:34Z</time>
      </trkpt>
      <trkpt lat="45.85208" lon="4.82084">
        <ele>370</ele>
        <time>2013-01-06T10:17:38Z</time>
      </trkpt>
      <trkpt lat="45.85209" lon="4.82083">
        <ele>382</ele>
        <time>2013-01-06T10:17:39Z</time>
      </trkpt>
      <trkpt lat="45.8521" lon="4.82082">
        <ele>382</ele>
        <time>2013-01-06T10:17:40Z</time>
      </trkpt>
      <trkpt lat="45.85213" lon="4.82079">
        <ele>382</ele>
        <time>2013-01-06T10:17:44Z</time>
      </trkpt>
      <trkpt lat="45.85214" lon="4.82078">
        <ele>381</ele>
        <time>2013-01-06T10:17:45Z</time>
      </trkpt>
      <trkpt lat="45.8522" lon="4.82072">
        <ele>381</ele>
        <time>2013-01-06T10:17:51Z</time>
      </trkpt>
      <trkpt lat="45.85221" lon="4.82071">
        <ele>380</ele>
        <time>2013-01-06T10:17:52Z</time>
      </trkpt>
      <trkpt lat="45.85223" lon="4.82069">
        <ele>380</ele>
        <time>2013-01-06T10:17:54Z</time>
      </trkpt>
      <trkpt lat="45.85224" lon="4.82068">
        <ele>380</ele>
        <time>2013-01-06T10:17:55Z</time>
      </trkpt>
      <trkpt lat="45.85225" lon="4.82065">
        <ele>380</ele>
        <time>2013-01-06T10:17:57Z</time>
      </trkpt>
      <trkpt lat="45.8523" lon="4.8206">
        <ele>380</ele>
        <time>2013-01-06T10:18:02Z</time>
      </trkpt>
      <trkpt lat="45.85232" lon="4.82058">
        <ele>380</ele>
        <time>2013-01-06T10:18:04Z</time>
      </trkpt>
      <trkpt lat="45.85235" lon="4.82053">
        <ele>381</ele>
        <time>2013-01-06T10:18:08Z</time>
      </trkpt>
      <trkpt lat="45.85237" lon="4.8205">
        <ele>381</ele>
        <time>2013-01-06T10:18:10Z</time>
      </trkpt>
      <trkpt lat="45.85242" lon="4.82042">
        <ele>382</ele>
        <time>2013-01-06T10:18:14Z</time>
      </trkpt>
      <trkpt lat="45.85251" lon="4.8203">
        <ele>370</ele>
        <time>2013-01-06T10:18:19Z</time>
      </trkpt>
      <trkpt lat="45.85253" lon="4.82028">
        <ele>370</ele>
        <time>2013-01-06T10:18:20Z</time>
      </trkpt>
      <trkpt lat="45.85262" lon="4.82016">
        <ele>372</ele>
        <time>2013-01-06T10:18:25Z</time>
      </trkpt>
      <trkpt lat="45.85265" lon="4.82012">
        <ele>373</ele>
        <time>2013-01-06T10:18:27Z</time>
      </trkpt>
      <trkpt lat="45.85268" lon="4.82002">
        <ele>373</ele>
        <time>2013-01-06T10:18:31Z</time>
      </trkpt>
      <trkpt lat="45.85266" lon="4.81986">
        <ele>380</ele>
        <time>2013-01-06T10:18:36Z</time>
      </trkpt>
      <trkpt lat="45.85262" lon="4.81969">
        <ele>381</ele>
        <time>2013-01-06T10:18:41Z</time>
      </trkpt>
      <trkpt lat="45.85261" lon="4.81957">
        <ele>382</ele>
        <time>2013-01-06T10:18:45Z</time>
      </trkpt>
      <trkpt lat="45.8526" lon="4.81951">
        <ele>383</ele>
        <time>2013-01-06T10:18:47Z</time>
      </trkpt>
      <trkpt lat="45.85259" lon="4.81943">
        <ele>384</ele>
        <time>2013-01-06T10:18:51Z</time>
      </trkpt>
      <trkpt lat="45.85259" lon="4.8194">
        <ele>385</ele>
        <time>2013-01-06T10:18:53Z</time>
      </trkpt>
      <trkpt lat="45.85256" lon="4.81937">
        <ele>386</ele>
        <time>2013-01-06T10:19:02Z</time>
      </trkpt>
      <trkpt lat="45.85255" lon="4.81933">
        <ele>387</ele>
        <time>2013-01-06T10:19:44Z</time>
      </trkpt>
      <trkpt lat="45.85256" lon="4.81927">
        <ele>389</ele>
        <time>2013-01-06T10:19:48Z</time>
      </trkpt>
      <trkpt lat="45.85256" lon="4.81919">
        <ele>391</ele>
        <time>2013-01-06T10:19:54Z</time>
      </trkpt>
      <trkpt lat="45.85256" lon="4.81916">
        <ele>394</ele>
        <time>2013-01-06T10:19:56Z</time>
      </trkpt>
      <trkpt lat="45.85257" lon="4.81912">
        <ele>393</ele>
        <time>2013-01-06T10:19:59Z</time>
      </trkpt>
      <trkpt lat="45.85259" lon="4.81909">
        <ele>393</ele>
        <time>2013-01-06T10:20:01Z</time>
      </trkpt>
      <trkpt lat="45.85261" lon="4.81905">
        <ele>392</ele>
        <time>2013-01-06T10:20:04Z</time>
      </trkpt>
      <trkpt lat="45.85262" lon="4.81904">
        <ele>392</ele>
        <time>2013-01-06T10:20:05Z</time>
      </trkpt>
      <trkpt lat="45.85262" lon="4.81899">
        <ele>392</ele>
        <time>2013-01-06T10:20:09Z</time>
      </trkpt>
      <trkpt lat="45.85262" lon="4.81896">
        <ele>392</ele>
        <time>2013-01-06T10:20:11Z</time>
      </trkpt>
      <trkpt lat="45.85262" lon="4.81887">
        <ele>392</ele>
        <time>2013-01-06T10:20:16Z</time>
      </trkpt>
      <trkpt lat="45.85262" lon="4.81886">
        <ele>392</ele>
        <time>2013-01-06T10:20:17Z</time>
      </trkpt>
      <trkpt lat="45.85261" lon="4.81882">
        <ele>392</ele>
        <time>2013-01-06T10:20:18Z</time>
      </trkpt>
      <trkpt lat="45.85261" lon="4.81869">
        <ele>393</ele>
        <time>2013-01-06T10:20:23Z</time>
      </trkpt>
      <trkpt lat="45.85261" lon="4.81866">
        <ele>394</ele>
        <time>2013-01-06T10:20:24Z</time>
      </trkpt>
      <trkpt lat="45.85263" lon="4.81861">
        <ele>394</ele>
        <time>2013-01-06T10:20:27Z</time>
      </trkpt>
      <trkpt lat="45.85264" lon="4.81857">
        <ele>395</ele>
        <time>2013-01-06T10:20:29Z</time>
      </trkpt>
      <trkpt lat="45.85265" lon="4.81848">
        <ele>396</ele>
        <time>2013-01-06T10:20:33Z</time>
      </trkpt>
      <trkpt lat="45.85265" lon="4.81839">
        <ele>397</ele>
        <time>2013-01-06T10:20:39Z</time>
      </trkpt>
      <trkpt lat="45.85267" lon="4.81827">
        <ele>404</ele>
        <time>2013-01-06T10:20:51Z</time>
      </trkpt>
      <trkpt lat="45.8527" lon="4.81818">
        <ele>405</ele>
        <time>2013-01-06T10:20:56Z</time>
      </trkpt>
      <trkpt lat="45.85273" lon="4.81813">
        <ele>405</ele>
        <time>2013-01-06T10:20:58Z</time>
      </trkpt>
      <trkpt lat="45.85274" lon="4.81808">
        <ele>406</ele>
        <time>2013-01-06T10:21:00Z</time>
      </trkpt>
      <trkpt lat="45.85276" lon="4.81802">
        <ele>406</ele>
        <time>2013-01-06T10:21:02Z</time>
      </trkpt>
      <trkpt lat="45.85282" lon="4.8179">
        <ele>407</ele>
        <time>2013-01-06T10:21:07Z</time>
      </trkpt>
      <trkpt lat="45.85285" lon="4.81787">
        <ele>407</ele>
        <time>2013-01-06T10:21:09Z</time>
      </trkpt>
      <trkpt lat="45.85289" lon="4.81782">
        <ele>408</ele>
        <time>2013-01-06T10:21:13Z</time>
      </trkpt>
      <trkpt lat="45.85294" lon="4.8178">
        <ele>407</ele>
        <time>2013-01-06T10:21:17Z</time>
      </trkpt>
      <trkpt lat="45.85296" lon="4.81779">
        <ele>407</ele>
        <time>2013-01-06T10:21:19Z</time>
      </trkpt>
      <trkpt lat="45.85297" lon="4.81778">
        <ele>407</ele>
        <time>2013-01-06T10:21:20Z</time>
      </trkpt>
      <trkpt lat="45.85303" lon="4.81775">
        <ele>408</ele>
        <time>2013-01-06T10:21:25Z</time>
      </trkpt>
      <trkpt lat="45.85307" lon="4.81774">
        <ele>408</ele>
        <time>2013-01-06T10:21:30Z</time>
      </trkpt>
      <trkpt lat="45.85308" lon="4.81774">
        <ele>407</ele>
        <time>2013-01-06T10:21:31Z</time>
      </trkpt>
      <trkpt lat="45.85312" lon="4.81775">
        <ele>407</ele>
        <time>2013-01-06T10:21:35Z</time>
      </trkpt>
      <trkpt lat="45.85314" lon="4.81775">
        <ele>407</ele>
        <time>2013-01-06T10:21:37Z</time>
      </trkpt>
      <trkpt lat="45.85316" lon="4.81773">
        <ele>408</ele>
        <time>2013-01-06T10:21:40Z</time>
      </trkpt>
      <trkpt lat="45.85315" lon="4.81773">
        <ele>408</ele>
        <time>2013-01-06T10:21:48Z</time>
      </trkpt>
      <trkpt lat="45.85312" lon="4.81774">
        <ele>408</ele>
        <time>2013-01-06T10:22:07Z</time>
      </trkpt>
      <trkpt lat="45.85309" lon="4.81768">
        <ele>408</ele>
        <time>2013-01-06T10:22:11Z</time>
      </trkpt>
      <trkpt lat="45.8531" lon="4.81766">
        <ele>408</ele>
        <time>2013-01-06T10:22:12Z</time>
      </trkpt>
      <trkpt lat="45.85313" lon="4.81763">
        <ele>409</ele>
        <time>2013-01-06T10:22:16Z</time>
      </trkpt>
      <trkpt lat="45.85316" lon="4.8176">
        <ele>409</ele>
        <time>2013-01-06T10:22:20Z</time>
      </trkpt>
      <trkpt lat="45.85318" lon="4.81758">
        <ele>409</ele>
        <time>2013-01-06T10:22:22Z</time>
      </trkpt>
      <trkpt lat="45.85321" lon="4.81757">
        <ele>410</ele>
        <time>2013-01-06T10:22:25Z</time>
      </trkpt>
      <trkpt lat="45.85322" lon="4.81755">
        <ele>410</ele>
        <time>2013-01-06T10:22:27Z</time>
      </trkpt>
      <trkpt lat="45.85324" lon="4.81753">
        <ele>410</ele>
        <time>2013-01-06T10:22:29Z</time>
      </trkpt>
      <trkpt lat="45.85327" lon="4.81752">
        <ele>411</ele>
        <time>2013-01-06T10:22:33Z</time>
      </trkpt>
      <trkpt lat="45.85332" lon="4.81753">
        <ele>411</ele>
        <time>2013-01-06T10:22:38Z</time>
      </trkpt>
      <trkpt lat="45.85336" lon="4.81751">
        <ele>411</ele>
        <time>2013-01-06T10:22:41Z</time>
      </trkpt>
      <trkpt lat="45.85336" lon="4.81752">
        <ele>411</ele>
        <time>2013-01-06T10:22:42Z</time>
      </trkpt>
      <trkpt lat="45.85341" lon="4.81752">
        <ele>410</ele>
        <time>2013-01-06T10:22:47Z</time>
      </trkpt>
      <trkpt lat="45.85341" lon="4.81752">
        <ele>410</ele>
        <time>2013-01-06T10:22:48Z</time>
      </trkpt>
      <trkpt lat="45.85343" lon="4.81751">
        <ele>410</ele>
        <time>2013-01-06T10:22:50Z</time>
      </trkpt>
      <trkpt lat="45.85345" lon="4.8175">
        <ele>410</ele>
        <time>2013-01-06T10:22:52Z</time>
      </trkpt>
      <trkpt lat="45.85346" lon="4.8175">
        <ele>410</ele>
        <time>2013-01-06T10:22:53Z</time>
      </trkpt>
      <trkpt lat="45.85347" lon="4.81751">
        <ele>410</ele>
        <time>2013-01-06T10:22:54Z</time>
      </trkpt>
      <trkpt lat="45.85351" lon="4.81751">
        <ele>409</ele>
        <time>2013-01-06T10:22:58Z</time>
      </trkpt>
      <trkpt lat="45.85353" lon="4.81751">
        <ele>409</ele>
        <time>2013-01-06T10:22:59Z</time>
      </trkpt>
      <trkpt lat="45.85357" lon="4.81751">
        <ele>409</ele>
        <time>2013-01-06T10:23:03Z</time>
      </trkpt>
      <trkpt lat="45.85361" lon="4.8175">
        <ele>419</ele>
        <time>2013-01-06T10:23:07Z</time>
      </trkpt>
      <trkpt lat="45.85362" lon="4.8175">
        <ele>409</ele>
        <time>2013-01-06T10:23:08Z</time>
      </trkpt>
      <trkpt lat="45.85368" lon="4.81748">
        <ele>420</ele>
        <time>2013-01-06T10:23:13Z</time>
      </trkpt>
      <trkpt lat="45.85373" lon="4.81746">
        <ele>420</ele>
        <time>2013-01-06T10:23:17Z</time>
      </trkpt>
      <trkpt lat="45.85375" lon="4.81745">
        <ele>420</ele>
        <time>2013-01-06T10:23:19Z</time>
      </trkpt>
      <trkpt lat="45.85378" lon="4.81744">
        <ele>421</ele>
        <time>2013-01-06T10:23:21Z</time>
      </trkpt>
      <trkpt lat="45.85379" lon="4.81744">
        <ele>421</ele>
        <time>2013-01-06T10:23:22Z</time>
      </trkpt>
      <trkpt lat="45.8538" lon="4.81743">
        <ele>421</ele>
        <time>2013-01-06T10:23:23Z</time>
      </trkpt>
      <trkpt lat="45.85382" lon="4.81742">
        <ele>421</ele>
        <time>2013-01-06T10:23:25Z</time>
      </trkpt>
      <trkpt lat="45.85385" lon="4.8174">
        <ele>421</ele>
        <time>2013-01-06T10:23:28Z</time>
      </trkpt>
      <trkpt lat="45.85386" lon="4.8174">
        <ele>421</ele>
        <time>2013-01-06T10:23:38Z</time>
      </trkpt>
      <trkpt lat="45.85391" lon="4.81741">
        <ele>421</ele>
        <time>2013-01-06T10:23:58Z</time>
      </trkpt>
      <trkpt lat="45.85396" lon="4.81745">
        <ele>421</ele>
        <time>2013-01-06T10:24:02Z</time>
      </trkpt>
      <trkpt lat="45.85397" lon="4.81745">
        <ele>420</ele>
        <time>2013-01-06T10:24:04Z</time>
      </trkpt>
      <trkpt lat="45.854" lon="4.81741">
        <ele>421</ele>
        <time>2013-01-06T10:24:12Z</time>
      </trkpt>
      <trkpt lat="45.85405" lon="4.81735">
        <ele>421</ele>
        <time>2013-01-06T10:24:16Z</time>
      </trkpt>
      <trkpt lat="45.85406" lon="4.81733">
        <ele>421</ele>
        <time>2013-01-06T10:24:17Z</time>
      </trkpt>
      <trkpt lat="45.85408" lon="4.81727">
        <ele>422</ele>
        <time>2013-01-06T10:24:20Z</time>
      </trkpt>
      <trkpt lat="45.85413" lon="4.81717">
        <ele>423</ele>
        <time>2013-01-06T10:24:25Z</time>
      </trkpt>
      <trkpt lat="45.85414" lon="4.81713">
        <ele>423</ele>
        <time>2013-01-06T10:24:27Z</time>
      </trkpt>
      <trkpt lat="45.85417" lon="4.81704">
        <ele>424</ele>
        <time>2013-01-06T10:24:30Z</time>
      </trkpt>
      <trkpt lat="45.85418" lon="4.81702">
        <ele>424</ele>
        <time>2013-01-06T10:24:31Z</time>
      </trkpt>
      <trkpt lat="45.85424" lon="4.8169">
        <ele>425</ele>
        <time>2013-01-06T10:24:36Z</time>
      </trkpt>
      <trkpt lat="45.85424" lon="4.81688">
        <ele>425</ele>
        <time>2013-01-06T10:24:37Z</time>
      </trkpt>
      <trkpt lat="45.85427" lon="4.81681">
        <ele>426</ele>
        <time>2013-01-06T10:24:41Z</time>
      </trkpt>
      <trkpt lat="45.85427" lon="4.81679">
        <ele>426</ele>
        <time>2013-01-06T10:24:42Z</time>
      </trkpt>
      <trkpt lat="45.85425" lon="4.81674">
        <ele>427</ele>
        <time>2013-01-06T10:24:47Z</time>
      </trkpt>
      <trkpt lat="45.85424" lon="4.8167">
        <ele>428</ele>
        <time>2013-01-06T10:24:50Z</time>
      </trkpt>
      <trkpt lat="45.85426" lon="4.81666">
        <ele>430</ele>
        <time>2013-01-06T10:24:53Z</time>
      </trkpt>
      <trkpt lat="45.85431" lon="4.81661">
        <ele>430</ele>
        <time>2013-01-06T10:24:58Z</time>
      </trkpt>
      <trkpt lat="45.85434" lon="4.8166">
        <ele>430</ele>
        <time>2013-01-06T10:25:01Z</time>
      </trkpt>
      <trkpt lat="45.85434" lon="4.8166">
        <ele>430</ele>
        <time>2013-01-06T10:25:02Z</time>
      </trkpt>
      <trkpt lat="45.85436" lon="4.81659">
        <ele>430</ele>
        <time>2013-01-06T10:25:15Z</time>
      </trkpt>
      <trkpt lat="45.85444" lon="4.81662">
        <ele>430</ele>
        <time>2013-01-06T10:25:21Z</time>
      </trkpt>
      <trkpt lat="45.85448" lon="4.81665">
        <ele>430</ele>
        <time>2013-01-06T10:25:23Z</time>
      </trkpt>
      <trkpt lat="45.85461" lon="4.81671">
        <ele>424</ele>
        <time>2013-01-06T10:25:28Z</time>
      </trkpt>
      <trkpt lat="45.85466" lon="4.81673">
        <ele>424</ele>
        <time>2013-01-06T10:25:30Z</time>
      </trkpt>
      <trkpt lat="45.8548" lon="4.81682">
        <ele>424</ele>
        <time>2013-01-06T10:25:36Z</time>
      </trkpt>
      <trkpt lat="45.85483" lon="4.81682">
        <ele>424</ele>
        <time>2013-01-06T10:25:37Z</time>
      </trkpt>
      <trkpt lat="45.85495" lon="4.81685">
        <ele>424</ele>
        <time>2013-01-06T10:25:42Z</time>
      </trkpt>
      <trkpt lat="45.85501" lon="4.81691">
        <ele>422</ele>
        <time>2013-01-06T10:25:45Z</time>
      </trkpt>
      <trkpt lat="45.85505" lon="4.81696">
        <ele>421</ele>
        <time>2013-01-06T10:25:47Z</time>
      </trkpt>
      <trkpt lat="45.85508" lon="4.81708">
        <ele>420</ele>
        <time>2013-01-06T10:25:51Z</time>
      </trkpt>
      <trkpt lat="45.85509" lon="4.81711">
        <ele>420</ele>
        <time>2013-01-06T10:25:52Z</time>
      </trkpt>
      <trkpt lat="45.8551" lon="4.81715">
        <ele>420</ele>
        <time>2013-01-06T10:25:53Z</time>
      </trkpt>
      <trkpt lat="45.85517" lon="4.81729">
        <ele>419</ele>
        <time>2013-01-06T10:25:58Z</time>
      </trkpt>
      <trkpt lat="45.85521" lon="4.81732">
        <ele>419</ele>
        <time>2013-01-06T10:26:00Z</time>
      </trkpt>
      <trkpt lat="45.85523" lon="4.81734">
        <ele>419</ele>
        <time>2013-01-06T10:26:01Z</time>
      </trkpt>
      <trkpt lat="45.85524" lon="4.81736">
        <ele>419</ele>
        <time>2013-01-06T10:26:02Z</time>
      </trkpt>
      <trkpt lat="45.85528" lon="4.81739">
        <ele>419</ele>
        <time>2013-01-06T10:26:04Z</time>
      </trkpt>
      <trkpt lat="45.85529" lon="4.8174">
        <ele>419</ele>
        <time>2013-01-06T10:26:05Z</time>
      </trkpt>
      <trkpt lat="45.85531" lon="4.8174">
        <ele>419</ele>
        <time>2013-01-06T10:26:06Z</time>
      </trkpt>
      <trkpt lat="45.85532" lon="4.8174">
        <ele>419</ele>
        <time>2013-01-06T10:26:08Z</time>
      </trkpt>
      <trkpt lat="45.85535" lon="4.81745">
        <ele>419</ele>
        <time>2013-01-06T10:26:12Z</time>
      </trkpt>
      <trkpt lat="45.85537" lon="4.8175">
        <ele>419</ele>
        <time>2013-01-06T10:26:15Z</time>
      </trkpt>
      <trkpt lat="45.85537" lon="4.81754">
        <ele>418</ele>
        <time>2013-01-06T10:26:19Z</time>
      </trkpt>
      <trkpt lat="45.85542" lon="4.81754">
        <ele>418</ele>
        <time>2013-01-06T10:26:24Z</time>
      </trkpt>
      <trkpt lat="45.85543" lon="4.81755">
        <ele>418</ele>
        <time>2013-01-06T10:26:25Z</time>
      </trkpt>
      <trkpt lat="45.85548" lon="4.81762">
        <ele>418</ele>
        <time>2013-01-06T10:26:31Z</time>
      </trkpt>
      <trkpt lat="45.8555" lon="4.81764">
        <ele>418</ele>
        <time>2013-01-06T10:26:32Z</time>
      </trkpt>
      <trkpt lat="45.85555" lon="4.81773">
        <ele>418</ele>
        <time>2013-01-06T10:26:35Z</time>
      </trkpt>
      <trkpt lat="45.85557" lon="4.81778">
        <ele>418</ele>
        <time>2013-01-06T10:26:37Z</time>
      </trkpt>
      <trkpt lat="45.85563" lon="4.81779">
        <ele>419</ele>
        <time>2013-01-06T10:26:39Z</time>
      </trkpt>
      <trkpt lat="45.85564" lon="4.8178">
        <ele>419</ele>
        <time>2013-01-06T10:26:40Z</time>
      </trkpt>
      <trkpt lat="45.8557" lon="4.81786">
        <ele>419</ele>
        <time>2013-01-06T10:26:43Z</time>
      </trkpt>
      <trkpt lat="45.85576" lon="4.81799">
        <ele>419</ele>
        <time>2013-01-06T10:26:48Z</time>
      </trkpt>
      <trkpt lat="45.85577" lon="4.81802">
        <ele>419</ele>
        <time>2013-01-06T10:26:49Z</time>
      </trkpt>
      <trkpt lat="45.85581" lon="4.81811">
        <ele>420</ele>
        <time>2013-01-06T10:26:52Z</time>
      </trkpt>
      <trkpt lat="45.85586" lon="4.81815">
        <ele>422</ele>
        <time>2013-01-06T10:26:56Z</time>
      </trkpt>
      <trkpt lat="45.85589" lon="4.81817">
        <ele>422</ele>
        <time>2013-01-06T10:27:00Z</time>
      </trkpt>
      <trkpt lat="45.85592" lon="4.8182">
        <ele>422</ele>
        <time>2013-01-06T10:27:02Z</time>
      </trkpt>
      <trkpt lat="45.85601" lon="4.81834">
        <ele>423</ele>
        <time>2013-01-06T10:27:08Z</time>
      </trkpt>
      <trkpt lat="45.85602" lon="4.81837">
        <ele>423</ele>
        <time>2013-01-06T10:27:09Z</time>
      </trkpt>
      <trkpt lat="45.85607" lon="4.81847">
        <ele>423</ele>
        <time>2013-01-06T10:27:13Z</time>
      </trkpt>
      <trkpt lat="45.8561" lon="4.81853">
        <ele>423</ele>
        <time>2013-01-06T10:27:16Z</time>
      </trkpt>
      <trkpt lat="45.85612" lon="4.81856">
        <ele>423</ele>
        <time>2013-01-06T10:27:19Z</time>
      </trkpt>
      <trkpt lat="45.85614" lon="4.81859">
        <ele>423</ele>
        <time>2013-01-06T10:27:22Z</time>
      </trkpt>
      <trkpt lat="45.85616" lon="4.81861">
        <ele>423</ele>
        <time>2013-01-06T10:27:23Z</time>
      </trkpt>
      <trkpt lat="45.85619" lon="4.81867">
        <ele>423</ele>
        <time>2013-01-06T10:27:25Z</time>
      </trkpt>
      <trkpt lat="45.85625" lon="4.81877">
        <ele>423</ele>
        <time>2013-01-06T10:27:31Z</time>
      </trkpt>
      <trkpt lat="45.85626" lon="4.8188">
        <ele>423</ele>
        <time>2013-01-06T10:27:33Z</time>
      </trkpt>
      <trkpt lat="45.85629" lon="4.81887">
        <ele>423</ele>
        <time>2013-01-06T10:27:36Z</time>
      </trkpt>
      <trkpt lat="45.85629" lon="4.81898">
        <ele>423</ele>
        <time>2013-01-06T10:27:40Z</time>
      </trkpt>
      <trkpt lat="45.8563" lon="4.81904">
        <ele>423</ele>
        <time>2013-01-06T10:27:42Z</time>
      </trkpt>
      <trkpt lat="45.85631" lon="4.81915">
        <ele>423</ele>
        <time>2013-01-06T10:27:45Z</time>
      </trkpt>
      <trkpt lat="45.85631" lon="4.81919">
        <ele>421</ele>
        <time>2013-01-06T10:27:46Z</time>
      </trkpt>
      <trkpt lat="45.85632" lon="4.81931">
        <ele>420</ele>
        <time>2013-01-06T10:27:49Z</time>
      </trkpt>
      <trkpt lat="45.85633" lon="4.81935">
        <ele>420</ele>
        <time>2013-01-06T10:27:50Z</time>
      </trkpt>
      <trkpt lat="45.85634" lon="4.81957">
        <ele>420</ele>
        <time>2013-01-06T10:27:56Z</time>
      </trkpt>
      <trkpt lat="45.8563" lon="4.81981">
        <ele>419</ele>
        <time>2013-01-06T10:28:03Z</time>
      </trkpt>
      <trkpt lat="45.85629" lon="4.81984">
        <ele>419</ele>
        <time>2013-01-06T10:28:04Z</time>
      </trkpt>
      <trkpt lat="45.85627" lon="4.81994">
        <ele>418</ele>
        <time>2013-01-06T10:28:07Z</time>
      </trkpt>
      <trkpt lat="45.85624" lon="4.82011">
        <ele>413</ele>
        <time>2013-01-06T10:28:11Z</time>
      </trkpt>
      <trkpt lat="45.85624" lon="4.82016">
        <ele>413</ele>
        <time>2013-01-06T10:28:12Z</time>
      </trkpt>
      <trkpt lat="45.8562" lon="4.82034">
        <ele>412</ele>
        <time>2013-01-06T10:28:16Z</time>
      </trkpt>
      <trkpt lat="45.85618" lon="4.82038">
        <ele>412</ele>
        <time>2013-01-06T10:28:17Z</time>
      </trkpt>
      <trkpt lat="45.85611" lon="4.82045">
        <ele>411</ele>
        <time>2013-01-06T10:28:20Z</time>
      </trkpt>
      <trkpt lat="45.85602" lon="4.82041">
        <ele>412</ele>
        <time>2013-01-06T10:28:24Z</time>
      </trkpt>
      <trkpt lat="45.85601" lon="4.82043">
        <ele>411</ele>
        <time>2013-01-06T10:28:27Z</time>
      </trkpt>
      <trkpt lat="45.856" lon="4.82045">
        <ele>411</ele>
        <time>2013-01-06T10:28:28Z</time>
      </trkpt>
      <trkpt lat="45.85593" lon="4.82059">
        <ele>410</ele>
        <time>2013-01-06T10:28:33Z</time>
      </trkpt>
      <trkpt lat="45.8559" lon="4.82064">
        <ele>410</ele>
        <time>2013-01-06T10:28:35Z</time>
      </trkpt>
      <trkpt lat="45.85588" lon="4.82066">
        <ele>409</ele>
        <time>2013-01-06T10:28:36Z</time>
      </trkpt>
      <trkpt lat="45.85585" lon="4.82069">
        <ele>409</ele>
        <time>2013-01-06T10:28:39Z</time>
      </trkpt>
      <trkpt lat="45.85584" lon="4.82078">
        <ele>408</ele>
        <time>2013-01-06T10:28:43Z</time>
      </trkpt>
      <trkpt lat="45.85581" lon="4.82082">
        <ele>406</ele>
        <time>2013-01-06T10:28:45Z</time>
      </trkpt>
      <trkpt lat="45.85579" lon="4.82083">
        <ele>405</ele>
        <time>2013-01-06T10:28:46Z</time>
      </trkpt>
      <trkpt lat="45.85579" lon="4.82084">
        <ele>405</ele>
        <time>2013-01-06T10:28:47Z</time>
      </trkpt>
      <trkpt lat="45.85581" lon="4.82081">
        <ele>406</ele>
        <time>2013-01-06T10:28:57Z</time>
      </trkpt>
      <trkpt lat="45.85584" lon="4.82077">
        <ele>408</ele>
        <time>2013-01-06T10:29:09Z</time>
      </trkpt>
      <trkpt lat="45.85578" lon="4.82083">
        <ele>406</ele>
        <time>2013-01-06T10:29:18Z</time>
      </trkpt>
      <trkpt lat="45.85574" lon="4.82087">
        <ele>403</ele>
        <time>2013-01-06T10:29:21Z</time>
      </trkpt>
      <trkpt lat="45.85574" lon="4.82088">
        <ele>402</ele>
        <time>2013-01-06T10:29:22Z</time>
      </trkpt>
      <trkpt lat="45.85573" lon="4.82089">
        <ele>402</ele>
        <time>2013-01-06T10:29:25Z</time>
      </trkpt>
      <trkpt lat="45.85571" lon="4.82091">
        <ele>401</ele>
        <time>2013-01-06T10:29:27Z</time>
      </trkpt>
      <trkpt lat="45.85563" lon="4.82101">
        <ele>398</ele>
        <time>2013-01-06T10:29:31Z</time>
      </trkpt>
      <trkpt lat="45.85561" lon="4.82103">
        <ele>397</ele>
        <time>2013-01-06T10:29:32Z</time>
      </trkpt>
      <trkpt lat="45.85559" lon="4.82105">
        <ele>397</ele>
        <time>2013-01-06T10:29:33Z</time>
      </trkpt>
      <trkpt lat="45.85551" lon="4.82116">
        <ele>395</ele>
        <time>2013-01-06T10:29:37Z</time>
      </trkpt>
      <trkpt lat="45.85545" lon="4.82125">
        <ele>394</ele>
        <time>2013-01-06T10:29:40Z</time>
      </trkpt>
      <trkpt lat="45.85541" lon="4.82129">
        <ele>393</ele>
        <time>2013-01-06T10:29:42Z</time>
      </trkpt>
      <trkpt lat="45.85536" lon="4.8214">
        <ele>392</ele>
        <time>2013-01-06T10:29:46Z</time>
      </trkpt>
      <trkpt lat="45.85534" lon="4.82148">
        <ele>392</ele>
        <time>2013-01-06T10:29:48Z</time>
      </trkpt>
      <trkpt lat="45.8553" lon="4.8216">
        <ele>391</ele>
        <time>2013-01-06T10:29:52Z</time>
      </trkpt>
      <trkpt lat="45.8553" lon="4.82168">
        <ele>387</ele>
        <time>2013-01-06T10:29:56Z</time>
      </trkpt>
      <trkpt lat="45.8553" lon="4.82169">
        <ele>387</ele>
        <time>2013-01-06T10:29:57Z</time>
      </trkpt>
      <trkpt lat="45.85532" lon="4.82173">
        <ele>387</ele>
        <time>2013-01-06T10:30:00Z</time>
      </trkpt>
      <trkpt lat="45.85533" lon="4.82175">
        <ele>387</ele>
        <time>2013-01-06T10:30:01Z</time>
      </trkpt>
      <trkpt lat="45.85533" lon="4.82182">
        <ele>387</ele>
        <time>2013-01-06T10:30:03Z</time>
      </trkpt>
      <trkpt lat="45.85534" lon="4.82192">
        <ele>387</ele>
        <time>2013-01-06T10:30:06Z</time>
      </trkpt>
      <trkpt lat="45.85535" lon="4.82199">
        <ele>387</ele>
        <time>2013-01-06T10:30:08Z</time>
      </trkpt>
      <trkpt lat="45.85533" lon="4.82212">
        <ele>387</ele>
        <time>2013-01-06T10:30:12Z</time>
      </trkpt>
      <trkpt lat="45.85531" lon="4.82225">
        <ele>386</ele>
        <time>2013-01-06T10:30:16Z</time>
      </trkpt>
      <trkpt lat="45.85531" lon="4.82228">
        <ele>386</ele>
        <time>2013-01-06T10:30:17Z</time>
      </trkpt>
      <trkpt lat="45.85526" lon="4.82245">
        <ele>385</ele>
        <time>2013-01-06T10:30:22Z</time>
      </trkpt>
      <trkpt lat="45.85525" lon="4.82249">
        <ele>385</ele>
        <time>2013-01-06T10:30:23Z</time>
      </trkpt>
      <trkpt lat="45.85522" lon="4.82266">
        <ele>380</ele>
        <time>2013-01-06T10:30:28Z</time>
      </trkpt>
      <trkpt lat="45.85519" lon="4.82276">
        <ele>380</ele>
        <time>2013-01-06T10:30:31Z</time>
      </trkpt>
      <trkpt lat="45.85517" lon="4.82283">
        <ele>379</ele>
        <time>2013-01-06T10:30:33Z</time>
      </trkpt>
      <trkpt lat="45.85516" lon="4.82292">
        <ele>379</ele>
        <time>2013-01-06T10:30:36Z</time>
      </trkpt>
      <trkpt lat="45.85515" lon="4.82298">
        <ele>378</ele>
        <time>2013-01-06T10:30:38Z</time>
      </trkpt>
      <trkpt lat="45.85514" lon="4.82301">
        <ele>378</ele>
        <time>2013-01-06T10:30:39Z</time>
      </trkpt>
      <trkpt lat="45.85511" lon="4.82307">
        <ele>378</ele>
        <time>2013-01-06T10:30:42Z</time>
      </trkpt>
      <trkpt lat="45.85511" lon="4.82307">
        <ele>378</ele>
        <time>2013-01-06T10:30:43Z</time>
      </trkpt>
      <trkpt lat="45.85512" lon="4.82311">
        <ele>378</ele>
        <time>2013-01-06T10:30:48Z</time>
      </trkpt>
      <trkpt lat="45.85511" lon="4.82323">
        <ele>377</ele>
        <time>2013-01-06T10:30:52Z</time>
      </trkpt>
      <trkpt lat="45.8551" lon="4.82328">
        <ele>376</ele>
        <time>2013-01-06T10:30:53Z</time>
      </trkpt>
      <trkpt lat="45.85507" lon="4.82345">
        <ele>372</ele>
        <time>2013-01-06T10:30:58Z</time>
      </trkpt>
      <trkpt lat="45.85505" lon="4.82349">
        <ele>372</ele>
        <time>2013-01-06T10:30:59Z</time>
      </trkpt>
      <trkpt lat="45.85502" lon="4.82362">
        <ele>370</ele>
        <time>2013-01-06T10:31:03Z</time>
      </trkpt>
      <trkpt lat="45.85498" lon="4.82376">
        <ele>361</ele>
        <time>2013-01-06T10:31:07Z</time>
      </trkpt>
      <trkpt lat="45.85497" lon="4.82383">
        <ele>361</ele>
        <time>2013-01-06T10:31:09Z</time>
      </trkpt>
      <trkpt lat="45.85493" lon="4.82401">
        <ele>361</ele>
        <time>2013-01-06T10:31:14Z</time>
      </trkpt>
      <trkpt lat="45.85489" lon="4.82418">
        <ele>359</ele>
        <time>2013-01-06T10:31:19Z</time>
      </trkpt>
      <trkpt lat="45.85486" lon="4.82426">
        <ele>357</ele>
        <time>2013-01-06T10:31:22Z</time>
      </trkpt>
      <trkpt lat="45.85482" lon="4.82429">
        <ele>356</ele>
        <time>2013-01-06T10:31:24Z</time>
      </trkpt>
      <trkpt lat="45.85478" lon="4.82431">
        <ele>355</ele>
        <time>2013-01-06T10:31:26Z</time>
      </trkpt>
      <trkpt lat="45.85474" lon="4.82431">
        <ele>354</ele>
        <time>2013-01-06T10:31:28Z</time>
      </trkpt>
      <trkpt lat="45.8547" lon="4.82428">
        <ele>353</ele>
        <time>2013-01-06T10:31:30Z</time>
      </trkpt>
      <trkpt lat="45.85468" lon="4.82429">
        <ele>353</ele>
        <time>2013-01-06T10:31:32Z</time>
      </trkpt>
      <trkpt lat="45.85467" lon="4.8243">
        <ele>352</ele>
        <time>2013-01-06T10:31:34Z</time>
      </trkpt>
      <trkpt lat="45.85468" lon="4.82431">
        <ele>353</ele>
        <time>2013-01-06T10:31:37Z</time>
      </trkpt>
      <trkpt lat="45.8547" lon="4.8243">
        <ele>353</ele>
        <time>2013-01-06T10:31:38Z</time>
      </trkpt>
      <trkpt lat="45.85473" lon="4.82431">
        <ele>354</ele>
        <time>2013-01-06T10:31:43Z</time>
      </trkpt>
      <trkpt lat="45.85477" lon="4.82429">
        <ele>355</ele>
        <time>2013-01-06T10:31:49Z</time>
      </trkpt>
      <trkpt lat="45.85481" lon="4.82428">
        <ele>356</ele>
        <time>2013-01-06T10:31:53Z</time>
      </trkpt>
      <trkpt lat="45.85482" lon="4.8243">
        <ele>356</ele>
        <time>2013-01-06T10:31:54Z</time>
      </trkpt>
      <trkpt lat="45.8548" lon="4.82443">
        <ele>354</ele>
        <time>2013-01-06T10:31:58Z</time>
      </trkpt>
      <trkpt lat="45.85478" lon="4.8245">
        <ele>353</ele>
        <time>2013-01-06T10:32:00Z</time>
      </trkpt>
      <trkpt lat="45.85477" lon="4.82453">
        <ele>352</ele>
        <time>2013-01-06T10:32:01Z</time>
      </trkpt>
      <trkpt lat="45.85476" lon="4.82461">
        <ele>352</ele>
        <time>2013-01-06T10:32:03Z</time>
      </trkpt>
      <trkpt lat="45.85473" lon="4.82479">
        <ele>351</ele>
        <time>2013-01-06T10:32:08Z</time>
      </trkpt>
      <trkpt lat="45.85473" lon="4.82481">
        <ele>351</ele>
        <time>2013-01-06T10:32:09Z</time>
      </trkpt>
      <trkpt lat="45.85472" lon="4.82483">
        <ele>351</ele>
        <time>2013-01-06T10:32:10Z</time>
      </trkpt>
      <trkpt lat="45.85472" lon="4.82481">
        <ele>351</ele>
        <time>2013-01-06T10:32:13Z</time>
      </trkpt>
      <trkpt lat="45.8547" lon="4.82478">
        <ele>350</ele>
        <time>2013-01-06T10:32:16Z</time>
      </trkpt>
      <trkpt lat="45.85467" lon="4.82478">
        <ele>350</ele>
        <time>2013-01-06T10:32:18Z</time>
      </trkpt>
      <trkpt lat="45.85462" lon="4.82478">
        <ele>349</ele>
        <time>2013-01-06T10:32:22Z</time>
      </trkpt>
      <trkpt lat="45.85459" lon="4.82479">
        <ele>349</ele>
        <time>2013-01-06T10:32:24Z</time>
      </trkpt>
      <trkpt lat="45.85458" lon="4.8248">
        <ele>349</ele>
        <time>2013-01-06T10:32:25Z</time>
      </trkpt>
      <trkpt lat="45.85454" lon="4.8248">
        <ele>348</ele>
        <time>2013-01-06T10:32:27Z</time>
      </trkpt>
      <trkpt lat="45.8545" lon="4.82478">
        <ele>347</ele>
        <time>2013-01-06T10:32:31Z</time>
      </trkpt>
      <trkpt lat="45.85449" lon="4.82477">
        <ele>347</ele>
        <time>2013-01-06T10:32:32Z</time>
      </trkpt>
      <trkpt lat="45.85447" lon="4.82476">
        <ele>347</ele>
        <time>2013-01-06T10:32:36Z</time>
      </trkpt>
      <trkpt lat="45.85447" lon="4.82475">
        <ele>347</ele>
        <time>2013-01-06T10:32:37Z</time>
      </trkpt>
      <trkpt lat="45.85443" lon="4.82469">
        <ele>347</ele>
        <time>2013-01-06T10:32:41Z</time>
      </trkpt>
      <trkpt lat="45.85443" lon="4.82469">
        <ele>347</ele>
        <time>2013-01-06T10:32:42Z</time>
      </trkpt>
      <trkpt lat="45.8544" lon="4.82461">
        <ele>347</ele>
        <time>2013-01-06T10:32:48Z</time>
      </trkpt>
      <trkpt lat="45.85435" lon="4.82455">
        <ele>347</ele>
        <time>2013-01-06T10:32:54Z</time>
      </trkpt>
      <trkpt lat="45.85434" lon="4.82449">
        <ele>347</ele>
        <time>2013-01-06T10:32:56Z</time>
      </trkpt>
      <trkpt lat="45.85432" lon="4.82445">
        <ele>347</ele>
        <time>2013-01-06T10:32:58Z</time>
      </trkpt>
      <trkpt lat="45.85428" lon="4.82438">
        <ele>346</ele>
        <time>2013-01-06T10:33:03Z</time>
      </trkpt>
      <trkpt lat="45.85424" lon="4.82424">
        <ele>344</ele>
        <time>2013-01-06T10:33:10Z</time>
      </trkpt>
      <trkpt lat="45.85423" lon="4.82421">
        <ele>343</ele>
        <time>2013-01-06T10:33:12Z</time>
      </trkpt>
      <trkpt lat="45.85421" lon="4.82414">
        <ele>344</ele>
        <time>2013-01-06T10:33:16Z</time>
      </trkpt>
      <trkpt lat="45.85421" lon="4.82413">
        <ele>344</ele>
        <time>2013-01-06T10:33:17Z</time>
      </trkpt>
      <trkpt lat="45.8542" lon="4.82406">
        <ele>346</ele>
        <time>2013-01-06T10:33:20Z</time>
      </trkpt>
      <trkpt lat="45.85419" lon="4.82402">
        <ele>347</ele>
        <time>2013-01-06T10:33:22Z</time>
      </trkpt>
      <trkpt lat="45.85417" lon="4.82398">
        <ele>348</ele>
        <time>2013-01-06T10:33:24Z</time>
      </trkpt>
      <trkpt lat="45.85417" lon="4.82396">
        <ele>348</ele>
        <time>2013-01-06T10:33:25Z</time>
      </trkpt>
      <trkpt lat="45.85415" lon="4.8239">
        <ele>327</ele>
        <time>2013-01-06T10:33:29Z</time>
      </trkpt>
      <trkpt lat="45.85415" lon="4.82387">
        <ele>327</ele>
        <time>2013-01-06T10:33:31Z</time>
      </trkpt>
      <trkpt lat="45.85414" lon="4.82379">
        <ele>326</ele>
        <time>2013-01-06T10:33:35Z</time>
      </trkpt>
      <trkpt lat="45.85414" lon="4.82371">
        <ele>326</ele>
        <time>2013-01-06T10:33:40Z</time>
      </trkpt>
      <trkpt lat="45.85413" lon="4.82367">
        <ele>326</ele>
        <time>2013-01-06T10:33:42Z</time>
      </trkpt>
      <trkpt lat="45.85412" lon="4.82362">
        <ele>327</ele>
        <time>2013-01-06T10:33:45Z</time>
      </trkpt>
      <trkpt lat="45.85412" lon="4.82357">
        <ele>328</ele>
        <time>2013-01-06T10:33:48Z</time>
      </trkpt>
      <trkpt lat="45.85411" lon="4.8235">
        <ele>330</ele>
        <time>2013-01-06T10:33:52Z</time>
      </trkpt>
      <trkpt lat="45.85411" lon="4.82348">
        <ele>331</ele>
        <time>2013-01-06T10:33:53Z</time>
      </trkpt>
      <trkpt lat="45.85411" lon="4.82346">
        <ele>332</ele>
        <time>2013-01-06T10:33:58Z</time>
      </trkpt>
      <trkpt lat="45.85411" lon="4.82345">
        <ele>332</ele>
        <time>2013-01-06T10:33:59Z</time>
      </trkpt>
      <trkpt lat="45.85411" lon="4.82341">
        <ele>334</ele>
        <time>2013-01-06T10:34:01Z</time>
      </trkpt>
      <trkpt lat="45.85413" lon="4.82338">
        <ele>337</ele>
        <time>2013-01-06T10:34:03Z</time>
      </trkpt>
      <trkpt lat="45.85414" lon="4.82329">
        <ele>338</ele>
        <time>2013-01-06T10:34:08Z</time>
      </trkpt>
      <trkpt lat="45.85413" lon="4.82319">
        <ele>333</ele>
        <time>2013-01-06T10:34:13Z</time>
      </trkpt>
      <trkpt lat="45.85413" lon="4.82317">
        <ele>332</ele>
        <time>2013-01-06T10:34:14Z</time>
      </trkpt>
      <trkpt lat="45.85414" lon="4.82307">
        <ele>329</ele>
        <time>2013-01-06T10:34:18Z</time>
      </trkpt>
      <trkpt lat="45.85415" lon="4.82303">
        <ele>329</ele>
        <time>2013-01-06T10:34:20Z</time>
      </trkpt>
      <trkpt lat="45.85416" lon="4.82296">
        <ele>328</ele>
        <time>2013-01-06T10:34:24Z</time>
      </trkpt>
      <trkpt lat="45.85416" lon="4.82295">
        <ele>328</ele>
        <time>2013-01-06T10:34:25Z</time>
      </trkpt>
      <trkpt lat="45.85416" lon="4.82294">
        <ele>328</ele>
        <time>2013-01-06T10:34:26Z</time>
      </trkpt>
      <trkpt lat="45.85416" lon="4.82293">
        <ele>328</ele>
        <time>2013-01-06T10:34:27Z</time>
      </trkpt>
      <trkpt lat="45.85415" lon="4.8229">
        <ele>328</ele>
        <time>2013-01-06T10:34:32Z</time>
      </trkpt>
      <trkpt lat="45.85411" lon="4.82288">
        <ele>327</ele>
        <time>2013-01-06T10:34:39Z</time>
      </trkpt>
      <trkpt lat="45.85405" lon="4.82287">
        <ele>327</ele>
        <time>2013-01-06T10:34:45Z</time>
      </trkpt>
      <trkpt lat="45.85404" lon="4.82287">
        <ele>326</ele>
        <time>2013-01-06T10:34:47Z</time>
      </trkpt>
      <trkpt lat="45.85399" lon="4.82286">
        <ele>326</ele>
        <time>2013-01-06T10:34:50Z</time>
      </trkpt>
      <trkpt lat="45.85399" lon="4.82284">
        <ele>326</ele>
        <time>2013-01-06T10:34:51Z</time>
      </trkpt>
      <trkpt lat="45.85397" lon="4.82275">
        <ele>326</ele>
        <time>2013-01-06T10:34:57Z</time>
      </trkpt>
      <trkpt lat="45.85394" lon="4.82265">
        <ele>327</ele>
        <time>2013-01-06T10:35:04Z</time>
      </trkpt>
      <trkpt lat="45.85391" lon="4.82264">
        <ele>325</ele>
        <time>2013-01-06T10:35:06Z</time>
      </trkpt>
      <trkpt lat="45.85388" lon="4.82261">
        <ele>325</ele>
        <time>2013-01-06T10:35:08Z</time>
      </trkpt>
      <trkpt lat="45.85386" lon="4.82257">
        <ele>324</ele>
        <time>2013-01-06T10:35:11Z</time>
      </trkpt>
      <trkpt lat="45.85386" lon="4.82257">
        <ele>324</ele>
        <time>2013-01-06T10:35:12Z</time>
      </trkpt>
      <trkpt lat="45.85386" lon="4.82249">
        <ele>327</ele>
        <time>2013-01-06T10:35:24Z</time>
      </trkpt>
      <trkpt lat="45.85386" lon="4.82245">
        <ele>327</ele>
        <time>2013-01-06T10:35:31Z</time>
      </trkpt>
      <trkpt lat="45.85384" lon="4.82241">
        <ele>326</ele>
        <time>2013-01-06T10:35:36Z</time>
      </trkpt>
      <trkpt lat="45.85384" lon="4.8224">
        <ele>326</ele>
        <time>2013-01-06T10:35:37Z</time>
      </trkpt>
      <trkpt lat="45.85385" lon="4.82232">
        <ele>326</ele>
        <time>2013-01-06T10:35:43Z</time>
      </trkpt>
      <trkpt lat="45.85386" lon="4.82231">
        <ele>326</ele>
        <time>2013-01-06T10:35:44Z</time>
      </trkpt>
      <trkpt lat="45.85387" lon="4.82226">
        <ele>327</ele>
        <time>2013-01-06T10:35:47Z</time>
      </trkpt>
      <trkpt lat="45.85387" lon="4.82225">
        <ele>326</ele>
        <time>2013-01-06T10:35:48Z</time>
      </trkpt>
      <trkpt lat="45.85386" lon="4.82216">
        <ele>326</ele>
        <time>2013-01-06T10:36:00Z</time>
      </trkpt>
      <trkpt lat="45.85386" lon="4.82214">
        <ele>326</ele>
        <time>2013-01-06T10:36:01Z</time>
      </trkpt>
      <trkpt lat="45.85389" lon="4.82205">
        <ele>327</ele>
        <time>2013-01-06T10:36:06Z</time>
      </trkpt>
      <trkpt lat="45.85392" lon="4.82197">
        <ele>328</ele>
        <time>2013-01-06T10:36:12Z</time>
      </trkpt>
      <trkpt lat="45.85394" lon="4.82194">
        <ele>328</ele>
        <time>2013-01-06T10:36:16Z</time>
      </trkpt>
      <trkpt lat="45.85395" lon="4.82192">
        <ele>328</ele>
        <time>2013-01-06T10:36:17Z</time>
      </trkpt>
      <trkpt lat="45.85396" lon="4.8219">
        <ele>329</ele>
        <time>2013-01-06T10:36:19Z</time>
      </trkpt>
      <trkpt lat="45.854" lon="4.82183">
        <ele>330</ele>
        <time>2013-01-06T10:36:27Z</time>
      </trkpt>
      <trkpt lat="45.85401" lon="4.82175">
        <ele>332</ele>
        <time>2013-01-06T10:36:32Z</time>
      </trkpt>
      <trkpt lat="45.85401" lon="4.82174">
        <ele>332</ele>
        <time>2013-01-06T10:36:33Z</time>
      </trkpt>
      <trkpt lat="45.85402" lon="4.8217">
        <ele>333</ele>
        <time>2013-01-06T10:36:36Z</time>
      </trkpt>
      <trkpt lat="45.85403" lon="4.82169">
        <ele>333</ele>
        <time>2013-01-06T10:36:37Z</time>
      </trkpt>
      <trkpt lat="45.85404" lon="4.82169">
        <ele>333</ele>
        <time>2013-01-06T10:36:38Z</time>
      </trkpt>
      <trkpt lat="45.85404" lon="4.82169">
        <ele>334</ele>
        <time>2013-01-06T10:36:39Z</time>
      </trkpt>
      <trkpt lat="45.85404" lon="4.82162">
        <ele>337</ele>
        <time>2013-01-06T10:36:43Z</time>
      </trkpt>
      <trkpt lat="45.85406" lon="4.82154">
        <ele>336</ele>
        <time>2013-01-06T10:36:48Z</time>
      </trkpt>
      <trkpt lat="45.85407" lon="4.82146">
        <ele>336</ele>
        <time>2013-01-06T10:36:53Z</time>
      </trkpt>
      <trkpt lat="45.85407" lon="4.82141">
        <ele>336</ele>
        <time>2013-01-06T10:36:56Z</time>
      </trkpt>
      <trkpt lat="45.85407" lon="4.82138">
        <ele>336</ele>
        <time>2013-01-06T10:36:58Z</time>
      </trkpt>
      <trkpt lat="45.85409" lon="4.82135">
        <ele>336</ele>
        <time>2013-01-06T10:37:00Z</time>
      </trkpt>
      <trkpt lat="45.85411" lon="4.82132">
        <ele>336</ele>
        <time>2013-01-06T10:37:04Z</time>
      </trkpt>
      <trkpt lat="45.85412" lon="4.82134">
        <ele>336</ele>
        <time>2013-01-06T10:37:10Z</time>
      </trkpt>
      <trkpt lat="45.85414" lon="4.82137">
        <ele>336</ele>
        <time>2013-01-06T10:37:15Z</time>
      </trkpt>
      <trkpt lat="45.85415" lon="4.82137">
        <ele>336</ele>
        <time>2013-01-06T10:37:17Z</time>
      </trkpt>
      <trkpt lat="45.85417" lon="4.82136">
        <ele>354</ele>
        <time>2013-01-06T10:37:21Z</time>
      </trkpt>
      <trkpt lat="45.85421" lon="4.82135">
        <ele>354</ele>
        <time>2013-01-06T10:37:27Z</time>
      </trkpt>
      <trkpt lat="45.85421" lon="4.82137">
        <ele>354</ele>
        <time>2013-01-06T10:37:33Z</time>
      </trkpt>
      <trkpt lat="45.85423" lon="4.82136">
        <ele>354</ele>
        <time>2013-01-06T10:37:40Z</time>
      </trkpt>
      <trkpt lat="45.85426" lon="4.82133">
        <ele>355</ele>
        <time>2013-01-06T10:37:46Z</time>
      </trkpt>
      <trkpt lat="45.85427" lon="4.82129">
        <ele>356</ele>
        <time>2013-01-06T10:37:50Z</time>
      </trkpt>
      <trkpt lat="45.85427" lon="4.82123">
        <ele>356</ele>
        <time>2013-01-06T10:37:53Z</time>
      </trkpt>
      <trkpt lat="45.85425" lon="4.82118">
        <ele>356</ele>
        <time>2013-01-06T10:37:55Z</time>
      </trkpt>
      <trkpt lat="45.85424" lon="4.82114">
        <ele>355</ele>
        <time>2013-01-06T10:37:57Z</time>
      </trkpt>
      <trkpt lat="45.85422" lon="4.82103">
        <ele>353</ele>
        <time>2013-01-06T10:38:02Z</time>
      </trkpt>
      <trkpt lat="45.85422" lon="4.82084">
        <ele>347</ele>
        <time>2013-01-06T10:38:08Z</time>
      </trkpt>
      <trkpt lat="45.85421" lon="4.82077">
        <ele>350</ele>
        <time>2013-01-06T10:38:12Z</time>
      </trkpt>
      <trkpt lat="45.8542" lon="4.82075">
        <ele>351</ele>
        <time>2013-01-06T10:38:13Z</time>
      </trkpt>
      <trkpt lat="45.85419" lon="4.82066">
        <ele>356</ele>
        <time>2013-01-06T10:38:18Z</time>
      </trkpt>
      <trkpt lat="45.85416" lon="4.82058">
        <ele>348</ele>
        <time>2013-01-06T10:38:22Z</time>
      </trkpt>
      <trkpt lat="45.85413" lon="4.82053">
        <ele>348</ele>
        <time>2013-01-06T10:38:25Z</time>
      </trkpt>
      <trkpt lat="45.85412" lon="4.82051">
        <ele>349</ele>
        <time>2013-01-06T10:38:27Z</time>
      </trkpt>
      <trkpt lat="45.85406" lon="4.82048">
        <ele>349</ele>
        <time>2013-01-06T10:38:29Z</time>
      </trkpt>
      <trkpt lat="45.85401" lon="4.82045">
        <ele>349</ele>
        <time>2013-01-06T10:38:32Z</time>
      </trkpt>
      <trkpt lat="45.85395" lon="4.82045">
        <ele>349</ele>
        <time>2013-01-06T10:38:35Z</time>
      </trkpt>
      <trkpt lat="45.85388" lon="4.82044">
        <ele>350</ele>
        <time>2013-01-06T10:38:38Z</time>
      </trkpt>
      <trkpt lat="45.85384" lon="4.82044">
        <ele>350</ele>
        <time>2013-01-06T10:38:40Z</time>
      </trkpt>
      <trkpt lat="45.85381" lon="4.82042">
        <ele>350</ele>
        <time>2013-01-06T10:38:43Z</time>
      </trkpt>
      <trkpt lat="45.85378" lon="4.8204">
        <ele>350</ele>
        <time>2013-01-06T10:38:52Z</time>
      </trkpt>
      <trkpt lat="45.85378" lon="4.82041">
        <ele>350</ele>
        <time>2013-01-06T10:38:55Z</time>
      </trkpt>
      <trkpt lat="45.8538" lon="4.82043">
        <ele>350</ele>
        <time>2013-01-06T10:38:57Z</time>
      </trkpt>
      <trkpt lat="45.85381" lon="4.82046">
        <ele>349</ele>
        <time>2013-01-06T10:38:59Z</time>
      </trkpt>
      <trkpt lat="45.85381" lon="4.82052">
        <ele>349</ele>
        <time>2013-01-06T10:39:04Z</time>
      </trkpt>
      <trkpt lat="45.8538" lon="4.82053">
        <ele>349</ele>
        <time>2013-01-06T10:39:05Z</time>
      </trkpt>
      <trkpt lat="45.85379" lon="4.82059">
        <ele>348</ele>
        <time>2013-01-06T10:39:11Z</time>
      </trkpt>
      <trkpt lat="45.85379" lon="4.82062">
        <ele>348</ele>
        <time>2013-01-06T10:39:13Z</time>
      </trkpt>
      <trkpt lat="45.85378" lon="4.82064">
        <ele>348</ele>
        <time>2013-01-06T10:39:15Z</time>
      </trkpt>
      <trkpt lat="45.85377" lon="4.82065">
        <ele>347</ele>
        <time>2013-01-06T10:39:16Z</time>
      </trkpt>
      <trkpt lat="45.85376" lon="4.82069">
        <ele>347</ele>
        <time>2013-01-06T10:39:19Z</time>
      </trkpt>
      <trkpt lat="45.85375" lon="4.82074">
        <ele>347</ele>
        <time>2013-01-06T10:39:21Z</time>
      </trkpt>
      <trkpt lat="45.85369" lon="4.82073">
        <ele>346</ele>
        <time>2013-01-06T10:39:27Z</time>
      </trkpt>
      <trkpt lat="45.85368" lon="4.82073">
        <ele>346</ele>
        <time>2013-01-06T10:39:28Z</time>
      </trkpt>
      <trkpt lat="45.85367" lon="4.82072">
        <ele>346</ele>
        <time>2013-01-06T10:39:32Z</time>
      </trkpt>
      <trkpt lat="45.85366" lon="4.82072">
        <ele>346</ele>
        <time>2013-01-06T10:39:33Z</time>
      </trkpt>
      <trkpt lat="45.85364" lon="4.82075">
        <ele>346</ele>
        <time>2013-01-06T10:39:37Z</time>
      </trkpt>
      <trkpt lat="45.85362" lon="4.82077">
        <ele>346</ele>
        <time>2013-01-06T10:39:39Z</time>
      </trkpt>
      <trkpt lat="45.85361" lon="4.82079">
        <ele>345</ele>
        <time>2013-01-06T10:39:40Z</time>
      </trkpt>
      <trkpt lat="45.85359" lon="4.82082">
        <ele>345</ele>
        <time>2013-01-06T10:39:44Z</time>
      </trkpt>
      <trkpt lat="45.85358" lon="4.82087">
        <ele>336</ele>
        <time>2013-01-06T10:39:48Z</time>
      </trkpt>
      <trkpt lat="45.85358" lon="4.82087">
        <ele>336</ele>
        <time>2013-01-06T10:39:49Z</time>
      </trkpt>
      <trkpt lat="45.85359" lon="4.82097">
        <ele>335</ele>
        <time>2013-01-06T10:40:01Z</time>
      </trkpt>
      <trkpt lat="45.85359" lon="4.82097">
        <ele>335</ele>
        <time>2013-01-06T10:40:02Z</time>
      </trkpt>
      <trkpt lat="45.85359" lon="4.82102">
        <ele>335</ele>
        <time>2013-01-06T10:40:11Z</time>
      </trkpt>
      <trkpt lat="45.8536" lon="4.82103">
        <ele>335</ele>
        <time>2013-01-06T10:40:12Z</time>
      </trkpt>
      <trkpt lat="45.85356" lon="4.82103">
        <ele>334</ele>
        <time>2013-01-06T10:40:17Z</time>
      </trkpt>
      <trkpt lat="45.8535" lon="4.82114">
        <ele>333</ele>
        <time>2013-01-06T10:40:23Z</time>
      </trkpt>
      <trkpt lat="45.8535" lon="4.82117">
        <ele>333</ele>
        <time>2013-01-06T10:40:24Z</time>
      </trkpt>
      <trkpt lat="45.8535" lon="4.82123">
        <ele>332</ele>
        <time>2013-01-06T10:40:27Z</time>
      </trkpt>
      <trkpt lat="45.8535" lon="4.82124">
        <ele>331</ele>
        <time>2013-01-06T10:40:28Z</time>
      </trkpt>
      <trkpt lat="45.85348" lon="4.82128">
        <ele>331</ele>
        <time>2013-01-06T10:40:31Z</time>
      </trkpt>
      <trkpt lat="45.85348" lon="4.82131">
        <ele>330</ele>
        <time>2013-01-06T10:40:33Z</time>
      </trkpt>
      <trkpt lat="45.85346" lon="4.82136">
        <ele>329</ele>
        <time>2013-01-06T10:40:36Z</time>
      </trkpt>
      <trkpt lat="45.85345" lon="4.8214">
        <ele>328</ele>
        <time>2013-01-06T10:40:39Z</time>
      </trkpt>
      <trkpt lat="45.85344" lon="4.82142">
        <ele>327</ele>
        <time>2013-01-06T10:40:41Z</time>
      </trkpt>
      <trkpt lat="45.85343" lon="4.82143">
        <ele>327</ele>
        <time>2013-01-06T10:40:42Z</time>
      </trkpt>
      <trkpt lat="45.85336" lon="4.82152">
        <ele>322</ele>
        <time>2013-01-06T10:40:47Z</time>
      </trkpt>
      <trkpt lat="45.85332" lon="4.82154">
        <ele>323</ele>
        <time>2013-01-06T10:40:50Z</time>
      </trkpt>
      <trkpt lat="45.85328" lon="4.82154">
        <ele>324</ele>
        <time>2013-01-06T10:40:52Z</time>
      </trkpt>
      <trkpt lat="45.85326" lon="4.82154">
        <ele>324</ele>
        <time>2013-01-06T10:40:53Z</time>
      </trkpt>
      <trkpt lat="45.85316" lon="4.82148">
        <ele>329</ele>
        <time>2013-01-06T10:40:57Z</time>
      </trkpt>
      <trkpt lat="45.85314" lon="4.82147">
        <ele>330</ele>
        <time>2013-01-06T10:40:59Z</time>
      </trkpt>
      <trkpt lat="45.85311" lon="4.82146">
        <ele>331</ele>
        <time>2013-01-06T10:41:03Z</time>
      </trkpt>
      <trkpt lat="45.85309" lon="4.82149">
        <ele>331</ele>
        <time>2013-01-06T10:41:10Z</time>
      </trkpt>
      <trkpt lat="45.85312" lon="4.8215">
        <ele>330</ele>
        <time>2013-01-06T10:41:22Z</time>
      </trkpt>
      <trkpt lat="45.85312" lon="4.82153">
        <ele>329</ele>
        <time>2013-01-06T10:41:26Z</time>
      </trkpt>
      <trkpt lat="45.85312" lon="4.82153">
        <ele>329</ele>
        <time>2013-01-06T10:41:28Z</time>
      </trkpt>
      <trkpt lat="45.85315" lon="4.82156">
        <ele>327</ele>
        <time>2013-01-06T10:41:40Z</time>
      </trkpt>
      <trkpt lat="45.85319" lon="4.82155">
        <ele>326</ele>
        <time>2013-01-06T10:41:52Z</time>
      </trkpt>
      <trkpt lat="45.85317" lon="4.82155">
        <ele>327</ele>
        <time>2013-01-06T10:41:58Z</time>
      </trkpt>
      <trkpt lat="45.85316" lon="4.82155">
        <ele>327</ele>
        <time>2013-01-06T10:41:59Z</time>
      </trkpt>
      <trkpt lat="45.85315" lon="4.82157">
        <ele>327</ele>
        <time>2013-01-06T10:42:01Z</time>
      </trkpt>
      <trkpt lat="45.85311" lon="4.82162">
        <ele>328</ele>
        <time>2013-01-06T10:42:04Z</time>
      </trkpt>
      <trkpt lat="45.85305" lon="4.82171">
        <ele>316</ele>
        <time>2013-01-06T10:42:08Z</time>
      </trkpt>
      <trkpt lat="45.85301" lon="4.82176">
        <ele>317</ele>
        <time>2013-01-06T10:42:10Z</time>
      </trkpt>
      <trkpt lat="45.85299" lon="4.82181">
        <ele>317</ele>
        <time>2013-01-06T10:42:12Z</time>
      </trkpt>
      <trkpt lat="45.85294" lon="4.82188">
        <ele>317</ele>
        <time>2013-01-06T10:42:15Z</time>
      </trkpt>
      <trkpt lat="45.85292" lon="4.82189">
        <ele>317</ele>
        <time>2013-01-06T10:42:16Z</time>
      </trkpt>
      <trkpt lat="45.85289" lon="4.8219">
        <ele>317</ele>
        <time>2013-01-06T10:42:20Z</time>
      </trkpt>
      <trkpt lat="45.85289" lon="4.82191">
        <ele>317</ele>
        <time>2013-01-06T10:42:21Z</time>
      </trkpt>
      <trkpt lat="45.85288" lon="4.82193">
        <ele>317</ele>
        <time>2013-01-06T10:42:22Z</time>
      </trkpt>
      <trkpt lat="45.85285" lon="4.822">
        <ele>316</ele>
        <time>2013-01-06T10:42:25Z</time>
      </trkpt>
      <trkpt lat="45.85281" lon="4.82206">
        <ele>316</ele>
        <time>2013-01-06T10:42:27Z</time>
      </trkpt>
      <trkpt lat="45.85277" lon="4.82211">
        <ele>316</ele>
        <time>2013-01-06T10:42:29Z</time>
      </trkpt>
      <trkpt lat="45.8527" lon="4.82211">
        <ele>316</ele>
        <time>2013-01-06T10:42:33Z</time>
      </trkpt>
      <trkpt lat="45.85268" lon="4.82212">
        <ele>316</ele>
        <time>2013-01-06T10:42:34Z</time>
      </trkpt>
      <trkpt lat="45.85266" lon="4.82213">
        <ele>316</ele>
        <time>2013-01-06T10:42:35Z</time>
      </trkpt>
      <trkpt lat="45.85261" lon="4.82211">
        <ele>317</ele>
        <time>2013-01-06T10:42:39Z</time>
      </trkpt>
      <trkpt lat="45.85258" lon="4.82205">
        <ele>318</ele>
        <time>2013-01-06T10:42:46Z</time>
      </trkpt>
      <trkpt lat="45.85271" lon="4.82214">
        <ele>315</ele>
        <time>2013-01-06T10:43:15Z</time>
      </trkpt>
      <trkpt lat="45.85275" lon="4.8221">
        <ele>316</ele>
        <time>2013-01-06T10:43:18Z</time>
      </trkpt>
      <trkpt lat="45.85277" lon="4.82211">
        <ele>316</ele>
        <time>2013-01-06T10:43:20Z</time>
      </trkpt>
      <trkpt lat="45.85276" lon="4.82217">
        <ele>315</ele>
        <time>2013-01-06T10:43:24Z</time>
      </trkpt>
      <trkpt lat="45.85276" lon="4.82223">
        <ele>314</ele>
        <time>2013-01-06T10:43:28Z</time>
      </trkpt>
      <trkpt lat="45.85276" lon="4.82225">
        <ele>313</ele>
        <time>2013-01-06T10:43:30Z</time>
      </trkpt>
      <trkpt lat="45.85276" lon="4.8223">
        <ele>313</ele>
        <time>2013-01-06T10:43:34Z</time>
      </trkpt>
      <trkpt lat="45.85275" lon="4.8223">
        <ele>313</ele>
        <time>2013-01-06T10:43:35Z</time>
      </trkpt>
      <trkpt lat="45.85278" lon="4.82236">
        <ele>312</ele>
        <time>2013-01-06T10:43:47Z</time>
      </trkpt>
      <trkpt lat="45.85284" lon="4.82227">
        <ele>313</ele>
        <time>2013-01-06T10:43:53Z</time>
      </trkpt>
      <trkpt lat="45.85284" lon="4.82225">
        <ele>313</ele>
        <time>2013-01-06T10:43:54Z</time>
      </trkpt>
      <trkpt lat="45.8529" lon="4.82221">
        <ele>313</ele>
        <time>2013-01-06T10:43:57Z</time>
      </trkpt>
      <trkpt lat="45.85293" lon="4.82219">
        <ele>313</ele>
        <time>2013-01-06T10:43:58Z</time>
      </trkpt>
      <trkpt lat="45.85294" lon="4.82221">
        <ele>313</ele>
        <time>2013-01-06T10:43:59Z</time>
      </trkpt>
      <trkpt lat="45.85296" lon="4.82225">
        <ele>312</ele>
        <time>2013-01-06T10:44:02Z</time>
      </trkpt>
      <trkpt lat="45.85296" lon="4.82228">
        <ele>312</ele>
        <time>2013-01-06T10:44:03Z</time>
      </trkpt>
      <trkpt lat="45.85296" lon="4.8223">
        <ele>312</ele>
        <time>2013-01-06T10:44:04Z</time>
      </trkpt>
      <trkpt lat="45.85295" lon="4.82234">
        <ele>312</ele>
        <time>2013-01-06T10:44:07Z</time>
      </trkpt>
      <trkpt lat="45.85294" lon="4.82238">
        <ele>311</ele>
        <time>2013-01-06T10:44:08Z</time>
      </trkpt>
      <trkpt lat="45.85291" lon="4.82245">
        <ele>311</ele>
        <time>2013-01-06T10:44:12Z</time>
      </trkpt>
      <trkpt lat="45.85289" lon="4.82251">
        <ele>299</ele>
        <time>2013-01-06T10:44:16Z</time>
      </trkpt>
      <trkpt lat="45.85288" lon="4.82252">
        <ele>299</ele>
        <time>2013-01-06T10:44:17Z</time>
      </trkpt>
      <trkpt lat="45.85288" lon="4.82255">
        <ele>299</ele>
        <time>2013-01-06T10:44:19Z</time>
      </trkpt>
      <trkpt lat="45.85291" lon="4.82257">
        <ele>299</ele>
        <time>2013-01-06T10:44:22Z</time>
      </trkpt>
      <trkpt lat="45.85291" lon="4.82256">
        <ele>299</ele>
        <time>2013-01-06T10:44:23Z</time>
      </trkpt>
      <trkpt lat="45.8529" lon="4.82253">
        <ele>299</ele>
        <time>2013-01-06T10:44:24Z</time>
      </trkpt>
      <trkpt lat="45.85288" lon="4.82252">
        <ele>299</ele>
        <time>2013-01-06T10:44:26Z</time>
      </trkpt>
      <trkpt lat="45.85288" lon="4.82257">
        <ele>299</ele>
        <time>2013-01-06T10:44:33Z</time>
      </trkpt>
      <trkpt lat="45.85289" lon="4.82264">
        <ele>298</ele>
        <time>2013-01-06T10:44:37Z</time>
      </trkpt>
      <trkpt lat="45.85289" lon="4.82267">
        <ele>298</ele>
        <time>2013-01-06T10:44:40Z</time>
      </trkpt>
      <trkpt lat="45.85287" lon="4.8227">
        <ele>298</ele>
        <time>2013-01-06T10:44:44Z</time>
      </trkpt>
      <trkpt lat="45.85287" lon="4.82272">
        <ele>298</ele>
        <time>2013-01-06T10:44:45Z</time>
      </trkpt>
      <trkpt lat="45.85285" lon="4.82279">
        <ele>297</ele>
        <time>2013-01-06T10:44:48Z</time>
      </trkpt>
      <trkpt lat="45.85281" lon="4.82291">
        <ele>295</ele>
        <time>2013-01-06T10:44:52Z</time>
      </trkpt>
      <trkpt lat="45.8528" lon="4.82294">
        <ele>295</ele>
        <time>2013-01-06T10:44:53Z</time>
      </trkpt>
      <trkpt lat="45.85277" lon="4.82302">
        <ele>293</ele>
        <time>2013-01-06T10:44:56Z</time>
      </trkpt>
      <trkpt lat="45.85275" lon="4.82309">
        <ele>292</ele>
        <time>2013-01-06T10:44:58Z</time>
      </trkpt>
      <trkpt lat="45.85273" lon="4.82315">
        <ele>291</ele>
        <time>2013-01-06T10:45:00Z</time>
      </trkpt>
      <trkpt lat="45.85269" lon="4.82324">
        <ele>289</ele>
        <time>2013-01-06T10:45:04Z</time>
      </trkpt>
      <trkpt lat="45.85263" lon="4.82338">
        <ele>280</ele>
        <time>2013-01-06T10:45:09Z</time>
      </trkpt>
      <trkpt lat="45.85262" lon="4.82343">
        <ele>280</ele>
        <time>2013-01-06T10:45:11Z</time>
      </trkpt>
      <trkpt lat="45.85261" lon="4.82345">
        <ele>280</ele>
        <time>2013-01-06T10:45:12Z</time>
      </trkpt>
      <trkpt lat="45.85259" lon="4.82352">
        <ele>280</ele>
        <time>2013-01-06T10:45:15Z</time>
      </trkpt>
      <trkpt lat="45.85259" lon="4.82354">
        <ele>280</ele>
        <time>2013-01-06T10:45:16Z</time>
      </trkpt>
      <trkpt lat="45.85259" lon="4.82363">
        <ele>279</ele>
        <time>2013-01-06T10:45:20Z</time>
      </trkpt>
      <trkpt lat="45.85259" lon="4.82365">
        <ele>279</ele>
        <time>2013-01-06T10:45:21Z</time>
      </trkpt>
      <trkpt lat="45.85258" lon="4.82368">
        <ele>279</ele>
        <time>2013-01-06T10:45:22Z</time>
      </trkpt>
      <trkpt lat="45.85256" lon="4.82375">
        <ele>278</ele>
        <time>2013-01-06T10:45:25Z</time>
      </trkpt>
      <trkpt lat="45.85255" lon="4.8238">
        <ele>277</ele>
        <time>2013-01-06T10:45:27Z</time>
      </trkpt>
      <trkpt lat="45.85253" lon="4.82389">
        <ele>275</ele>
        <time>2013-01-06T10:45:31Z</time>
      </trkpt>
      <trkpt lat="45.85252" lon="4.82391">
        <ele>275</ele>
        <time>2013-01-06T10:45:32Z</time>
      </trkpt>
      <trkpt lat="45.85252" lon="4.82399">
        <ele>272</ele>
        <time>2013-01-06T10:45:35Z</time>
      </trkpt>
      <trkpt lat="45.85251" lon="4.82401">
        <ele>272</ele>
        <time>2013-01-06T10:45:36Z</time>
      </trkpt>
      <trkpt lat="45.8525" lon="4.82405">
        <ele>273</ele>
        <time>2013-01-06T10:45:38Z</time>
      </trkpt>
      <trkpt lat="45.85247" lon="4.82408">
        <ele>271</ele>
        <time>2013-01-06T10:45:41Z</time>
      </trkpt>
      <trkpt lat="45.85246" lon="4.82412">
        <ele>269</ele>
        <time>2013-01-06T10:45:43Z</time>
      </trkpt>
      <trkpt lat="45.85245" lon="4.82417">
        <ele>263</ele>
        <time>2013-01-06T10:45:46Z</time>
      </trkpt>
      <trkpt lat="45.85245" lon="4.8242">
        <ele>264</ele>
        <time>2013-01-06T10:45:47Z</time>
      </trkpt>
      <trkpt lat="45.85241" lon="4.82436">
        <ele>264</ele>
        <time>2013-01-06T10:45:52Z</time>
      </trkpt>
      <trkpt lat="45.85242" lon="4.82454">
        <ele>262</ele>
        <time>2013-01-06T10:45:57Z</time>
      </trkpt>
      <trkpt lat="45.85244" lon="4.82461">
        <ele>261</ele>
        <time>2013-01-06T10:45:59Z</time>
      </trkpt>
      <trkpt lat="45.85244" lon="4.8247">
        <ele>260</ele>
        <time>2013-01-06T10:46:02Z</time>
      </trkpt>
      <trkpt lat="45.85237" lon="4.82469">
        <ele>260</ele>
        <time>2013-01-06T10:46:06Z</time>
      </trkpt>
      <trkpt lat="45.8523" lon="4.8247">
        <ele>261</ele>
        <time>2013-01-06T10:46:09Z</time>
      </trkpt>
      <trkpt lat="45.85226" lon="4.82474">
        <ele>261</ele>
        <time>2013-01-06T10:46:12Z</time>
      </trkpt>
      <trkpt lat="45.85222" lon="4.82483">
        <ele>260</ele>
        <time>2013-01-06T10:46:18Z</time>
      </trkpt>
      <trkpt lat="45.85221" lon="4.82484">
        <ele>260</ele>
        <time>2013-01-06T10:46:19Z</time>
      </trkpt>
      <trkpt lat="45.85219" lon="4.8249">
        <ele>259</ele>
        <time>2013-01-06T10:46:22Z</time>
      </trkpt>
      <trkpt lat="45.85219" lon="4.82492">
        <ele>259</ele>
        <time>2013-01-06T10:46:23Z</time>
      </trkpt>
      <trkpt lat="45.85219" lon="4.82494">
        <ele>259</ele>
        <time>2013-01-06T10:46:24Z</time>
      </trkpt>
      <trkpt lat="45.8522" lon="4.82496">
        <ele>259</ele>
        <time>2013-01-06T10:46:25Z</time>
      </trkpt>
      <trkpt lat="45.85218" lon="4.82505">
        <ele>249</ele>
        <time>2013-01-06T10:46:28Z</time>
      </trkpt>
      <trkpt lat="45.85214" lon="4.82508">
        <ele>249</ele>
        <time>2013-01-06T10:46:30Z</time>
      </trkpt>
      <trkpt lat="45.85211" lon="4.82509">
        <ele>249</ele>
        <time>2013-01-06T10:46:31Z</time>
      </trkpt>
      <trkpt lat="45.85209" lon="4.82511">
        <ele>249</ele>
        <time>2013-01-06T10:46:32Z</time>
      </trkpt>
      <trkpt lat="45.85203" lon="4.82523">
        <ele>249</ele>
        <time>2013-01-06T10:46:37Z</time>
      </trkpt>
      <trkpt lat="45.85204" lon="4.8253">
        <ele>248</ele>
        <time>2013-01-06T10:46:39Z</time>
      </trkpt>
      <trkpt lat="45.85204" lon="4.82539">
        <ele>248</ele>
        <time>2013-01-06T10:46:41Z</time>
      </trkpt>
      <trkpt lat="45.85203" lon="4.82543">
        <ele>248</ele>
        <time>2013-01-06T10:46:42Z</time>
      </trkpt>
      <trkpt lat="45.85198" lon="4.82555">
        <ele>247</ele>
        <time>2013-01-06T10:46:46Z</time>
      </trkpt>
      <trkpt lat="45.85197" lon="4.82558">
        <ele>247</ele>
        <time>2013-01-06T10:46:47Z</time>
      </trkpt>
      <trkpt lat="45.85193" lon="4.82575">
        <ele>246</ele>
        <time>2013-01-06T10:46:52Z</time>
      </trkpt>
      <trkpt lat="45.85192" lon="4.82582">
        <ele>246</ele>
        <time>2013-01-06T10:46:54Z</time>
      </trkpt>
      <trkpt lat="45.85191" lon="4.82596">
        <ele>242</ele>
        <time>2013-01-06T10:46:58Z</time>
      </trkpt>
      <trkpt lat="45.85188" lon="4.8261">
        <ele>242</ele>
        <time>2013-01-06T10:47:02Z</time>
      </trkpt>
      <trkpt lat="45.85187" lon="4.82613">
        <ele>242</ele>
        <time>2013-01-06T10:47:03Z</time>
      </trkpt>
      <trkpt lat="45.85176" lon="4.82624">
        <ele>241</ele>
        <time>2013-01-06T10:47:08Z</time>
      </trkpt>
      <trkpt lat="45.85174" lon="4.82625">
        <ele>241</ele>
        <time>2013-01-06T10:47:09Z</time>
      </trkpt>
      <trkpt lat="45.85163" lon="4.82626">
        <ele>244</ele>
        <time>2013-01-06T10:47:13Z</time>
      </trkpt>
      <trkpt lat="45.85156" lon="4.82628">
        <ele>245</ele>
        <time>2013-01-06T10:47:16Z</time>
      </trkpt>
      <trkpt lat="45.85149" lon="4.82631">
        <ele>245</ele>
        <time>2013-01-06T10:47:19Z</time>
      </trkpt>
      <trkpt lat="45.85137" lon="4.82634">
        <ele>245</ele>
        <time>2013-01-06T10:47:24Z</time>
      </trkpt>
      <trkpt lat="45.85132" lon="4.82636">
        <ele>245</ele>
        <time>2013-01-06T10:47:26Z</time>
      </trkpt>
      <trkpt lat="45.8512" lon="4.8264">
        <ele>245</ele>
        <time>2013-01-06T10:47:31Z</time>
      </trkpt>
      <trkpt lat="45.85118" lon="4.82641">
        <ele>245</ele>
        <time>2013-01-06T10:47:32Z</time>
      </trkpt>
      <trkpt lat="45.85111" lon="4.82642">
        <ele>245</ele>
        <time>2013-01-06T10:47:36Z</time>
      </trkpt>
      <trkpt lat="45.85103" lon="4.82643">
        <ele>245</ele>
        <time>2013-01-06T10:47:43Z</time>
      </trkpt>
      <trkpt lat="45.85098" lon="4.82643">
        <ele>245</ele>
        <time>2013-01-06T10:47:47Z</time>
      </trkpt>
      <trkpt lat="45.85096" lon="4.82642">
        <ele>245</ele>
        <time>2013-01-06T10:47:50Z</time>
      </trkpt>
      <trkpt lat="45.85095" lon="4.82641">
        <ele>246</ele>
        <time>2013-01-06T10:47:51Z</time>
      </trkpt>
      <trkpt lat="45.85094" lon="4.82641">
        <ele>246</ele>
        <time>2013-01-06T10:47:52Z</time>
      </trkpt>
      <trkpt lat="45.85091" lon="4.8264">
        <ele>246</ele>
        <time>2013-01-06T10:47:55Z</time>
      </trkpt>
      <trkpt lat="45.85087" lon="4.82639">
        <ele>246</ele>
        <time>2013-01-06T10:48:00Z</time>
      </trkpt>
      <trkpt lat="45.85081" lon="4.82639">
        <ele>249</ele>
        <time>2013-01-06T10:48:05Z</time>
      </trkpt>
      <trkpt lat="45.8508" lon="4.82639">
        <ele>250</ele>
        <time>2013-01-06T10:48:06Z</time>
      </trkpt>
      <trkpt lat="45.85078" lon="4.82638">
        <ele>250</ele>
        <time>2013-01-06T10:48:07Z</time>
      </trkpt>
      <trkpt lat="45.85072" lon="4.82638">
        <ele>250</ele>
        <time>2013-01-06T10:48:11Z</time>
      </trkpt>
      <trkpt lat="45.85065" lon="4.82636">
        <ele>251</ele>
        <time>2013-01-06T10:48:17Z</time>
      </trkpt>
      <trkpt lat="45.85061" lon="4.82636">
        <ele>251</ele>
        <time>2013-01-06T10:48:20Z</time>
      </trkpt>
      <trkpt lat="45.85055" lon="4.82635">
        <ele>251</ele>
        <time>2013-01-06T10:48:24Z</time>
      </trkpt>
      <trkpt lat="45.85043" lon="4.82633">
        <ele>252</ele>
        <time>2013-01-06T10:48:29Z</time>
      </trkpt>
      <trkpt lat="45.8504" lon="4.82632">
        <ele>252</ele>
        <time>2013-01-06T10:48:30Z</time>
      </trkpt>
      <trkpt lat="45.85026" lon="4.82629">
        <ele>253</ele>
        <time>2013-01-06T10:48:36Z</time>
      </trkpt>
      <trkpt lat="45.85024" lon="4.82628">
        <ele>253</ele>
        <time>2013-01-06T10:48:37Z</time>
      </trkpt>
      <trkpt lat="45.85015" lon="4.82627">
        <ele>253</ele>
        <time>2013-01-06T10:48:42Z</time>
      </trkpt>
      <trkpt lat="45.85011" lon="4.82625">
        <ele>253</ele>
        <time>2013-01-06T10:48:46Z</time>
      </trkpt>
      <trkpt lat="45.85008" lon="4.82625">
        <ele>253</ele>
        <time>2013-01-06T10:48:49Z</time>
      </trkpt>
      <trkpt lat="45.85004" lon="4.82625">
        <ele>253</ele>
        <time>2013-01-06T10:48:52Z</time>
      </trkpt>
      <trkpt lat="45.85003" lon="4.82625">
        <ele>253</ele>
        <time>2013-01-06T10:48:54Z</time>
      </trkpt>
      <trkpt lat="45.85003" lon="4.82626">
        <ele>253</ele>
        <time>2013-01-06T10:48:55Z</time>
      </trkpt>
      <trkpt lat="45.85003" lon="4.82621">
        <ele>254</ele>
        <time>2013-01-06T10:49:00Z</time>
      </trkpt>
      <trkpt lat="45.85002" lon="4.82615">
        <ele>256</ele>
        <time>2013-01-06T10:49:06Z</time>
      </trkpt>
      <trkpt lat="45.85001" lon="4.82611">
        <ele>257</ele>
        <time>2013-01-06T10:49:10Z</time>
      </trkpt>
      <trkpt lat="45.85001" lon="4.82605">
        <ele>259</ele>
        <time>2013-01-06T10:49:16Z</time>
      </trkpt>
      <trkpt lat="45.85" lon="4.82604">
        <ele>259</ele>
        <time>2013-01-06T10:49:17Z</time>
      </trkpt>
      <trkpt lat="45.85" lon="4.82602">
        <ele>260</ele>
        <time>2013-01-06T10:49:18Z</time>
      </trkpt>
      <trkpt lat="45.85" lon="4.826">
        <ele>262</ele>
        <time>2013-01-06T10:49:20Z</time>
      </trkpt>
      <trkpt lat="45.85" lon="4.82594">
        <ele>264</ele>
        <time>2013-01-06T10:49:26Z</time>
      </trkpt>
      <trkpt lat="45.84997" lon="4.82589">
        <ele>265</ele>
        <time>2013-01-06T10:49:30Z</time>
      </trkpt>
      <trkpt lat="45.84995" lon="4.82583">
        <ele>270</ele>
        <time>2013-01-06T10:49:36Z</time>
      </trkpt>
      <trkpt lat="45.84993" lon="4.8258">
        <ele>271</ele>
        <time>2013-01-06T10:49:40Z</time>
      </trkpt>
      <trkpt lat="45.84992" lon="4.82578">
        <ele>272</ele>
        <time>2013-01-06T10:49:42Z</time>
      </trkpt>
      <trkpt lat="45.84992" lon="4.82572">
        <ele>273</ele>
        <time>2013-01-06T10:49:53Z</time>
      </trkpt>
      <trkpt lat="45.84994" lon="4.82568">
        <ele>275</ele>
        <time>2013-01-06T10:49:57Z</time>
      </trkpt>
      <trkpt lat="45.84994" lon="4.82567">
        <ele>275</ele>
        <time>2013-01-06T10:49:58Z</time>
      </trkpt>
      <trkpt lat="45.84995" lon="4.82565">
        <ele>275</ele>
        <time>2013-01-06T10:50:01Z</time>
      </trkpt>
      <trkpt lat="45.84997" lon="4.8256">
        <ele>276</ele>
        <time>2013-01-06T10:50:06Z</time>
      </trkpt>
      <trkpt lat="45.84998" lon="4.82555">
        <ele>278</ele>
        <time>2013-01-06T10:50:11Z</time>
      </trkpt>
      <trkpt lat="45.84998" lon="4.82553">
        <ele>278</ele>
        <time>2013-01-06T10:50:12Z</time>
      </trkpt>
      <trkpt lat="45.84997" lon="4.82551">
        <ele>279</ele>
        <time>2013-01-06T10:50:16Z</time>
      </trkpt>
      <trkpt lat="45.84998" lon="4.82546">
        <ele>280</ele>
        <time>2013-01-06T10:50:20Z</time>
      </trkpt>
      <trkpt lat="45.85" lon="4.82543">
        <ele>280</ele>
        <time>2013-01-06T10:50:25Z</time>
      </trkpt>
      <trkpt lat="45.84998" lon="4.82541">
        <ele>281</ele>
        <time>2013-01-06T10:50:34Z</time>
      </trkpt>
      <trkpt lat="45.84998" lon="4.82535">
        <ele>282</ele>
        <time>2013-01-06T10:50:41Z</time>
      </trkpt>
      <trkpt lat="45.84998" lon="4.82529">
        <ele>284</ele>
        <time>2013-01-06T10:50:46Z</time>
      </trkpt>
      <trkpt lat="45.84998" lon="4.82528">
        <ele>284</ele>
        <time>2013-01-06T10:50:47Z</time>
      </trkpt>
      <trkpt lat="45.84998" lon="4.82525">
        <ele>285</ele>
        <time>2013-01-06T10:50:50Z</time>
      </trkpt>
      <trkpt lat="45.84999" lon="4.82523">
        <ele>286</ele>
        <time>2013-01-06T10:50:51Z</time>
      </trkpt>
      <trkpt lat="45.84996" lon="4.82519">
        <ele>287</ele>
        <time>2013-01-06T10:50:55Z</time>
      </trkpt>
      <trkpt lat="45.84997" lon="4.82516">
        <ele>288</ele>
        <time>2013-01-06T10:50:59Z</time>
      </trkpt>
      <trkpt lat="45.84998" lon="4.82514">
        <ele>289</ele>
        <time>2013-01-06T10:51:04Z</time>
      </trkpt>
      <trkpt lat="45.85004" lon="4.82506">
        <ele>291</ele>
        <time>2013-01-06T10:51:16Z</time>
      </trkpt>
      <trkpt lat="45.85006" lon="4.82502">
        <ele>292</ele>
        <time>2013-01-06T10:51:23Z</time>
      </trkpt>
      <trkpt lat="45.85005" lon="4.82498">
        <ele>297</ele>
        <time>2013-01-06T10:51:28Z</time>
      </trkpt>
      <trkpt lat="45.85002" lon="4.82494">
        <ele>297</ele>
        <time>2013-01-06T10:51:36Z</time>
      </trkpt>
      <trkpt lat="45.85002" lon="4.82493">
        <ele>297</ele>
        <time>2013-01-06T10:51:38Z</time>
      </trkpt>
      <trkpt lat="45.85002" lon="4.82488">
        <ele>299</ele>
        <time>2013-01-06T10:51:42Z</time>
      </trkpt>
      <trkpt lat="45.85001" lon="4.82485">
        <ele>299</ele>
        <time>2013-01-06T10:51:44Z</time>
      </trkpt>
      <trkpt lat="45.85001" lon="4.82483">
        <ele>300</ele>
        <time>2013-01-06T10:51:47Z</time>
      </trkpt>
      <trkpt lat="45.85003" lon="4.82479">
        <ele>301</ele>
        <time>2013-01-06T10:51:51Z</time>
      </trkpt>
      <trkpt lat="45.85" lon="4.82475">
        <ele>300</ele>
        <time>2013-01-06T10:51:55Z</time>
      </trkpt>
      <trkpt lat="45.84997" lon="4.82468">
        <ele>301</ele>
        <time>2013-01-06T10:52:03Z</time>
      </trkpt>
      <trkpt lat="45.84994" lon="4.82462">
        <ele>302</ele>
        <time>2013-01-06T10:52:10Z</time>
      </trkpt>
      <trkpt lat="45.84991" lon="4.8246">
        <ele>303</ele>
        <time>2013-01-06T10:52:14Z</time>
      </trkpt>
      <trkpt lat="45.8499" lon="4.82459">
        <ele>303</ele>
        <time>2013-01-06T10:52:15Z</time>
      </trkpt>
      <trkpt lat="45.84987" lon="4.82456">
        <ele>303</ele>
        <time>2013-01-06T10:52:19Z</time>
      </trkpt>
      <trkpt lat="45.84982" lon="4.82448">
        <ele>304</ele>
        <time>2013-01-06T10:53:36Z</time>
      </trkpt>
      <trkpt lat="45.84979" lon="4.82449">
        <ele>304</ele>
        <time>2013-01-06T10:53:41Z</time>
      </trkpt>
      <trkpt lat="45.84978" lon="4.8245">
        <ele>304</ele>
        <time>2013-01-06T10:53:42Z</time>
      </trkpt>
      <trkpt lat="45.84974" lon="4.82453">
        <ele>303</ele>
        <time>2013-01-06T10:53:46Z</time>
      </trkpt>
      <trkpt lat="45.84972" lon="4.82453">
        <ele>303</ele>
        <time>2013-01-06T10:53:47Z</time>
      </trkpt>
      <trkpt lat="45.84966" lon="4.82456">
        <ele>302</ele>
        <time>2013-01-06T10:53:50Z</time>
      </trkpt>
      <trkpt lat="45.84958" lon="4.82458">
        <ele>302</ele>
        <time>2013-01-06T10:53:55Z</time>
      </trkpt>
      <trkpt lat="45.84949" lon="4.82465">
        <ele>300</ele>
        <time>2013-01-06T10:53:59Z</time>
      </trkpt>
      <trkpt lat="45.84946" lon="4.82467">
        <ele>300</ele>
        <time>2013-01-06T10:54:00Z</time>
      </trkpt>
      <trkpt lat="45.84937" lon="4.82473">
        <ele>299</ele>
        <time>2013-01-06T10:54:04Z</time>
      </trkpt>
      <trkpt lat="45.84932" lon="4.82477">
        <ele>298</ele>
        <time>2013-01-06T10:54:06Z</time>
      </trkpt>
      <trkpt lat="45.84923" lon="4.82481">
        <ele>296</ele>
        <time>2013-01-06T10:54:09Z</time>
      </trkpt>
      <trkpt lat="45.84915" lon="4.82485">
        <ele>292</ele>
        <time>2013-01-06T10:54:12Z</time>
      </trkpt>
      <trkpt lat="45.84909" lon="4.82487">
        <ele>291</ele>
        <time>2013-01-06T10:54:14Z</time>
      </trkpt>
      <trkpt lat="45.84895" lon="4.8249">
        <ele>291</ele>
        <time>2013-01-06T10:54:19Z</time>
      </trkpt>
      <trkpt lat="45.84885" lon="4.82494">
        <ele>291</ele>
        <time>2013-01-06T10:54:23Z</time>
      </trkpt>
      <trkpt lat="45.84877" lon="4.82497">
        <ele>291</ele>
        <time>2013-01-06T10:54:26Z</time>
      </trkpt>
      <trkpt lat="45.84872" lon="4.82498">
        <ele>290</ele>
        <time>2013-01-06T10:54:28Z</time>
      </trkpt>
      <trkpt lat="45.84858" lon="4.82498">
        <ele>289</ele>
        <time>2013-01-06T10:54:34Z</time>
      </trkpt>
      <trkpt lat="45.84843" lon="4.82499">
        <ele>285</ele>
        <time>2013-01-06T10:54:40Z</time>
      </trkpt>
      <trkpt lat="45.84839" lon="4.82499">
        <ele>284</ele>
        <time>2013-01-06T10:54:42Z</time>
      </trkpt>
      <trkpt lat="45.84837" lon="4.82499">
        <ele>283</ele>
        <time>2013-01-06T10:54:43Z</time>
      </trkpt>
      <trkpt lat="45.84834" lon="4.82497">
        <ele>282</ele>
        <time>2013-01-06T10:54:44Z</time>
      </trkpt>
      <trkpt lat="45.84822" lon="4.825">
        <ele>280</ele>
        <time>2013-01-06T10:54:49Z</time>
      </trkpt>
      <trkpt lat="45.84819" lon="4.82499">
        <ele>280</ele>
        <time>2013-01-06T10:54:50Z</time>
      </trkpt>
      <trkpt lat="45.84808" lon="4.825">
        <ele>278</ele>
        <time>2013-01-06T10:54:54Z</time>
      </trkpt>
      <trkpt lat="45.84799" lon="4.82501">
        <ele>268</ele>
        <time>2013-01-06T10:54:58Z</time>
      </trkpt>
      <trkpt lat="45.84789" lon="4.82502">
        <ele>266</ele>
        <time>2013-01-06T10:55:02Z</time>
      </trkpt>
      <trkpt lat="45.84781" lon="4.82504">
        <ele>265</ele>
        <time>2013-01-06T10:55:06Z</time>
      </trkpt>
      <trkpt lat="45.84779" lon="4.82506">
        <ele>265</ele>
        <time>2013-01-06T10:55:07Z</time>
      </trkpt>
      <trkpt lat="45.84773" lon="4.82509">
        <ele>264</ele>
        <time>2013-01-06T10:55:10Z</time>
      </trkpt>
      <trkpt lat="45.84769" lon="4.82511">
        <ele>263</ele>
        <time>2013-01-06T10:55:12Z</time>
      </trkpt>
      <trkpt lat="45.84763" lon="4.82512">
        <ele>263</ele>
        <time>2013-01-06T10:55:15Z</time>
      </trkpt>
      <trkpt lat="45.84761" lon="4.82512">
        <ele>263</ele>
        <time>2013-01-06T10:55:16Z</time>
      </trkpt>
      <trkpt lat="45.84752" lon="4.82516">
        <ele>262</ele>
        <time>2013-01-06T10:55:21Z</time>
      </trkpt>
      <trkpt lat="45.84745" lon="4.82518">
        <ele>254</ele>
        <time>2013-01-06T10:55:24Z</time>
      </trkpt>
      <trkpt lat="45.84739" lon="4.82518">
        <ele>253</ele>
        <time>2013-01-06T10:55:26Z</time>
      </trkpt>
      <trkpt lat="45.8473" lon="4.8252">
        <ele>251</ele>
        <time>2013-01-06T10:55:30Z</time>
      </trkpt>
      <trkpt lat="45.84728" lon="4.8252">
        <ele>251</ele>
        <time>2013-01-06T10:55:31Z</time>
      </trkpt>
      <trkpt lat="45.84726" lon="4.82521">
        <ele>250</ele>
        <time>2013-01-06T10:55:32Z</time>
      </trkpt>
      <trkpt lat="45.84722" lon="4.82525">
        <ele>249</ele>
        <time>2013-01-06T10:55:34Z</time>
      </trkpt>
      <trkpt lat="45.84717" lon="4.82529">
        <ele>248</ele>
        <time>2013-01-06T10:55:37Z</time>
      </trkpt>
      <trkpt lat="45.84713" lon="4.82535">
        <ele>247</ele>
        <time>2013-01-06T10:55:40Z</time>
      </trkpt>
      <trkpt lat="45.84712" lon="4.82539">
        <ele>247</ele>
        <time>2013-01-06T10:55:41Z</time>
      </trkpt>
      <trkpt lat="45.84708" lon="4.82539">
        <ele>246</ele>
        <time>2013-01-06T10:55:42Z</time>
      </trkpt>
      <trkpt lat="45.847" lon="4.82551">
        <ele>245</ele>
        <time>2013-01-06T10:55:46Z</time>
      </trkpt>
      <trkpt lat="45.84698" lon="4.82553">
        <ele>244</ele>
        <time>2013-01-06T10:55:47Z</time>
      </trkpt>
      <trkpt lat="45.84694" lon="4.82553">
        <ele>244</ele>
        <time>2013-01-06T10:55:48Z</time>
      </trkpt>
      <trkpt lat="45.84682" lon="4.82551">
        <ele>243</ele>
        <time>2013-01-06T10:55:52Z</time>
      </trkpt>
      <trkpt lat="45.84679" lon="4.8255">
        <ele>243</ele>
        <time>2013-01-06T10:55:53Z</time>
      </trkpt>
      <trkpt lat="45.84675" lon="4.82551">
        <ele>242</ele>
        <time>2013-01-06T10:55:55Z</time>
      </trkpt>
      <trkpt lat="45.84669" lon="4.8255">
        <ele>242</ele>
        <time>2013-01-06T10:55:57Z</time>
      </trkpt>
      <trkpt lat="45.84667" lon="4.82549">
        <ele>242</ele>
        <time>2013-01-06T10:55:58Z</time>
      </trkpt>
      <trkpt lat="45.84663" lon="4.82545">
        <ele>232</ele>
        <time>2013-01-06T10:56:01Z</time>
      </trkpt>
      <trkpt lat="45.84661" lon="4.82544">
        <ele>232</ele>
        <time>2013-01-06T10:56:05Z</time>
      </trkpt>
      <trkpt lat="45.84659" lon="4.82543">
        <ele>232</ele>
        <time>2013-01-06T10:56:07Z</time>
      </trkpt>
      <trkpt lat="45.84658" lon="4.82543">
        <ele>232</ele>
        <time>2013-01-06T10:56:09Z</time>
      </trkpt>
      <trkpt lat="45.84657" lon="4.82543">
        <ele>232</ele>
        <time>2013-01-06T10:56:11Z</time>
      </trkpt>
      <trkpt lat="45.84654" lon="4.82543">
        <ele>232</ele>
        <time>2013-01-06T10:56:14Z</time>
      </trkpt>
      <trkpt lat="45.8465" lon="4.82541">
        <ele>232</ele>
        <time>2013-01-06T10:56:19Z</time>
      </trkpt>
      <trkpt lat="45.84649" lon="4.82542">
        <ele>232</ele>
        <time>2013-01-06T10:56:21Z</time>
      </trkpt>
      <trkpt lat="45.84646" lon="4.82543">
        <ele>232</ele>
        <time>2013-01-06T10:56:24Z</time>
      </trkpt>
      <trkpt lat="45.84644" lon="4.82543">
        <ele>231</ele>
        <time>2013-01-06T10:56:26Z</time>
      </trkpt>
      <trkpt lat="45.84643" lon="4.82543">
        <ele>231</ele>
        <time>2013-01-06T10:56:31Z</time>
      </trkpt>
      <trkpt lat="45.84641" lon="4.82541">
        <ele>231</ele>
        <time>2013-01-06T10:56:36Z</time>
      </trkpt>
      <trkpt lat="45.8464" lon="4.8254">
        <ele>231</ele>
        <time>2013-01-06T10:56:37Z</time>
      </trkpt>
      <trkpt lat="45.84637" lon="4.82548">
        <ele>231</ele>
        <time>2013-01-06T10:57:45Z</time>
      </trkpt>
      <trkpt lat="45.84633" lon="4.8256">
        <ele>230</ele>
        <time>2013-01-06T10:57:49Z</time>
      </trkpt>
      <trkpt lat="45.84629" lon="4.8257">
        <ele>229</ele>
        <time>2013-01-06T10:57:52Z</time>
      </trkpt>
      <trkpt lat="45.8462" lon="4.82575">
        <ele>228</ele>
        <time>2013-01-06T10:57:56Z</time>
      </trkpt>
      <trkpt lat="45.84605" lon="4.82575">
        <ele>226</ele>
        <time>2013-01-06T10:58:01Z</time>
      </trkpt>
      <trkpt lat="45.84599" lon="4.82575">
        <ele>225</ele>
        <time>2013-01-06T10:58:03Z</time>
      </trkpt>
      <trkpt lat="45.8459" lon="4.82577">
        <ele>223</ele>
        <time>2013-01-06T10:58:06Z</time>
      </trkpt>
      <trkpt lat="45.8458" lon="4.82578">
        <ele>219</ele>
        <time>2013-01-06T10:58:09Z</time>
      </trkpt>
      <trkpt lat="45.84578" lon="4.8258">
        <ele>219</ele>
        <time>2013-01-06T10:58:10Z</time>
      </trkpt>
      <trkpt lat="45.84569" lon="4.82588">
        <ele>215</ele>
        <time>2013-01-06T10:58:14Z</time>
      </trkpt>
      <trkpt lat="45.84566" lon="4.82597">
        <ele>213</ele>
        <time>2013-01-06T10:58:16Z</time>
      </trkpt>
      <trkpt lat="45.84563" lon="4.82602">
        <ele>212</ele>
        <time>2013-01-06T10:58:18Z</time>
      </trkpt>
      <trkpt lat="45.84559" lon="4.82621">
        <ele>210</ele>
        <time>2013-01-06T10:58:22Z</time>
      </trkpt>
      <trkpt lat="45.84557" lon="4.82642">
        <ele>208</ele>
        <time>2013-01-06T10:58:27Z</time>
      </trkpt>
      <trkpt lat="45.84555" lon="4.8265">
        <ele>208</ele>
        <time>2013-01-06T10:58:29Z</time>
      </trkpt>
      <trkpt lat="45.84553" lon="4.82667">
        <ele>201</ele>
        <time>2013-01-06T10:58:33Z</time>
      </trkpt>
      <trkpt lat="45.84552" lon="4.8268">
        <ele>201</ele>
        <time>2013-01-06T10:58:36Z</time>
      </trkpt>
      <trkpt lat="45.84551" lon="4.82685">
        <ele>200</ele>
        <time>2013-01-06T10:58:37Z</time>
      </trkpt>
      <trkpt lat="45.8455" lon="4.82699">
        <ele>199</ele>
        <time>2013-01-06T10:58:41Z</time>
      </trkpt>
      <trkpt lat="45.84551" lon="4.82708">
        <ele>199</ele>
        <time>2013-01-06T10:58:43Z</time>
      </trkpt>
      <trkpt lat="45.84553" lon="4.82728">
        <ele>198</ele>
        <time>2013-01-06T10:58:48Z</time>
      </trkpt>
      <trkpt lat="45.84553" lon="4.82736">
        <ele>197</ele>
        <time>2013-01-06T10:58:50Z</time>
      </trkpt>
      <trkpt lat="45.84553" lon="4.82747">
        <ele>197</ele>
        <time>2013-01-06T10:58:53Z</time>
      </trkpt>
      <trkpt lat="45.84553" lon="4.82763">
        <ele>191</ele>
        <time>2013-01-06T10:58:57Z</time>
      </trkpt>
      <trkpt lat="45.84553" lon="4.82771">
        <ele>191</ele>
        <time>2013-01-06T10:58:59Z</time>
      </trkpt>
      <trkpt lat="45.84551" lon="4.82792">
        <ele>189</ele>
        <time>2013-01-06T10:59:04Z</time>
      </trkpt>
      <trkpt lat="45.84551" lon="4.82796">
        <ele>189</ele>
        <time>2013-01-06T10:59:05Z</time>
      </trkpt>
      <trkpt lat="45.84545" lon="4.82814">
        <ele>188</ele>
        <time>2013-01-06T10:59:10Z</time>
      </trkpt>
      <trkpt lat="45.84544" lon="4.82818">
        <ele>188</ele>
        <time>2013-01-06T10:59:11Z</time>
      </trkpt>
      <trkpt lat="45.84541" lon="4.82829">
        <ele>187</ele>
        <time>2013-01-06T10:59:14Z</time>
      </trkpt>
      <trkpt lat="45.84538" lon="4.82847">
        <ele>183</ele>
        <time>2013-01-06T10:59:18Z</time>
      </trkpt>
      <trkpt lat="45.84538" lon="4.82851">
        <ele>182</ele>
        <time>2013-01-06T10:59:19Z</time>
      </trkpt>
      <trkpt lat="45.84537" lon="4.82861">
        <ele>182</ele>
        <time>2013-01-06T10:59:22Z</time>
      </trkpt>
      <trkpt lat="45.84538" lon="4.82865">
        <ele>182</ele>
        <time>2013-01-06T10:59:24Z</time>
      </trkpt>
      <trkpt lat="45.84545" lon="4.82866">
        <ele>182</ele>
        <time>2013-01-06T10:59:28Z</time>
      </trkpt>
      <trkpt lat="45.84547" lon="4.82867">
        <ele>182</ele>
        <time>2013-01-06T10:59:29Z</time>
      </trkpt>
      <trkpt lat="45.84556" lon="4.82879">
        <ele>182</ele>
        <time>2013-01-06T10:59:34Z</time>
      </trkpt>
      <trkpt lat="45.84558" lon="4.82884">
        <ele>181</ele>
        <time>2013-01-06T10:59:36Z</time>
      </trkpt>
      <trkpt lat="45.84567" lon="4.82895">
        <ele>181</ele>
        <time>2013-01-06T10:59:40Z</time>
      </trkpt>
      <trkpt lat="45.84573" lon="4.82902">
        <ele>180</ele>
        <time>2013-01-06T10:59:43Z</time>
      </trkpt>
      <trkpt lat="45.84574" lon="4.82905">
        <ele>180</ele>
        <time>2013-01-06T10:59:44Z</time>
      </trkpt>
      <trkpt lat="45.84574" lon="4.82909">
        <ele>179</ele>
        <time>2013-01-06T10:59:45Z</time>
      </trkpt>
      <trkpt lat="45.84576" lon="4.82916">
        <ele>179</ele>
        <time>2013-01-06T10:59:49Z</time>
      </trkpt>
      <trkpt lat="45.84575" lon="4.82917">
        <ele>178</ele>
        <time>2013-01-06T10:59:50Z</time>
      </trkpt>
      <trkpt lat="45.84577" lon="4.82918">
        <ele>178</ele>
        <time>2013-01-06T10:59:51Z</time>
      </trkpt>
      <trkpt lat="45.84574" lon="4.82926">
        <ele>177</ele>
        <time>2013-01-06T10:59:55Z</time>
      </trkpt>
      <trkpt lat="45.84573" lon="4.82928">
        <ele>177</ele>
        <time>2013-01-06T10:59:56Z</time>
      </trkpt>
      <trkpt lat="45.84572" lon="4.8293">
        <ele>177</ele>
        <time>2013-01-06T10:59:57Z</time>
      </trkpt>
      <trkpt lat="45.84568" lon="4.82939">
        <ele>177</ele>
        <time>2013-01-06T11:00:00Z</time>
      </trkpt>
      <trkpt lat="45.84567" lon="4.82953">
        <ele>176</ele>
        <time>2013-01-06T11:00:03Z</time>
      </trkpt>
      <trkpt lat="45.84566" lon="4.82962">
        <ele>176</ele>
        <time>2013-01-06T11:00:05Z</time>
      </trkpt>
      <trkpt lat="45.84569" lon="4.82982">
        <ele>175</ele>
        <time>2013-01-06T11:00:10Z</time>
      </trkpt>
      <trkpt lat="45.84577" lon="4.82998">
        <ele>173</ele>
        <time>2013-01-06T11:00:15Z</time>
      </trkpt>
      <trkpt lat="45.84577" lon="4.83003">
        <ele>172</ele>
        <time>2013-01-06T11:00:16Z</time>
      </trkpt>
      <trkpt lat="45.8458" lon="4.83018">
        <ele>172</ele>
        <time>2013-01-06T11:00:20Z</time>
      </trkpt>
    </trkseg>
  </trk>
</gpx>